Wetterdaten: Mittwoch, 03.01.2018
Datum Zeit Temp. A. Pool Temp. Feuchte A. Luftdruck Regen Wind Richtung Richtung Sonnenschein ET UV Solar Taupunkt Windchill Windben Empfang
03.01.2018 00:00 2,8 C 3,9 C 84 % 1014,7 hPa 0,0 l/m 6,4 km/h (2 Bft) S-SW 202 0 min 0,025 mm 0,0 UV-I 0 W/m 0,4 C 2,8 C 8,0 km/h (2 Bft) 100,00 %
03.01.2018 00:01 2,8 C 3,9 C 84 % 1014,6 hPa 0,0 l/m 6,4 km/h (2 Bft) S-SW 202 0 min 0,000 mm 0,0 UV-I 0 W/m 0,4 C 2,8 C 8,0 km/h (2 Bft) 95,65 %
03.01.2018 00:02 2,8 C 3,9 C 85 % 1014,6 hPa 0,0 l/m 6,4 km/h (2 Bft) S-SW 202 0 min 0,000 mm 0,0 UV-I 0 W/m 0,5 C 2,8 C 6,4 km/h (2 Bft) 95,65 %
03.01.2018 00:03 2,8 C 3,9 C 85 % 1014,6 hPa 0,0 l/m 6,4 km/h (2 Bft) S-SW 202 0 min 0,000 mm 0,0 UV-I 0 W/m 0,5 C 2,8 C 9,7 km/h (2 Bft) 100,00 %
03.01.2018 00:04 2,8 C 3,9 C 85 % 1014,5 hPa 0,0 l/m 6,4 km/h (2 Bft) SW 225 0 min 0,000 mm 0,0 UV-I 0 W/m 0,5 C 2,8 C 11,3 km/h (2 Bft) 95,65 %
03.01.2018 00:05 2,8 C 3,9 C 85 % 1014,5 hPa 0,0 l/m 8,0 km/h (2 Bft) S-SW 202 0 min 0,000 mm 0,0 UV-I 0 W/m 0,5 C 1,3 C 11,3 km/h (2 Bft) 100,00 %
03.01.2018 00:06 2,9 C 3,9 C 84 % 1014,5 hPa 0,0 l/m 8,0 km/h (2 Bft) S-SW 202 0 min 0,000 mm 0,0 UV-I 0 W/m 0,5 C 1,4 C 9,7 km/h (2 Bft) 100,00 %
03.01.2018 00:07 2,9 C 3,9 C 84 % 1014,4 hPa 0,0 l/m 6,4 km/h (2 Bft) S-SW 202 0 min 0,000 mm 0,0 UV-I 0 W/m 0,5 C 2,9 C 9,7 km/h (2 Bft) 100,00 %
03.01.2018 00:08 2,9 C 3,9 C 84 % 1014,5 hPa 0,0 l/m 9,7 km/h (2 Bft) S-SW 202 0 min 0,000 mm 0,0 UV-I 0 W/m 0,5 C -0,0 C 12,9 km/h (3 Bft) 100,00 %
03.01.2018 00:09 3,0 C 3,9 C 84 % 1014,4 hPa 0,0 l/m 6,4 km/h (2 Bft) S-SW 202 0 min 0,000 mm 0,0 UV-I 0 W/m 0,6 C 3,0 C 9,7 km/h (2 Bft) 95,65 %
03.01.2018 00:10 3,1 C 3,9 C 84 % 1014,4 hPa 0,0 l/m 8,0 km/h (2 Bft) S-SW 202 0 min 0,000 mm 0,0 UV-I 0 W/m 0,7 C 1,6 C 11,3 km/h (2 Bft) 100,00 %
03.01.2018 00:11 3,1 C 3,9 C 83 % 1014,4 hPa 0,0 l/m 4,8 km/h (1 Bft) S-SW 202 0 min 0,000 mm 0,0 UV-I 0 W/m 0,5 C 3,1 C 8,0 km/h (2 Bft) 100,00 %
03.01.2018 00:12 3,1 C 3,9 C 83 % 1014,3 hPa 0,0 l/m 4,8 km/h (1 Bft) S 180 0 min 0,000 mm 0,0 UV-I 0 W/m 0,5 C 3,1 C 6,4 km/h (2 Bft) 100,00 %
03.01.2018 00:13 3,1 C 3,9 C 83 % 1014,3 hPa 0,0 l/m 3,2 km/h (1 Bft) S-SW 202 0 min 0,000 mm 0,0 UV-I 0 W/m 0,5 C 3,1 C 4,8 km/h (1 Bft) 100,00 %
03.01.2018 00:14 3,1 C 3,9 C 83 % 1014,3 hPa 0,0 l/m 4,8 km/h (1 Bft) S-SW 202 0 min 0,000 mm 0,0 UV-I 0 W/m 0,5 C 3,1 C 6,4 km/h (2 Bft) 100,00 %
03.01.2018 00:15 3,0 C 3,9 C 83 % 1014,2 hPa 0,0 l/m 4,8 km/h (1 Bft) S-SW 202 0 min 0,000 mm 0,0 UV-I 0 W/m 0,4 C 3,0 C 6,4 km/h (2 Bft) 100,00 %
03.01.2018 00:16 3,0 C 3,9 C 83 % 1014,2 hPa 0,0 l/m 4,8 km/h (1 Bft) S-SW 202 0 min 0,000 mm 0,0 UV-I 0 W/m 0,4 C 3,0 C 6,4 km/h (2 Bft) 95,65 %
03.01.2018 00:17 2,9 C 3,9 C 84 % 1014,2 hPa 0,0 l/m 3,2 km/h (1 Bft) S-SW 202 0 min 0,000 mm 0,0 UV-I 0 W/m 0,5 C 2,9 C 4,8 km/h (1 Bft) 100,00 %
03.01.2018 00:18 2,9 C 3,9 C 84 % 1014,2 hPa 0,0 l/m 4,8 km/h (1 Bft) S-SW 202 0 min 0,000 mm 0,0 UV-I 0 W/m 0,5 C 2,9 C 4,8 km/h (1 Bft) 100,00 %
03.01.2018 00:19 2,9 C 3,9 C 84 % 1014,2 hPa 0,0 l/m 4,8 km/h (1 Bft) S-SW 202 0 min 0,000 mm 0,0 UV-I 0 W/m 0,5 C 2,9 C 6,4 km/h (2 Bft) 100,00 %
03.01.2018 00:20 2,9 C 3,9 C 84 % 1014,1 hPa 0,0 l/m 3,2 km/h (1 Bft) S-SW 202 0 min 0,000 mm 0,0 UV-I 0 W/m 0,5 C 2,9 C 4,8 km/h (1 Bft) 100,00 %
03.01.2018 00:21 2,9 C 3,9 C 84 % 1014,0 hPa 0,0 l/m 3,2 km/h (1 Bft) S-SW 202 0 min 0,000 mm 0,0 UV-I 0 W/m 0,5 C 2,9 C 3,2 km/h (1 Bft) 100,00 %
03.01.2018 00:22 2,9 C 3,9 C 84 % 1014,0 hPa 0,0 l/m 3,2 km/h (1 Bft) S-SW 202 0 min 0,000 mm 0,0 UV-I 0 W/m 0,5 C 2,9 C 4,8 km/h (1 Bft) 100,00 %
03.01.2018 00:23 3,0 C 3,9 C 84 % 1014,0 hPa 0,0 l/m 3,2 km/h (1 Bft) S-SW 202 0 min 0,000 mm 0,0 UV-I 0 W/m 0,6 C 3,0 C 4,8 km/h (1 Bft) 95,65 %
03.01.2018 00:24 2,9 C 3,9 C 84 % 1014,0 hPa 0,0 l/m 3,2 km/h (1 Bft) S-SW 202 0 min 0,000 mm 0,0 UV-I 0 W/m 0,5 C 2,9 C 4,8 km/h (1 Bft) 100,00 %
03.01.2018 00:25 3,0 C 3,9 C 83 % 1014,0 hPa 0,0 l/m 1,6 km/h (1 Bft) S-SW 202 0 min 0,000 mm 0,0 UV-I 0 W/m 0,4 C 3,0 C 3,2 km/h (1 Bft) 95,65 %
03.01.2018 00:26 3,1 C 3,9 C 83 % 1014,0 hPa 0,0 l/m 1,6 km/h (1 Bft) S-SW 202 0 min 0,000 mm 0,0 UV-I 0 W/m 0,5 C 3,1 C 3,2 km/h (1 Bft) 100,00 %
03.01.2018 00:27 3,1 C 3,9 C 83 % 1013,9 hPa 0,0 l/m 1,6 km/h (1 Bft) S-SW 202 0 min 0,000 mm 0,0 UV-I 0 W/m 0,5 C 3,1 C 3,2 km/h (1 Bft) 100,00 %
03.01.2018 00:28 3,1 C 3,9 C 83 % 1013,9 hPa 0,0 l/m 1,6 km/h (1 Bft) S-SW 202 0 min 0,000 mm 0,0 UV-I 0 W/m 0,5 C 3,1 C 3,2 km/h (1 Bft) 100,00 %
03.01.2018 00:29 3,1 C 3,9 C 83 % 1013,9 hPa 0,0 l/m 1,6 km/h (1 Bft) S-SW 202 0 min 0,000 mm 0,0 UV-I 0 W/m 0,5 C 3,1 C 3,2 km/h (1 Bft) 100,00 %
03.01.2018 00:30 3,1 C 3,9 C 83 % 1013,8 hPa 0,0 l/m 1,6 km/h (1 Bft) S-SW 202 0 min 0,000 mm 0,0 UV-I 0 W/m 0,5 C 3,1 C 3,2 km/h (1 Bft) 100,00 %
03.01.2018 00:31 3,1 C 3,9 C 83 % 1013,8 hPa 0,0 l/m 1,6 km/h (1 Bft) S-SW 202 0 min 0,000 mm 0,0 UV-I 0 W/m 0,5 C 3,1 C 3,2 km/h (1 Bft) 95,65 %
03.01.2018 00:32 3,0 C 3,9 C 83 % 1013,8 hPa 0,0 l/m 3,2 km/h (1 Bft) S-SW 202 0 min 0,000 mm 0,0 UV-I 0 W/m 0,4 C 3,0 C 3,2 km/h (1 Bft) 100,00 %
03.01.2018 00:33 2,9 C 3,9 C 84 % 1013,8 hPa 0,0 l/m 1,6 km/h (1 Bft) S-SW 202 0 min 0,000 mm 0,0 UV-I 0 W/m 0,5 C 2,9 C 3,2 km/h (1 Bft) 100,00 %
03.01.2018 00:34 2,9 C 3,9 C 84 % 1013,7 hPa 0,0 l/m 1,6 km/h (1 Bft) S-SW 202 0 min 0,000 mm 0,0 UV-I 0 W/m 0,5 C 2,9 C 3,2 km/h (1 Bft) 95,65 %
03.01.2018 00:35 2,9 C 3,9 C 84 % 1013,7 hPa 0,0 l/m 1,6 km/h (1 Bft) S-SW 202 0 min 0,000 mm 0,0 UV-I 0 W/m 0,5 C 2,9 C 3,2 km/h (1 Bft) 100,00 %
03.01.2018 00:36 2,8 C 3,9 C 84 % 1013,6 hPa 0,0 l/m 1,6 km/h (1 Bft) S-SW 202 0 min 0,000 mm 0,0 UV-I 0 W/m 0,4 C 2,8 C 3,2 km/h (1 Bft) 95,65 %
03.01.2018 00:37 2,7 C 3,9 C 85 % 1013,6 hPa 0,0 l/m 1,6 km/h (1 Bft) S-SW 202 0 min 0,000 mm 0,0 UV-I 0 W/m 0,4 C 2,7 C 3,2 km/h (1 Bft) 95,65 %
03.01.2018 00:38 2,6 C 3,9 C 85 % 1013,6 hPa 0,0 l/m 1,6 km/h (1 Bft) S-SW 202 0 min 0,000 mm 0,0 UV-I 0 W/m 0,3 C 2,6 C 3,2 km/h (1 Bft) 95,65 %
03.01.2018 00:39 2,4 C 3,9 C 86 % 1013,6 hPa 0,0 l/m 1,6 km/h (1 Bft) S-SW 202 0 min 0,000 mm 0,0 UV-I 0 W/m 0,3 C 2,4 C 3,2 km/h (1 Bft) 95,65 %
03.01.2018 00:40 2,3 C 3,9 C 87 % 1013,5 hPa 0,0 l/m 1,6 km/h (1 Bft) S-SW 202 0 min 0,000 mm 0,0 UV-I 0 W/m 0,4 C 2,3 C 3,2 km/h (1 Bft) 95,65 %
03.01.2018 00:41 2,3 C 3,9 C 87 % 1013,5 hPa 0,0 l/m 0,0 km/h (0 Bft) S-SW 202 0 min 0,000 mm 0,0 UV-I 0 W/m 0,4 C 2,3 C 1,6 km/h (1 Bft) 100,00 %
03.01.2018 00:42 2,2 C 3,9 C 87 % 1013,5 hPa 0,0 l/m 1,6 km/h (1 Bft) S-SW 202 0 min 0,000 mm 0,0 UV-I 0 W/m 0,3 C 2,2 C 3,2 km/h (1 Bft) 91,30 %
03.01.2018 00:43 2,1 C 3,9 C 88 % 1013,5 hPa 0,0 l/m 1,6 km/h (1 Bft) S-SW 202 0 min 0,000 mm 0,0 UV-I 0 W/m 0,3 C 2,1 C 3,2 km/h (1 Bft) 100,00 %
03.01.2018 00:44 2,1 C 3,9 C 88 % 1013,5 hPa 0,0 l/m 1,6 km/h (1 Bft) S-SW 202 0 min 0,000 mm 0,0 UV-I 0 W/m 0,3 C 2,1 C 1,6 km/h (1 Bft) 86,96 %
03.01.2018 00:45 2,0 C 3,9 C 88 % 1013,4 hPa 0,0 l/m 1,6 km/h (1 Bft) S-SW 202 0 min 0,000 mm 0,0 UV-I 0 W/m 0,2 C 2,0 C 1,6 km/h (1 Bft) 100,00 %
03.01.2018 00:46 2,0 C 3,9 C 88 % 1013,4 hPa 0,0 l/m 1,6 km/h (1 Bft) S-SW 202 0 min 0,000 mm 0,0 UV-I 0 W/m 0,2 C 2,0 C 3,2 km/h (1 Bft) 95,65 %
03.01.2018 00:47 2,0 C 3,9 C 88 % 1013,3 hPa 0,0 l/m 1,6 km/h (1 Bft) S-SW 202 0 min 0,000 mm 0,0 UV-I 0 W/m 0,2 C 2,0 C 3,2 km/h (1 Bft) 95,65 %
03.01.2018 00:48 1,9 C 3,9 C 88 % 1013,3 hPa 0,0 l/m 0,0 km/h (0 Bft) S-SW 202 0 min 0,000 mm 0,0 UV-I 0 W/m 0,1 C 1,9 C 1,6 km/h (1 Bft) 100,00 %
03.01.2018 00:49 1,8 C 3,9 C 89 % 1013,3 hPa 0,0 l/m 0,0 km/h (0 Bft) S-SW 202 0 min 0,000 mm 0,0 UV-I 0 W/m 0,2 C 1,8 C 1,6 km/h (1 Bft) 95,65 %
03.01.2018 00:50 1,9 C 3,9 C 89 % 1013,3 hPa 0,0 l/m 1,6 km/h (1 Bft) S-SW 202 0 min 0,000 mm 0,0 UV-I 0 W/m 0,3 C 1,9 C 1,6 km/h (1 Bft) 100,00 %
03.01.2018 00:51 1,9 C 3,9 C 89 % 1013,3 hPa 0,0 l/m 1,6 km/h (1 Bft) S-SW 202 0 min 0,000 mm 0,0 UV-I 0 W/m 0,3 C 1,9 C 1,6 km/h (1 Bft) 86,96 %
03.01.2018 00:52 2,0 C 3,9 C 89 % 1013,3 hPa 0,0 l/m 1,6 km/h (1 Bft) S-SW 202 0 min 0,000 mm 0,0 UV-I 0 W/m 0,4 C 2,0 C 1,6 km/h (1 Bft) 100,00 %
03.01.2018 00:53 1,9 C 3,9 C 89 % 1013,2 hPa 0,0 l/m 0,0 km/h (0 Bft) S-SW 202 0 min 0,000 mm 0,0 UV-I 0 W/m 0,3 C 1,9 C 1,6 km/h (1 Bft) 91,30 %
03.01.2018 00:54 1,9 C 3,9 C 88 % 1013,2 hPa 0,0 l/m 0,0 km/h (0 Bft) S-SW 202 0 min 0,000 mm 0,0 UV-I 0 W/m 0,1 C 1,9 C 1,6 km/h (1 Bft) 100,00 %
03.01.2018 00:55 1,8 C 3,9 C 89 % 1013,2 hPa 0,0 l/m 0,0 km/h (0 Bft) N 0 0 min 0,000 mm 0,0 UV-I 0 W/m 0,2 C 1,8 C 0,0 km/h (0 Bft) 95,65 %
03.01.2018 00:56 1,8 C 3,9 C 89 % 1013,2 hPa 0,0 l/m 0,0 km/h (0 Bft) S-SW 202 0 min 0,000 mm 0,0 UV-I 0 W/m 0,2 C 1,8 C 1,6 km/h (1 Bft) 100,00 %
03.01.2018 00:57 1,9 C 3,9 C 89 % 1013,2 hPa 0,0 l/m 0,0 km/h (0 Bft) S-SW 202 0 min 0,000 mm 0,0 UV-I 0 W/m 0,3 C 1,9 C 1,6 km/h (1 Bft) 91,30 %
03.01.2018 00:58 1,9 C 3,9 C 88 % 1013,2 hPa 0,0 l/m 0,0 km/h (0 Bft) N 0 0 min 0,000 mm 0,0 UV-I 0 W/m 0,1 C 1,9 C 0,0 km/h (0 Bft) 95,65 %
03.01.2018 00:59 1,8 C 3,9 C 89 % 1013,2 hPa 0,0 l/m 0,0 km/h (0 Bft) N 0 0 min 0,000 mm 0,0 UV-I 0 W/m 0,2 C 1,8 C 0,0 km/h (0 Bft) 100,00 %
03.01.2018 01:00 1,8 C 3,9 C 89 % 1013,2 hPa 0,0 l/m 0,0 km/h (0 Bft) S-SW 202 0 min 0,000 mm 0,0 UV-I 0 W/m 0,2 C 1,8 C 1,6 km/h (1 Bft) 100,00 %
03.01.2018 01:01 1,7 C 3,9 C 89 % 1013,2 hPa 0,0 l/m 1,6 km/h (1 Bft) S-SW 202 0 min 0,000 mm 0,0 UV-I 0 W/m 0,1 C 1,7 C 3,2 km/h (1 Bft) 95,65 %
03.01.2018 01:02 1,7 C 3,9 C 89 % 1013,2 hPa 0,0 l/m 1,6 km/h (1 Bft) S-SW 202 0 min 0,000 mm 0,0 UV-I 0 W/m 0,1 C 1,7 C 3,2 km/h (1 Bft) 100,00 %
03.01.2018 01:03 1,7 C 3,9 C 89 % 1013,3 hPa 0,0 l/m 1,6 km/h (1 Bft) S-SW 202 0 min 0,000 mm 0,0 UV-I 0 W/m 0,1 C 1,7 C 1,6 km/h (1 Bft) 100,00 %
03.01.2018 01:04 1,7 C 3,9 C 90 % 1013,2 hPa 0,0 l/m 0,0 km/h (0 Bft) N 0 0 min 0,000 mm 0,0 UV-I 0 W/m 0,2 C 1,7 C 0,0 km/h (0 Bft) 91,30 %
03.01.2018 01:05 1,6 C 3,9 C 90 % 1013,2 hPa 0,0 l/m 0,0 km/h (0 Bft) N 0 0 min 0,000 mm 0,0 UV-I 0 W/m 0,1 C 1,6 C 0,0 km/h (0 Bft) 95,65 %
03.01.2018 01:06 1,6 C 3,9 C 90 % 1013,2 hPa 0,0 l/m 0,0 km/h (0 Bft) N 0 0 min 0,000 mm 0,0 UV-I 0 W/m 0,1 C 1,6 C 0,0 km/h (0 Bft) 91,30 %
03.01.2018 01:07 1,4 C 3,9 C 90 % 1013,2 hPa 0,0 l/m 0,0 km/h (0 Bft) N 0 0 min 0,000 mm 0,0 UV-I 0 W/m -0,1 C 1,4 C 0,0 km/h (0 Bft) 100,00 %
03.01.2018 01:08 1,3 C 3,9 C 90 % 1013,2 hPa 0,0 l/m 0,0 km/h (0 Bft) N 0 0 min 0,000 mm 0,0 UV-I 0 W/m -0,2 C 1,3 C 0,0 km/h (0 Bft) 100,00 %
03.01.2018 01:09 1,2 C 3,9 C 90 % 1013,2 hPa 0,0 l/m 0,0 km/h (0 Bft) N 0 0 min 0,000 mm 0,0 UV-I 0 W/m -0,3 C 1,2 C 0,0 km/h (0 Bft) 100,00 %
03.01.2018 01:10 1,1 C 3,9 C 90 % 1013,2 hPa 0,0 l/m 0,0 km/h (0 Bft) N 0 0 min 0,000 mm 0,0 UV-I 0 W/m -0,4 C 1,1 C 0,0 km/h (0 Bft) 95,65 %
03.01.2018 01:11 1,0 C 3,9 C 91 % 1013,2 hPa 0,0 l/m 0,0 km/h (0 Bft) S-SW 202 0 min 0,000 mm 0,0 UV-I 0 W/m -0,3 C 1,0 C 1,6 km/h (1 Bft) 100,00 %
03.01.2018 01:12 1,0 C 3,9 C 91 % 1013,2 hPa 0,0 l/m 1,6 km/h (1 Bft) S-SW 202 0 min 0,000 mm 0,0 UV-I 0 W/m -0,3 C 1,0 C 3,2 km/h (1 Bft) 91,30 %
03.01.2018 01:13 1,2 C 3,9 C 92 % 1013,2 hPa 0,0 l/m 1,6 km/h (1 Bft) S-SW 202 0 min 0,000 mm 0,0 UV-I 0 W/m 0,0 C 1,2 C 3,2 km/h (1 Bft) 95,65 %
03.01.2018 01:14 1,3 C 3,9 C 92 % 1013,2 hPa 0,0 l/m 1,6 km/h (1 Bft) S-SW 202 0 min 0,000 mm 0,0 UV-I 0 W/m 0,1 C 1,3 C 3,2 km/h (1 Bft) 100,00 %
03.01.2018 01:15 1,4 C 3,9 C 92 % 1013,2 hPa 0,0 l/m 1,6 km/h (1 Bft) S-SW 202 0 min 0,000 mm 0,0 UV-I 0 W/m 0,2 C 1,4 C 1,6 km/h (1 Bft) 95,65 %
03.01.2018 01:16 1,4 C 3,9 C 91 % 1013,1 hPa 0,0 l/m 1,6 km/h (1 Bft) S-SW 202 0 min 0,000 mm 0,0 UV-I 0 W/m 0,1 C 1,4 C 1,6 km/h (1 Bft) 100,00 %
03.01.2018 01:17 1,3 C 3,9 C 91 % 1013,1 hPa 0,0 l/m 0,0 km/h (0 Bft) S-SW 202 0 min 0,000 mm 0,0 UV-I 0 W/m -0,0 C 1,3 C 1,6 km/h (1 Bft) 95,65 %
03.01.2018 01:18 1,3 C 3,9 C 91 % 1013,1 hPa 0,0 l/m 1,6 km/h (1 Bft) S-SW 202 0 min 0,000 mm 0,0 UV-I 0 W/m -0,0 C 1,3 C 1,6 km/h (1 Bft) 100,00 %
03.01.2018 01:19 1,3 C 3,9 C 91 % 1013,1 hPa 0,0 l/m 0,0 km/h (0 Bft) S-SW 202 0 min 0,000 mm 0,0 UV-I 0 W/m -0,0 C 1,3 C 1,6 km/h (1 Bft) 91,30 %
03.01.2018 01:20 1,3 C 3,9 C 91 % 1013,0 hPa 0,0 l/m 0,0 km/h (0 Bft) N 0 0 min 0,000 mm 0,0 UV-I 0 W/m -0,0 C 1,3 C 0,0 km/h (0 Bft) 100,00 %
03.01.2018 01:21 1,2 C 3,9 C 91 % 1013,0 hPa 0,0 l/m 0,0 km/h (0 Bft) N 0 0 min 0,000 mm 0,0 UV-I 0 W/m -0,1 C 1,2 C 0,0 km/h (0 Bft) 95,65 %
03.01.2018 01:22 1,2 C 3,9 C 91 % 1013,0 hPa 0,0 l/m 0,0 km/h (0 Bft) S-SW 202 0 min 0,000 mm 0,0 UV-I 0 W/m -0,1 C 1,2 C 1,6 km/h (1 Bft) 95,65 %
03.01.2018 01:23 1,0 C 3,9 C 91 % 1012,9 hPa 0,0 l/m 1,6 km/h (1 Bft) S-SW 202 0 min 0,000 mm 0,0 UV-I 0 W/m -0,3 C 1,0 C 3,2 km/h (1 Bft) 100,00 %
03.01.2018 01:24 0,9 C 3,9 C 91 % 1012,9 hPa 0,0 l/m 1,6 km/h (1 Bft) S-SW 202 0 min 0,000 mm 0,0 UV-I 0 W/m -0,4 C 0,9 C 3,2 km/h (1 Bft) 95,65 %
03.01.2018 01:25 0,9 C 3,9 C 91 % 1012,9 hPa 0,0 l/m 1,6 km/h (1 Bft) S-SW 202 0 min 0,000 mm 0,0 UV-I 0 W/m -0,4 C 0,9 C 3,2 km/h (1 Bft) 100,00 %
03.01.2018 01:26 0,8 C 3,9 C 91 % 1012,9 hPa 0,0 l/m 3,2 km/h (1 Bft) S-SW 202 0 min 0,000 mm 0,0 UV-I 0 W/m -0,5 C 0,8 C 3,2 km/h (1 Bft) 91,30 %
03.01.2018 01:27 0,7 C 3,9 C 91 % 1012,9 hPa 0,0 l/m 1,6 km/h (1 Bft) S-SW 202 0 min 0,000 mm 0,0 UV-I 0 W/m -0,6 C 0,7 C 3,2 km/h (1 Bft) 100,00 %
03.01.2018 01:28 0,6 C 3,9 C 92 % 1012,9 hPa 0,0 l/m 1,6 km/h (1 Bft) S-SW 202 0 min 0,000 mm 0,0 UV-I 0 W/m -0,5 C 0,6 C 3,2 km/h (1 Bft) 91,30 %
03.01.2018 01:29 0,5 C 3,9 C 92 % 1012,8 hPa 0,0 l/m 1,6 km/h (1 Bft) S-SW 202 0 min 0,000 mm 0,0 UV-I 0 W/m -0,6 C 0,5 C 1,6 km/h (1 Bft) 95,65 %
03.01.2018 01:30 0,4 C 3,9 C 92 % 1012,8 hPa 0,0 l/m 1,6 km/h (1 Bft) S-SW 202 0 min 0,000 mm 0,0 UV-I 0 W/m -0,7 C 0,4 C 1,6 km/h (1 Bft) 100,00 %
03.01.2018 01:31 0,4 C 3,9 C 92 % 1012,8 hPa 0,0 l/m 1,6 km/h (1 Bft) S-SW 202 0 min 0,000 mm 0,0 UV-I 0 W/m -0,7 C 0,4 C 1,6 km/h (1 Bft) 95,65 %
03.01.2018 01:32 0,3 C 3,9 C 92 % 1012,8 hPa 0,0 l/m 1,6 km/h (1 Bft) S-SW 202 0 min 0,000 mm 0,0 UV-I 0 W/m -0,8 C 0,3 C 3,2 km/h (1 Bft) 100,00 %
03.01.2018 01:33 0,3 C 3,9 C 93 % 1012,7 hPa 0,0 l/m 3,2 km/h (1 Bft) S-SW 202 0 min 0,000 mm 0,0 UV-I 0 W/m -0,7 C 0,3 C 3,2 km/h (1 Bft) 91,30 %
03.01.2018 01:34 0,3 C 3,9 C 93 % 1012,7 hPa 0,0 l/m 3,2 km/h (1 Bft) S-SW 202 0 min 0,000 mm 0,0 UV-I 0 W/m -0,7 C 0,3 C 3,2 km/h (1 Bft) 100,00 %
03.01.2018 01:35 0,2 C 3,9 C 93 % 1012,6 hPa 0,0 l/m 3,2 km/h (1 Bft) S-SW 202 0 min 0,000 mm 0,0 UV-I 0 W/m -0,8 C 0,2 C 3,2 km/h (1 Bft) 91,30 %
03.01.2018 01:36 0,2 C 3,9 C 93 % 1012,6 hPa 0,0 l/m 3,2 km/h (1 Bft) S-SW 202 0 min 0,000 mm 0,0 UV-I 0 W/m -0,8 C 0,2 C 4,8 km/h (1 Bft) 100,00 %
03.01.2018 01:37 0,2 C 3,9 C 93 % 1012,6 hPa 0,0 l/m 3,2 km/h (1 Bft) S-SW 202 0 min 0,000 mm 0,0 UV-I 0 W/m -0,8 C 0,2 C 3,2 km/h (1 Bft) 95,65 %
03.01.2018 01:38 0,2 C 3,9 C 93 % 1012,6 hPa 0,0 l/m 1,6 km/h (1 Bft) S-SW 202 0 min 0,000 mm 0,0 UV-I 0 W/m -0,8 C 0,2 C 3,2 km/h (1 Bft) 95,65 %
03.01.2018 01:39 0,2 C 3,9 C 93 % 1012,5 hPa 0,0 l/m 1,6 km/h (1 Bft) S-SW 202 0 min 0,000 mm 0,0 UV-I 0 W/m -0,8 C 0,2 C 3,2 km/h (1 Bft) 100,00 %
03.01.2018 01:40 0,2 C 3,9 C 94 % 1012,5 hPa 0,0 l/m 1,6 km/h (1 Bft) S-SW 202 0 min 0,000 mm 0,0 UV-I 0 W/m -0,6 C 0,2 C 3,2 km/h (1 Bft) 91,30 %
03.01.2018 01:41 0,2 C 3,9 C 93 % 1012,5 hPa 0,0 l/m 1,6 km/h (1 Bft) S-SW 202 0 min 0,000 mm 0,0 UV-I 0 W/m -0,8 C 0,2 C 3,2 km/h (1 Bft) 100,00 %
03.01.2018 01:42 0,1 C 3,9 C 93 % 1012,5 hPa 0,0 l/m 3,2 km/h (1 Bft) S-SW 202 0 min 0,000 mm 0,0 UV-I 0 W/m -0,9 C 0,1 C 3,2 km/h (1 Bft) 95,65 %
03.01.2018 01:43 0,1 C 3,9 C 93 % 1012,5 hPa 0,0 l/m 3,2 km/h (1 Bft) S-SW 202 0 min 0,000 mm 0,0 UV-I 0 W/m -0,9 C 0,1 C 4,8 km/h (1 Bft) 100,00 %
03.01.2018 01:44 0,1 C 3,9 C 93 % 1012,5 hPa 0,0 l/m 3,2 km/h (1 Bft) S-SW 202 0 min 0,000 mm 0,0 UV-I 0 W/m -0,9 C 0,1 C 4,8 km/h (1 Bft) 95,65 %
03.01.2018 01:45 0,0 C 3,9 C 94 % 1012,4 hPa 0,0 l/m 3,2 km/h (1 Bft) S-SW 202 0 min 0,000 mm 0,0 UV-I 0 W/m -0,8 C 0,0 C 4,8 km/h (1 Bft) 100,00 %
03.01.2018 01:46 0,0 C 3,9 C 94 % 1012,4 hPa 0,0 l/m 3,2 km/h (1 Bft) S-SW 202 0 min 0,000 mm 0,0 UV-I 0 W/m -0,8 C 0,0 C 3,2 km/h (1 Bft) 95,65 %
03.01.2018 01:47 -0,1 C 3,9 C 94 % 1012,4 hPa 0,0 l/m 3,2 km/h (1 Bft) S-SW 202 0 min 0,000 mm 0,0 UV-I 0 W/m -0,9 C -0,1 C 3,2 km/h (1 Bft) 91,30 %
03.01.2018 01:48 -0,1 C 3,9 C 94 % 1012,4 hPa 0,0 l/m 3,2 km/h (1 Bft) S-SW 202 0 min 0,000 mm 0,0 UV-I 0 W/m -0,9 C -0,1 C 3,2 km/h (1 Bft) 100,00 %
03.01.2018 01:49 -0,1 C 3,9 C 94 % 1012,3 hPa 0,0 l/m 3,2 km/h (1 Bft) S-SW 202 0 min 0,000 mm 0,0 UV-I 0 W/m -0,9 C -0,1 C 3,2 km/h (1 Bft) 91,30 %
03.01.2018 01:50 -0,2 C 3,9 C 94 % 1012,3 hPa 0,0 l/m 3,2 km/h (1 Bft) S-SW 202 0 min 0,000 mm 0,0 UV-I 0 W/m -1,0 C -0,2 C 3,2 km/h (1 Bft) 100,00 %
03.01.2018 01:51 -0,2 C 3,9 C 94 % 1012,3 hPa 0,0 l/m 1,6 km/h (1 Bft) S-SW 202 0 min 0,000 mm 0,0 UV-I 0 W/m -1,0 C -0,2 C 3,2 km/h (1 Bft) 100,00 %
03.01.2018 01:52 -0,1 C 3,9 C 94 % 1012,3 hPa 0,0 l/m 1,6 km/h (1 Bft) S-SW 202 0 min 0,000 mm 0,0 UV-I 0 W/m -0,9 C -0,1 C 3,2 km/h (1 Bft) 95,65 %
03.01.2018 01:53 -0,1 C 3,9 C 94 % 1012,3 hPa 0,0 l/m 1,6 km/h (1 Bft) S-SW 202 0 min 0,000 mm 0,0 UV-I 0 W/m -0,9 C -0,1 C 3,2 km/h (1 Bft) 95,65 %
03.01.2018 01:54 -0,1 C 3,9 C 94 % 1012,3 hPa 0,0 l/m 1,6 km/h (1 Bft) S-SW 202 0 min 0,000 mm 0,0 UV-I 0 W/m -0,9 C -0,1 C 4,8 km/h (1 Bft) 95,65 %
03.01.2018 01:55 -0,1 C 3,9 C 94 % 1012,3 hPa 0,0 l/m 3,2 km/h (1 Bft) N 360 0 min 0,000 mm 0,0 UV-I 0 W/m -0,9 C -0,1 C 8,0 km/h (2 Bft) 100,00 %
03.01.2018 01:56 -0,1 C 3,9 C 94 % 1012,3 hPa 0,0 l/m 6,4 km/h (2 Bft) NO 45 0 min 0,000 mm 0,0 UV-I 0 W/m -0,9 C -0,1 C 8,0 km/h (2 Bft) 100,00 %
03.01.2018 01:57 0,0 C 3,9 C 94 % 1012,3 hPa 0,0 l/m 4,8 km/h (1 Bft) NO 45 0 min 0,000 mm 0,0 UV-I 0 W/m -0,8 C 0,0 C 6,4 km/h (2 Bft) 100,00 %
03.01.2018 01:58 0,1 C 3,9 C 95 % 1012,3 hPa 0,0 l/m 6,4 km/h (2 Bft) O-NO 67 0 min 0,000 mm 0,0 UV-I 0 W/m -0,6 C 0,1 C 8,0 km/h (2 Bft) 95,65 %
03.01.2018 01:59 0,3 C 3,9 C 95 % 1012,3 hPa 0,0 l/m 4,8 km/h (1 Bft) O-NO 67 0 min 0,000 mm 0,0 UV-I 0 W/m -0,4 C 0,3 C 8,0 km/h (2 Bft) 95,65 %
03.01.2018 02:00 0,6 C 3,9 C 95 % 1012,3 hPa 0,0 l/m 4,8 km/h (1 Bft) O-NO 67 0 min 0,000 mm 0,0 UV-I 0 W/m -0,1 C 0,6 C 6,4 km/h (2 Bft) 95,65 %
03.01.2018 02:01 0,7 C 3,9 C 95 % 1012,3 hPa 0,0 l/m 6,4 km/h (2 Bft) O-NO 67 0 min 0,000 mm 0,0 UV-I 0 W/m -0,0 C 0,7 C 6,4 km/h (2 Bft) 91,30 %
03.01.2018 02:02 0,6 C 3,9 C 94 % 1012,2 hPa 0,0 l/m 4,8 km/h (1 Bft) O 90 0 min 0,000 mm 0,0 UV-I 0 W/m -0,3 C 0,6 C 6,4 km/h (2 Bft) 100,00 %
03.01.2018 02:03 0,4 C 3,9 C 93 % 1012,2 hPa 0,0 l/m 4,8 km/h (1 Bft) O 90 0 min 0,000 mm 0,0 UV-I 0 W/m -0,6 C 0,4 C 6,4 km/h (2 Bft) 95,65 %
03.01.2018 02:04 0,3 C 3,9 C 93 % 1012,2 hPa 0,0 l/m 4,8 km/h (1 Bft) O 90 0 min 0,000 mm 0,0 UV-I 0 W/m -0,7 C 0,3 C 6,4 km/h (2 Bft) 100,00 %
03.01.2018 02:05 0,1 C 3,9 C 93 % 1012,2 hPa 0,0 l/m 3,2 km/h (1 Bft) O 90 0 min 0,000 mm 0,0 UV-I 0 W/m -0,9 C 0,1 C 4,8 km/h (1 Bft) 95,65 %
03.01.2018 02:06 0,0 C 3,9 C 93 % 1012,2 hPa 0,0 l/m 4,8 km/h (1 Bft) O 90 0 min 0,000 mm 0,0 UV-I 0 W/m -1,0 C 0,0 C 4,8 km/h (1 Bft) 95,65 %
03.01.2018 02:07 0,0 C 3,9 C 93 % 1012,1 hPa 0,0 l/m 4,8 km/h (1 Bft) O 90 0 min 0,000 mm 0,0 UV-I 0 W/m -1,0 C 0,0 C 6,4 km/h (2 Bft) 95,65 %
03.01.2018 02:08 0,0 C 3,9 C 94 % 1012,2 hPa 0,0 l/m 4,8 km/h (1 Bft) O 90 0 min 0,000 mm 0,0 UV-I 0 W/m -0,8 C 0,0 C 4,8 km/h (1 Bft) 86,96 %
03.01.2018 02:09 0,1 C 3,9 C 94 % 1012,1 hPa 0,0 l/m 3,2 km/h (1 Bft) O 90 0 min 0,000 mm 0,0 UV-I 0 W/m -0,7 C 0,1 C 4,8 km/h (1 Bft) 100,00 %
03.01.2018 02:10 0,1 C 3,9 C 94 % 1012,1 hPa 0,0 l/m 3,2 km/h (1 Bft) O 90 0 min 0,000 mm 0,0 UV-I 0 W/m -0,7 C 0,1 C 3,2 km/h (1 Bft) 95,65 %
03.01.2018 02:11 0,0 C 3,9 C 94 % 1012,1 hPa 0,0 l/m 3,2 km/h (1 Bft) O 90 0 min 0,000 mm 0,0 UV-I 0 W/m -0,8 C 0,0 C 3,2 km/h (1 Bft) 100,00 %
03.01.2018 02:12 -0,1 C 3,9 C 94 % 1012,1 hPa 0,0 l/m 3,2 km/h (1 Bft) O 90 0 min 0,000 mm 0,0 UV-I 0 W/m -0,9 C -0,1 C 3,2 km/h (1 Bft) 95,65 %
03.01.2018 02:13 -0,1 C 3,9 C 94 % 1012,0 hPa 0,0 l/m 1,6 km/h (1 Bft) O 90 0 min 0,000 mm 0,0 UV-I 0 W/m -0,9 C -0,1 C 3,2 km/h (1 Bft) 95,65 %
03.01.2018 02:14 0,0 C 3,9 C 94 % 1012,1 hPa 0,0 l/m 0,0 km/h (0 Bft) N 0 0 min 0,000 mm 0,0 UV-I 0 W/m -0,8 C 0,0 C 0,0 km/h (0 Bft) 95,65 %
03.01.2018 02:15 -0,1 C 3,9 C 94 % 1012,0 hPa 0,0 l/m 0,0 km/h (0 Bft) N 0 0 min 0,000 mm 0,0 UV-I 0 W/m -0,9 C -0,1 C 0,0 km/h (0 Bft) 95,65 %
03.01.2018 02:16 -0,1 C 3,9 C 94 % 1012,0 hPa 0,0 l/m 0,0 km/h (0 Bft) O 90 0 min 0,000 mm 0,0 UV-I 0 W/m -0,9 C -0,1 C 1,6 km/h (1 Bft) 95,65 %
03.01.2018 02:17 -0,1 C 3,9 C 94 % 1012,0 hPa 0,0 l/m 1,6 km/h (1 Bft) O 90 0 min 0,000 mm 0,0 UV-I 0 W/m -0,9 C -0,1 C 3,2 km/h (1 Bft) 95,65 %
03.01.2018 02:18 -0,1 C 3,9 C 95 % 1012,0 hPa 0,0 l/m 1,6 km/h (1 Bft) O 90 0 min 0,000 mm 0,0 UV-I 0 W/m -0,8 C -0,1 C 3,2 km/h (1 Bft) 95,65 %
03.01.2018 02:19 -0,1 C 3,9 C 94 % 1011,9 hPa 0,0 l/m 1,6 km/h (1 Bft) O 90 0 min 0,000 mm 0,0 UV-I 0 W/m -0,9 C -0,1 C 3,2 km/h (1 Bft) 100,00 %
03.01.2018 02:20 -0,1 C 3,9 C 94 % 1011,9 hPa 0,0 l/m 3,2 km/h (1 Bft) O 90 0 min 0,000 mm 0,0 UV-I 0 W/m -0,9 C -0,1 C 4,8 km/h (1 Bft) 100,00 %
03.01.2018 02:21 0,0 C 3,9 C 95 % 1011,9 hPa 0,0 l/m 3,2 km/h (1 Bft) O 90 0 min 0,000 mm 0,0 UV-I 0 W/m -0,7 C 0,0 C 3,2 km/h (1 Bft) 100,00 %
03.01.2018 02:22 0,1 C 3,9 C 95 % 1011,9 hPa 0,0 l/m 3,2 km/h (1 Bft) O 90 0 min 0,000 mm 0,0 UV-I 0 W/m -0,6 C 0,1 C 4,8 km/h (1 Bft) 91,30 %
03.01.2018 02:23 0,1 C 3,9 C 95 % 1011,9 hPa 0,0 l/m 3,2 km/h (1 Bft) O 90 0 min 0,000 mm 0,0 UV-I 0 W/m -0,6 C 0,1 C 4,8 km/h (1 Bft) 100,00 %
03.01.2018 02:24 0,1 C 3,9 C 95 % 1011,8 hPa 0,0 l/m 3,2 km/h (1 Bft) O 90 0 min 0,000 mm 0,0 UV-I 0 W/m -0,6 C 0,1 C 4,8 km/h (1 Bft) 100,00 %
03.01.2018 02:25 -0,1 C 3,9 C 94 % 1011,8 hPa 0,0 l/m 3,2 km/h (1 Bft) O 90 0 min 0,000 mm 0,0 UV-I 0 W/m -0,9 C -0,1 C 3,2 km/h (1 Bft) 95,65 %
03.01.2018 02:26 -0,1 C 3,9 C 94 % 1011,8 hPa 0,0 l/m 3,2 km/h (1 Bft) O 90 0 min 0,000 mm 0,0 UV-I 0 W/m -0,9 C -0,1 C 3,2 km/h (1 Bft) 100,00 %
03.01.2018 02:27 -0,2 C 3,9 C 94 % 1011,8 hPa 0,0 l/m 3,2 km/h (1 Bft) O 90 0 min 0,000 mm 0,0 UV-I 0 W/m -1,0 C -0,2 C 3,2 km/h (1 Bft) 100,00 %
03.01.2018 02:28 -0,2 C 3,9 C 94 % 1011,8 hPa 0,0 l/m 1,6 km/h (1 Bft) O 90 0 min 0,000 mm 0,0 UV-I 0 W/m -1,0 C -0,2 C 3,2 km/h (1 Bft) 100,00 %
03.01.2018 02:29 -0,2 C 3,9 C 94 % 1011,8 hPa 0,0 l/m 3,2 km/h (1 Bft) O 90 0 min 0,000 mm 0,0 UV-I 0 W/m -1,0 C -0,2 C 3,2 km/h (1 Bft) 95,65 %
03.01.2018 02:30 -0,2 C 3,9 C 94 % 1011,8 hPa 0,0 l/m 1,6 km/h (1 Bft) O 90 0 min 0,000 mm 0,0 UV-I 0 W/m -1,0 C -0,2 C 1,6 km/h (1 Bft) 95,65 %
03.01.2018 02:31 -0,2 C 3,9 C 95 % 1011,8 hPa 0,0 l/m 1,6 km/h (1 Bft) O 90 0 min 0,000 mm 0,0 UV-I 0 W/m -0,9 C -0,2 C 3,2 km/h (1 Bft) 95,65 %
03.01.2018 02:32 -0,1 C 3,9 C 95 % 1011,8 hPa 0,0 l/m 3,2 km/h (1 Bft) O 90 0 min 0,000 mm 0,0 UV-I 0 W/m -0,8 C -0,1 C 3,2 km/h (1 Bft) 100,00 %
03.01.2018 02:33 -0,1 C 3,9 C 95 % 1011,7 hPa 0,0 l/m 3,2 km/h (1 Bft) O 90 0 min 0,000 mm 0,0 UV-I 0 W/m -0,8 C -0,1 C 3,2 km/h (1 Bft) 100,00 %
03.01.2018 02:34 -0,1 C 3,9 C 95 % 1011,6 hPa 0,0 l/m 1,6 km/h (1 Bft) O 90 0 min 0,000 mm 0,0 UV-I 0 W/m -0,8 C -0,1 C 3,2 km/h (1 Bft) 100,00 %
03.01.2018 02:35 0,0 C 3,9 C 95 % 1011,7 hPa 0,0 l/m 1,6 km/h (1 Bft) O 90 0 min 0,000 mm 0,0 UV-I 0 W/m -0,7 C 0,0 C 3,2 km/h (1 Bft) 100,00 %
03.01.2018 02:36 0,0 C 3,9 C 95 % 1011,7 hPa 0,0 l/m 0,0 km/h (0 Bft) N 0 0 min 0,000 mm 0,0 UV-I 0 W/m -0,7 C 0,0 C 0,0 km/h (0 Bft) 95,65 %
03.01.2018 02:37 -0,1 C 3,9 C 95 % 1011,7 hPa 0,0 l/m 0,0 km/h (0 Bft) N 0 0 min 0,000 mm 0,0 UV-I 0 W/m -0,8 C -0,1 C 0,0 km/h (0 Bft) 100,00 %
03.01.2018 02:38 -0,1 C 3,9 C 94 % 1011,6 hPa 0,0 l/m 0,0 km/h (0 Bft) N 0 0 min 0,000 mm 0,0 UV-I 0 W/m -0,9 C -0,1 C 0,0 km/h (0 Bft) 100,00 %
03.01.2018 02:39 -0,1 C 3,9 C 95 % 1011,6 hPa 0,0 l/m 0,0 km/h (0 Bft) N 0 0 min 0,000 mm 0,0 UV-I 0 W/m -0,8 C -0,1 C 0,0 km/h (0 Bft) 95,65 %
03.01.2018 02:40 -0,1 C 3,9 C 95 % 1011,6 hPa 0,0 l/m 0,0 km/h (0 Bft) N 0 0 min 0,000 mm 0,0 UV-I 0 W/m -0,8 C -0,1 C 0,0 km/h (0 Bft) 100,00 %
03.01.2018 02:41 -0,1 C 3,9 C 95 % 1011,5 hPa 0,0 l/m 0,0 km/h (0 Bft) N 0 0 min 0,000 mm 0,0 UV-I 0 W/m -0,8 C -0,1 C 0,0 km/h (0 Bft) 100,00 %
03.01.2018 02:42 -0,1 C 3,9 C 95 % 1011,5 hPa 0,0 l/m 1,6 km/h (1 Bft) O 90 0 min 0,000 mm 0,0 UV-I 0 W/m -0,8 C -0,1 C 3,2 km/h (1 Bft) 100,00 %
03.01.2018 02:43 -0,1 C 3,9 C 94 % 1011,4 hPa 0,0 l/m 1,6 km/h (1 Bft) O 90 0 min 0,000 mm 0,0 UV-I 0 W/m -0,9 C -0,1 C 3,2 km/h (1 Bft) 95,65 %
03.01.2018 02:44 -0,2 C 3,9 C 95 % 1011,3 hPa 0,0 l/m 3,2 km/h (1 Bft) O 90 0 min 0,000 mm 0,0 UV-I 0 W/m -0,9 C -0,2 C 3,2 km/h (1 Bft) 95,65 %
03.01.2018 02:45 -0,2 C 3,9 C 94 % 1011,3 hPa 0,0 l/m 3,2 km/h (1 Bft) O 90 0 min 0,000 mm 0,0 UV-I 0 W/m -1,0 C -0,2 C 4,8 km/h (1 Bft) 100,00 %
03.01.2018 02:46 -0,2 C 3,9 C 94 % 1011,3 hPa 0,0 l/m 4,8 km/h (1 Bft) O 90 0 min 0,000 mm 0,0 UV-I 0 W/m -1,0 C -0,2 C 4,8 km/h (1 Bft) 95,65 %
03.01.2018 02:47 -0,2 C 3,9 C 94 % 1011,3 hPa 0,0 l/m 3,2 km/h (1 Bft) O 90 0 min 0,000 mm 0,0 UV-I 0 W/m -1,0 C -0,2 C 4,8 km/h (1 Bft) 100,00 %
03.01.2018 02:48 -0,2 C 3,9 C 94 % 1011,3 hPa 0,0 l/m 3,2 km/h (1 Bft) O 90 0 min 0,000 mm 0,0 UV-I 0 W/m -1,0 C -0,2 C 4,8 km/h (1 Bft) 100,00 %
03.01.2018 02:49 -0,2 C 3,9 C 95 % 1011,2 hPa 0,0 l/m 3,2 km/h (1 Bft) O 90 0 min 0,000 mm 0,0 UV-I 0 W/m -0,9 C -0,2 C 4,8 km/h (1 Bft) 100,00 %
03.01.2018 02:50 -0,2 C 3,9 C 95 % 1011,2 hPa 0,0 l/m 4,8 km/h (1 Bft) O 90 0 min 0,000 mm 0,0 UV-I 0 W/m -0,9 C -0,2 C 4,8 km/h (1 Bft) 95,65 %
03.01.2018 02:51 -0,2 C 3,9 C 95 % 1011,2 hPa 0,0 l/m 3,2 km/h (1 Bft) O 90 0 min 0,000 mm 0,0 UV-I 0 W/m -0,9 C -0,2 C 4,8 km/h (1 Bft) 100,00 %
03.01.2018 02:52 -0,1 C 3,9 C 95 % 1011,1 hPa 0,0 l/m 4,8 km/h (1 Bft) O 90 0 min 0,000 mm 0,0 UV-I 0 W/m -0,8 C -0,1 C 4,8 km/h (1 Bft) 95,65 %
03.01.2018 02:53 -0,2 C 3,9 C 95 % 1011,1 hPa 0,0 l/m 4,8 km/h (1 Bft) O 90 0 min 0,000 mm 0,0 UV-I 0 W/m -0,9 C -0,2 C 6,4 km/h (2 Bft) 95,65 %
03.01.2018 02:54 -0,2 C 3,9 C 95 % 1011,1 hPa 0,0 l/m 4,8 km/h (1 Bft) O 90 0 min 0,000 mm 0,0 UV-I 0 W/m -0,9 C -0,2 C 4,8 km/h (1 Bft) 100,00 %
03.01.2018 02:55 -0,2 C 3,9 C 95 % 1011,1 hPa 0,0 l/m 4,8 km/h (1 Bft) O 90 0 min 0,000 mm 0,0 UV-I 0 W/m -0,9 C -0,2 C 4,8 km/h (1 Bft) 100,00 %
03.01.2018 02:56 -0,2 C 3,9 C 95 % 1011,0 hPa 0,0 l/m 4,8 km/h (1 Bft) O 90 0 min 0,000 mm 0,0 UV-I 0 W/m -0,9 C -0,2 C 6,4 km/h (2 Bft) 100,00 %
03.01.2018 02:57 -0,2 C 3,9 C 94 % 1011,0 hPa 0,0 l/m 4,8 km/h (1 Bft) O 90 0 min 0,000 mm 0,0 UV-I 0 W/m -1,0 C -0,2 C 4,8 km/h (1 Bft) 95,65 %
03.01.2018 02:58 -0,2 C 3,9 C 94 % 1010,9 hPa 0,0 l/m 3,2 km/h (1 Bft) O 90 0 min 0,000 mm 0,0 UV-I 0 W/m -1,0 C -0,2 C 4,8 km/h (1 Bft) 100,00 %
03.01.2018 02:59 -0,2 C 3,9 C 95 % 1010,9 hPa 0,0 l/m 3,2 km/h (1 Bft) O 90 0 min 0,000 mm 0,0 UV-I 0 W/m -0,9 C -0,2 C 4,8 km/h (1 Bft) 100,00 %
03.01.2018 03:00 -0,1 C 3,9 C 95 % 1010,9 hPa 0,0 l/m 1,6 km/h (1 Bft) O 90 0 min 0,000 mm 0,0 UV-I 0 W/m -0,8 C -0,1 C 3,2 km/h (1 Bft) 100,00 %
03.01.2018 03:01 -0,1 C 3,9 C 95 % 1010,8 hPa 0,0 l/m 3,2 km/h (1 Bft) O 90 0 min 0,000 mm 0,0 UV-I 0 W/m -0,8 C -0,1 C 3,2 km/h (1 Bft) 100,00 %
03.01.2018 03:02 -0,1 C 3,9 C 95 % 1010,8 hPa 0,0 l/m 1,6 km/h (1 Bft) O 90 0 min 0,000 mm 0,0 UV-I 0 W/m -0,8 C -0,1 C 3,2 km/h (1 Bft) 100,00 %
03.01.2018 03:03 -0,1 C 3,9 C 94 % 1010,8 hPa 0,0 l/m 1,6 km/h (1 Bft) O 90 0 min 0,000 mm 0,0 UV-I 0 W/m -0,9 C -0,1 C 3,2 km/h (1 Bft) 100,00 %
03.01.2018 03:04 -0,1 C 3,9 C 94 % 1010,8 hPa 0,0 l/m 1,6 km/h (1 Bft) O 90 0 min 0,000 mm 0,0 UV-I 0 W/m -0,9 C -0,1 C 3,2 km/h (1 Bft) 91,30 %
03.01.2018 03:05 -0,1 C 3,9 C 94 % 1010,8 hPa 0,0 l/m 3,2 km/h (1 Bft) O 90 0 min 0,000 mm 0,0 UV-I 0 W/m -0,9 C -0,1 C 4,8 km/h (1 Bft) 100,00 %
03.01.2018 03:06 -0,1 C 3,9 C 94 % 1010,7 hPa 0,0 l/m 3,2 km/h (1 Bft) O 90 0 min 0,000 mm 0,0 UV-I 0 W/m -0,9 C -0,1 C 4,8 km/h (1 Bft) 100,00 %
03.01.2018 03:07 0,0 C 3,9 C 95 % 1010,7 hPa 0,0 l/m 3,2 km/h (1 Bft) O 90 0 min 0,000 mm 0,0 UV-I 0 W/m -0,7 C 0,0 C 4,8 km/h (1 Bft) 100,00 %
03.01.2018 03:08 -0,1 C 3,9 C 95 % 1010,7 hPa 0,0 l/m 1,6 km/h (1 Bft) O 90 0 min 0,000 mm 0,0 UV-I 0 W/m -0,8 C -0,1 C 3,2 km/h (1 Bft) 100,00 %
03.01.2018 03:09 -0,1 C 3,9 C 94 % 1010,7 hPa 0,0 l/m 3,2 km/h (1 Bft) O 90 0 min 0,000 mm 0,0 UV-I 0 W/m -0,9 C -0,1 C 4,8 km/h (1 Bft) 100,00 %
03.01.2018 03:10 -0,1 C 3,9 C 94 % 1010,6 hPa 0,0 l/m 1,6 km/h (1 Bft) O 90 0 min 0,000 mm 0,0 UV-I 0 W/m -0,9 C -0,1 C 1,6 km/h (1 Bft) 100,00 %
03.01.2018 03:11 -0,1 C 3,9 C 94 % 1010,6 hPa 0,0 l/m 0,0 km/h (0 Bft) O 90 0 min 0,000 mm 0,0 UV-I 0 W/m -0,9 C -0,1 C 1,6 km/h (1 Bft) 95,65 %
03.01.2018 03:12 -0,2 C 3,9 C 94 % 1010,6 hPa 0,0 l/m 0,0 km/h (0 Bft) O 90 0 min 0,000 mm 0,0 UV-I 0 W/m -1,0 C -0,2 C 1,6 km/h (1 Bft) 100,00 %
03.01.2018 03:13 -0,3 C 3,9 C 94 % 1010,5 hPa 0,0 l/m 0,0 km/h (0 Bft) N 0 0 min 0,000 mm 0,0 UV-I 0 W/m -1,1 C -0,3 C 0,0 km/h (0 Bft) 100,00 %
03.01.2018 03:14 -0,4 C 3,9 C 94 % 1010,4 hPa 0,0 l/m 0,0 km/h (0 Bft) N 0 0 min 0,000 mm 0,0 UV-I 0 W/m -1,2 C -0,4 C 0,0 km/h (0 Bft) 100,00 %
03.01.2018 03:15 -0,4 C 3,9 C 94 % 1010,4 hPa 0,0 l/m 0,0 km/h (0 Bft) N 0 0 min 0,000 mm 0,0 UV-I 0 W/m -1,2 C -0,4 C 0,0 km/h (0 Bft) 95,65 %
03.01.2018 03:16 -0,3 C 3,9 C 95 % 1010,4 hPa 0,0 l/m 0,0 km/h (0 Bft) N 0 0 min 0,000 mm 0,0 UV-I 0 W/m -1,0 C -0,3 C 0,0 km/h (0 Bft) 100,00 %
03.01.2018 03:17 -0,3 C 3,9 C 95 % 1010,3 hPa 0,0 l/m 0,0 km/h (0 Bft) N 0 0 min 0,000 mm 0,0 UV-I 0 W/m -1,0 C -0,3 C 0,0 km/h (0 Bft) 100,00 %
03.01.2018 03:18 -0,4 C 3,9 C 95 % 1010,3 hPa 0,0 l/m 0,0 km/h (0 Bft) N 0 0 min 0,000 mm 0,0 UV-I 0 W/m -1,1 C -0,4 C 0,0 km/h (0 Bft) 95,65 %
03.01.2018 03:19 -0,4 C 3,9 C 95 % 1010,2 hPa 0,0 l/m 0,0 km/h (0 Bft) N 0 0 min 0,000 mm 0,0 UV-I 0 W/m -1,1 C -0,4 C 0,0 km/h (0 Bft) 100,00 %
03.01.2018 03:20 -0,4 C 3,9 C 95 % 1010,2 hPa 0,0 l/m 0,0 km/h (0 Bft) N 0 0 min 0,000 mm 0,0 UV-I 0 W/m -1,1 C -0,4 C 0,0 km/h (0 Bft) 100,00 %
03.01.2018 03:21 -0,4 C 3,9 C 95 % 1010,2 hPa 0,0 l/m 1,6 km/h (1 Bft) O 90 0 min 0,000 mm 0,0 UV-I 0 W/m -1,1 C -0,4 C 3,2 km/h (1 Bft) 95,65 %
03.01.2018 03:22 -0,4 C 3,9 C 95 % 1010,3 hPa 0,0 l/m 1,6 km/h (1 Bft) O 90 0 min 0,000 mm 0,0 UV-I 0 W/m -1,1 C -0,4 C 3,2 km/h (1 Bft) 100,00 %
03.01.2018 03:23 -0,4 C 3,9 C 95 % 1010,2 hPa 0,0 l/m 0,0 km/h (0 Bft) O 90 0 min 0,000 mm 0,0 UV-I 0 W/m -1,1 C -0,4 C 1,6 km/h (1 Bft) 100,00 %
03.01.2018 03:24 -0,5 C 3,9 C 95 % 1010,2 hPa 0,0 l/m 0,0 km/h (0 Bft) O 90 0 min 0,000 mm 0,0 UV-I 0 W/m -1,2 C -0,5 C 1,6 km/h (1 Bft) 100,00 %
03.01.2018 03:25 -0,5 C 3,9 C 95 % 1010,1 hPa 0,0 l/m 1,6 km/h (1 Bft) O 90 0 min 0,000 mm 0,0 UV-I 0 W/m -1,2 C -0,5 C 3,2 km/h (1 Bft) 91,30 %
03.01.2018 03:26 -0,4 C 3,9 C 95 % 1010,2 hPa 0,0 l/m 1,6 km/h (1 Bft) O 90 0 min 0,000 mm 0,0 UV-I 0 W/m -1,1 C -0,4 C 3,2 km/h (1 Bft) 100,00 %
03.01.2018 03:27 -0,3 C 3,9 C 95 % 1010,1 hPa 0,0 l/m 3,2 km/h (1 Bft) O 90 0 min 0,000 mm 0,0 UV-I 0 W/m -1,0 C -0,3 C 3,2 km/h (1 Bft) 95,65 %
03.01.2018 03:28 -0,2 C 3,9 C 95 % 1010,2 hPa 0,0 l/m 1,6 km/h (1 Bft) O 90 0 min 0,000 mm 0,0 UV-I 0 W/m -0,9 C -0,2 C 3,2 km/h (1 Bft) 91,30 %
03.01.2018 03:29 -0,2 C 3,9 C 95 % 1010,2 hPa 0,0 l/m 1,6 km/h (1 Bft) O 90 0 min 0,000 mm 0,0 UV-I 0 W/m -0,9 C -0,2 C 3,2 km/h (1 Bft) 95,65 %
03.01.2018 03:30 -0,1 C 3,9 C 95 % 1010,1 hPa 0,0 l/m 1,6 km/h (1 Bft) O 90 0 min 0,000 mm 0,0 UV-I 0 W/m -0,8 C -0,1 C 1,6 km/h (1 Bft) 95,65 %
03.01.2018 03:31 -0,1 C 3,9 C 95 % 1010,1 hPa 0,0 l/m 0,0 km/h (0 Bft) O 90 0 min 0,000 mm 0,0 UV-I 0 W/m -0,8 C -0,1 C 1,6 km/h (1 Bft) 86,96 %
03.01.2018 03:32 -0,1 C 3,9 C 95 % 1010,1 hPa 0,0 l/m 0,0 km/h (0 Bft) N 0 0 min 0,000 mm 0,0 UV-I 0 W/m -0,8 C -0,1 C 0,0 km/h (0 Bft) 95,65 %
03.01.2018 03:33 -0,1 C 3,9 C 95 % 1010,1 hPa 0,0 l/m 0,0 km/h (0 Bft) O 90 0 min 0,000 mm 0,0 UV-I 0 W/m -0,8 C -0,1 C 1,6 km/h (1 Bft) 91,30 %
03.01.2018 03:34 -0,1 C 3,9 C 95 % 1010,1 hPa 0,0 l/m 1,6 km/h (1 Bft) O 90 0 min 0,000 mm 0,0 UV-I 0 W/m -0,8 C -0,1 C 3,2 km/h (1 Bft) 100,00 %
03.01.2018 03:35 -0,1 C 3,9 C 95 % 1010,0 hPa 0,0 l/m 3,2 km/h (1 Bft) O 90 0 min 0,000 mm 0,0 UV-I 0 W/m -0,8 C -0,1 C 3,2 km/h (1 Bft) 95,65 %
03.01.2018 03:36 -0,1 C 3,9 C 95 % 1010,0 hPa 0,0 l/m 1,6 km/h (1 Bft) O 90 0 min 0,000 mm 0,0 UV-I 0 W/m -0,8 C -0,1 C 3,2 km/h (1 Bft) 100,00 %
03.01.2018 03:37 -0,1 C 3,9 C 95 % 1009,9 hPa 0,0 l/m 1,6 km/h (1 Bft) O 90 0 min 0,000 mm 0,0 UV-I 0 W/m -0,8 C -0,1 C 1,6 km/h (1 Bft) 91,30 %
03.01.2018 03:38 0,0 C 3,9 C 95 % 1009,9 hPa 0,0 l/m 1,6 km/h (1 Bft) O 90 0 min 0,000 mm 0,0 UV-I 0 W/m -0,7 C 0,0 C 3,2 km/h (1 Bft) 100,00 %
03.01.2018 03:39 0,0 C 3,9 C 95 % 1009,9 hPa 0,0 l/m 1,6 km/h (1 Bft) O 90 0 min 0,000 mm 0,0 UV-I 0 W/m -0,7 C 0,0 C 3,2 km/h (1 Bft) 86,96 %
03.01.2018 03:40 0,0 C 3,9 C 95 % 1009,9 hPa 0,0 l/m 3,2 km/h (1 Bft) O 90 0 min 0,000 mm 0,0 UV-I 0 W/m -0,7 C 0,0 C 4,8 km/h (1 Bft) 95,65 %
03.01.2018 03:41 0,0 C 3,9 C 95 % 1009,8 hPa 0,0 l/m 1,6 km/h (1 Bft) O 90 0 min 0,000 mm 0,0 UV-I 0 W/m -0,7 C 0,0 C 3,2 km/h (1 Bft) 95,65 %
03.01.2018 03:42 0,0 C 3,9 C 95 % 1009,8 hPa 0,0 l/m 1,6 km/h (1 Bft) O 90 0 min 0,000 mm 0,0 UV-I 0 W/m -0,7 C 0,0 C 3,2 km/h (1 Bft) 95,65 %
03.01.2018 03:43 0,1 C 3,9 C 95 % 1009,9 hPa 0,0 l/m 0,0 km/h (0 Bft) O 90 0 min 0,000 mm 0,0 UV-I 0 W/m -0,6 C 0,1 C 1,6 km/h (1 Bft) 95,65 %
03.01.2018 03:44 0,1 C 3,9 C 95 % 1009,8 hPa 0,0 l/m 0,0 km/h (0 Bft) O 90 0 min 0,000 mm 0,0 UV-I 0 W/m -0,6 C 0,1 C 1,6 km/h (1 Bft) 91,30 %
03.01.2018 03:45 0,2 C 3,9 C 95 % 1009,8 hPa 0,0 l/m 1,6 km/h (1 Bft) O 90 0 min 0,000 mm 0,0 UV-I 0 W/m -0,5 C 0,2 C 3,2 km/h (1 Bft) 100,00 %
03.01.2018 03:46 0,2 C 3,9 C 95 % 1009,8 hPa 0,0 l/m 3,2 km/h (1 Bft) O 90 0 min 0,000 mm 0,0 UV-I 0 W/m -0,5 C 0,2 C 3,2 km/h (1 Bft) 86,96 %
03.01.2018 03:47 0,1 C 3,9 C 95 % 1009,7 hPa 0,0 l/m 3,2 km/h (1 Bft) O 90 0 min 0,000 mm 0,0 UV-I 0 W/m -0,6 C 0,1 C 4,8 km/h (1 Bft) 100,00 %
03.01.2018 03:48 0,1 C 3,9 C 94 % 1009,7 hPa 0,0 l/m 3,2 km/h (1 Bft) O 90 0 min 0,000 mm 0,0 UV-I 0 W/m -0,7 C 0,1 C 4,8 km/h (1 Bft) 91,30 %
03.01.2018 03:49 0,1 C 3,9 C 94 % 1009,7 hPa 0,0 l/m 3,2 km/h (1 Bft) O 90 0 min 0,000 mm 0,0 UV-I 0 W/m -0,7 C 0,1 C 4,8 km/h (1 Bft) 95,65 %
03.01.2018 03:50 0,1 C 3,9 C 94 % 1009,7 hPa 0,0 l/m 3,2 km/h (1 Bft) O 90 0 min 0,000 mm 0,0 UV-I 0 W/m -0,7 C 0,1 C 3,2 km/h (1 Bft) 95,65 %
03.01.2018 03:51 0,1 C 3,9 C 94 % 1009,6 hPa 0,0 l/m 3,2 km/h (1 Bft) O 90 0 min 0,000 mm 0,0 UV-I 0 W/m -0,7 C 0,1 C 4,8 km/h (1 Bft) 95,65 %
03.01.2018 03:52 0,1 C 3,9 C 94 % 1009,6 hPa 0,0 l/m 3,2 km/h (1 Bft) O 90 0 min 0,000 mm 0,0 UV-I 0 W/m -0,7 C 0,1 C 3,2 km/h (1 Bft) 91,30 %
03.01.2018 03:53 0,1 C 3,9 C 94 % 1009,5 hPa 0,0 l/m 1,6 km/h (1 Bft) O 90 0 min 0,000 mm 0,0 UV-I 0 W/m -0,7 C 0,1 C 4,8 km/h (1 Bft) 86,96 %
03.01.2018 03:54 0,1 C 3,9 C 94 % 1009,5 hPa 0,0 l/m 3,2 km/h (1 Bft) O 90 0 min 0,000 mm 0,0 UV-I 0 W/m -0,7 C 0,1 C 3,2 km/h (1 Bft) 100,00 %
03.01.2018 03:55 0,1 C 3,9 C 94 % 1009,5 hPa 0,0 l/m 3,2 km/h (1 Bft) O 90 0 min 0,000 mm 0,0 UV-I 0 W/m -0,7 C 0,1 C 3,2 km/h (1 Bft) 95,65 %
03.01.2018 03:56 0,1 C 3,9 C 94 % 1009,5 hPa 0,0 l/m 3,2 km/h (1 Bft) O 90 0 min 0,000 mm 0,0 UV-I 0 W/m -0,7 C 0,1 C 3,2 km/h (1 Bft) 100,00 %
03.01.2018 03:57 0,1 C 3,9 C 94 % 1009,5 hPa 0,0 l/m 1,6 km/h (1 Bft) O 90 0 min 0,000 mm 0,0 UV-I 0 W/m -0,7 C 0,1 C 3,2 km/h (1 Bft) 95,65 %
03.01.2018 03:58 0,1 C 3,9 C 94 % 1009,5 hPa 0,0 l/m 1,6 km/h (1 Bft) O 90 0 min 0,000 mm 0,0 UV-I 0 W/m -0,7 C 0,1 C 3,2 km/h (1 Bft) 95,65 %
03.01.2018 03:59 0,1 C 3,9 C 95 % 1009,5 hPa 0,0 l/m 0,0 km/h (0 Bft) O 90 0 min 0,000 mm 0,0 UV-I 0 W/m -0,6 C 0,1 C 1,6 km/h (1 Bft) 100,00 %
03.01.2018 04:00 0,1 C 3,9 C 95 % 1009,5 hPa 0,0 l/m 0,0 km/h (0 Bft) N 0 0 min 0,000 mm 0,0 UV-I 0 W/m -0,6 C 0,1 C 0,0 km/h (0 Bft) 91,30 %
03.01.2018 04:01 0,1 C 3,9 C 94 % 1009,5 hPa 0,0 l/m 0,0 km/h (0 Bft) N 0 0 min 0,000 mm 0,0 UV-I 0 W/m -0,7 C 0,1 C 0,0 km/h (0 Bft) 100,00 %
03.01.2018 04:02 0,0 C 3,9 C 94 % 1009,5 hPa 0,0 l/m 0,0 km/h (0 Bft) N 0 0 min 0,000 mm 0,0 UV-I 0 W/m -0,8 C 0,0 C 0,0 km/h (0 Bft) 91,30 %
03.01.2018 04:03 -0,1 C 3,9 C 94 % 1009,4 hPa 0,0 l/m 0,0 km/h (0 Bft) N 0 0 min 0,000 mm 0,0 UV-I 0 W/m -0,9 C -0,1 C 0,0 km/h (0 Bft) 100,00 %
03.01.2018 04:04 -0,1 C 3,9 C 94 % 1009,4 hPa 0,0 l/m 3,2 km/h (1 Bft) O 90 0 min 0,000 mm 0,0 UV-I 0 W/m -0,9 C -0,1 C 3,2 km/h (1 Bft) 95,65 %
03.01.2018 04:05 -0,1 C 3,9 C 95 % 1009,3 hPa 0,0 l/m 3,2 km/h (1 Bft) O 90 0 min 0,000 mm 0,0 UV-I 0 W/m -0,8 C -0,1 C 3,2 km/h (1 Bft) 95,65 %
03.01.2018 04:06 -0,1 C 3,9 C 95 % 1009,4 hPa 0,0 l/m 1,6 km/h (1 Bft) O 90 0 min 0,000 mm 0,0 UV-I 0 W/m -0,8 C -0,1 C 3,2 km/h (1 Bft) 95,65 %
03.01.2018 04:07 -0,1 C 3,9 C 94 % 1009,4 hPa 0,0 l/m 1,6 km/h (1 Bft) O 90 0 min 0,000 mm 0,0 UV-I 0 W/m -0,9 C -0,1 C 3,2 km/h (1 Bft) 91,30 %
03.01.2018 04:08 -0,1 C 3,9 C 94 % 1009,3 hPa 0,0 l/m 1,6 km/h (1 Bft) O 90 0 min 0,000 mm 0,0 UV-I 0 W/m -0,9 C -0,1 C 1,6 km/h (1 Bft) 100,00 %
03.01.2018 04:09 -0,2 C 3,9 C 94 % 1009,3 hPa 0,0 l/m 0,0 km/h (0 Bft) O 90 0 min 0,000 mm 0,0 UV-I 0 W/m -1,0 C -0,2 C 1,6 km/h (1 Bft) 91,30 %
03.01.2018 04:10 -0,2 C 3,9 C 94 % 1009,3 hPa 0,0 l/m 0,0 km/h (0 Bft) N 0 0 min 0,000 mm 0,0 UV-I 0 W/m -1,0 C -0,2 C 0,0 km/h (0 Bft) 100,00 %
03.01.2018 04:11 -0,2 C 3,9 C 94 % 1009,3 hPa 0,0 l/m 0,0 km/h (0 Bft) N 0 0 min 0,000 mm 0,0 UV-I 0 W/m -1,0 C -0,2 C 0,0 km/h (0 Bft) 95,65 %
03.01.2018 04:12 -0,3 C 3,9 C 94 % 1009,2 hPa 0,0 l/m 0,0 km/h (0 Bft) N 0 0 min 0,000 mm 0,0 UV-I 0 W/m -1,1 C -0,3 C 0,0 km/h (0 Bft) 100,00 %
03.01.2018 04:13 -0,3 C 3,9 C 95 % 1009,2 hPa 0,0 l/m 0,0 km/h (0 Bft) N 0 0 min 0,000 mm 0,0 UV-I 0 W/m -1,0 C -0,3 C 0,0 km/h (0 Bft) 95,65 %
03.01.2018 04:14 -0,3 C 3,9 C 95 % 1009,2 hPa 0,0 l/m 0,0 km/h (0 Bft) N 0 0 min 0,000 mm 0,0 UV-I 0 W/m -1,0 C -0,3 C 0,0 km/h (0 Bft) 91,30 %
03.01.2018 04:15 -0,4 C 3,9 C 95 % 1009,1 hPa 0,0 l/m 0,0 km/h (0 Bft) N 0 0 min 0,000 mm 0,0 UV-I 0 W/m -1,1 C -0,4 C 0,0 km/h (0 Bft) 100,00 %
03.01.2018 04:16 -0,4 C 3,9 C 95 % 1009,1 hPa 0,0 l/m 0,0 km/h (0 Bft) N 0 0 min 0,000 mm 0,0 UV-I 0 W/m -1,1 C -0,4 C 0,0 km/h (0 Bft) 95,65 %
03.01.2018 04:17 -0,4 C 3,9 C 95 % 1009,1 hPa 0,0 l/m 0,0 km/h (0 Bft) N 0 0 min 0,000 mm 0,0 UV-I 0 W/m -1,1 C -0,4 C 0,0 km/h (0 Bft) 100,00 %
03.01.2018 04:18 -0,4 C 3,9 C 95 % 1009,1 hPa 0,0 l/m 0,0 km/h (0 Bft) N 0 0 min 0,000 mm 0,0 UV-I 0 W/m -1,1 C -0,4 C 0,0 km/h (0 Bft) 100,00 %
03.01.2018 04:19 -0,4 C 3,9 C 95 % 1009,0 hPa 0,0 l/m 0,0 km/h (0 Bft) N 0 0 min 0,000 mm 0,0 UV-I 0 W/m -1,1 C -0,4 C 0,0 km/h (0 Bft) 100,00 %
03.01.2018 04:20 -0,3 C 3,9 C 95 % 1009,0 hPa 0,0 l/m 0,0 km/h (0 Bft) O 90 0 min 0,000 mm 0,0 UV-I 0 W/m -1,0 C -0,3 C 1,6 km/h (1 Bft) 100,00 %
03.01.2018 04:21 -0,3 C 3,9 C 95 % 1009,0 hPa 0,0 l/m 1,6 km/h (1 Bft) O 90 0 min 0,000 mm 0,0 UV-I 0 W/m -1,0 C -0,3 C 1,6 km/h (1 Bft) 95,65 %
03.01.2018 04:22 -0,3 C 3,9 C 95 % 1009,0 hPa 0,0 l/m 1,6 km/h (1 Bft) O 90 0 min 0,000 mm 0,0 UV-I 0 W/m -1,0 C -0,3 C 3,2 km/h (1 Bft) 100,00 %
03.01.2018 04:23 -0,2 C 3,9 C 95 % 1008,9 hPa 0,0 l/m 1,6 km/h (1 Bft) O 90 0 min 0,000 mm 0,0 UV-I 0 W/m -0,9 C -0,2 C 1,6 km/h (1 Bft) 100,00 %
03.01.2018 04:24 -0,2 C 3,9 C 95 % 1008,9 hPa 0,0 l/m 0,0 km/h (0 Bft) O 90 0 min 0,000 mm 0,0 UV-I 0 W/m -0,9 C -0,2 C 1,6 km/h (1 Bft) 100,00 %
03.01.2018 04:25 -0,3 C 3,9 C 95 % 1008,9 hPa 0,0 l/m 0,0 km/h (0 Bft) N 0 0 min 0,000 mm 0,0 UV-I 0 W/m -1,0 C -0,3 C 0,0 km/h (0 Bft) 100,00 %
03.01.2018 04:26 -0,3 C 3,9 C 95 % 1008,8 hPa 0,0 l/m 0,0 km/h (0 Bft) N 0 0 min 0,000 mm 0,0 UV-I 0 W/m -1,0 C -0,3 C 0,0 km/h (0 Bft) 100,00 %
03.01.2018 04:27 -0,3 C 3,9 C 95 % 1008,8 hPa 0,0 l/m 0,0 km/h (0 Bft) O 90 0 min 0,000 mm 0,0 UV-I 0 W/m -1,0 C -0,3 C 1,6 km/h (1 Bft) 100,00 %
03.01.2018 04:28 -0,4 C 3,9 C 95 % 1008,8 hPa 0,0 l/m 1,6 km/h (1 Bft) O 90 0 min 0,000 mm 0,0 UV-I 0 W/m -1,1 C -0,4 C 3,2 km/h (1 Bft) 95,65 %
03.01.2018 04:29 -0,4 C 3,9 C 95 % 1008,7 hPa 0,0 l/m 3,2 km/h (1 Bft) O 90 0 min 0,000 mm 0,0 UV-I 0 W/m -1,1 C -0,4 C 3,2 km/h (1 Bft) 100,00 %
03.01.2018 04:30 -0,4 C 3,9 C 95 % 1008,7 hPa 0,0 l/m 1,6 km/h (1 Bft) O 90 0 min 0,000 mm 0,0 UV-I 0 W/m -1,1 C -0,4 C 3,2 km/h (1 Bft) 100,00 %
03.01.2018 04:31 -0,4 C 3,9 C 95 % 1008,7 hPa 0,0 l/m 1,6 km/h (1 Bft) O 90 0 min 0,000 mm 0,0 UV-I 0 W/m -1,1 C -0,4 C 3,2 km/h (1 Bft) 100,00 %
03.01.2018 04:32 -0,3 C 3,9 C 95 % 1008,7 hPa 0,0 l/m 1,6 km/h (1 Bft) O 90 0 min 0,000 mm 0,0 UV-I 0 W/m -1,0 C -0,3 C 3,2 km/h (1 Bft) 100,00 %
03.01.2018 04:33 -0,3 C 3,9 C 95 % 1008,7 hPa 0,0 l/m 0,0 km/h (0 Bft) N 0 0 min 0,000 mm 0,0 UV-I 0 W/m -1,0 C -0,3 C 0,0 km/h (0 Bft) 100,00 %
03.01.2018 04:34 -0,3 C 3,9 C 95 % 1008,7 hPa 0,0 l/m 0,0 km/h (0 Bft) O 90 0 min 0,000 mm 0,0 UV-I 0 W/m -1,0 C -0,3 C 1,6 km/h (1 Bft) 100,00 %
03.01.2018 04:35 -0,3 C 3,9 C 95 % 1008,6 hPa 0,0 l/m 0,0 km/h (0 Bft) N 0 0 min 0,000 mm 0,0 UV-I 0 W/m -1,0 C -0,3 C 0,0 km/h (0 Bft) 95,65 %
03.01.2018 04:36 -0,3 C 3,9 C 95 % 1008,6 hPa 0,0 l/m 0,0 km/h (0 Bft) N 0 0 min 0,000 mm 0,0 UV-I 0 W/m -1,0 C -0,3 C 0,0 km/h (0 Bft) 100,00 %
03.01.2018 04:37 -0,3 C 3,9 C 95 % 1008,6 hPa 0,0 l/m 0,0 km/h (0 Bft) N 0 0 min 0,000 mm 0,0 UV-I 0 W/m -1,0 C -0,3 C 0,0 km/h (0 Bft) 100,00 %
03.01.2018 04:38 -0,2 C 3,9 C 95 % 1008,5 hPa 0,0 l/m 0,0 km/h (0 Bft) N 0 0 min 0,000 mm 0,0 UV-I 0 W/m -0,9 C -0,2 C 0,0 km/h (0 Bft) 100,00 %
03.01.2018 04:39 -0,2 C 3,9 C 95 % 1008,5 hPa 0,0 l/m 0,0 km/h (0 Bft) N 0 0 min 0,000 mm 0,0 UV-I 0 W/m -0,9 C -0,2 C 0,0 km/h (0 Bft) 100,00 %
03.01.2018 04:40 -0,2 C 3,9 C 95 % 1008,4 hPa 0,0 l/m 0,0 km/h (0 Bft) N 0 0 min 0,000 mm 0,0 UV-I 0 W/m -0,9 C -0,2 C 0,0 km/h (0 Bft) 100,00 %
03.01.2018 04:41 -0,2 C 3,9 C 95 % 1008,4 hPa 0,0 l/m 0,0 km/h (0 Bft) N 0 0 min 0,000 mm 0,0 UV-I 0 W/m -0,9 C -0,2 C 0,0 km/h (0 Bft) 100,00 %
03.01.2018 04:42 -0,2 C 3,9 C 95 % 1008,4 hPa 0,0 l/m 0,0 km/h (0 Bft) N 0 0 min 0,000 mm 0,0 UV-I 0 W/m -0,9 C -0,2 C 0,0 km/h (0 Bft) 91,30 %
03.01.2018 04:43 -0,2 C 3,9 C 95 % 1008,3 hPa 0,0 l/m 0,0 km/h (0 Bft) N 0 0 min 0,000 mm 0,0 UV-I 0 W/m -0,9 C -0,2 C 0,0 km/h (0 Bft) 100,00 %
03.01.2018 04:44 -0,2 C 3,9 C 95 % 1008,3 hPa 0,0 l/m 0,0 km/h (0 Bft) N 0 0 min 0,000 mm 0,0 UV-I 0 W/m -0,9 C -0,2 C 0,0 km/h (0 Bft) 100,00 %
03.01.2018 04:45 -0,2 C 3,9 C 95 % 1008,3 hPa 0,0 l/m 0,0 km/h (0 Bft) N 0 0 min 0,000 mm 0,0 UV-I 0 W/m -0,9 C -0,2 C 0,0 km/h (0 Bft) 100,00 %
03.01.2018 04:46 -0,2 C 3,9 C 95 % 1008,2 hPa 0,0 l/m 0,0 km/h (0 Bft) N 0 0 min 0,000 mm 0,0 UV-I 0 W/m -0,9 C -0,2 C 0,0 km/h (0 Bft) 100,00 %
03.01.2018 04:47 -0,2 C 3,9 C 95 % 1008,2 hPa 0,0 l/m 0,0 km/h (0 Bft) N 0 0 min 0,000 mm 0,0 UV-I 0 W/m -0,9 C -0,2 C 0,0 km/h (0 Bft) 100,00 %
03.01.2018 04:48 -0,2 C 3,9 C 95 % 1008,2 hPa 0,0 l/m 0,0 km/h (0 Bft) N 0 0 min 0,000 mm 0,0 UV-I 0 W/m -0,9 C -0,2 C 0,0 km/h (0 Bft) 100,00 %
03.01.2018 04:49 -0,2 C 3,9 C 95 % 1008,2 hPa 0,0 l/m 0,0 km/h (0 Bft) N 0 0 min 0,000 mm 0,0 UV-I 0 W/m -0,9 C -0,2 C 0,0 km/h (0 Bft) 91,30 %
03.01.2018 04:50 -0,1 C 3,9 C 95 % 1008,2 hPa 0,0 l/m 0,0 km/h (0 Bft) N 0 0 min 0,000 mm 0,0 UV-I 0 W/m -0,8 C -0,1 C 0,0 km/h (0 Bft) 95,65 %
03.01.2018 04:51 -0,2 C 3,9 C 95 % 1008,3 hPa 0,0 l/m 3,2 km/h (1 Bft) O 90 0 min 0,000 mm 0,0 UV-I 0 W/m -0,9 C -0,2 C 4,8 km/h (1 Bft) 100,00 %
03.01.2018 04:52 -0,2 C 3,9 C 95 % 1008,3 hPa 0,0 l/m 3,2 km/h (1 Bft) O 90 0 min 0,000 mm 0,0 UV-I 0 W/m -0,9 C -0,2 C 3,2 km/h (1 Bft) 100,00 %
03.01.2018 04:53 -0,2 C 3,9 C 95 % 1008,3 hPa 0,0 l/m 1,6 km/h (1 Bft) O 90 0 min 0,000 mm 0,0 UV-I 0 W/m -0,9 C -0,2 C 3,2 km/h (1 Bft) 100,00 %
03.01.2018 04:54 -0,2 C 3,9 C 95 % 1008,3 hPa 0,0 l/m 1,6 km/h (1 Bft) O 90 0 min 0,000 mm 0,0 UV-I 0 W/m -0,9 C -0,2 C 1,6 km/h (1 Bft) 100,00 %
03.01.2018 04:55 -0,2 C 3,9 C 95 % 1008,2 hPa 0,0 l/m 0,0 km/h (0 Bft) N 0 0 min 0,000 mm 0,0 UV-I 0 W/m -0,9 C -0,2 C 0,0 km/h (0 Bft) 100,00 %
03.01.2018 04:56 -0,2 C 3,9 C 95 % 1008,2 hPa 0,0 l/m 0,0 km/h (0 Bft) N 0 0 min 0,000 mm 0,0 UV-I 0 W/m -0,9 C -0,2 C 0,0 km/h (0 Bft) 86,96 %
03.01.2018 04:57 -0,2 C 3,9 C 95 % 1008,1 hPa 0,0 l/m 0,0 km/h (0 Bft) N 0 0 min 0,000 mm 0,0 UV-I 0 W/m -0,9 C -0,2 C 0,0 km/h (0 Bft) 95,65 %
03.01.2018 04:58 -0,2 C 3,9 C 95 % 1008,1 hPa 0,0 l/m 0,0 km/h (0 Bft) N 0 0 min 0,000 mm 0,0 UV-I 0 W/m -0,9 C -0,2 C 0,0 km/h (0 Bft) 95,65 %
03.01.2018 04:59 -0,2 C 3,9 C 95 % 1008,1 hPa 0,0 l/m 1,6 km/h (1 Bft) O 90 0 min 0,000 mm 0,0 UV-I 0 W/m -0,9 C -0,2 C 4,8 km/h (1 Bft) 100,00 %
03.01.2018 05:00 -0,2 C 3,9 C 95 % 1008,2 hPa 0,0 l/m 3,2 km/h (1 Bft) O 90 0 min 0,000 mm 0,0 UV-I 0 W/m -0,9 C -0,2 C 4,8 km/h (1 Bft) 95,65 %
03.01.2018 05:01 -0,2 C 3,9 C 95 % 1008,2 hPa 0,0 l/m 3,2 km/h (1 Bft) O 90 0 min 0,000 mm 0,0 UV-I 0 W/m -0,9 C -0,2 C 4,8 km/h (1 Bft) 100,00 %
03.01.2018 05:02 -0,2 C 3,9 C 95 % 1008,2 hPa 0,0 l/m 3,2 km/h (1 Bft) SO 135 0 min 0,000 mm 0,0 UV-I 0 W/m -0,9 C -0,2 C 4,8 km/h (1 Bft) 95,65 %
03.01.2018 05:03 -0,2 C 3,9 C 95 % 1008,2 hPa 0,0 l/m 3,2 km/h (1 Bft) SO 135 0 min 0,000 mm 0,0 UV-I 0 W/m -0,9 C -0,2 C 4,8 km/h (1 Bft) 91,30 %
03.01.2018 05:04 -0,3 C 3,9 C 95 % 1008,2 hPa 0,0 l/m 3,2 km/h (1 Bft) SO 135 0 min 0,000 mm 0,0 UV-I 0 W/m -1,0 C -0,3 C 4,8 km/h (1 Bft) 100,00 %
03.01.2018 05:05 -0,3 C 3,9 C 95 % 1008,2 hPa 0,0 l/m 3,2 km/h (1 Bft) SO 135 0 min 0,000 mm 0,0 UV-I 0 W/m -1,0 C -0,3 C 3,2 km/h (1 Bft) 95,65 %
03.01.2018 05:06 -0,3 C 3,9 C 95 % 1008,1 hPa 0,0 l/m 1,6 km/h (1 Bft) SO 135 0 min 0,000 mm 0,0 UV-I 0 W/m -1,0 C -0,3 C 3,2 km/h (1 Bft) 100,00 %
03.01.2018 05:07 -0,3 C 3,9 C 95 % 1008,1 hPa 0,0 l/m 1,6 km/h (1 Bft) SO 135 0 min 0,000 mm 0,0 UV-I 0 W/m -1,0 C -0,3 C 3,2 km/h (1 Bft) 91,30 %
03.01.2018 05:08 -0,3 C 3,9 C 95 % 1008,0 hPa 0,0 l/m 1,6 km/h (1 Bft) SO 135 0 min 0,000 mm 0,0 UV-I 0 W/m -1,0 C -0,3 C 3,2 km/h (1 Bft) 100,00 %
03.01.2018 05:09 -0,3 C 3,9 C 95 % 1008,0 hPa 0,0 l/m 3,2 km/h (1 Bft) SO 135 0 min 0,000 mm 0,0 UV-I 0 W/m -1,0 C -0,3 C 3,2 km/h (1 Bft) 95,65 %
03.01.2018 05:10 -0,3 C 3,9 C 95 % 1007,9 hPa 0,0 l/m 3,2 km/h (1 Bft) SO 135 0 min 0,000 mm 0,0 UV-I 0 W/m -1,0 C -0,3 C 3,2 km/h (1 Bft) 95,65 %
03.01.2018 05:11 -0,3 C 3,9 C 95 % 1007,9 hPa 0,0 l/m 3,2 km/h (1 Bft) SO 135 0 min 0,000 mm 0,0 UV-I 0 W/m -1,0 C -0,3 C 3,2 km/h (1 Bft) 95,65 %
03.01.2018 05:12 -0,3 C 3,9 C 96 % 1007,9 hPa 0,0 l/m 3,2 km/h (1 Bft) SO 135 0 min 0,000 mm 0,0 UV-I 0 W/m -0,9 C -0,3 C 3,2 km/h (1 Bft) 91,30 %
03.01.2018 05:13 -0,3 C 3,9 C 96 % 1007,9 hPa 0,0 l/m 3,2 km/h (1 Bft) SO 135 0 min 0,000 mm 0,0 UV-I 0 W/m -0,9 C -0,3 C 3,2 km/h (1 Bft) 95,65 %
03.01.2018 05:14 -0,2 C 3,9 C 96 % 1007,9 hPa 0,0 l/m 3,2 km/h (1 Bft) SO 135 0 min 0,000 mm 0,0 UV-I 0 W/m -0,8 C -0,2 C 3,2 km/h (1 Bft) 100,00 %
03.01.2018 05:15 -0,1 C 3,9 C 96 % 1007,8 hPa 0,0 l/m 1,6 km/h (1 Bft) SO 135 0 min 0,000 mm 0,0 UV-I 0 W/m -0,7 C -0,1 C 3,2 km/h (1 Bft) 91,30 %
03.01.2018 05:16 0,0 C 3,9 C 96 % 1007,8 hPa 0,0 l/m 1,6 km/h (1 Bft) SO 135 0 min 0,000 mm 0,0 UV-I 0 W/m -0,6 C 0,0 C 3,2 km/h (1 Bft) 100,00 %
03.01.2018 05:17 0,0 C 3,9 C 96 % 1007,7 hPa 0,0 l/m 1,6 km/h (1 Bft) SO 135 0 min 0,000 mm 0,0 UV-I 0 W/m -0,6 C 0,0 C 3,2 km/h (1 Bft) 91,30 %
03.01.2018 05:18 0,1 C 3,9 C 96 % 1007,7 hPa 0,0 l/m 1,6 km/h (1 Bft) SO 135 0 min 0,000 mm 0,0 UV-I 0 W/m -0,5 C 0,1 C 3,2 km/h (1 Bft) 100,00 %
03.01.2018 05:19 0,1 C 3,9 C 96 % 1007,7 hPa 0,0 l/m 3,2 km/h (1 Bft) SO 135 0 min 0,000 mm 0,0 UV-I 0 W/m -0,5 C 0,1 C 4,8 km/h (1 Bft) 95,65 %
03.01.2018 05:20 0,2 C 3,9 C 96 % 1007,7 hPa 0,0 l/m 1,6 km/h (1 Bft) SO 135 0 min 0,000 mm 0,0 UV-I 0 W/m -0,4 C 0,2 C 3,2 km/h (1 Bft) 100,00 %
03.01.2018 05:21 0,2 C 3,9 C 95 % 1007,6 hPa 0,0 l/m 0,0 km/h (0 Bft) SO 135 0 min 0,000 mm 0,0 UV-I 0 W/m -0,5 C 0,2 C 1,6 km/h (1 Bft) 100,00 %
03.01.2018 05:22 0,2 C 3,9 C 95 % 1007,7 hPa 0,0 l/m 0,0 km/h (0 Bft) SO 135 0 min 0,000 mm 0,0 UV-I 0 W/m -0,5 C 0,2 C 1,6 km/h (1 Bft) 100,00 %
03.01.2018 05:23 0,2 C 3,9 C 95 % 1007,7 hPa 0,0 l/m 0,0 km/h (0 Bft) N 0 0 min 0,000 mm 0,0 UV-I 0 W/m -0,5 C 0,2 C 0,0 km/h (0 Bft) 100,00 %
03.01.2018 05:24 0,1 C 3,9 C 95 % 1007,7 hPa 0,0 l/m 0,0 km/h (0 Bft) N 0 0 min 0,000 mm 0,0 UV-I 0 W/m -0,6 C 0,1 C 0,0 km/h (0 Bft) 95,65 %
03.01.2018 05:25 0,2 C 3,9 C 95 % 1007,7 hPa 0,0 l/m 0,0 km/h (0 Bft) SO 135 0 min 0,000 mm 0,0 UV-I 0 W/m -0,5 C 0,2 C 1,6 km/h (1 Bft) 100,00 %
03.01.2018 05:26 0,2 C 3,9 C 95 % 1007,8 hPa 0,0 l/m 0,0 km/h (0 Bft) SO 135 0 min 0,000 mm 0,0 UV-I 0 W/m -0,5 C 0,2 C 1,6 km/h (1 Bft) 100,00 %
03.01.2018 05:27 0,2 C 3,9 C 95 % 1007,8 hPa 0,0 l/m 1,6 km/h (1 Bft) SO 135 0 min 0,000 mm 0,0 UV-I 0 W/m -0,5 C 0,2 C 3,2 km/h (1 Bft) 95,65 %
03.01.2018 05:28 0,1 C 3,9 C 95 % 1007,8 hPa 0,0 l/m 0,0 km/h (0 Bft) SO 135 0 min 0,000 mm 0,0 UV-I 0 W/m -0,6 C 0,1 C 1,6 km/h (1 Bft) 100,00 %
03.01.2018 05:29 0,1 C 3,9 C 95 % 1007,9 hPa 0,0 l/m 0,0 km/h (0 Bft) SO 135 0 min 0,000 mm 0,0 UV-I 0 W/m -0,6 C 0,1 C 1,6 km/h (1 Bft) 100,00 %
03.01.2018 05:30 0,1 C 3,9 C 95 % 1007,8 hPa 0,0 l/m 0,0 km/h (0 Bft) N 0 0 min 0,000 mm 0,0 UV-I 0 W/m -0,6 C 0,1 C 0,0 km/h (0 Bft) 100,00 %
03.01.2018 05:31 0,1 C 3,9 C 95 % 1007,8 hPa 0,0 l/m 1,6 km/h (1 Bft) SO 135 0 min 0,000 mm 0,0 UV-I 0 W/m -0,6 C 0,1 C 4,8 km/h (1 Bft) 100,00 %
03.01.2018 05:32 0,1 C 3,9 C 95 % 1007,7 hPa 0,0 l/m 4,8 km/h (1 Bft) SO 135 0 min 0,000 mm 0,0 UV-I 0 W/m -0,6 C 0,1 C 6,4 km/h (2 Bft) 95,65 %
03.01.2018 05:33 0,1 C 3,9 C 95 % 1007,6 hPa 0,0 l/m 6,4 km/h (2 Bft) O-NO 67 0 min 0,000 mm 0,0 UV-I 0 W/m -0,6 C 0,1 C 8,0 km/h (2 Bft) 100,00 %
03.01.2018 05:34 0,2 C 3,9 C 95 % 1007,5 hPa 0,0 l/m 6,4 km/h (2 Bft) O-NO 67 0 min 0,000 mm 0,0 UV-I 0 W/m -0,5 C 0,2 C 8,0 km/h (2 Bft) 100,00 %
03.01.2018 05:35 0,3 C 3,9 C 96 % 1007,6 hPa 0,0 l/m 6,4 km/h (2 Bft) NO 45 0 min 0,000 mm 0,0 UV-I 0 W/m -0,3 C 0,3 C 6,4 km/h (2 Bft) 91,30 %
03.01.2018 05:36 0,4 C 3,9 C 95 % 1007,6 hPa 0,0 l/m 3,2 km/h (1 Bft) NO 45 0 min 0,000 mm 0,0 UV-I 0 W/m -0,3 C 0,4 C 6,4 km/h (2 Bft) 100,00 %
03.01.2018 05:37 0,4 C 3,9 C 95 % 1007,7 hPa 0,0 l/m 4,8 km/h (1 Bft) SW 225 0 min 0,000 mm 0,0 UV-I 0 W/m -0,3 C 0,4 C 6,4 km/h (2 Bft) 100,00 %
03.01.2018 05:38 0,4 C 3,9 C 95 % 1007,7 hPa 0,0 l/m 3,2 km/h (1 Bft) SW 225 0 min 0,000 mm 0,0 UV-I 0 W/m -0,3 C 0,4 C 6,4 km/h (2 Bft) 100,00 %
03.01.2018 05:39 0,4 C 3,9 C 95 % 1007,5 hPa 0,0 l/m 3,2 km/h (1 Bft) S-SO 157 0 min 0,000 mm 0,0 UV-I 0 W/m -0,3 C 0,4 C 6,4 km/h (2 Bft) 95,65 %
03.01.2018 05:40 0,4 C 3,9 C 95 % 1007,5 hPa 0,0 l/m 0,0 km/h (0 Bft) S-SO 157 0 min 0,000 mm 0,0 UV-I 0 W/m -0,3 C 0,4 C 3,2 km/h (1 Bft) 100,00 %
03.01.2018 05:41 0,4 C 3,9 C 95 % 1007,6 hPa 0,0 l/m 3,2 km/h (1 Bft) S-SO 157 0 min 0,000 mm 0,0 UV-I 0 W/m -0,3 C 0,4 C 3,2 km/h (1 Bft) 100,00 %
03.01.2018 05:42 0,4 C 3,9 C 95 % 1007,5 hPa 0,0 l/m 4,8 km/h (1 Bft) S-SO 157 0 min 0,000 mm 0,0 UV-I 0 W/m -0,3 C 0,4 C 6,4 km/h (2 Bft) 95,65 %
03.01.2018 05:43 0,4 C 3,9 C 94 % 1007,5 hPa 0,0 l/m 0,0 km/h (0 Bft) S-SO 157 0 min 0,000 mm 0,0 UV-I 0 W/m -0,5 C 0,4 C 1,6 km/h (1 Bft) 100,00 %
03.01.2018 05:44 0,3 C 3,9 C 94 % 1007,5 hPa 0,0 l/m 0,0 km/h (0 Bft) S-SO 157 0 min 0,000 mm 0,0 UV-I 0 W/m -0,5 C 0,3 C 3,2 km/h (1 Bft) 91,30 %
03.01.2018 05:45 0,3 C 3,9 C 95 % 1007,4 hPa 0,0 l/m 3,2 km/h (1 Bft) S-SO 157 0 min 0,000 mm 0,0 UV-I 0 W/m -0,4 C 0,3 C 6,4 km/h (2 Bft) 100,00 %
03.01.2018 05:46 0,3 C 3,9 C 95 % 1007,3 hPa 0,0 l/m 3,2 km/h (1 Bft) S-SO 157 0 min 0,000 mm 0,0 UV-I 0 W/m -0,4 C 0,3 C 6,4 km/h (2 Bft) 91,30 %
03.01.2018 05:47 0,3 C 3,9 C 95 % 1007,4 hPa 0,0 l/m 1,6 km/h (1 Bft) S-SO 157 0 min 0,000 mm 0,0 UV-I 0 W/m -0,4 C 0,3 C 1,6 km/h (1 Bft) 95,65 %
03.01.2018 05:48 0,3 C 3,9 C 95 % 1007,5 hPa 0,0 l/m 0,0 km/h (0 Bft) S-SO 157 0 min 0,000 mm 0,0 UV-I 0 W/m -0,4 C 0,3 C 1,6 km/h (1 Bft) 95,65 %
03.01.2018 05:49 0,4 C 3,9 C 95 % 1007,5 hPa 0,0 l/m 3,2 km/h (1 Bft) S-SO 157 0 min 0,000 mm 0,0 UV-I 0 W/m -0,3 C 0,4 C 3,2 km/h (1 Bft) 95,65 %
03.01.2018 05:50 0,3 C 3,9 C 95 % 1007,5 hPa 0,0 l/m 1,6 km/h (1 Bft) S-SO 157 0 min 0,000 mm 0,0 UV-I 0 W/m -0,4 C 0,3 C 1,6 km/h (1 Bft) 100,00 %
03.01.2018 05:51 0,4 C 3,9 C 95 % 1007,4 hPa 0,0 l/m 0,0 km/h (0 Bft) N 0 0 min 0,000 mm 0,0 UV-I 0 W/m -0,3 C 0,4 C 0,0 km/h (0 Bft) 95,65 %
03.01.2018 05:52 0,4 C 3,9 C 95 % 1007,3 hPa 0,0 l/m 0,0 km/h (0 Bft) S-SO 157 0 min 0,000 mm 0,0 UV-I 0 W/m -0,3 C 0,4 C 1,6 km/h (1 Bft) 95,65 %
03.01.2018 05:53 0,4 C 3,9 C 95 % 1007,3 hPa 0,0 l/m 0,0 km/h (0 Bft) N 0 0 min 0,000 mm 0,0 UV-I 0 W/m -0,3 C 0,4 C 0,0 km/h (0 Bft) 91,30 %
03.01.2018 05:54 0,4 C 3,9 C 95 % 1007,4 hPa 0,0 l/m 0,0 km/h (0 Bft) N 0 0 min 0,000 mm 0,0 UV-I 0 W/m -0,3 C 0,4 C 0,0 km/h (0 Bft) 100,00 %
03.01.2018 05:55 0,4 C 3,9 C 95 % 1007,4 hPa 0,0 l/m 0,0 km/h (0 Bft) S-SO 157 0 min 0,000 mm 0,0 UV-I 0 W/m -0,3 C 0,4 C 1,6 km/h (1 Bft) 95,65 %
03.01.2018 05:56 0,4 C 3,9 C 95 % 1007,4 hPa 0,0 l/m 0,0 km/h (0 Bft) S-SO 157 0 min 0,000 mm 0,0 UV-I 0 W/m -0,3 C 0,4 C 1,6 km/h (1 Bft) 100,00 %
03.01.2018 05:57 0,3 C 3,9 C 95 % 1007,4 hPa 0,0 l/m 0,0 km/h (0 Bft) N 0 0 min 0,000 mm 0,0 UV-I 0 W/m -0,4 C 0,3 C 0,0 km/h (0 Bft) 95,65 %
03.01.2018 05:58 0,3 C 3,9 C 95 % 1007,5 hPa 0,0 l/m 0,0 km/h (0 Bft) N 0 0 min 0,000 mm 0,0 UV-I 0 W/m -0,4 C 0,3 C 0,0 km/h (0 Bft) 91,30 %
03.01.2018 05:59 0,3 C 3,9 C 95 % 1007,5 hPa 0,0 l/m 0,0 km/h (0 Bft) N 0 0 min 0,000 mm 0,0 UV-I 0 W/m -0,4 C 0,3 C 0,0 km/h (0 Bft) 100,00 %
03.01.2018 06:00 0,3 C 3,9 C 95 % 1007,5 hPa 0,0 l/m 0,0 km/h (0 Bft) S-SO 157 0 min 0,000 mm 0,0 UV-I 0 W/m -0,4 C 0,3 C 1,6 km/h (1 Bft) 91,30 %
03.01.2018 06:01 0,2 C 3,9 C 95 % 1007,5 hPa 0,0 l/m 0,0 km/h (0 Bft) S-SO 157 0 min 0,000 mm 0,0 UV-I 0 W/m -0,5 C 0,2 C 1,6 km/h (1 Bft) 100,00 %
03.01.2018 06:02 0,2 C 3,9 C 95 % 1007,5 hPa 0,0 l/m 1,6 km/h (1 Bft) S-SO 157 0 min 0,000 mm 0,0 UV-I 0 W/m -0,5 C 0,2 C 3,2 km/h (1 Bft) 95,65 %
03.01.2018 06:03 0,2 C 3,9 C 95 % 1007,5 hPa 0,0 l/m 0,0 km/h (0 Bft) S-SO 157 0 min 0,000 mm 0,0 UV-I 0 W/m -0,5 C 0,2 C 1,6 km/h (1 Bft) 100,00 %
03.01.2018 06:04 0,3 C 3,9 C 95 % 1007,5 hPa 0,0 l/m 0,0 km/h (0 Bft) N 0 0 min 0,000 mm 0,0 UV-I 0 W/m -0,4 C 0,3 C 0,0 km/h (0 Bft) 95,65 %
03.01.2018 06:05 0,3 C 3,9 C 95 % 1007,4 hPa 0,0 l/m 0,0 km/h (0 Bft) S-SO 157 0 min 0,000 mm 0,0 UV-I 0 W/m -0,4 C 0,3 C 1,6 km/h (1 Bft) 100,00 %
03.01.2018 06:06 0,3 C 3,9 C 95 % 1007,4 hPa 0,0 l/m 1,6 km/h (1 Bft) S-SO 157 0 min 0,000 mm 0,0 UV-I 0 W/m -0,4 C 0,3 C 3,2 km/h (1 Bft) 91,30 %
03.01.2018 06:07 0,3 C 3,9 C 95 % 1007,3 hPa 0,0 l/m 4,8 km/h (1 Bft) S-SO 157 0 min 0,000 mm 0,0 UV-I 0 W/m -0,4 C 0,3 C 6,4 km/h (2 Bft) 91,30 %
03.01.2018 06:08 0,3 C 3,9 C 95 % 1007,2 hPa 0,0 l/m 6,4 km/h (2 Bft) O-NO 67 0 min 0,000 mm 0,0 UV-I 0 W/m -0,4 C 0,3 C 8,0 km/h (2 Bft) 100,00 %
03.01.2018 06:09 0,3 C 3,9 C 95 % 1007,1 hPa 0,0 l/m 6,4 km/h (2 Bft) O-NO 67 0 min 0,000 mm 0,0 UV-I 0 W/m -0,4 C 0,3 C 8,0 km/h (2 Bft) 95,65 %
03.01.2018 06:10 0,3 C 3,9 C 95 % 1007,0 hPa 0,0 l/m 6,4 km/h (2 Bft) NO 45 0 min 0,000 mm 0,0 UV-I 0 W/m -0,4 C 0,3 C 8,0 km/h (2 Bft) 100,00 %
03.01.2018 06:11 0,3 C 3,9 C 95 % 1007,0 hPa 0,0 l/m 4,8 km/h (1 Bft) NO 45 0 min 0,000 mm 0,0 UV-I 0 W/m -0,4 C 0,3 C 6,4 km/h (2 Bft) 95,65 %
03.01.2018 06:12 0,4 C 3,9 C 95 % 1007,0 hPa 0,0 l/m 6,4 km/h (2 Bft) NO 45 0 min 0,000 mm 0,0 UV-I 0 W/m -0,3 C 0,4 C 8,0 km/h (2 Bft) 91,30 %
03.01.2018 06:13 0,4 C 3,9 C 95 % 1006,9 hPa 0,0 l/m 6,4 km/h (2 Bft) O-NO 67 0 min 0,000 mm 0,0 UV-I 0 W/m -0,3 C 0,4 C 8,0 km/h (2 Bft) 95,65 %
03.01.2018 06:14 0,4 C 3,9 C 95 % 1006,8 hPa 0,0 l/m 8,0 km/h (2 Bft) O-NO 67 0 min 0,000 mm 0,0 UV-I 0 W/m -0,3 C -1,2 C 9,7 km/h (2 Bft) 95,65 %
03.01.2018 06:15 0,4 C 3,9 C 95 % 1006,8 hPa 0,0 l/m 6,4 km/h (2 Bft) O-NO 67 0 min 0,000 mm 0,0 UV-I 0 W/m -0,3 C 0,4 C 8,0 km/h (2 Bft) 91,30 %
03.01.2018 06:16 0,4 C 3,9 C 95 % 1006,7 hPa 0,0 l/m 8,0 km/h (2 Bft) O-NO 67 0 min 0,000 mm 0,0 UV-I 0 W/m -0,3 C -1,2 C 12,9 km/h (3 Bft) 95,65 %
03.01.2018 06:17 0,3 C 3,9 C 95 % 1006,7 hPa 0,0 l/m 8,0 km/h (2 Bft) O-NO 67 0 min 0,000 mm 0,0 UV-I 0 W/m -0,4 C -1,3 C 12,9 km/h (3 Bft) 100,00 %
03.01.2018 06:18 0,4 C 3,9 C 95 % 1006,5 hPa 0,0 l/m 11,3 km/h (2 Bft) O-NO 67 0 min 0,000 mm 0,0 UV-I 0 W/m -0,3 C -4,0 C 14,5 km/h (3 Bft) 95,65 %
03.01.2018 06:19 0,3 C 3,9 C 95 % 1006,5 hPa 0,0 l/m 12,9 km/h (3 Bft) O-NO 67 0 min 0,000 mm 0,0 UV-I 0 W/m -0,4 C -5,3 C 14,5 km/h (3 Bft) 100,00 %
03.01.2018 06:20 0,4 C 3,9 C 95 % 1006,3 hPa 0,0 l/m 11,3 km/h (2 Bft) O-NO 67 0 min 0,000 mm 0,0 UV-I 0 W/m -0,3 C -4,0 C 14,5 km/h (3 Bft) 100,00 %
03.01.2018 06:21 0,4 C 3,9 C 95 % 1006,2 hPa 0,0 l/m 9,7 km/h (2 Bft) O 90 0 min 0,000 mm 0,0 UV-I 0 W/m -0,3 C -2,8 C 12,9 km/h (3 Bft) 91,30 %
03.01.2018 06:22 0,4 C 3,9 C 95 % 1006,1 hPa 0,0 l/m 11,3 km/h (2 Bft) O 90 0 min 0,000 mm 0,0 UV-I 0 W/m -0,3 C -4,0 C 16,1 km/h (3 Bft) 95,65 %
03.01.2018 06:23 0,4 C 3,9 C 95 % 1006,1 hPa 0,0 l/m 8,0 km/h (2 Bft) O 90 0 min 0,000 mm 0,0 UV-I 0 W/m -0,3 C -1,2 C 11,3 km/h (2 Bft) 95,65 %
03.01.2018 06:24 0,5 C 3,9 C 95 % 1006,1 hPa 0,0 l/m 6,4 km/h (2 Bft) O 90 0 min 0,000 mm 0,0 UV-I 0 W/m -0,2 C 0,5 C 16,1 km/h (3 Bft) 91,30 %
03.01.2018 06:25 0,5 C 3,9 C 95 % 1006,1 hPa 0,0 l/m 9,7 km/h (2 Bft) O-NO 67 0 min 0,000 mm 0,0 UV-I 0 W/m -0,2 C -2,6 C 12,9 km/h (3 Bft) 100,00 %
03.01.2018 06:26 0,6 C 3,9 C 95 % 1006,0 hPa 0,0 l/m 9,7 km/h (2 Bft) O-NO 67 0 min 0,000 mm 0,0 UV-I 0 W/m -0,1 C -2,5 C 11,3 km/h (2 Bft) 95,65 %
03.01.2018 06:27 0,6 C 3,9 C 95 % 1005,9 hPa 0,0 l/m 8,0 km/h (2 Bft) O 90 0 min 0,000 mm 0,0 UV-I 0 W/m -0,1 C -1,0 C 11,3 km/h (2 Bft) 100,00 %
03.01.2018 06:28 0,6 C 3,9 C 95 % 1005,9 hPa 0,0 l/m 8,0 km/h (2 Bft) O 90 0 min 0,000 mm 0,0 UV-I 0 W/m -0,1 C -1,0 C 9,7 km/h (2 Bft) 91,30 %
03.01.2018 06:29 0,6 C 3,9 C 95 % 1005,8 hPa 0,0 l/m 8,0 km/h (2 Bft) O 90 0 min 0,000 mm 0,0 UV-I 0 W/m -0,1 C -1,0 C 11,3 km/h (2 Bft) 100,00 %
03.01.2018 06:30 0,6 C 3,9 C 95 % 1005,7 hPa 0,0 l/m 8,0 km/h (2 Bft) O 90 0 min 0,000 mm 0,0 UV-I 0 W/m -0,1 C -1,0 C 11,3 km/h (2 Bft) 91,30 %
03.01.2018 06:31 0,6 C 3,9 C 95 % 1005,7 hPa 0,0 l/m 6,4 km/h (2 Bft) O-SO 112 0 min 0,000 mm 0,0 UV-I 0 W/m -0,1 C 0,6 C 8,0 km/h (2 Bft) 100,00 %
03.01.2018 06:32 0,6 C 3,9 C 95 % 1005,7 hPa 0,0 l/m 8,0 km/h (2 Bft) O 90 0 min 0,000 mm 0,0 UV-I 0 W/m -0,1 C -1,0 C 11,3 km/h (2 Bft) 95,65 %
03.01.2018 06:33 0,7 C 3,9 C 95 % 1005,6 hPa 0,0 l/m 6,4 km/h (2 Bft) O-NO 67 0 min 0,000 mm 0,0 UV-I 0 W/m -0,0 C 0,7 C 11,3 km/h (2 Bft) 100,00 %
03.01.2018 06:34 0,7 C 3,9 C 94 % 1005,5 hPa 0,0 l/m 12,9 km/h (3 Bft) O 90 0 min 0,000 mm 0,0 UV-I 0 W/m -0,2 C -4,8 C 16,1 km/h (3 Bft) 95,65 %
03.01.2018 06:35 0,7 C 3,9 C 94 % 1005,3 hPa 0,0 l/m 17,7 km/h (3 Bft) O 90 0 min 0,000 mm 0,0 UV-I 0 W/m -0,2 C -7,6 C 20,9 km/h (4 Bft) 91,30 %
03.01.2018 06:36 0,6 C 3,9 C 94 % 1005,1 hPa 0,0 l/m 17,7 km/h (3 Bft) O 90 0 min 0,000 mm 0,0 UV-I 0 W/m -0,3 C -7,7 C 19,3 km/h (3 Bft) 91,30 %
03.01.2018 06:37 0,6 C 3,9 C 94 % 1005,0 hPa 0,0 l/m 12,9 km/h (3 Bft) O 90 0 min 0,000 mm 0,0 UV-I 0 W/m -0,3 C -4,9 C 20,9 km/h (4 Bft) 100,00 %
03.01.2018 06:38 0,6 C 3,9 C 94 % 1005,1 hPa 0,0 l/m 8,0 km/h (2 Bft) O-NO 67 0 min 0,000 mm 0,0 UV-I 0 W/m -0,3 C -1,0 C 11,3 km/h (2 Bft) 95,65 %
03.01.2018 06:39 0,6 C 3,9 C 95 % 1005,2 hPa 0,0 l/m 4,8 km/h (1 Bft) W-NW 292 0 min 0,000 mm 0,0 UV-I 0 W/m -0,1 C 0,6 C 9,7 km/h (2 Bft) 95,65 %
03.01.2018 06:40 0,6 C 3,9 C 95 % 1005,4 hPa 0,0 l/m 6,4 km/h (2 Bft) W-NW 292 0 min 0,000 mm 0,0 UV-I 0 W/m -0,1 C 0,6 C 12,9 km/h (3 Bft) 100,00 %
03.01.2018 06:41 0,6 C 3,9 C 95 % 1005,3 hPa 0,0 l/m 1,6 km/h (1 Bft) NW 315 0 min 0,000 mm 0,0 UV-I 0 W/m -0,1 C 0,6 C 3,2 km/h (1 Bft) 95,65 %
03.01.2018 06:42 0,5 C 3,9 C 94 % 1005,1 hPa 0,0 l/m 0,0 km/h (0 Bft) O-NO 67 0 min 0,000 mm 0,0 UV-I 0 W/m -0,4 C 0,5 C 1,6 km/h (1 Bft) 95,65 %
03.01.2018 06:43 0,5 C 3,9 C 94 % 1005,0 hPa 0,0 l/m 6,4 km/h (2 Bft) O-NO 67 0 min 0,000 mm 0,0 UV-I 0 W/m -0,4 C 0,5 C 11,3 km/h (2 Bft) 95,65 %
03.01.2018 06:44 0,5 C 3,9 C 95 % 1004,8 hPa 0,0 l/m 9,7 km/h (2 Bft) O-NO 67 0 min 0,000 mm 0,0 UV-I 0 W/m -0,2 C -2,6 C 12,9 km/h (3 Bft) 95,65 %
03.01.2018 06:45 0,5 C 3,9 C 95 % 1004,8 hPa 0,0 l/m 12,9 km/h (3 Bft) O 90 0 min 0,000 mm 0,0 UV-I 0 W/m -0,2 C -5,0 C 16,1 km/h (3 Bft) 100,00 %
03.01.2018 06:46 0,6 C 3,9 C 95 % 1004,7 hPa 0,0 l/m 12,9 km/h (3 Bft) O-SO 112 0 min 0,000 mm 0,0 UV-I 0 W/m -0,1 C -4,9 C 17,7 km/h (3 Bft) 100,00 %
03.01.2018 06:47 0,6 C 3,9 C 95 % 1004,7 hPa 0,0 l/m 12,9 km/h (3 Bft) O-SO 112 0 min 0,000 mm 0,0 UV-I 0 W/m -0,1 C -4,9 C 16,1 km/h (3 Bft) 100,00 %
03.01.2018 06:48 0,6 C 3,9 C 95 % 1004,7 hPa 0,0 l/m 11,3 km/h (2 Bft) O-SO 112 0 min 0,000 mm 0,0 UV-I 0 W/m -0,1 C -3,8 C 12,9 km/h (3 Bft) 100,00 %
03.01.2018 06:49 0,6 C 3,9 C 95 % 1004,7 hPa 0,0 l/m 11,3 km/h (2 Bft) O 90 0 min 0,000 mm 0,0 UV-I 0 W/m -0,1 C -3,8 C 12,9 km/h (3 Bft) 95,65 %
03.01.2018 06:50 0,7 C 3,9 C 95 % 1004,8 hPa 0,0 l/m 9,7 km/h (2 Bft) O 90 0 min 0,000 mm 0,0 UV-I 0 W/m -0,0 C -2,4 C 11,3 km/h (2 Bft) 91,30 %
03.01.2018 06:51 0,7 C 3,9 C 95 % 1004,8 hPa 0,0 l/m 9,7 km/h (2 Bft) O-SO 112 0 min 0,000 mm 0,0 UV-I 0 W/m -0,0 C -2,4 C 12,9 km/h (3 Bft) 95,65 %
03.01.2018 06:52 0,7 C 3,9 C 95 % 1004,8 hPa 0,0 l/m 8,0 km/h (2 Bft) O-SO 112 0 min 0,000 mm 0,0 UV-I 0 W/m -0,0 C -0,9 C 11,3 km/h (2 Bft) 100,00 %
03.01.2018 06:53 0,7 C 3,9 C 95 % 1004,9 hPa 0,0 l/m 4,8 km/h (1 Bft) SO 135 0 min 0,000 mm 0,0 UV-I 0 W/m -0,0 C 0,7 C 8,0 km/h (2 Bft) 100,00 %
03.01.2018 06:54 0,7 C 3,9 C 95 % 1004,9 hPa 0,0 l/m 4,8 km/h (1 Bft) O-SO 112 0 min 0,000 mm 0,0 UV-I 0 W/m -0,0 C 0,7 C 6,4 km/h (2 Bft) 100,00 %
03.01.2018 06:55 0,7 C 3,9 C 94 % 1004,9 hPa 0,0 l/m 6,4 km/h (2 Bft) O 90 0 min 0,000 mm 0,0 UV-I 0 W/m -0,2 C 0,7 C 6,4 km/h (2 Bft) 95,65 %
03.01.2018 06:56 0,7 C 3,9 C 94 % 1004,9 hPa 0,0 l/m 6,4 km/h (2 Bft) O 90 0 min 0,000 mm 0,0 UV-I 0 W/m -0,2 C 0,7 C 9,7 km/h (2 Bft) 95,65 %
03.01.2018 06:57 0,7 C 3,9 C 94 % 1004,9 hPa 0,0 l/m 8,0 km/h (2 Bft) O 90 0 min 0,000 mm 0,0 UV-I 0 W/m -0,2 C -0,9 C 11,3 km/h (2 Bft) 100,00 %
03.01.2018 06:58 0,6 C 3,9 C 94 % 1004,9 hPa 0,0 l/m 6,4 km/h (2 Bft) O 90 0 min 0,000 mm 0,0 UV-I 0 W/m -0,3 C 0,6 C 9,7 km/h (2 Bft) 100,00 %
03.01.2018 06:59 0,7 C 3,9 C 95 % 1004,8 hPa 0,0 l/m 4,8 km/h (1 Bft) O 90 0 min 0,000 mm 0,0 UV-I 0 W/m -0,0 C 0,7 C 8,0 km/h (2 Bft) 100,00 %
03.01.2018 07:00 0,7 C 3,9 C 95 % 1004,9 hPa 0,0 l/m 6,4 km/h (2 Bft) O-NO 67 0 min 0,000 mm 0,0 UV-I 0 W/m -0,0 C 0,7 C 11,3 km/h (2 Bft) 100,00 %
03.01.2018 07:01 0,7 C 3,9 C 95 % 1004,8 hPa 0,0 l/m 8,0 km/h (2 Bft) O-NO 67 0 min 0,000 mm 0,0 UV-I 0 W/m -0,0 C -0,9 C 9,7 km/h (2 Bft) 100,00 %
03.01.2018 07:02 0,7 C 3,9 C 95 % 1004,8 hPa 0,0 l/m 8,0 km/h (2 Bft) O-NO 67 0 min 0,000 mm 0,0 UV-I 0 W/m -0,0 C -0,9 C 9,7 km/h (2 Bft) 100,00 %
03.01.2018 07:03 0,7 C 3,9 C 94 % 1004,8 hPa 0,0 l/m 8,0 km/h (2 Bft) NO 45 0 min 0,000 mm 0,0 UV-I 0 W/m -0,2 C -0,9 C 9,7 km/h (2 Bft) 95,65 %
03.01.2018 07:04 0,7 C 3,9 C 94 % 1004,7 hPa 0,0 l/m 6,4 km/h (2 Bft) NO 45 0 min 0,000 mm 0,0 UV-I 0 W/m -0,2 C 0,7 C 8,0 km/h (2 Bft) 100,00 %
03.01.2018 07:05 0,7 C 3,9 C 94 % 1004,6 hPa 0,0 l/m 6,4 km/h (2 Bft) NO 45 0 min 0,000 mm 0,0 UV-I 0 W/m -0,2 C 0,7 C 8,0 km/h (2 Bft) 100,00 %
03.01.2018 07:06 0,6 C 3,9 C 94 % 1004,5 hPa 0,0 l/m 8,0 km/h (2 Bft) NO 45 0 min 0,000 mm 0,0 UV-I 0 W/m -0,3 C -1,0 C 9,7 km/h (2 Bft) 100,00 %
03.01.2018 07:07 0,6 C 3,9 C 95 % 1004,3 hPa 0,0 l/m 9,7 km/h (2 Bft) NO 45 0 min 0,000 mm 0,0 UV-I 0 W/m -0,1 C -2,5 C 11,3 km/h (2 Bft) 100,00 %
03.01.2018 07:08 0,6 C 3,9 C 95 % 1004,3 hPa 0,0 l/m 11,3 km/h (2 Bft) NO 45 0 min 0,000 mm 0,0 UV-I 0 W/m -0,1 C -3,8 C 12,9 km/h (3 Bft) 100,00 %
03.01.2018 07:09 0,6 C 3,9 C 95 % 1004,2 hPa 0,0 l/m 9,7 km/h (2 Bft) NO 45 0 min 0,000 mm 0,0 UV-I 0 W/m -0,1 C -2,5 C 14,5 km/h (3 Bft) 100,00 %
03.01.2018 07:10 0,5 C 3,9 C 95 % 1004,2 hPa 0,0 l/m 8,0 km/h (2 Bft) N-NO 22 0 min 0,000 mm 0,0 UV-I 0 W/m -0,2 C -1,1 C 9,7 km/h (2 Bft) 95,65 %
03.01.2018 07:11 0,5 C 3,9 C 95 % 1004,1 hPa 0,0 l/m 9,7 km/h (2 Bft) NO 45 0 min 0,000 mm 0,0 UV-I 0 W/m -0,2 C -2,6 C 12,9 km/h (3 Bft) 95,65 %
03.01.2018 07:12 0,4 C 3,9 C 95 % 1003,9 hPa 0,0 l/m 9,7 km/h (2 Bft) NO 45 0 min 0,000 mm 0,0 UV-I 0 W/m -0,3 C -2,8 C 12,9 km/h (3 Bft) 100,00 %
03.01.2018 07:13 0,4 C 3,9 C 95 % 1003,6 hPa 0,0 l/m 9,7 km/h (2 Bft) NO 45 0 min 0,000 mm 0,0 UV-I 0 W/m -0,3 C -2,8 C 14,5 km/h (3 Bft) 100,00 %
03.01.2018 07:14 0,4 C 3,9 C 95 % 1003,5 hPa 0,0 l/m 6,4 km/h (2 Bft) O-NO 67 0 min 0,000 mm 0,0 UV-I 0 W/m -0,3 C 0,4 C 8,0 km/h (2 Bft) 100,00 %
03.01.2018 07:15 0,4 C 3,9 C 95 % 1003,2 hPa 0,0 l/m 8,0 km/h (2 Bft) O-NO 67 0 min 0,000 mm 0,0 UV-I 0 W/m -0,3 C -1,2 C 9,7 km/h (2 Bft) 100,00 %
03.01.2018 07:16 0,4 C 3,9 C 95 % 1003,1 hPa 0,0 l/m 11,3 km/h (2 Bft) O-NO 67 0 min 0,000 mm 0,0 UV-I 0 W/m -0,3 C -4,0 C 14,5 km/h (3 Bft) 100,00 %
03.01.2018 07:17 0,4 C 3,9 C 95 % 1003,3 hPa 0,0 l/m 9,7 km/h (2 Bft) NO 45 0 min 0,000 mm 0,0 UV-I 0 W/m -0,3 C -2,8 C 12,9 km/h (3 Bft) 95,65 %
03.01.2018 07:18 0,4 C 3,9 C 95 % 1003,4 hPa 0,0 l/m 9,7 km/h (2 Bft) NO 45 0 min 0,000 mm 0,0 UV-I 0 W/m -0,3 C -2,8 C 12,9 km/h (3 Bft) 100,00 %
03.01.2018 07:19 0,4 C 3,9 C 95 % 1003,5 hPa 0,0 l/m 8,0 km/h (2 Bft) NO 45 0 min 0,000 mm 0,0 UV-I 0 W/m -0,3 C -1,2 C 14,5 km/h (3 Bft) 100,00 %
03.01.2018 07:20 0,4 C 3,9 C 95 % 1003,5 hPa 0,0 l/m 9,7 km/h (2 Bft) O-NO 67 0 min 0,000 mm 0,0 UV-I 0 W/m -0,3 C -2,8 C 12,9 km/h (3 Bft) 95,65 %
03.01.2018 07:21 0,4 C 3,9 C 95 % 1003,6 hPa 0,0 l/m 9,7 km/h (2 Bft) O-NO 67 0 min 0,000 mm 0,0 UV-I 0 W/m -0,3 C -2,8 C 14,5 km/h (3 Bft) 100,00 %
03.01.2018 07:22 0,4 C 3,9 C 95 % 1003,6 hPa 0,0 l/m 9,7 km/h (2 Bft) O-NO 67 0 min 0,000 mm 0,0 UV-I 0 W/m -0,3 C -2,8 C 12,9 km/h (3 Bft) 100,00 %
03.01.2018 07:23 0,4 C 3,9 C 95 % 1003,6 hPa 0,0 l/m 9,7 km/h (2 Bft) O-NO 67 0 min 0,000 mm 0,0 UV-I 0 W/m -0,3 C -2,8 C 12,9 km/h (3 Bft) 95,65 %
03.01.2018 07:24 0,4 C 3,9 C 95 % 1003,4 hPa 0,0 l/m 8,0 km/h (2 Bft) O-NO 67 0 min 0,000 mm 0,0 UV-I 0 W/m -0,3 C -1,2 C 11,3 km/h (2 Bft) 95,65 %
03.01.2018 07:25 0,4 C 3,9 C 95 % 1003,4 hPa 0,0 l/m 9,7 km/h (2 Bft) O-NO 67 0 min 0,000 mm 0,0 UV-I 0 W/m -0,3 C -2,8 C 12,9 km/h (3 Bft) 100,00 %
03.01.2018 07:26 0,4 C 3,9 C 95 % 1003,3 hPa 0,0 l/m 11,3 km/h (2 Bft) O-NO 67 0 min 0,000 mm 0,0 UV-I 0 W/m -0,3 C -4,0 C 14,5 km/h (3 Bft) 100,00 %
03.01.2018 07:27 0,4 C 3,9 C 95 % 1003,2 hPa 0,0 l/m 11,3 km/h (2 Bft) O-NO 67 0 min 0,000 mm 0,0 UV-I 0 W/m -0,3 C -4,0 C 14,5 km/h (3 Bft) 100,00 %
03.01.2018 07:28 0,4 C 3,9 C 95 % 1003,1 hPa 0,0 l/m 11,3 km/h (2 Bft) O-NO 67 0 min 0,000 mm 0,0 UV-I 0 W/m -0,3 C -4,0 C 16,1 km/h (3 Bft) 100,00 %
03.01.2018 07:29 0,4 C 3,9 C 95 % 1003,1 hPa 0,0 l/m 12,9 km/h (3 Bft) NO 45 0 min 0,000 mm 0,0 UV-I 0 W/m -0,3 C -5,2 C 17,7 km/h (3 Bft) 100,00 %
03.01.2018 07:30 0,4 C 3,9 C 95 % 1003,2 hPa 0,0 l/m 12,9 km/h (3 Bft) NO 45 0 min 0,000 mm 0,0 UV-I 0 W/m -0,3 C -5,2 C 17,7 km/h (3 Bft) 100,00 %
03.01.2018 07:31 0,4 C 3,9 C 95 % 1003,0 hPa 0,0 l/m 11,3 km/h (2 Bft) NO 45 0 min 0,000 mm 0,0 UV-I 0 W/m -0,3 C -4,0 C 14,5 km/h (3 Bft) 95,65 %
03.01.2018 07:32 0,4 C 3,9 C 95 % 1003,0 hPa 0,0 l/m 12,9 km/h (3 Bft) NO 45 0 min 0,000 mm 0,0 UV-I 0 W/m -0,3 C -5,2 C 17,7 km/h (3 Bft) 95,65 %
03.01.2018 07:33 0,4 C 3,9 C 95 % 1003,0 hPa 0,0 l/m 14,5 km/h (3 Bft) O-NO 67 0 min 0,000 mm 0,0 UV-I 0 W/m -0,3 C -6,2 C 17,7 km/h (3 Bft) 100,00 %
03.01.2018 07:34 0,4 C 3,9 C 95 % 1002,9 hPa 0,0 l/m 12,9 km/h (3 Bft) O-NO 67 0 min 0,000 mm 0,0 UV-I 0 W/m -0,3 C -5,2 C 17,7 km/h (3 Bft) 100,00 %
03.01.2018 07:35 0,4 C 3,9 C 95 % 1002,8 hPa 0,0 l/m 12,9 km/h (3 Bft) O-NO 67 0 min 0,000 mm 0,0 UV-I 0 W/m -0,3 C -5,2 C 19,3 km/h (3 Bft) 100,00 %
03.01.2018 07:36 0,4 C 3,9 C 95 % 1002,7 hPa 0,0 l/m 14,5 km/h (3 Bft) NO 45 0 min 0,000 mm 0,0 UV-I 0 W/m -0,3 C -6,2 C 19,3 km/h (3 Bft) 91,30 %
03.01.2018 07:37 0,4 C 3,9 C 95 % 1002,7 hPa 0,0 l/m 14,5 km/h (3 Bft) NO 45 0 min 0,000 mm 0,0 UV-I 0 W/m -0,3 C -6,2 C 19,3 km/h (3 Bft) 100,00 %
03.01.2018 07:38 0,4 C 3,9 C 95 % 1002,7 hPa 0,0 l/m 12,9 km/h (3 Bft) O-NO 67 0 min 0,000 mm 0,0 UV-I 0 W/m -0,3 C -5,2 C 16,1 km/h (3 Bft) 91,30 %
03.01.2018 07:39 0,4 C 3,9 C 95 % 1002,6 hPa 0,0 l/m 12,9 km/h (3 Bft) O-NO 67 0 min 0,000 mm 0,0 UV-I 0 W/m -0,3 C -5,2 C 17,7 km/h (3 Bft) 100,00 %
03.01.2018 07:40 0,4 C 3,9 C 95 % 1002,6 hPa 0,0 l/m 12,9 km/h (3 Bft) NO 45 0 min 0,000 mm 0,0 UV-I 0 W/m -0,3 C -5,2 C 16,1 km/h (3 Bft) 95,65 %
03.01.2018 07:41 0,4 C 3,9 C 95 % 1002,6 hPa 0,0 l/m 12,9 km/h (3 Bft) O-NO 67 0 min 0,000 mm 0,0 UV-I 0 W/m -0,3 C -5,2 C 17,7 km/h (3 Bft) 95,65 %
03.01.2018 07:42 0,4 C 3,9 C 95 % 1002,6 hPa 0,0 l/m 9,7 km/h (2 Bft) O-NO 67 0 min 0,000 mm 0,0 UV-I 0 W/m -0,3 C -2,8 C 14,5 km/h (3 Bft) 100,00 %
03.01.2018 07:43 0,4 C 3,9 C 95 % 1002,5 hPa 0,0 l/m 11,3 km/h (2 Bft) O-NO 67 0 min 0,000 mm 0,0 UV-I 0 W/m -0,3 C -4,0 C 14,5 km/h (3 Bft) 95,65 %
03.01.2018 07:44 0,4 C 3,9 C 95 % 1002,4 hPa 0,0 l/m 11,3 km/h (2 Bft) NO 45 0 min 0,000 mm 0,0 UV-I 0 W/m -0,3 C -4,0 C 16,1 km/h (3 Bft) 100,00 %
03.01.2018 07:45 0,4 C 3,9 C 95 % 1002,3 hPa 0,0 l/m 9,7 km/h (2 Bft) NO 45 0 min 0,000 mm 0,0 UV-I 0 W/m -0,3 C -2,8 C 14,5 km/h (3 Bft) 91,30 %
03.01.2018 07:46 0,4 C 3,9 C 96 % 1002,3 hPa 0,0 l/m 9,7 km/h (2 Bft) O-NO 67 0 min 0,000 mm 0,0 UV-I 0 W/m -0,2 C -2,8 C 14,5 km/h (3 Bft) 100,00 %
03.01.2018 07:47 0,4 C 3,9 C 96 % 1002,2 hPa 0,0 l/m 12,9 km/h (3 Bft) O-NO 67 0 min 0,000 mm 0,0 UV-I 0 W/m -0,2 C -5,2 C 16,1 km/h (3 Bft) 95,65 %
03.01.2018 07:48 0,4 C 3,9 C 96 % 1002,2 hPa 0,0 l/m 11,3 km/h (2 Bft) O-NO 67 0 min 0,000 mm 0,0 UV-I 0 W/m -0,2 C -4,0 C 16,1 km/h (3 Bft) 100,00 %
03.01.2018 07:49 0,4 C 3,9 C 96 % 1002,2 hPa 0,0 l/m 11,3 km/h (2 Bft) NO 45 0 min 0,000 mm 0,0 UV-I 5 W/m -0,2 C -4,0 C 14,5 km/h (3 Bft) 95,65 %
03.01.2018 07:50 0,4 C 3,9 C 96 % 1002,2 hPa 0,0 l/m 11,3 km/h (2 Bft) O-NO 67 0 min 0,000 mm 0,0 UV-I 5 W/m -0,2 C -4,0 C 14,5 km/h (3 Bft) 95,65 %
03.01.2018 07:51 0,4 C 3,9 C 96 % 1002,1 hPa 0,0 l/m 11,3 km/h (2 Bft) NO 45 0 min 0,000 mm 0,0 UV-I 5 W/m -0,2 C -4,0 C 14,5 km/h (3 Bft) 91,30 %
03.01.2018 07:52 0,4 C 3,9 C 96 % 1002,0 hPa 0,0 l/m 12,9 km/h (3 Bft) NO 45 0 min 0,000 mm 0,0 UV-I 5 W/m -0,2 C -5,2 C 16,1 km/h (3 Bft) 95,65 %
03.01.2018 07:53 0,4 C 3,9 C 96 % 1001,9 hPa 0,0 l/m 12,9 km/h (3 Bft) O-NO 67 0 min 0,000 mm 0,0 UV-I 5 W/m -0,2 C -5,2 C 19,3 km/h (3 Bft) 91,30 %
03.01.2018 07:54 0,4 C 3,9 C 96 % 1001,7 hPa 0,0 l/m 17,7 km/h (3 Bft) NO 45 0 min 0,000 mm 0,0 UV-I 5 W/m -0,2 C -8,0 C 20,9 km/h (4 Bft) 100,00 %
03.01.2018 07:55 0,4 C 3,9 C 96 % 1001,6 hPa 0,0 l/m 12,9 km/h (3 Bft) O-NO 67 0 min 0,000 mm 0,0 UV-I 5 W/m -0,2 C -5,2 C 17,7 km/h (3 Bft) 91,30 %
03.01.2018 07:56 0,4 C 3,9 C 96 % 1001,7 hPa 0,0 l/m 11,3 km/h (2 Bft) NO 45 0 min 0,000 mm 0,0 UV-I 5 W/m -0,2 C -4,0 C 16,1 km/h (3 Bft) 95,65 %
03.01.2018 07:57 0,4 C 3,9 C 96 % 1001,8 hPa 0,0 l/m 9,7 km/h (2 Bft) O-NO 67 0 min 0,000 mm 0,0 UV-I 5 W/m -0,2 C -2,8 C 14,5 km/h (3 Bft) 91,30 %
03.01.2018 07:58 0,4 C 3,9 C 96 % 1001,9 hPa 0,0 l/m 8,0 km/h (2 Bft) NO 45 0 min 0,000 mm 0,0 UV-I 5 W/m -0,2 C -1,2 C 12,9 km/h (3 Bft) 95,65 %
03.01.2018 07:59 0,4 C 3,9 C 96 % 1001,8 hPa 0,0 l/m 6,4 km/h (2 Bft) NO 45 0 min 0,000 mm 0,0 UV-I 5 W/m -0,2 C 0,4 C 9,7 km/h (2 Bft) 91,30 %
03.01.2018 08:00 0,4 C 3,9 C 96 % 1001,7 hPa 0,0 l/m 11,3 km/h (2 Bft) O-NO 67 0 min 0,000 mm 0,0 UV-I 5 W/m -0,2 C -4,0 C 16,1 km/h (3 Bft) 95,65 %
03.01.2018 08:01 0,4 C 3,9 C 96 % 1001,6 hPa 0,0 l/m 11,3 km/h (2 Bft) NO 45 0 min 0,000 mm 0,0 UV-I 5 W/m -0,2 C -4,0 C 14,5 km/h (3 Bft) 100,00 %
03.01.2018 08:02 0,4 C 3,9 C 96 % 1001,5 hPa 0,0 l/m 6,4 km/h (2 Bft) NO 45 0 min 0,000 mm 0,0 UV-I 5 W/m -0,2 C 0,4 C 9,7 km/h (2 Bft) 86,96 %
03.01.2018 08:03 0,4 C 3,9 C 96 % 1001,6 hPa 0,0 l/m 9,7 km/h (2 Bft) NO 45 0 min 0,000 mm 0,0 UV-I 5 W/m -0,2 C -2,8 C 11,3 km/h (2 Bft) 100,00 %
03.01.2018 08:04 0,4 C 3,9 C 96 % 1001,6 hPa 0,0 l/m 8,0 km/h (2 Bft) NO 45 0 min 0,000 mm 0,0 UV-I 5 W/m -0,2 C -1,2 C 9,7 km/h (2 Bft) 86,96 %
03.01.2018 08:05 0,4 C 3,9 C 96 % 1001,6 hPa 0,0 l/m 9,7 km/h (2 Bft) NO 45 0 min 0,000 mm 0,0 UV-I 5 W/m -0,2 C -2,8 C 12,9 km/h (3 Bft) 100,00 %
03.01.2018 08:06 0,4 C 3,9 C 96 % 1001,7 hPa 0,0 l/m 9,7 km/h (2 Bft) NO 45 0 min 0,000 mm 0,0 UV-I 5 W/m -0,2 C -2,8 C 11,3 km/h (2 Bft) 86,96 %
03.01.2018 08:07 0,4 C 3,9 C 96 % 1001,7 hPa 0,0 l/m 9,7 km/h (2 Bft) NO 45 0 min 0,000 mm 0,0 UV-I 5 W/m -0,2 C -2,8 C 14,5 km/h (3 Bft) 100,00 %
03.01.2018 08:08 0,4 C 3,9 C 96 % 1001,5 hPa 0,0 l/m 9,7 km/h (2 Bft) O-NO 67 0 min 0,000 mm 0,0 UV-I 5 W/m -0,2 C -2,8 C 12,9 km/h (3 Bft) 95,65 %
03.01.2018 08:09 0,4 C 3,9 C 96 % 1001,3 hPa 0,0 l/m 12,9 km/h (3 Bft) NO 45 0 min 0,000 mm 0,0 UV-I 7 W/m -0,2 C -5,2 C 16,1 km/h (3 Bft) 95,65 %
03.01.2018 08:10 0,5 C 3,9 C 96 % 1001,2 hPa 0,0 l/m 12,9 km/h (3 Bft) O-NO 67 0 min 0,000 mm 0,0 UV-I 7 W/m -0,1 C -5,0 C 16,1 km/h (3 Bft) 100,00 %
03.01.2018 08:11 0,4 C 3,9 C 96 % 1001,0 hPa 0,0 l/m 14,5 km/h (3 Bft) NO 45 0 min 0,000 mm 0,0 UV-I 7 W/m -0,2 C -6,2 C 20,9 km/h (4 Bft) 91,30 %
03.01.2018 08:12 0,5 C 3,9 C 96 % 1000,9 hPa 0,0 l/m 17,7 km/h (3 Bft) O-NO 67 0 min 0,000 mm 0,0 UV-I 7 W/m -0,1 C -7,9 C 22,5 km/h (4 Bft) 100,00 %
03.01.2018 08:13 0,5 C 3,9 C 96 % 1000,8 hPa 0,0 l/m 14,5 km/h (3 Bft) NO 45 0 min 0,000 mm 0,0 UV-I 7 W/m -0,1 C -6,1 C 17,7 km/h (3 Bft) 91,30 %
03.01.2018 08:14 0,5 C 3,9 C 96 % 1000,6 hPa 0,0 l/m 14,5 km/h (3 Bft) O-NO 67 0 min 0,000 mm 0,0 UV-I 7 W/m -0,1 C -6,1 C 22,5 km/h (4 Bft) 100,00 %
03.01.2018 08:15 0,5 C 3,9 C 96 % 1000,6 hPa 0,0 l/m 16,1 km/h (3 Bft) O-NO 67 0 min 0,000 mm 0,0 UV-I 7 W/m -0,1 C -7,0 C 19,3 km/h (3 Bft) 95,65 %
03.01.2018 08:16 0,5 C 3,9 C 96 % 1000,5 hPa 0,0 l/m 14,5 km/h (3 Bft) O-NO 67 0 min 0,000 mm 0,0 UV-I 9 W/m -0,1 C -6,1 C 19,3 km/h (3 Bft) 100,00 %
03.01.2018 08:17 0,5 C 3,9 C 96 % 1000,5 hPa 0,0 l/m 14,5 km/h (3 Bft) O-NO 67 0 min 0,000 mm 0,0 UV-I 9 W/m -0,1 C -6,1 C 19,3 km/h (3 Bft) 91,30 %
03.01.2018 08:18 0,5 C 3,9 C 96 % 1000,5 hPa 0,0 l/m 11,3 km/h (2 Bft) O-NO 67 0 min 0,000 mm 0,0 UV-I 9 W/m -0,1 C -3,9 C 14,5 km/h (3 Bft) 95,65 %
03.01.2018 08:19 0,6 C 3,9 C 96 % 1000,5 hPa 0,0 l/m 11,3 km/h (2 Bft) O-NO 67 0 min 0,000 mm 0,0 UV-I 9 W/m 0,0 C -3,8 C 16,1 km/h (3 Bft) 100,00 %
03.01.2018 08:20 0,6 C 3,9 C 96 % 1000,4 hPa 0,0 l/m 12,9 km/h (3 Bft) O-NO 67 0 min 0,000 mm 0,0 UV-I 11 W/m 0,0 C -4,9 C 16,1 km/h (3 Bft) 91,30 %
03.01.2018 08:21 0,5 C 3,9 C 96 % 1000,3 hPa 0,0 l/m 9,7 km/h (2 Bft) O-NO 67 0 min 0,000 mm 0,0 UV-I 11 W/m -0,1 C -2,6 C 14,5 km/h (3 Bft) 100,00 %
03.01.2018 08:22 0,6 C 3,9 C 96 % 1000,4 hPa 0,0 l/m 9,7 km/h (2 Bft) NO 45 0 min 0,000 mm 0,0 UV-I 9 W/m 0,0 C -2,5 C 14,5 km/h (3 Bft) 95,65 %
03.01.2018 08:23 0,6 C 3,9 C 96 % 1000,3 hPa 0,0 l/m 9,7 km/h (2 Bft) O-NO 67 0 min 0,000 mm 0,0 UV-I 9 W/m 0,0 C -2,5 C 14,5 km/h (3 Bft) 100,00 %
03.01.2018 08:24 0,6 C 3,9 C 96 % 1000,2 hPa 0,0 l/m 14,5 km/h (3 Bft) O-NO 67 0 min 0,000 mm 0,0 UV-I 9 W/m 0,0 C -6,0 C 17,7 km/h (3 Bft) 95,65 %
03.01.2018 08:25 0,6 C 3,9 C 96 % 1000,2 hPa 0,0 l/m 8,0 km/h (2 Bft) O-NO 67 0 min 0,000 mm 0,0 UV-I 10 W/m 0,0 C -1,0 C 12,9 km/h (3 Bft) 95,65 %
03.01.2018 08:26 0,6 C 3,9 C 96 % 1000,1 hPa 0,0 l/m 11,3 km/h (2 Bft) O-NO 67 0 min 0,000 mm 0,0 UV-I 12 W/m 0,0 C -3,8 C 16,1 km/h (3 Bft) 100,00 %
03.01.2018 08:27 0,6 C 3,9 C 96 % 1000,0 hPa 0,0 l/m 9,7 km/h (2 Bft) O-NO 67 0 min 0,000 mm 0,0 UV-I 14 W/m 0,0 C -2,5 C 16,1 km/h (3 Bft) 95,65 %
03.01.2018 08:28 0,6 C 3,9 C 96 % 1000,0 hPa 0,0 l/m 11,3 km/h (2 Bft) O-NO 67 0 min 0,000 mm 0,0 UV-I 14 W/m 0,0 C -3,8 C 16,1 km/h (3 Bft) 95,65 %
03.01.2018 08:29 0,6 C 3,9 C 96 % 1000,0 hPa 0,0 l/m 11,3 km/h (2 Bft) O-NO 67 0 min 0,000 mm 0,0 UV-I 16 W/m 0,0 C -3,8 C 16,1 km/h (3 Bft) 100,00 %
03.01.2018 08:30 0,6 C 3,9 C 96 % 1000,0 hPa 0,0 l/m 11,3 km/h (2 Bft) O-NO 67 0 min 0,000 mm 0,0 UV-I 16 W/m 0,0 C -3,8 C 16,1 km/h (3 Bft) 100,00 %
03.01.2018 08:31 0,7 C 3,9 C 96 % 999,8 hPa 0,0 l/m 8,0 km/h (2 Bft) O-NO 67 0 min 0,000 mm 0,0 UV-I 16 W/m 0,1 C -0,9 C 16,1 km/h (3 Bft) 100,00 %
03.01.2018 08:32 0,7 C 3,9 C 95 % 999,8 hPa 0,0 l/m 11,3 km/h (2 Bft) O-NO 67 0 min 0,000 mm 0,0 UV-I 16 W/m -0,0 C -3,7 C 14,5 km/h (3 Bft) 100,00 %
03.01.2018 08:33 0,7 C 3,9 C 95 % 999,7 hPa 0,0 l/m 9,7 km/h (2 Bft) O-NO 67 0 min 0,000 mm 0,0 UV-I 16 W/m -0,0 C -2,4 C 14,5 km/h (3 Bft) 100,00 %
03.01.2018 08:34 0,7 C 3,9 C 95 % 999,6 hPa 0,0 l/m 8,0 km/h (2 Bft) O-NO 67 0 min 0,000 mm 0,0 UV-I 16 W/m -0,0 C -0,9 C 12,9 km/h (3 Bft) 95,65 %
03.01.2018 08:35 0,7 C 3,9 C 95 % 999,6 hPa 0,0 l/m 8,0 km/h (2 Bft) NO 45 0 min 0,000 mm 0,0 UV-I 14 W/m -0,0 C -0,9 C 11,3 km/h (2 Bft) 100,00 %
03.01.2018 08:36 0,7 C 3,9 C 95 % 999,5 hPa 0,0 l/m 8,0 km/h (2 Bft) O-NO 67 0 min 0,000 mm 0,0 UV-I 14 W/m -0,0 C -0,9 C 11,3 km/h (2 Bft) 100,00 %
03.01.2018 08:37 0,7 C 3,9 C 95 % 999,5 hPa 0,0 l/m 9,7 km/h (2 Bft) NO 45 0 min 0,000 mm 0,0 UV-I 14 W/m -0,0 C -2,4 C 14,5 km/h (3 Bft) 100,00 %
03.01.2018 08:38 0,7 C 3,9 C 95 % 999,5 hPa 0,0 l/m 11,3 km/h (2 Bft) NO 45 0 min 0,000 mm 0,0 UV-I 16 W/m -0,0 C -3,7 C 16,1 km/h (3 Bft) 95,65 %
03.01.2018 08:39 0,7 C 3,9 C 95 % 999,5 hPa 0,0 l/m 11,3 km/h (2 Bft) O-NO 67 0 min 0,000 mm 0,0 UV-I 18 W/m -0,0 C -3,7 C 14,5 km/h (3 Bft) 95,65 %
03.01.2018 08:40 0,7 C 3,9 C 95 % 999,4 hPa 0,0 l/m 11,3 km/h (2 Bft) NO 45 0 min 0,000 mm 0,0 UV-I 19 W/m -0,0 C -3,7 C 16,1 km/h (3 Bft) 95,65 %
03.01.2018 08:41 0,7 C 3,9 C 95 % 999,4 hPa 0,0 l/m 6,4 km/h (2 Bft) O-NO 67 0 min 0,000 mm 0,0 UV-I 19 W/m -0,0 C 0,7 C 9,7 km/h (2 Bft) 95,65 %
03.01.2018 08:42 0,7 C 3,9 C 95 % 999,4 hPa 0,0 l/m 6,4 km/h (2 Bft) NO 45 0 min 0,000 mm 0,0 UV-I 21 W/m -0,0 C 0,7 C 9,7 km/h (2 Bft) 100,00 %
03.01.2018 08:43 0,7 C 3,9 C 95 % 999,3 hPa 0,0 l/m 8,0 km/h (2 Bft) O-NO 67 0 min 0,000 mm 0,0 UV-I 25 W/m -0,0 C -0,9 C 12,9 km/h (3 Bft) 100,00 %
03.01.2018 08:44 0,7 C 3,9 C 95 % 999,1 hPa 0,0 l/m 11,3 km/h (2 Bft) NO 45 0 min 0,000 mm 0,0 UV-I 32 W/m -0,0 C -3,7 C 16,1 km/h (3 Bft) 100,00 %
03.01.2018 08:45 0,7 C 3,9 C 95 % 998,9 hPa 0,0 l/m 12,9 km/h (3 Bft) NO 45 0 min 0,000 mm 0,0 UV-I 39 W/m -0,0 C -4,8 C 16,1 km/h (3 Bft) 100,00 %
03.01.2018 08:46 0,6 C 3,9 C 95 % 998,8 hPa 0,0 l/m 11,3 km/h (2 Bft) NO 45 0 min 0,000 mm 0,0 UV-I 44 W/m -0,1 C -3,8 C 14,5 km/h (3 Bft) 100,00 %
03.01.2018 08:47 0,7 C 3,9 C 95 % 998,8 hPa 0,0 l/m 11,3 km/h (2 Bft) O-NO 67 0 min 0,000 mm 0,0 UV-I 44 W/m -0,0 C -3,7 C 14,5 km/h (3 Bft) 100,00 %
03.01.2018 08:48 0,6 C 3,9 C 95 % 998,8 hPa 0,0 l/m 9,7 km/h (2 Bft) O-NO 67 0 min 0,000 mm 0,0 UV-I 51 W/m -0,1 C -2,5 C 12,9 km/h (3 Bft) 95,65 %
03.01.2018 08:49 0,6 C 3,9 C 95 % 998,8 hPa 0,0 l/m 8,0 km/h (2 Bft) NO 45 0 min 0,000 mm 0,0 UV-I 51 W/m -0,1 C -1,0 C 12,9 km/h (3 Bft) 100,00 %
03.01.2018 08:50 0,6 C 3,9 C 95 % 998,8 hPa 0,0 l/m 9,7 km/h (2 Bft) NO 45 0 min 0,000 mm 0,0 UV-I 42 W/m -0,1 C -2,5 C 14,5 km/h (3 Bft) 100,00 %
03.01.2018 08:51 0,7 C 3,9 C 95 % 998,8 hPa 0,0 l/m 6,4 km/h (2 Bft) NO 45 0 min 0,000 mm 0,0 UV-I 39 W/m -0,0 C 0,7 C 8,0 km/h (2 Bft) 100,00 %
03.01.2018 08:52 0,6 C 3,9 C 95 % 998,8 hPa 0,0 l/m 4,8 km/h (1 Bft) NO 45 0 min 0,000 mm 0,0 UV-I 35 W/m -0,1 C 0,6 C 8,0 km/h (2 Bft) 100,00 %
03.01.2018 08:53 0,6 C 3,9 C 95 % 998,8 hPa 0,0 l/m 3,2 km/h (1 Bft) NO 45 0 min 0,000 mm 0,0 UV-I 30 W/m -0,1 C 0,6 C 6,4 km/h (2 Bft) 100,00 %
03.01.2018 08:54 0,6 C 3,9 C 95 % 998,8 hPa 0,0 l/m 3,2 km/h (1 Bft) NO 45 0 min 0,000 mm 0,0 UV-I 26 W/m -0,1 C 0,6 C 4,8 km/h (1 Bft) 100,00 %
03.01.2018 08:55 0,7 C 3,9 C 95 % 998,8 hPa 0,0 l/m 4,8 km/h (1 Bft) NO 45 0 min 0,000 mm 0,0 UV-I 20 W/m -0,0 C 0,7 C 6,4 km/h (2 Bft) 95,65 %
03.01.2018 08:56 0,7 C 3,9 C 95 % 998,8 hPa 0,0 l/m 4,8 km/h (1 Bft) NO 45 0 min 0,000 mm 0,0 UV-I 21 W/m -0,0 C 0,7 C 9,7 km/h (2 Bft) 100,00 %
03.01.2018 08:57 0,7 C 3,9 C 95 % 998,8 hPa 0,0 l/m 8,0 km/h (2 Bft) NO 45 0 min 0,000 mm 0,0 UV-I 19 W/m -0,0 C -0,9 C 11,3 km/h (2 Bft) 95,65 %
03.01.2018 08:58 0,6 C 3,9 C 95 % 998,8 hPa 0,0 l/m 8,0 km/h (2 Bft) N-NO 22 0 min 0,000 mm 0,0 UV-I 18 W/m -0,1 C -1,0 C 9,7 km/h (2 Bft) 100,00 %
03.01.2018 08:59 0,6 C 3,9 C 95 % 999,0 hPa 0,0 l/m 1,6 km/h (1 Bft) N-NO 22 0 min 0,000 mm 0,0 UV-I 16 W/m -0,1 C 0,6 C 4,8 km/h (1 Bft) 95,65 %
03.01.2018 09:00 0,6 C 3,9 C 95 % 999,1 hPa 0,0 l/m 1,6 km/h (1 Bft) N 360 0 min 0,000 mm 0,0 UV-I 14 W/m -0,1 C 0,6 C 3,2 km/h (1 Bft) 100,00 %
03.01.2018 09:01 0,6 C 3,9 C 95 % 999,1 hPa 0,0 l/m 0,0 km/h (0 Bft) N 360 0 min 0,000 mm 0,0 UV-I 14 W/m -0,1 C 0,6 C 1,6 km/h (1 Bft) 100,00 %
03.01.2018 09:02 0,6 C 3,9 C 95 % 999,0 hPa 0,0 l/m 1,6 km/h (1 Bft) N-NO 22 0 min 0,000 mm 0,0 UV-I 14 W/m -0,1 C 0,6 C 6,4 km/h (2 Bft) 95,65 %
03.01.2018 09:03 0,6 C 3,9 C 95 % 998,8 hPa 0,0 l/m 4,8 km/h (1 Bft) NO 45 0 min 0,000 mm 0,0 UV-I 14 W/m -0,1 C 0,6 C 8,0 km/h (2 Bft) 100,00 %
03.01.2018 09:04 0,6 C 3,9 C 95 % 998,6 hPa 0,0 l/m 8,0 km/h (2 Bft) O-NO 67 0 min 0,000 mm 0,0 UV-I 14 W/m -0,1 C -1,0 C 8,0 km/h (2 Bft) 100,00 %
03.01.2018 09:05 0,6 C 3,9 C 95 % 998,5 hPa 0,0 l/m 6,4 km/h (2 Bft) NO 45 0 min 0,000 mm 0,0 UV-I 14 W/m -0,1 C 0,6 C 8,0 km/h (2 Bft) 95,65 %
03.01.2018 09:06 0,6 C 3,9 C 95 % 998,3 hPa 0,0 l/m 8,0 km/h (2 Bft) NO 45 0 min 0,000 mm 0,0 UV-I 18 W/m -0,1 C -1,0 C 9,7 km/h (2 Bft) 95,65 %
03.01.2018 09:07 0,6 C 3,9 C 95 % 998,0 hPa 0,0 l/m 8,0 km/h (2 Bft) NO 45 0 min 0,000 mm 0,0 UV-I 25 W/m -0,1 C -1,0 C 14,5 km/h (3 Bft) 100,00 %
03.01.2018 09:08 0,6 C 3,9 C 95 % 997,9 hPa 0,0 l/m 11,3 km/h (2 Bft) NO 45 0 min 0,000 mm 0,0 UV-I 32 W/m -0,1 C -3,8 C 14,5 km/h (3 Bft) 95,65 %
03.01.2018 09:09 0,6 C 3,9 C 95 % 997,8 hPa 0,0 l/m 11,3 km/h (2 Bft) O-NO 67 0 min 0,000 mm 0,0 UV-I 37 W/m -0,1 C -3,8 C 14,5 km/h (3 Bft) 95,65 %
03.01.2018 09:10 0,6 C 3,9 C 95 % 997,9 hPa 0,0 l/m 9,7 km/h (2 Bft) O-NO 67 0 min 0,000 mm 0,0 UV-I 37 W/m -0,1 C -2,5 C 12,9 km/h (3 Bft) 91,30 %
03.01.2018 09:11 0,6 C 3,9 C 95 % 997,7 hPa 0,0 l/m 11,3 km/h (2 Bft) O-NO 67 0 min 0,000 mm 0,0 UV-I 35 W/m -0,1 C -3,8 C 14,5 km/h (3 Bft) 100,00 %
03.01.2018 09:12 0,6 C 3,9 C 95 % 997,6 hPa 0,0 l/m 8,0 km/h (2 Bft) O-NO 67 0 min 0,000 mm 0,0 UV-I 38 W/m -0,1 C -1,0 C 9,7 km/h (2 Bft) 91,30 %
03.01.2018 09:13 0,6 C 3,9 C 95 % 997,5 hPa 0,0 l/m 9,7 km/h (2 Bft) O-NO 67 0 min 0,000 mm 0,0 UV-I 46 W/m -0,1 C -2,5 C 14,5 km/h (3 Bft) 100,00 %
03.01.2018 09:14 0,6 C 3,9 C 95 % 997,5 hPa 0,0 l/m 9,7 km/h (2 Bft) NO 45 0 min 0,000 mm 0,0 UV-I 54 W/m -0,1 C -2,5 C 17,7 km/h (3 Bft) 95,65 %
03.01.2018 09:15 0,6 C 3,9 C 95 % 997,3 hPa 0,0 l/m 14,5 km/h (3 Bft) NO 45 0 min 0,000 mm 0,0 UV-I 65 W/m -0,1 C -6,0 C 17,7 km/h (3 Bft) 100,00 %
03.01.2018 09:16 0,6 C 3,9 C 95 % 997,1 hPa 0,0 l/m 16,1 km/h (3 Bft) O-NO 67 0 min 0,000 mm 0,0 UV-I 76 W/m -0,1 C -6,9 C 16,1 km/h (3 Bft) 91,30 %
03.01.2018 09:17 0,6 C 3,9 C 95 % 997,0 hPa 0,0 l/m 16,1 km/h (3 Bft) NO 45 0 min 0,000 mm 0,0 UV-I 83 W/m -0,1 C -6,9 C 20,9 km/h (4 Bft) 100,00 %
03.01.2018 09:18 0,7 C 3,9 C 95 % 997,1 hPa 0,0 l/m 14,5 km/h (3 Bft) O-NO 67 0 min 0,000 mm 0,0 UV-I 80 W/m -0,0 C -5,8 C 19,3 km/h (3 Bft) 95,65 %
03.01.2018 09:19 0,7 C 3,9 C 95 % 997,1 hPa 0,0 l/m 9,7 km/h (2 Bft) NO 45 0 min 0,000 mm 0,0 UV-I 56 W/m -0,0 C -2,4 C 16,1 km/h (3 Bft) 95,65 %
03.01.2018 09:20 0,7 C 3,9 C 95 % 997,1 hPa 0,0 l/m 8,0 km/h (2 Bft) NO 45 0 min 0,000 mm 0,0 UV-I 39 W/m -0,0 C -0,9 C 14,5 km/h (3 Bft) 100,00 %
03.01.2018 09:21 0,7 C 3,9 C 95 % 997,1 hPa 0,0 l/m 12,9 km/h (3 Bft) NO 45 0 min 0,000 mm 0,0 UV-I 28 W/m -0,0 C -4,8 C 16,1 km/h (3 Bft) 91,30 %
03.01.2018 09:22 0,7 C 3,9 C 95 % 997,0 hPa 0,0 l/m 14,5 km/h (3 Bft) NO 45 0 min 0,000 mm 0,0 UV-I 23 W/m -0,0 C -5,8 C 17,7 km/h (3 Bft) 100,00 %
03.01.2018 09:23 0,7 C 3,9 C 95 % 997,0 hPa 0,0 l/m 14,5 km/h (3 Bft) NO 45 0 min 0,000 mm 0,0 UV-I 19 W/m -0,0 C -5,8 C 17,7 km/h (3 Bft) 86,96 %
03.01.2018 09:24 0,7 C 3,9 C 95 % 997,0 hPa 0,0 l/m 9,7 km/h (2 Bft) NO 45 0 min 0,000 mm 0,0 UV-I 15 W/m -0,0 C -2,4 C 14,5 km/h (3 Bft) 100,00 %
03.01.2018 09:25 0,7 C 3,9 C 95 % 997,0 hPa 0,0 l/m 9,7 km/h (2 Bft) N-NO 22 0 min 0,000 mm 0,0 UV-I 12 W/m -0,0 C -2,4 C 12,9 km/h (3 Bft) 95,65 %
03.01.2018 09:26 0,7 C 3,9 C 95 % 997,1 hPa 0,0 l/m 9,7 km/h (2 Bft) NO 45 0 min 0,000 mm 0,0 UV-I 11 W/m -0,0 C -2,4 C 11,3 km/h (2 Bft) 100,00 %
03.01.2018 09:27 0,7 C 3,9 C 95 % 997,1 hPa 0,0 l/m 6,4 km/h (2 Bft) N-NO 22 0 min 0,000 mm 0,0 UV-I 7 W/m -0,0 C 0,7 C 9,7 km/h (2 Bft) 91,30 %
03.01.2018 09:28 0,7 C 3,9 C 95 % 997,1 hPa 0,0 l/m 9,7 km/h (2 Bft) N-NO 22 0 min 0,000 mm 0,0 UV-I 7 W/m -0,0 C -2,4 C 14,5 km/h (3 Bft) 100,00 %
03.01.2018 09:29 0,7 C 3,9 C 96 % 997,0 hPa 0,0 l/m 9,7 km/h (2 Bft) NO 45 0 min 0,000 mm 0,0 UV-I 9 W/m 0,1 C -2,4 C 14,5 km/h (3 Bft) 100,00 %
03.01.2018 09:30 0,7 C 3,9 C 96 % 996,9 hPa 0,0 l/m 11,3 km/h (2 Bft) NO 45 0 min 0,000 mm 0,0 UV-I 12 W/m 0,1 C -3,7 C 16,1 km/h (3 Bft) 95,65 %
03.01.2018 09:31 0,7 C 3,9 C 96 % 996,8 hPa 0,0 l/m 9,7 km/h (2 Bft) NO 45 0 min 0,000 mm 0,0 UV-I 16 W/m 0,1 C -2,4 C 16,1 km/h (3 Bft) 95,65 %
03.01.2018 09:32 0,7 C 3,9 C 96 % 996,8 hPa 0,0 l/m 11,3 km/h (2 Bft) NO 45 0 min 0,000 mm 0,0 UV-I 21 W/m 0,1 C -3,7 C 14,5 km/h (3 Bft) 100,00 %
03.01.2018 09:33 0,7 C 3,9 C 96 % 996,7 hPa 0,0 l/m 8,0 km/h (2 Bft) NO 45 0 min 0,000 mm 0,0 UV-I 26 W/m 0,1 C -0,9 C 12,9 km/h (3 Bft) 100,00 %
03.01.2018 09:34 0,7 C 3,9 C 96 % 996,7 hPa 0,0 l/m 9,7 km/h (2 Bft) NO 45 0 min 0,000 mm 0,0 UV-I 32 W/m 0,1 C -2,4 C 12,9 km/h (3 Bft) 100,00 %
03.01.2018 09:35 0,7 C 3,9 C 96 % 996,6 hPa 0,0 l/m 8,0 km/h (2 Bft) NO 45 0 min 0,000 mm 0,0 UV-I 35 W/m 0,1 C -0,9 C 11,3 km/h (2 Bft) 100,00 %
03.01.2018 09:36 0,7 C 3,9 C 96 % 996,6 hPa 0,0 l/m 8,0 km/h (2 Bft) NO 45 0 min 0,000 mm 0,0 UV-I 38 W/m 0,1 C -0,9 C 14,5 km/h (3 Bft) 100,00 %
03.01.2018 09:37 0,8 C 3,9 C 96 % 996,6 hPa 0,0 l/m 6,4 km/h (2 Bft) NO 45 0 min 0,000 mm 0,0 UV-I 33 W/m 0,2 C 0,8 C 9,7 km/h (2 Bft) 91,30 %
03.01.2018 09:38 0,8 C 3,9 C 96 % 996,6 hPa 0,0 l/m 8,0 km/h (2 Bft) NO 45 0 min 0,000 mm 0,0 UV-I 32 W/m 0,2 C -0,8 C 12,9 km/h (3 Bft) 100,00 %
03.01.2018 09:39 0,8 C 3,9 C 96 % 996,7 hPa 0,0 l/m 11,3 km/h (2 Bft) NO 45 0 min 0,000 mm 0,0 UV-I 30 W/m 0,2 C -3,6 C 14,5 km/h (3 Bft) 100,00 %
03.01.2018 09:40 0,8 C 3,9 C 96 % 996,7 hPa 0,0 l/m 9,7 km/h (2 Bft) NO 45 0 min 0,000 mm 0,0 UV-I 32 W/m 0,2 C -2,3 C 14,5 km/h (3 Bft) 100,00 %
03.01.2018 09:41 0,8 C 3,9 C 96 % 996,7 hPa 0,0 l/m 8,0 km/h (2 Bft) N-NO 22 0 min 0,000 mm 0,0 UV-I 37 W/m 0,2 C -0,8 C 9,7 km/h (2 Bft) 100,00 %
03.01.2018 09:42 0,8 C 3,9 C 96 % 996,6 hPa 0,0 l/m 9,7 km/h (2 Bft) NO 45 0 min 0,000 mm 0,0 UV-I 42 W/m 0,2 C -2,3 C 12,9 km/h (3 Bft) 95,65 %
03.01.2018 09:43 0,8 C 3,9 C 96 % 996,6 hPa 0,0 l/m 8,0 km/h (2 Bft) N-NO 22 0 min 0,000 mm 0,0 UV-I 49 W/m 0,2 C -0,8 C 14,5 km/h (3 Bft) 100,00 %
03.01.2018 09:44 0,9 C 3,9 C 96 % 996,6 hPa 0,0 l/m 9,7 km/h (2 Bft) N-NO 22 0 min 0,000 mm 0,0 UV-I 56 W/m 0,3 C -2,2 C 12,9 km/h (3 Bft) 95,65 %
03.01.2018 09:45 0,9 C 3,9 C 96 % 996,5 hPa 0,8 l/m 9,7 km/h (2 Bft) N-NO 22 0 min 0,000 mm 0,0 UV-I 62 W/m 0,3 C -2,2 C 12,9 km/h (3 Bft) 91,30 %
03.01.2018 09:46 0,9 C 3,9 C 96 % 996,4 hPa 1,0 l/m 11,3 km/h (2 Bft) NO 45 0 min 0,000 mm 0,0 UV-I 70 W/m 0,3 C -3,5 C 14,5 km/h (3 Bft) 95,65 %
03.01.2018 09:47 0,9 C 3,9 C 96 % 996,5 hPa 0,0 l/m 8,0 km/h (2 Bft) NO 45 0 min 0,000 mm 0,0 UV-I 67 W/m 0,3 C -0,7 C 11,3 km/h (2 Bft) 100,00 %
03.01.2018 09:48 0,9 C 3,9 C 96 % 996,5 hPa 0,0 l/m 8,0 km/h (2 Bft) N-NO 22 0 min 0,000 mm 0,0 UV-I 62 W/m 0,3 C -0,7 C 11,3 km/h (2 Bft) 100,00 %
03.01.2018 09:49 1,0 C 3,9 C 96 % 996,6 hPa 0,0 l/m 6,4 km/h (2 Bft) N-NO 22 0 min 0,000 mm 0,0 UV-I 56 W/m 0,4 C 1,0 C 11,3 km/h (2 Bft) 100,00 %
03.01.2018 09:50 1,0 C 3,9 C 96 % 996,7 hPa 0,0 l/m 6,4 km/h (2 Bft) NO 45 0 min 0,000 mm 0,0 UV-I 49 W/m 0,4 C 1,0 C 9,7 km/h (2 Bft) 100,00 %
03.01.2018 09:51 1,0 C 3,9 C 96 % 996,8 hPa 0,0 l/m 4,8 km/h (1 Bft) NO 45 0 min 0,000 mm 0,0 UV-I 44 W/m 0,4 C 1,0 C 8,0 km/h (2 Bft) 91,30 %
03.01.2018 09:52 1,0 C 3,9 C 96 % 997,0 hPa 0,0 l/m 6,4 km/h (2 Bft) N-NO 22 0 min 0,000 mm 0,0 UV-I 40 W/m 0,4 C 1,0 C 12,9 km/h (3 Bft) 100,00 %
03.01.2018 09:53 1,0 C 3,9 C 96 % 997,1 hPa 0,0 l/m 3,2 km/h (1 Bft) N-NO 22 0 min 0,000 mm 0,0 UV-I 34 W/m 0,4 C 1,0 C 11,3 km/h (2 Bft) 100,00 %
03.01.2018 09:54 1,0 C 3,9 C 96 % 997,0 hPa 0,0 l/m 3,2 km/h (1 Bft) N 360 0 min 0,000 mm 0,0 UV-I 32 W/m 0,4 C 1,0 C 6,4 km/h (2 Bft) 100,00 %
03.01.2018 09:55 1,0 C 3,9 C 96 % 997,2 hPa 0,0 l/m 0,0 km/h (0 Bft) N-NW 337 0 min 0,000 mm 0,0 UV-I 25 W/m 0,4 C 1,0 C 1,6 km/h (1 Bft) 95,65 %
03.01.2018 09:56 1,0 C 3,9 C 96 % 997,0 hPa 0,0 l/m 6,4 km/h (2 Bft) NO 45 0 min 0,000 mm 0,0 UV-I 19 W/m 0,4 C 1,0 C 8,0 km/h (2 Bft) 100,00 %
03.01.2018 09:57 1,0 C 3,9 C 96 % 996,8 hPa 0,0 l/m 12,9 km/h (3 Bft) NO 45 0 min 0,000 mm 0,0 UV-I 16 W/m 0,4 C -4,5 C 17,7 km/h (3 Bft) 95,65 %
03.01.2018 09:58 1,1 C 3,9 C 96 % 996,7 hPa 0,0 l/m 8,0 km/h (2 Bft) NO 45 0 min 0,000 mm 0,0 UV-I 12 W/m 0,5 C -0,5 C 12,9 km/h (3 Bft) 95,65 %
03.01.2018 09:59 1,0 C 3,9 C 96 % 996,7 hPa 0,2 l/m 6,4 km/h (2 Bft) N-NO 22 0 min 0,000 mm 0,0 UV-I 13 W/m 0,4 C 1,0 C 12,9 km/h (3 Bft) 95,65 %
03.01.2018 10:00 1,1 C 3,9 C 96 % 996,7 hPa 0,0 l/m 6,4 km/h (2 Bft) N-NO 22 0 min 0,025 mm 0,0 UV-I 16 W/m 0,5 C 1,1 C 8,0 km/h (2 Bft) 100,00 %
03.01.2018 10:01 1,0 C 3,9 C 96 % 996,6 hPa 0,0 l/m 6,4 km/h (2 Bft) O-NO 67 0 min 0,000 mm 0,0 UV-I 18 W/m 0,4 C 1,0 C 11,3 km/h (2 Bft) 95,65 %
03.01.2018 10:02 1,1 C 3,9 C 96 % 996,5 hPa 0,0 l/m 11,3 km/h (2 Bft) O 90 0 min 0,000 mm 0,0 UV-I 21 W/m 0,5 C -3,2 C 12,9 km/h (3 Bft) 95,65 %
03.01.2018 10:03 1,1 C 3,9 C 96 % 996,4 hPa 0,0 l/m 12,9 km/h (3 Bft) O 90 0 min 0,000 mm 0,0 UV-I 23 W/m 0,5 C -4,3 C 14,5 km/h (3 Bft) 100,00 %
03.01.2018 10:04 1,1 C 3,9 C 96 % 996,3 hPa 0,0 l/m 9,7 km/h (2 Bft) O-NO 67 0 min 0,000 mm 0,0 UV-I 25 W/m 0,5 C -2,0 C 12,9 km/h (3 Bft) 95,65 %
03.01.2018 10:05 1,1 C 3,9 C 96 % 996,2 hPa 0,0 l/m 11,3 km/h (2 Bft) NO 45 0 min 0,000 mm 0,0 UV-I 28 W/m 0,5 C -3,2 C 16,1 km/h (3 Bft) 95,65 %
03.01.2018 10:06 1,1 C 3,9 C 96 % 996,1 hPa 0,0 l/m 9,7 km/h (2 Bft) NO 45 0 min 0,000 mm 0,0 UV-I 32 W/m 0,5 C -2,0 C 12,9 km/h (3 Bft) 91,30 %
03.01.2018 10:07 1,1 C 3,9 C 96 % 996,0 hPa 0,0 l/m 8,0 km/h (2 Bft) NO 45 0 min 0,000 mm 0,0 UV-I 37 W/m 0,5 C -0,5 C 12,9 km/h (3 Bft) 100,00 %
03.01.2018 10:08 1,1 C 3,9 C 96 % 996,1 hPa 0,0 l/m 9,7 km/h (2 Bft) O-NO 67 0 min 0,000 mm 0,0 UV-I 42 W/m 0,5 C -2,0 C 12,9 km/h (3 Bft) 95,65 %
03.01.2018 10:09 1,1 C 3,9 C 96 % 996,1 hPa 0,0 l/m 6,4 km/h (2 Bft) O-NO 67 0 min 0,000 mm 0,0 UV-I 47 W/m 0,5 C 1,1 C 11,3 km/h (2 Bft) 95,65 %
03.01.2018 10:10 1,1 C 3,9 C 96 % 996,2 hPa 0,0 l/m 6,4 km/h (2 Bft) O-NO 67 0 min 0,000 mm 0,0 UV-I 51 W/m 0,5 C 1,1 C 8,0 km/h (2 Bft) 95,65 %
03.01.2018 10:11 1,2 C 3,9 C 96 % 996,2 hPa 0,0 l/m 4,8 km/h (1 Bft) NO 45 0 min 0,000 mm 0,0 UV-I 54 W/m 0,6 C 1,2 C 6,4 km/h (2 Bft) 95,65 %
03.01.2018 10:12 1,2 C 3,9 C 96 % 996,2 hPa 0,0 l/m 6,4 km/h (2 Bft) NO 45 0 min 0,000 mm 0,0 UV-I 49 W/m 0,6 C 1,2 C 8,0 km/h (2 Bft) 95,65 %
03.01.2018 10:13 1,2 C 3,9 C 96 % 996,2 hPa 0,0 l/m 8,0 km/h (2 Bft) O-NO 67 0 min 0,000 mm 0,0 UV-I 44 W/m 0,6 C -0,4 C 9,7 km/h (2 Bft) 91,30 %
03.01.2018 10:14 1,2 C 3,9 C 96 % 996,1 hPa 0,0 l/m 4,8 km/h (1 Bft) O-NO 67 0 min 0,000 mm 0,0 UV-I 39 W/m 0,6 C 1,2 C 8,0 km/h (2 Bft) 100,00 %
03.01.2018 10:15 1,2 C 3,9 C 96 % 996,2 hPa 0,0 l/m 6,4 km/h (2 Bft) O-NO 67 0 min 0,000 mm 0,0 UV-I 37 W/m 0,6 C 1,2 C 8,0 km/h (2 Bft) 95,65 %
03.01.2018 10:16 1,2 C 3,9 C 96 % 996,3 hPa 0,0 l/m 6,4 km/h (2 Bft) NO 45 0 min 0,000 mm 0,0 UV-I 40 W/m 0,6 C 1,2 C 9,7 km/h (2 Bft) 100,00 %
03.01.2018 10:17 1,2 C 3,9 C 96 % 996,3 hPa 0,0 l/m 4,8 km/h (1 Bft) NO 45 0 min 0,000 mm 0,0 UV-I 48 W/m 0,6 C 1,2 C 8,0 km/h (2 Bft) 95,65 %
03.01.2018 10:18 1,3 C 3,9 C 96 % 996,4 hPa 0,0 l/m 3,2 km/h (1 Bft) NO 45 0 min 0,000 mm 0,0 UV-I 51 W/m 0,7 C 1,3 C 6,4 km/h (2 Bft) 91,30 %
03.01.2018 10:19 1,3 C 3,9 C 96 % 996,4 hPa 0,0 l/m 4,8 km/h (1 Bft) NO 45 0 min 0,000 mm 0,0 UV-I 53 W/m 0,7 C 1,3 C 6,4 km/h (2 Bft) 91,30 %
03.01.2018 10:20 1,3 C 3,9 C 96 % 996,4 hPa 0,0 l/m 4,8 km/h (1 Bft) NO 45 0 min 0,000 mm 0,0 UV-I 54 W/m 0,7 C 1,3 C 6,4 km/h (2 Bft) 95,65 %
03.01.2018 10:21 1,3 C 3,9 C 96 % 996,3 hPa 0,0 l/m 6,4 km/h (2 Bft) O-NO 67 0 min 0,000 mm 0,0 UV-I 56 W/m 0,7 C 1,3 C 9,7 km/h (2 Bft) 100,00 %
03.01.2018 10:22 1,3 C 3,9 C 96 % 996,4 hPa 0,0 l/m 8,0 km/h (2 Bft) O-NO 67 0 min 0,000 mm 0,0 UV-I 60 W/m 0,7 C -0,3 C 8,0 km/h (2 Bft) 95,65 %
03.01.2018 10:23 1,3 C 3,9 C 96 % 996,3 hPa 0,0 l/m 4,8 km/h (1 Bft) NO 45 0 min 0,000 mm 0,0 UV-I 66 W/m 0,7 C 1,3 C 6,4 km/h (2 Bft) 100,00 %
03.01.2018 10:24 1,3 C 3,9 C 96 % 996,4 hPa 0,0 l/m 3,2 km/h (1 Bft) O-NO 67 0 min 0,000 mm 0,0 UV-I 79 W/m 0,7 C 1,3 C 4,8 km/h (1 Bft) 95,65 %
03.01.2018 10:25 1,3 C 3,9 C 96 % 996,5 hPa 0,0 l/m 3,2 km/h (1 Bft) O-NO 67 0 min 0,000 mm 0,0 UV-I 93 W/m 0,7 C 1,3 C 4,8 km/h (1 Bft) 95,65 %
03.01.2018 10:26 1,4 C 3,9 C 96 % 996,3 hPa 0,0 l/m 4,8 km/h (1 Bft) O-NO 67 0 min 0,000 mm 0,0 UV-I 100 W/m 0,8 C 1,4 C 6,4 km/h (2 Bft) 91,30 %
03.01.2018 10:27 1,4 C 3,9 C 96 % 996,1 hPa 0,0 l/m 6,4 km/h (2 Bft) O-NO 67 0 min 0,000 mm 0,0 UV-I 105 W/m 0,8 C 1,4 C 8,0 km/h (2 Bft) 91,30 %
03.01.2018 10:28 1,4 C 3,9 C 96 % 995,9 hPa 0,0 l/m 9,7 km/h (2 Bft) O-NO 67 0 min 0,000 mm 0,0 UV-I 113 W/m 0,8 C -1,7 C 12,9 km/h (3 Bft) 95,65 %
03.01.2018 10:29 1,4 C 3,9 C 96 % 996,0 hPa 0,0 l/m 4,8 km/h (1 Bft) O 90 0 min 0,000 mm 0,0 UV-I 109 W/m 0,8 C 1,4 C 9,7 km/h (2 Bft) 91,30 %
03.01.2018 10:30 1,4 C 3,9 C 96 % 996,0 hPa 0,0 l/m 1,6 km/h (1 Bft) O 90 0 min 0,000 mm 0,0 UV-I 105 W/m 0,8 C 1,4 C 4,8 km/h (1 Bft) 100,00 %
03.01.2018 10:31 1,6 C 3,9 C 96 % 996,1 hPa 0,0 l/m 3,2 km/h (1 Bft) O-NO 67 0 min 0,000 mm 0,0 UV-I 98 W/m 1,0 C 1,6 C 4,8 km/h (1 Bft) 91,30 %
03.01.2018 10:32 1,6 C 3,9 C 96 % 996,1 hPa 0,0 l/m 1,6 km/h (1 Bft) O-NO 67 0 min 0,000 mm 0,0 UV-I 91 W/m 1,0 C 1,6 C 6,4 km/h (2 Bft) 100,00 %
03.01.2018 10:33 1,6 C 3,9 C 96 % 995,9 hPa 0,0 l/m 4,8 km/h (1 Bft) O-NO 67 0 min 0,000 mm 0,0 UV-I 93 W/m 1,0 C 1,6 C 6,4 km/h (2 Bft) 91,30 %
03.01.2018 10:34 1,5 C 3,9 C 96 % 995,8 hPa 0,0 l/m 9,7 km/h (2 Bft) O-NO 67 0 min 0,000 mm 0,0 UV-I 137 W/m 0,9 C -1,6 C 12,9 km/h (3 Bft) 95,65 %
03.01.2018 10:35 1,5 C 3,9 C 96 % 995,6 hPa 0,0 l/m 12,9 km/h (3 Bft) O-NO 67 0 min 0,000 mm 0,0 UV-I 155 W/m 0,9 C -3,9 C 14,5 km/h (3 Bft) 95,65 %
03.01.2018 10:36 1,5 C 3,9 C 96 % 995,5 hPa 0,0 l/m 11,3 km/h (2 Bft) O-NO 67 1 min 0,000 mm 0,0 UV-I 185 W/m 0,9 C -2,8 C 16,1 km/h (3 Bft) 100,00 %
03.01.2018 10:37 1,6 C 3,9 C 96 % 995,6 hPa 0,0 l/m 9,7 km/h (2 Bft) O-NO 67 1 min 0,000 mm 0,0 UV-I 199 W/m 1,0 C -1,4 C 12,9 km/h (3 Bft) 95,65 %
03.01.2018 10:38 1,6 C 3,9 C 96 % 995,5 hPa 0,0 l/m 6,4 km/h (2 Bft) O-NO 67 1 min 0,000 mm 0,0 UV-I 193 W/m 1,0 C 1,6 C 12,9 km/h (3 Bft) 91,30 %
03.01.2018 10:39 1,7 C 3,9 C 96 % 995,5 hPa 0,0 l/m 3,2 km/h (1 Bft) NO 45 1 min 0,000 mm 0,0 UV-I 220 W/m 1,1 C 1,7 C 6,4 km/h (2 Bft) 95,65 %
03.01.2018 10:40 1,7 C 3,9 C 96 % 995,5 hPa 0,0 l/m 3,2 km/h (1 Bft) NO 45 1 min 0,000 mm 0,0 UV-I 204 W/m 1,1 C 1,7 C 4,8 km/h (1 Bft) 91,30 %
03.01.2018 10:41 1,7 C 3,9 C 96 % 995,5 hPa 0,0 l/m 0,0 km/h (0 Bft) NO 45 0 min 0,000 mm 0,0 UV-I 132 W/m 1,1 C 1,7 C 1,6 km/h (1 Bft) 91,30 %
03.01.2018 10:42 1,7 C 3,9 C 96 % 995,4 hPa 0,0 l/m 1,6 km/h (1 Bft) NO 45 0 min 0,000 mm 0,0 UV-I 116 W/m 1,1 C 1,7 C 4,8 km/h (1 Bft) 91,30 %
03.01.2018 10:43 1,7 C 3,9 C 96 % 995,2 hPa 0,0 l/m 8,0 km/h (2 Bft) O-NO 67 0 min 0,000 mm 0,0 UV-I 114 W/m 1,1 C 0,1 C 16,1 km/h (3 Bft) 100,00 %
03.01.2018 10:44 1,7 C 3,9 C 96 % 995,0 hPa 0,0 l/m 11,3 km/h (2 Bft) O 90 0 min 0,000 mm 0,0 UV-I 109 W/m 1,1 C -2,6 C 14,5 km/h (3 Bft) 91,30 %
03.01.2018 10:45 1,7 C 3,9 C 96 % 995,0 hPa 0,0 l/m 11,3 km/h (2 Bft) O 90 0 min 0,000 mm 0,0 UV-I 107 W/m 1,1 C -2,6 C 14,5 km/h (3 Bft) 95,65 %
03.01.2018 10:46 1,7 C 3,9 C 96 % 994,8 hPa 0,0 l/m 11,3 km/h (2 Bft) O-NO 67 0 min 0,000 mm 0,0 UV-I 105 W/m 1,1 C -2,6 C 14,5 km/h (3 Bft) 95,65 %
03.01.2018 10:47 1,7 C 3,9 C 96 % 994,8 hPa 0,0 l/m 9,7 km/h (2 Bft) O-NO 67 0 min 0,000 mm 0,0 UV-I 98 W/m 1,1 C -1,3 C 12,9 km/h (3 Bft) 95,65 %
03.01.2018 10:48 1,7 C 3,9 C 95 % 994,8 hPa 0,0 l/m 8,0 km/h (2 Bft) NO 45 0 min 0,000 mm 0,0 UV-I 100 W/m 1,0 C 0,1 C 11,3 km/h (2 Bft) 91,30 %
03.01.2018 10:49 1,7 C 3,9 C 96 % 994,8 hPa 0,0 l/m 6,4 km/h (2 Bft) NO 45 0 min 0,000 mm 0,0 UV-I 100 W/m 1,1 C 1,7 C 9,7 km/h (2 Bft) 91,30 %
03.01.2018 10:50 1,7 C 3,9 C 96 % 994,9 hPa 0,0 l/m 4,8 km/h (1 Bft) NO 45 0 min 0,000 mm 0,0 UV-I 91 W/m 1,1 C 1,7 C 8,0 km/h (2 Bft) 95,65 %
03.01.2018 10:51 1,7 C 3,9 C 96 % 995,0 hPa 0,0 l/m 3,2 km/h (1 Bft) NO 45 0 min 0,000 mm 0,0 UV-I 83 W/m 1,1 C 1,7 C 4,8 km/h (1 Bft) 100,00 %
03.01.2018 10:52 1,7 C 3,9 C 95 % 994,8 hPa 0,0 l/m 8,0 km/h (2 Bft) O 90 0 min 0,000 mm 0,0 UV-I 108 W/m 1,0 C 0,1 C 11,3 km/h (2 Bft) 95,65 %
03.01.2018 10:53 1,8 C 3,9 C 96 % 994,6 hPa 0,0 l/m 9,7 km/h (2 Bft) O-NO 67 0 min 0,000 mm 0,0 UV-I 116 W/m 1,2 C -1,2 C 14,5 km/h (3 Bft) 100,00 %
03.01.2018 10:54 1,8 C 3,9 C 96 % 994,5 hPa 0,0 l/m 8,0 km/h (2 Bft) O 90 0 min 0,000 mm 0,0 UV-I 128 W/m 1,2 C 0,2 C 12,9 km/h (3 Bft) 91,30 %
03.01.2018 10:55 1,8 C 3,9 C 96 % 994,5 hPa 0,0 l/m 4,8 km/h (1 Bft) NO 45 0 min 0,000 mm 0,0 UV-I 109 W/m 1,2 C 1,8 C 6,4 km/h (2 Bft) 100,00 %
03.01.2018 10:56 1,8 C 3,9 C 96 % 994,5 hPa 0,0 l/m 3,2 km/h (1 Bft) NO 45 0 min 0,000 mm 0,0 UV-I 93 W/m 1,2 C 1,8 C 6,4 km/h (2 Bft) 100,00 %
03.01.2018 10:57 1,9 C 3,9 C 96 % 994,8 hPa 0,0 l/m 3,2 km/h (1 Bft) NO 45 0 min 0,000 mm 0,0 UV-I 69 W/m 1,3 C 1,9 C 6,4 km/h (2 Bft) 100,00 %
03.01.2018 10:58 1,9 C 3,9 C 96 % 994,8 hPa 0,0 l/m 3,2 km/h (1 Bft) N-NO 22 0 min 0,000 mm 0,0 UV-I 49 W/m 1,3 C 1,9 C 6,4 km/h (2 Bft) 100,00 %
03.01.2018 10:59 1,9 C 3,9 C 96 % 994,7 hPa 0,0 l/m 6,4 km/h (2 Bft) NO 45 0 min 0,000 mm 0,0 UV-I 53 W/m 1,3 C 1,9 C 8,0 km/h (2 Bft) 95,65 %
03.01.2018 11:00 1,9 C 3,9 C 96 % 994,6 hPa 0,0 l/m 8,0 km/h (2 Bft) O-NO 67 0 min 0,025 mm 0,0 UV-I 62 W/m 1,3 C 0,3 C 11,3 km/h (2 Bft) 100,00 %
03.01.2018 11:01 1,9 C 3,9 C 96 % 994,5 hPa 0,0 l/m 11,3 km/h (2 Bft) O-NO 67 0 min 0,000 mm 0,0 UV-I 72 W/m 1,3 C -2,3 C 14,5 km/h (3 Bft) 95,65 %
03.01.2018 11:02 1,9 C 3,9 C 96 % 994,2 hPa 0,0 l/m 9,7 km/h (2 Bft) O-NO 67 0 min 0,000 mm 0,0 UV-I 83 W/m 1,3 C -1,1 C 12,9 km/h (3 Bft) 100,00 %
03.01.2018 11:03 1,9 C 3,9 C 96 % 994,3 hPa 0,0 l/m 12,9 km/h (3 Bft) O-NO 67 0 min 0,000 mm 0,0 UV-I 86 W/m 1,3 C -3,4 C 14,5 km/h (3 Bft) 100,00 %
03.01.2018 11:04 1,8 C 3,9 C 96 % 994,2 hPa 0,0 l/m 11,3 km/h (2 Bft) O-NO 67 0 min 0,000 mm 0,0 UV-I 81 W/m 1,2 C -2,4 C 14,5 km/h (3 Bft) 100,00 %
03.01.2018 11:05 1,8 C 3,9 C 96 % 994,2 hPa 0,0 l/m 6,4 km/h (2 Bft) N-NO 22 0 min 0,000 mm 0,0 UV-I 76 W/m 1,2 C 1,8 C 11,3 km/h (2 Bft) 100,00 %
03.01.2018 11:06 1,9 C 3,9 C 96 % 994,2 hPa 0,0 l/m 6,4 km/h (2 Bft) N-NO 22 0 min 0,000 mm 0,0 UV-I 79 W/m 1,3 C 1,9 C 12,9 km/h (3 Bft) 100,00 %
03.01.2018 11:07 1,9 C 3,9 C 96 % 994,0 hPa 0,0 l/m 8,0 km/h (2 Bft) N-NO 22 0 min 0,000 mm 0,0 UV-I 84 W/m 1,3 C 0,3 C 14,5 km/h (3 Bft) 100,00 %
03.01.2018 11:08 2,0 C 3,9 C 96 % 993,9 hPa 0,0 l/m 12,9 km/h (3 Bft) NO 45 0 min 0,000 mm 0,0 UV-I 86 W/m 1,4 C -3,3 C 14,5 km/h (3 Bft) 95,65 %
03.01.2018 11:09 2,0 C 3,9 C 96 % 993,8 hPa 0,0 l/m 11,3 km/h (2 Bft) NO 45 0 min 0,000 mm 0,0 UV-I 85 W/m 1,4 C -2,2 C 14,5 km/h (3 Bft) 91,30 %
03.01.2018 11:10 1,9 C 3,9 C 96 % 993,6 hPa 0,0 l/m 16,1 km/h (3 Bft) NO 45 0 min 0,000 mm 0,0 UV-I 76 W/m 1,3 C -5,3 C 17,7 km/h (3 Bft) 95,65 %
03.01.2018 11:11 1,9 C 3,9 C 96 % 993,7 hPa 0,0 l/m 12,9 km/h (3 Bft) O-NO 67 0 min 0,000 mm 0,0 UV-I 63 W/m 1,3 C -3,4 C 16,1 km/h (3 Bft) 100,00 %
03.01.2018 11:12 1,9 C 3,9 C 95 % 993,7 hPa 0,0 l/m 12,9 km/h (3 Bft) NO 45 0 min 0,000 mm 0,0 UV-I 54 W/m 1,2 C -3,4 C 16,1 km/h (3 Bft) 100,00 %
03.01.2018 11:13 2,0 C 3,9 C 96 % 993,7 hPa 0,0 l/m 9,7 km/h (2 Bft) NO 45 0 min 0,000 mm 0,0 UV-I 51 W/m 1,4 C -1,0 C 14,5 km/h (3 Bft) 95,65 %
03.01.2018 11:14 1,9 C 3,9 C 95 % 993,6 hPa 0,0 l/m 8,0 km/h (2 Bft) NO 45 0 min 0,000 mm 0,0 UV-I 49 W/m 1,2 C 0,3 C 11,3 km/h (2 Bft) 100,00 %
03.01.2018 11:15 1,9 C 3,9 C 95 % 993,5 hPa 0,0 l/m 8,0 km/h (2 Bft) NO 45 0 min 0,000 mm 0,0 UV-I 52 W/m 1,2 C 0,3 C 9,7 km/h (2 Bft) 95,65 %
03.01.2018 11:16 2,0 C 3,9 C 95 % 993,5 hPa 0,0 l/m 6,4 km/h (2 Bft) O-NO 67 0 min 0,000 mm 0,0 UV-I 53 W/m 1,3 C 2,0 C 8,0 km/h (2 Bft) 100,00 %
03.01.2018 11:17 2,0 C 3,9 C 95 % 993,4 hPa 0,0 l/m 6,4 km/h (2 Bft) O-NO 67 0 min 0,000 mm 0,0 UV-I 46 W/m 1,3 C 2,0 C 8,0 km/h (2 Bft) 100,00 %
03.01.2018 11:18 1,9 C 3,9 C 95 % 993,3 hPa 0,0 l/m 12,9 km/h (3 Bft) O-NO 67 0 min 0,000 mm 0,0 UV-I 39 W/m 1,2 C -3,4 C 16,1 km/h (3 Bft) 95,65 %
03.01.2018 11:19 1,9 C 3,9 C 95 % 993,4 hPa 0,0 l/m 12,9 km/h (3 Bft) NO 45 0 min 0,000 mm 0,0 UV-I 35 W/m 1,2 C -3,4 C 16,1 km/h (3 Bft) 100,00 %
03.01.2018 11:20 1,9 C 3,9 C 95 % 993,4 hPa 0,0 l/m 11,3 km/h (2 Bft) NO 45 0 min 0,000 mm 0,0 UV-I 37 W/m 1,2 C -2,3 C 14,5 km/h (3 Bft) 100,00 %
03.01.2018 11:21 1,9 C 3,9 C 95 % 993,5 hPa 0,0 l/m 4,8 km/h (1 Bft) NO 45 0 min 0,000 mm 0,0 UV-I 43 W/m 1,2 C 1,9 C 8,0 km/h (2 Bft) 100,00 %
03.01.2018 11:22 1,9 C 3,9 C 95 % 993,8 hPa 0,0 l/m 3,2 km/h (1 Bft) NO 45 0 min 0,000 mm 0,0 UV-I 46 W/m 1,2 C 1,9 C 6,4 km/h (2 Bft) 95,65 %
03.01.2018 11:23 2,0 C 3,9 C 95 % 993,7 hPa 0,0 l/m 8,0 km/h (2 Bft) N-NO 22 0 min 0,000 mm 0,0 UV-I 46 W/m 1,3 C 0,5 C 9,7 km/h (2 Bft) 100,00 %
03.01.2018 11:24 2,1 C 3,9 C 95 % 993,7 hPa 0,0 l/m 9,7 km/h (2 Bft) NO 45 0 min 0,000 mm 0,0 UV-I 44 W/m 1,4 C -0,9 C 14,5 km/h (3 Bft) 100,00 %
03.01.2018 11:25 2,1 C 3,9 C 95 % 993,9 hPa 0,0 l/m 1,6 km/h (1 Bft) N-NW 337 0 min 0,000 mm 0,0 UV-I 35 W/m 1,4 C 2,1 C 3,2 km/h (1 Bft) 100,00 %
03.01.2018 11:26 2,1 C 3,9 C 95 % 994,0 hPa 0,0 l/m 3,2 km/h (1 Bft) N-NW 337 0 min 0,000 mm 0,0 UV-I 25 W/m 1,4 C 2,1 C 4,8 km/h (1 Bft) 100,00 %
03.01.2018 11:27 2,1 C 3,9 C 95 % 993,9 hPa 0,0 l/m 3,2 km/h (1 Bft) N-NW 337 0 min 0,000 mm 0,0 UV-I 19 W/m 1,4 C 2,1 C 4,8 km/h (1 Bft) 100,00 %
03.01.2018 11:28 2,1 C 3,9 C 95 % 994,0 hPa 0,0 l/m 6,4 km/h (2 Bft) N 360 0 min 0,000 mm 0,0 UV-I 19 W/m 1,4 C 2,1 C 11,3 km/h (2 Bft) 100,00 %
03.01.2018 11:29 2,1 C 3,9 C 96 % 994,0 hPa 0,0 l/m 4,8 km/h (1 Bft) NW 315 0 min 0,000 mm 0,0 UV-I 18 W/m 1,5 C 2,1 C 6,4 km/h (2 Bft) 91,30 %
03.01.2018 11:30 2,1 C 3,9 C 96 % 994,2 hPa 0,0 l/m 4,8 km/h (1 Bft) W-NW 292 0 min 0,000 mm 0,0 UV-I 19 W/m 1,5 C 2,1 C 9,7 km/h (2 Bft) 95,65 %
03.01.2018 11:31 2,1 C 3,9 C 95 % 994,5 hPa 0,0 l/m 8,0 km/h (2 Bft) W 270 0 min 0,000 mm 0,0 UV-I 16 W/m 1,4 C 0,6 C 12,9 km/h (3 Bft) 100,00 %
03.01.2018 11:32 2,1 C 3,9 C 96 % 994,7 hPa 0,0 l/m 3,2 km/h (1 Bft) W 270 0 min 0,000 mm 0,0 UV-I 12 W/m 1,5 C 2,1 C 4,8 km/h (1 Bft) 95,65 %
03.01.2018 11:33 2,1 C 3,9 C 96 % 994,4 hPa 0,0 l/m 6,4 km/h (2 Bft) NO 45 0 min 0,000 mm 0,0 UV-I 16 W/m 1,5 C 2,1 C 8,0 km/h (2 Bft) 100,00 %
03.01.2018 11:34 2,1 C 3,9 C 96 % 994,4 hPa 0,2 l/m 4,8 km/h (1 Bft) W-NW 292 0 min 0,000 mm 0,0 UV-I 18 W/m 1,5 C 2,1 C 8,0 km/h (2 Bft) 100,00 %
03.01.2018 11:35 2,1 C 3,9 C 96 % 994,8 hPa 0,0 l/m 3,2 km/h (1 Bft) N-NW 337 0 min 0,000 mm 0,0 UV-I 16 W/m 1,5 C 2,1 C 6,4 km/h (2 Bft) 100,00 %
03.01.2018 11:36 2,1 C 3,9 C 96 % 994,8 hPa 0,0 l/m 4,8 km/h (1 Bft) N 360 0 min 0,000 mm 0,0 UV-I 18 W/m 1,5 C 2,1 C 6,4 km/h (2 Bft) 91,30 %
03.01.2018 11:37 2,1 C 3,9 C 96 % 994,4 hPa 0,2 l/m 3,2 km/h (1 Bft) N-NO 22 0 min 0,000 mm 0,0 UV-I 19 W/m 1,5 C 2,1 C 6,4 km/h (2 Bft) 100,00 %
03.01.2018 11:38 2,1 C 3,9 C 96 % 994,3 hPa 0,0 l/m 3,2 km/h (1 Bft) N 360 0 min 0,000 mm 0,0 UV-I 19 W/m 1,5 C 2,1 C 6,4 km/h (2 Bft) 100,00 %
03.01.2018 11:39 2,1 C 3,9 C 96 % 994,4 hPa 0,0 l/m 4,8 km/h (1 Bft) NW 315 0 min 0,000 mm 0,0 UV-I 19 W/m 1,5 C 2,1 C 6,4 km/h (2 Bft) 100,00 %
03.01.2018 11:40 2,1 C 3,9 C 96 % 994,5 hPa 0,0 l/m 8,0 km/h (2 Bft) N-NW 337 0 min 0,000 mm 0,0 UV-I 21 W/m 1,5 C 0,6 C 12,9 km/h (3 Bft) 100,00 %
03.01.2018 11:41 2,1 C 3,9 C 96 % 994,5 hPa 0,0 l/m 4,8 km/h (1 Bft) NW 315 0 min 0,000 mm 0,0 UV-I 21 W/m 1,5 C 2,1 C 12,9 km/h (3 Bft) 100,00 %
03.01.2018 11:42 2,1 C 3,9 C 96 % 994,6 hPa 0,2 l/m 6,4 km/h (2 Bft) NW 315 0 min 0,000 mm 0,0 UV-I 25 W/m 1,5 C 2,1 C 11,3 km/h (2 Bft) 100,00 %
03.01.2018 11:43 2,1 C 3,9 C 96 % 994,6 hPa 0,0 l/m 8,0 km/h (2 Bft) NW 315 0 min 0,000 mm 0,0 UV-I 28 W/m 1,5 C 0,6 C 11,3 km/h (2 Bft) 95,65 %
03.01.2018 11:44 2,1 C 3,9 C 96 % 994,6 hPa 0,0 l/m 3,2 km/h (1 Bft) N-NW 337 0 min 0,000 mm 0,0 UV-I 30 W/m 1,5 C 2,1 C 6,4 km/h (2 Bft) 95,65 %
03.01.2018 11:45 2,2 C 3,9 C 96 % 994,5 hPa 0,0 l/m 3,2 km/h (1 Bft) NW 315 0 min 0,000 mm 0,0 UV-I 30 W/m 1,6 C 2,2 C 4,8 km/h (1 Bft) 100,00 %
03.01.2018 11:46 2,2 C 3,9 C 96 % 994,6 hPa 0,2 l/m 4,8 km/h (1 Bft) W-NW 292 0 min 0,000 mm 0,0 UV-I 32 W/m 1,6 C 2,2 C 8,0 km/h (2 Bft) 100,00 %
03.01.2018 11:47 2,2 C 3,9 C 96 % 994,7 hPa 0,0 l/m 4,8 km/h (1 Bft) N-NW 337 0 min 0,000 mm 0,0 UV-I 30 W/m 1,6 C 2,2 C 9,7 km/h (2 Bft) 95,65 %
03.01.2018 11:48 2,2 C 3,9 C 96 % 994,7 hPa 0,0 l/m 4,8 km/h (1 Bft) W-NW 292 0 min 0,000 mm 0,0 UV-I 28 W/m 1,6 C 2,2 C 9,7 km/h (2 Bft) 100,00 %
03.01.2018 11:49 2,2 C 3,9 C 96 % 994,9 hPa 0,2 l/m 3,2 km/h (1 Bft) W-NW 292 0 min 0,000 mm 0,0 UV-I 26 W/m 1,6 C 2,2 C 6,4 km/h (2 Bft) 100,00 %
03.01.2018 11:50 2,2 C 3,9 C 96 % 994,9 hPa 0,0 l/m 1,6 km/h (1 Bft) NW 315 0 min 0,000 mm 0,0 UV-I 24 W/m 1,6 C 2,2 C 3,2 km/h (1 Bft) 95,65 %
03.01.2018 11:51 2,2 C 3,9 C 96 % 995,0 hPa 0,2 l/m 1,6 km/h (1 Bft) NW 315 0 min 0,000 mm 0,0 UV-I 21 W/m 1,6 C 2,2 C 3,2 km/h (1 Bft) 100,00 %
03.01.2018 11:52 2,2 C 3,9 C 96 % 995,1 hPa 0,0 l/m 3,2 km/h (1 Bft) W-NW 292 0 min 0,000 mm 0,0 UV-I 21 W/m 1,6 C 2,2 C 6,4 km/h (2 Bft) 95,65 %
03.01.2018 11:53 2,2 C 3,9 C 96 % 995,3 hPa 0,0 l/m 1,6 km/h (1 Bft) W 270 0 min 0,000 mm 0,0 UV-I 21 W/m 1,6 C 2,2 C 4,8 km/h (1 Bft) 100,00 %
03.01.2018 11:54 2,2 C 3,9 C 96 % 995,2 hPa 0,2 l/m 3,2 km/h (1 Bft) NW 315 0 min 0,000 mm 0,0 UV-I 21 W/m 1,6 C 2,2 C 4,8 km/h (1 Bft) 100,00 %
03.01.2018 11:55 2,2 C 3,9 C 96 % 995,4 hPa 0,0 l/m 1,6 km/h (1 Bft) NW 315 0 min 0,000 mm 0,0 UV-I 19 W/m 1,6 C 2,2 C 3,2 km/h (1 Bft) 95,65 %
03.01.2018 11:56 2,3 C 3,9 C 96 % 995,4 hPa 0,2 l/m 0,0 km/h (0 Bft) NW 315 0 min 0,000 mm 0,0 UV-I 21 W/m 1,7 C 2,3 C 1,6 km/h (1 Bft) 95,65 %
03.01.2018 11:57 2,3 C 3,9 C 96 % 995,5 hPa 0,0 l/m 4,8 km/h (1 Bft) SW 225 0 min 0,000 mm 0,0 UV-I 19 W/m 1,7 C 2,3 C 8,0 km/h (2 Bft) 91,30 %
03.01.2018 11:58 2,3 C 3,9 C 96 % 995,5 hPa 0,2 l/m 6,4 km/h (2 Bft) SW 225 0 min 0,000 mm 0,0 UV-I 19 W/m 1,7 C 2,3 C 9,7 km/h (2 Bft) 95,65 %
03.01.2018 11:59 2,3 C 3,9 C 96 % 995,6 hPa 0,2 l/m 4,8 km/h (1 Bft) SW 225 0 min 0,000 mm 0,0 UV-I 18 W/m 1,7 C 2,3 C 8,0 km/h (2 Bft) 91,30 %
03.01.2018 12:00 2,3 C 3,9 C 96 % 995,6 hPa 0,0 l/m 4,8 km/h (1 Bft) SW 225 0 min 0,025 mm 0,0 UV-I 18 W/m 1,7 C 2,3 C 6,4 km/h (2 Bft) 100,00 %
03.01.2018 12:01 2,3 C 3,9 C 96 % 995,6 hPa 0,0 l/m 4,8 km/h (1 Bft) SW 225 0 min 0,000 mm 0,0 UV-I 18 W/m 1,7 C 2,3 C 6,4 km/h (2 Bft) 86,96 %
03.01.2018 12:02 2,3 C 3,9 C 96 % 995,6 hPa 0,2 l/m 4,8 km/h (1 Bft) SW 225 0 min 0,000 mm 0,0 UV-I 19 W/m 1,7 C 2,3 C 8,0 km/h (2 Bft) 95,65 %
03.01.2018 12:03 2,3 C 3,9 C 96 % 995,6 hPa 0,2 l/m 4,8 km/h (1 Bft) S-SW 202 0 min 0,000 mm 0,0 UV-I 19 W/m 1,7 C 2,3 C 6,4 km/h (2 Bft) 95,65 %
03.01.2018 12:04 2,3 C 3,9 C 96 % 995,7 hPa 0,0 l/m 4,8 km/h (1 Bft) W-SW 247 0 min 0,000 mm 0,0 UV-I 19 W/m 1,7 C 2,3 C 8,0 km/h (2 Bft) 91,30 %
03.01.2018 12:05 2,3 C 3,9 C 96 % 995,6 hPa 0,2 l/m 8,0 km/h (2 Bft) S-SW 202 0 min 0,000 mm 0,0 UV-I 19 W/m 1,7 C 0,8 C 11,3 km/h (2 Bft) 95,65 %
03.01.2018 12:06 2,3 C 3,9 C 96 % 995,6 hPa 0,2 l/m 8,0 km/h (2 Bft) S-SW 202 0 min 0,000 mm 0,0 UV-I 19 W/m 1,7 C 0,8 C 11,3 km/h (2 Bft) 95,65 %
03.01.2018 12:07 2,3 C 3,9 C 96 % 995,6 hPa 0,0 l/m 6,4 km/h (2 Bft) S-SW 202 0 min 0,000 mm 0,0 UV-I 21 W/m 1,7 C 2,3 C 9,7 km/h (2 Bft) 95,65 %
03.01.2018 12:08 2,3 C 3,9 C 96 % 995,6 hPa 0,2 l/m 6,4 km/h (2 Bft) SW 225 0 min 0,000 mm 0,0 UV-I 19 W/m 1,7 C 2,3 C 11,3 km/h (2 Bft) 91,30 %
03.01.2018 12:09 2,4 C 3,9 C 96 % 995,7 hPa 0,2 l/m 6,4 km/h (2 Bft) SW 225 0 min 0,000 mm 0,0 UV-I 16 W/m 1,8 C 2,4 C 9,7 km/h (2 Bft) 95,65 %
03.01.2018 12:10 2,4 C 3,9 C 96 % 995,9 hPa 0,0 l/m 9,7 km/h (2 Bft) SW 225 0 min 0,000 mm 0,0 UV-I 16 W/m 1,8 C -0,6 C 14,5 km/h (3 Bft) 95,65 %
03.01.2018 12:11 2,6 C 3,9 C 97 % 995,9 hPa 0,0 l/m 9,7 km/h (2 Bft) SW 225 0 min 0,000 mm 0,0 UV-I 14 W/m 2,2 C -0,3 C 14,5 km/h (3 Bft) 86,96 %
03.01.2018 12:12 2,6 C 3,9 C 97 % 996,0 hPa 0,2 l/m 9,7 km/h (2 Bft) S-SW 202 0 min 0,000 mm 0,0 UV-I 14 W/m 2,2 C -0,3 C 12,9 km/h (3 Bft) 100,00 %
03.01.2018 12:13 2,7 C 3,9 C 97 % 996,0 hPa 0,0 l/m 9,7 km/h (2 Bft) SW 225 0 min 0,000 mm 0,0 UV-I 14 W/m 2,3 C -0,2 C 16,1 km/h (3 Bft) 86,96 %
03.01.2018 12:14 2,8 C 3,9 C 97 % 996,0 hPa 0,0 l/m 12,9 km/h (3 Bft) S-SW 202 0 min 0,000 mm 0,0 UV-I 12 W/m 2,4 C -2,4 C 19,3 km/h (3 Bft) 95,65 %
03.01.2018 12:15 2,8 C 3,9 C 97 % 996,0 hPa 0,2 l/m 12,9 km/h (3 Bft) SW 225 0 min 0,000 mm 0,0 UV-I 12 W/m 2,4 C -2,4 C 19,3 km/h (3 Bft) 95,65 %
03.01.2018 12:16 2,8 C 3,9 C 97 % 996,0 hPa 0,0 l/m 14,5 km/h (3 Bft) S-SW 202 0 min 0,000 mm 0,0 UV-I 12 W/m 2,4 C -3,3 C 19,3 km/h (3 Bft) 95,65 %
03.01.2018 12:17 2,8 C 3,9 C 97 % 996,0 hPa 0,0 l/m 12,9 km/h (3 Bft) S-SW 202 0 min 0,000 mm 0,0 UV-I 12 W/m 2,4 C -2,4 C 19,3 km/h (3 Bft) 95,65 %
03.01.2018 12:18 2,9 C 3,9 C 97 % 996,1 hPa 0,0 l/m 12,9 km/h (3 Bft) SW 225 0 min 0,000 mm 0,0 UV-I 12 W/m 2,5 C -2,2 C 17,7 km/h (3 Bft) 95,65 %
03.01.2018 12:19 3,1 C 3,9 C 97 % 996,2 hPa 0,2 l/m 16,1 km/h (3 Bft) S-SW 202 0 min 0,000 mm 0,0 UV-I 12 W/m 2,7 C -3,8 C 20,9 km/h (4 Bft) 95,65 %
03.01.2018 12:20 3,2 C 3,9 C 97 % 996,4 hPa 0,0 l/m 12,9 km/h (3 Bft) SW 225 0 min 0,000 mm 0,0 UV-I 12 W/m 2,8 C -1,9 C 20,9 km/h (4 Bft) 95,65 %
03.01.2018 12:21 3,2 C 3,9 C 97 % 996,5 hPa 0,0 l/m 14,5 km/h (3 Bft) SW 225 0 min 0,000 mm 0,0 UV-I 11 W/m 2,8 C -2,8 C 24,1 km/h (4 Bft) 100,00 %
03.01.2018 12:22 3,3 C 3,9 C 97 % 996,6 hPa 0,2 l/m 14,5 km/h (3 Bft) SW 225 0 min 0,000 mm 0,0 UV-I 11 W/m 2,9 C -2,7 C 24,1 km/h (4 Bft) 91,30 %
03.01.2018 12:23 3,3 C 3,9 C 97 % 996,7 hPa 0,0 l/m 17,7 km/h (3 Bft) S-SW 202 0 min 0,000 mm 0,0 UV-I 11 W/m 2,9 C -4,3 C 25,7 km/h (4 Bft) 100,00 %
03.01.2018 12:24 3,3 C 3,9 C 97 % 996,8 hPa 0,0 l/m 16,1 km/h (3 Bft) SW 225 0 min 0,000 mm 0,0 UV-I 11 W/m 2,9 C -3,6 C 27,4 km/h (4 Bft) 86,96 %
03.01.2018 12:25 3,3 C 3,9 C 97 % 996,8 hPa 0,0 l/m 14,5 km/h (3 Bft) SW 225 0 min 0,000 mm 0,0 UV-I 11 W/m 2,9 C -2,7 C 19,3 km/h (3 Bft) 95,65 %
03.01.2018 12:26 3,3 C 3,9 C 96 % 996,9 hPa 0,0 l/m 14,5 km/h (3 Bft) SW 225 0 min 0,000 mm 0,0 UV-I 11 W/m 2,7 C -2,7 C 20,9 km/h (4 Bft) 100,00 %
03.01.2018 12:27 3,3 C 3,9 C 96 % 997,0 hPa 0,0 l/m 17,7 km/h (3 Bft) S-SW 202 0 min 0,000 mm 0,0 UV-I 12 W/m 2,7 C -4,3 C 25,7 km/h (4 Bft) 95,65 %
03.01.2018 12:28 3,4 C 3,9 C 96 % 997,0 hPa 0,2 l/m 19,3 km/h (3 Bft) S-SW 202 0 min 0,000 mm 0,0 UV-I 12 W/m 2,8 C -4,9 C 27,4 km/h (4 Bft) 95,65 %
03.01.2018 12:29 3,5 C 3,9 C 96 % 997,1 hPa 0,0 l/m 19,3 km/h (3 Bft) SW 225 0 min 0,000 mm 0,0 UV-I 12 W/m 2,9 C -4,8 C 27,4 km/h (4 Bft) 95,65 %
03.01.2018 12:30 3,6 C 3,9 C 97 % 997,2 hPa 0,0 l/m 17,7 km/h (3 Bft) SW 225 0 min 0,000 mm 0,0 UV-I 12 W/m 3,2 C -4,0 C 24,1 km/h (4 Bft) 100,00 %
03.01.2018 12:31 3,7 C 3,9 C 97 % 997,4 hPa 0,2 l/m 19,3 km/h (3 Bft) SW 225 0 min 0,000 mm 0,0 UV-I 11 W/m 3,3 C -4,6 C 29,0 km/h (5 Bft) 95,65 %
03.01.2018 12:32 3,8 C 3,9 C 97 % 997,4 hPa 0,0 l/m 25,7 km/h (4 Bft) SW 225 0 min 0,000 mm 0,0 UV-I 11 W/m 3,4 C -6,8 C 37,0 km/h (5 Bft) 95,65 %
03.01.2018 12:33 4,0 C 3,9 C 97 % 997,5 hPa 0,0 l/m 20,9 km/h (4 Bft) SW 225 0 min 0,000 mm 0,0 UV-I 11 W/m 3,6 C -4,8 C 30,6 km/h (5 Bft) 95,65 %
03.01.2018 12:34 4,2 C 3,9 C 97 % 997,6 hPa 0,0 l/m 24,1 km/h (4 Bft) SW 225 0 min 0,000 mm 0,0 UV-I 11 W/m 3,8 C -5,7 C 37,0 km/h (5 Bft) 100,00 %
03.01.2018 12:35 4,3 C 3,9 C 97 % 997,7 hPa 0,0 l/m 20,9 km/h (4 Bft) SW 225 0 min 0,000 mm 0,0 UV-I 11 W/m 3,9 C -4,4 C 27,4 km/h (4 Bft) 100,00 %
03.01.2018 12:36 4,4 C 3,9 C 97 % 997,8 hPa 0,2 l/m 20,9 km/h (4 Bft) SW 225 0 min 0,000 mm 0,0 UV-I 9 W/m 4,0 C -4,3 C 27,4 km/h (4 Bft) 100,00 %
03.01.2018 12:37 4,6 C 3,9 C 97 % 997,9 hPa 0,2 l/m 16,1 km/h (3 Bft) W-SW 247 0 min 0,000 mm 0,0 UV-I 9 W/m 4,2 C -2,0 C 19,3 km/h (3 Bft) 100,00 %
03.01.2018 12:38 4,7 C 3,9 C 97 % 998,0 hPa 0,0 l/m 19,3 km/h (3 Bft) W-SW 247 0 min 0,000 mm 0,0 UV-I 9 W/m 4,3 C -3,3 C 35,4 km/h (5 Bft) 100,00 %
03.01.2018 12:39 4,8 C 3,9 C 97 % 998,0 hPa 0,2 l/m 20,9 km/h (4 Bft) W-SW 247 0 min 0,000 mm 0,0 UV-I 9 W/m 4,4 C -3,8 C 33,8 km/h (5 Bft) 95,65 %
03.01.2018 12:40 5,1 C 3,9 C 97 % 998,1 hPa 0,2 l/m 27,4 km/h (4 Bft) W 270 0 min 0,000 mm 0,0 UV-I 11 W/m 4,7 C -5,5 C 43,5 km/h (6 Bft) 95,65 %
03.01.2018 12:41 5,4 C 3,9 C 97 % 998,2 hPa 0,0 l/m 27,4 km/h (4 Bft) W 270 0 min 0,000 mm 0,0 UV-I 11 W/m 5,0 C -5,1 C 40,2 km/h (6 Bft) 95,65 %
03.01.2018 12:42 5,6 C 3,9 C 97 % 998,4 hPa 0,0 l/m 35,4 km/h (5 Bft) W 270 0 min 0,000 mm 0,0 UV-I 11 W/m 5,2 C -6,8 C 51,5 km/h (7 Bft) 100,00 %
03.01.2018 12:43 5,8 C 3,9 C 97 % 998,4 hPa 0,2 l/m 22,5 km/h (4 Bft) W-SW 247 0 min 0,000 mm 0,0 UV-I 10 W/m 5,4 C -3,0 C 51,5 km/h (7 Bft) 100,00 %
03.01.2018 12:44 5,9 C 3,9 C 97 % 998,7 hPa 0,0 l/m 30,6 km/h (5 Bft) W-SW 247 0 min 0,000 mm 0,0 UV-I 9 W/m 5,5 C -5,3 C 41,8 km/h (6 Bft) 100,00 %
03.01.2018 12:45 6,1 C 3,9 C 97 % 998,6 hPa 0,2 l/m 19,3 km/h (3 Bft) W-SW 247 0 min 0,000 mm 0,0 UV-I 9 W/m 5,7 C -1,5 C 38,6 km/h (5 Bft) 100,00 %
03.01.2018 12:46 6,2 C 3,9 C 96 % 998,7 hPa 0,0 l/m 20,9 km/h (4 Bft) W-SW 247 0 min 0,000 mm 0,0 UV-I 9 W/m 5,6 C -2,0 C 27,4 km/h (4 Bft) 95,65 %
03.01.2018 12:47 6,2 C 3,9 C 96 % 999,0 hPa 0,0 l/m 24,1 km/h (4 Bft) W-SW 247 0 min 0,000 mm 0,0 UV-I 9 W/m 5,6 C -3,0 C 37,0 km/h (5 Bft) 100,00 %
03.01.2018 12:48 6,3 C 3,9 C 96 % 998,9 hPa 0,0 l/m 24,1 km/h (4 Bft) W 270 0 min 0,000 mm 0,0 UV-I 11 W/m 5,7 C -2,9 C 30,6 km/h (5 Bft) 95,65 %
03.01.2018 12:49 6,3 C 3,9 C 95 % 998,9 hPa 0,0 l/m 19,3 km/h (3 Bft) W 270 0 min 0,000 mm 0,0 UV-I 9 W/m 5,6 C -1,2 C 22,5 km/h (4 Bft) 100,00 %
03.01.2018 12:50 6,3 C 3,9 C 95 % 999,0 hPa 0,0 l/m 24,1 km/h (4 Bft) W-SW 247 0 min 0,000 mm 0,0 UV-I 11 W/m 5,6 C -2,9 C 32,2 km/h (5 Bft) 100,00 %
03.01.2018 12:51 6,3 C 3,9 C 95 % 999,1 hPa 0,0 l/m 22,5 km/h (4 Bft) W 270 0 min 0,000 mm 0,0 UV-I 9 W/m 5,6 C -2,4 C 33,8 km/h (5 Bft) 95,65 %
03.01.2018 12:52 6,3 C 3,9 C 95 % 999,0 hPa 0,2 l/m 29,0 km/h (5 Bft) W-SW 247 0 min 0,000 mm 0,0 UV-I 9 W/m 5,6 C -4,3 C 35,4 km/h (5 Bft) 100,00 %
03.01.2018 12:53 6,4 C 3,9 C 95 % 999,0 hPa 0,0 l/m 19,3 km/h (3 Bft) W 270 0 min 0,000 mm 0,0 UV-I 11 W/m 5,7 C -1,1 C 27,4 km/h (4 Bft) 91,30 %
03.01.2018 12:54 6,4 C 3,9 C 94 % 998,8 hPa 0,0 l/m 22,5 km/h (4 Bft) W 270 0 min 0,000 mm 0,0 UV-I 12 W/m 5,5 C -2,3 C 30,6 km/h (5 Bft) 100,00 %
03.01.2018 12:55 6,4 C 3,9 C 94 % 998,6 hPa 0,2 l/m 19,3 km/h (3 Bft) W 270 0 min 0,000 mm 0,0 UV-I 12 W/m 5,5 C -1,1 C 33,8 km/h (5 Bft) 100,00 %
03.01.2018 12:56 6,4 C 3,9 C 94 % 998,6 hPa 0,0 l/m 22,5 km/h (4 Bft) W-SW 247 0 min 0,000 mm 0,0 UV-I 11 W/m 5,5 C -2,3 C 38,6 km/h (5 Bft) 95,65 %
03.01.2018 12:57 6,4 C 3,9 C 94 % 998,5 hPa 0,0 l/m 20,9 km/h (4 Bft) W 270 0 min 0,000 mm 0,0 UV-I 11 W/m 5,5 C -1,7 C 32,2 km/h (5 Bft) 100,00 %
03.01.2018 12:58 6,3 C 3,9 C 93 % 998,5 hPa 0,0 l/m 16,1 km/h (3 Bft) W 270 0 min 0,000 mm 0,0 UV-I 12 W/m 5,3 C 0,1 C 20,9 km/h (4 Bft) 100,00 %
03.01.2018 12:59 6,3 C 3,9 C 93 % 998,4 hPa 0,0 l/m 20,9 km/h (4 Bft) W-SW 247 0 min 0,000 mm 0,0 UV-I 12 W/m 5,3 C -1,8 C 35,4 km/h (5 Bft) 100,00 %
03.01.2018 13:00 6,3 C 3,9 C 93 % 998,3 hPa 0,2 l/m 14,5 km/h (3 Bft) W-SW 247 0 min 0,000 mm 0,0 UV-I 12 W/m 5,3 C 0,9 C 20,9 km/h (4 Bft) 91,30 %
03.01.2018 13:01 6,2 C 3,9 C 93 % 998,4 hPa 0,0 l/m 20,9 km/h (4 Bft) W 270 0 min 0,000 mm 0,0 UV-I 15 W/m 5,2 C -2,0 C 32,2 km/h (5 Bft) 100,00 %
03.01.2018 13:02 6,2 C 3,9 C 93 % 998,5 hPa 0,2 l/m 22,5 km/h (4 Bft) W-SW 247 0 min 0,000 mm 0,0 UV-I 18 W/m 5,2 C -2,5 C 37,0 km/h (5 Bft) 100,00 %
03.01.2018 13:03 6,2 C 3,9 C 92 % 998,5 hPa 0,0 l/m 16,1 km/h (3 Bft) W 270 0 min 0,000 mm 0,0 UV-I 16 W/m 5,0 C 0,0 C 30,6 km/h (5 Bft) 100,00 %
03.01.2018 13:04 6,1 C 3,9 C 92 % 998,6 hPa 0,0 l/m 20,9 km/h (4 Bft) W 270 0 min 0,000 mm 0,0 UV-I 16 W/m 4,9 C -2,1 C 29,0 km/h (5 Bft) 100,00 %
03.01.2018 13:05 6,1 C 3,9 C 92 % 998,7 hPa 0,0 l/m 19,3 km/h (3 Bft) W 270 0 min 0,000 mm 0,0 UV-I 16 W/m 4,9 C -1,5 C 25,7 km/h (4 Bft) 100,00 %
03.01.2018 13:06 6,0 C 3,9 C 92 % 998,8 hPa 0,0 l/m 29,0 km/h (5 Bft) W-SW 247 0 min 0,000 mm 0,0 UV-I 18 W/m 4,8 C -4,7 C 40,2 km/h (6 Bft) 100,00 %
03.01.2018 13:07 6,0 C 3,9 C 92 % 998,7 hPa 0,2 l/m 22,5 km/h (4 Bft) W 270 0 min 0,000 mm 0,0 UV-I 19 W/m 4,8 C -2,8 C 33,8 km/h (5 Bft) 91,30 %
03.01.2018 13:08 5,9 C 3,9 C 92 % 998,8 hPa 0,0 l/m 17,7 km/h (3 Bft) W 270 0 min 0,000 mm 0,0 UV-I 19 W/m 4,7 C -1,1 C 25,7 km/h (4 Bft) 100,00 %
03.01.2018 13:09 5,9 C 3,9 C 92 % 998,9 hPa 0,2 l/m 19,3 km/h (3 Bft) W-SW 247 0 min 0,000 mm 0,0 UV-I 19 W/m 4,7 C -1,7 C 27,4 km/h (4 Bft) 100,00 %
03.01.2018 13:10 5,9 C 3,9 C 92 % 999,0 hPa 0,0 l/m 20,9 km/h (4 Bft) W 270 0 min 0,000 mm 0,0 UV-I 18 W/m 4,7 C -2,3 C 25,7 km/h (4 Bft) 100,00 %
03.01.2018 13:11 5,8 C 3,9 C 92 % 999,0 hPa 0,0 l/m 24,1 km/h (4 Bft) W 270 0 min 0,000 mm 0,0 UV-I 18 W/m 4,6 C -3,6 C 32,2 km/h (5 Bft) 95,65 %
03.01.2018 13:12 5,8 C 3,9 C 92 % 999,1 hPa 0,0 l/m 16,1 km/h (3 Bft) W 270 0 min 0,000 mm 0,0 UV-I 19 W/m 4,6 C -0,5 C 25,7 km/h (4 Bft) 100,00 %
03.01.2018 13:13 5,8 C 3,9 C 91 % 999,0 hPa 0,0 l/m 16,1 km/h (3 Bft) W 270 0 min 0,000 mm 0,0 UV-I 21 W/m 4,4 C -0,5 C 24,1 km/h (4 Bft) 100,00 %
03.01.2018 13:14 5,7 C 3,9 C 91 % 999,0 hPa 0,0 l/m 22,5 km/h (4 Bft) W 270 0 min 0,000 mm 0,0 UV-I 21 W/m 4,3 C -3,2 C 29,0 km/h (5 Bft) 95,65 %
03.01.2018 13:15 5,7 C 3,9 C 91 % 999,1 hPa 0,0 l/m 17,7 km/h (3 Bft) W-SW 247 0 min 0,000 mm 0,0 UV-I 21 W/m 4,3 C -1,3 C 24,1 km/h (4 Bft) 95,65 %
03.01.2018 13:16 5,6 C 3,9 C 91 % 999,2 hPa 0,0 l/m 16,1 km/h (3 Bft) W 270 0 min 0,000 mm 0,0 UV-I 19 W/m 4,2 C -0,7 C 25,7 km/h (4 Bft) 95,65 %
03.01.2018 13:17 5,6 C 3,9 C 92 % 999,2 hPa 0,0 l/m 17,7 km/h (3 Bft) W-SW 247 0 min 0,000 mm 0,0 UV-I 18 W/m 4,4 C -1,5 C 25,7 km/h (4 Bft) 100,00 %
03.01.2018 13:18 5,6 C 3,9 C 92 % 999,0 hPa 0,0 l/m 9,7 km/h (2 Bft) W 270 0 min 0,000 mm 0,0 UV-I 21 W/m 4,4 C 2,9 C 12,9 km/h (3 Bft) 95,65 %
03.01.2018 13:19 5,5 C 3,9 C 92 % 998,7 hPa 0,0 l/m 14,5 km/h (3 Bft) W-SW 247 0 min 0,000 mm 0,0 UV-I 25 W/m 4,3 C -0,1 C 17,7 km/h (3 Bft) 95,65 %
03.01.2018 13:20 5,5 C 3,9 C 92 % 998,8 hPa 0,0 l/m 12,9 km/h (3 Bft) W 270 0 min 0,000 mm 0,0 UV-I 26 W/m 4,3 C 0,8 C 20,9 km/h (4 Bft) 100,00 %
03.01.2018 13:21 5,5 C 3,9 C 92 % 998,8 hPa 0,2 l/m 19,3 km/h (3 Bft) W 270 0 min 0,000 mm 0,0 UV-I 26 W/m 4,3 C -2,2 C 25,7 km/h (4 Bft) 95,65 %
03.01.2018 13:22 5,5 C 3,9 C 92 % 998,8 hPa 0,0 l/m 8,0 km/h (2 Bft) W 270 0 min 0,000 mm 0,0 UV-I 25 W/m 4,3 C 4,1 C 16,1 km/h (3 Bft) 95,65 %
03.01.2018 13:23 5,5 C 3,9 C 92 % 998,6 hPa 0,0 l/m 4,8 km/h (1 Bft) W-SW 247 0 min 0,000 mm 0,0 UV-I 21 W/m 4,3 C 5,5 C 6,4 km/h (2 Bft) 95,65 %
03.01.2018 13:24 5,4 C 3,9 C 93 % 998,3 hPa 0,0 l/m 4,8 km/h (1 Bft) W-SW 247 0 min 0,000 mm 0,0 UV-I 27 W/m 4,4 C 5,4 C 4,8 km/h (1 Bft) 95,65 %
03.01.2018 13:25 5,4 C 3,9 C 93 % 998,1 hPa 0,0 l/m 4,8 km/h (1 Bft) W 270 0 min 0,000 mm 0,0 UV-I 32 W/m 4,4 C 5,4 C 11,3 km/h (2 Bft) 100,00 %
03.01.2018 13:26 5,4 C 3,9 C 93 % 998,1 hPa 0,0 l/m 8,0 km/h (2 Bft) W 270 0 min 0,000 mm 0,0 UV-I 32 W/m 4,4 C 4,0 C 9,7 km/h (2 Bft) 95,65 %
03.01.2018 13:27 5,4 C 3,9 C 93 % 998,2 hPa 0,0 l/m 14,5 km/h (3 Bft) W 270 0 min 0,000 mm 0,0 UV-I 28 W/m 4,4 C -0,2 C 25,7 km/h (4 Bft) 100,00 %
03.01.2018 13:28 5,4 C 3,9 C 93 % 998,5 hPa 0,0 l/m 9,7 km/h (2 Bft) W 270 0 min 0,000 mm 0,0 UV-I 26 W/m 4,4 C 2,7 C 12,9 km/h (3 Bft) 91,30 %
03.01.2018 13:29 5,3 C 3,9 C 93 % 998,6 hPa 0,0 l/m 8,0 km/h (2 Bft) W 270 0 min 0,000 mm 0,0 UV-I 25 W/m 4,3 C 3,9 C 9,7 km/h (2 Bft) 100,00 %
03.01.2018 13:30 5,3 C 3,9 C 93 % 998,7 hPa 0,0 l/m 6,4 km/h (2 Bft) W 270 0 min 0,000 mm 0,0 UV-I 27 W/m 4,3 C 5,3 C 11,3 km/h (2 Bft) 95,65 %
03.01.2018 13:31 5,3 C 3,9 C 94 % 998,7 hPa 0,2 l/m 11,3 km/h (2 Bft) W 270 0 min 0,000 mm 0,0 UV-I 26 W/m 4,4 C 1,5 C 19,3 km/h (3 Bft) 100,00 %
03.01.2018 13:32 5,3 C 3,9 C 94 % 998,8 hPa 0,0 l/m 12,9 km/h (3 Bft) W-SW 247 0 min 0,000 mm 0,0 UV-I 23 W/m 4,4 C 0,6 C 19,3 km/h (3 Bft) 91,30 %
03.01.2018 13:33 5,3 C 3,9 C 94 % 998,9 hPa 0,0 l/m 11,3 km/h (2 Bft) W-NW 292 0 min 0,000 mm 0,0 UV-I 21 W/m 4,4 C 1,5 C 22,5 km/h (4 Bft) 95,65 %
03.01.2018 13:34 5,3 C 3,9 C 94 % 999,0 hPa 0,0 l/m 6,4 km/h (2 Bft) W 270 0 min 0,000 mm 0,0 UV-I 23 W/m 4,4 C 5,3 C 11,3 km/h (2 Bft) 95,65 %
03.01.2018 13:35 5,3 C 3,9 C 94 % 999,1 hPa 0,0 l/m 8,0 km/h (2 Bft) W 270 0 min 0,000 mm 0,0 UV-I 23 W/m 4,4 C 3,9 C 9,7 km/h (2 Bft) 91,30 %
03.01.2018 13:36 5,2 C 3,9 C 94 % 999,2 hPa 0,2 l/m 14,5 km/h (3 Bft) W 270 0 min 0,000 mm 0,0 UV-I 21 W/m 4,3 C -0,4 C 20,9 km/h (4 Bft) 100,00 %
03.01.2018 13:37 5,2 C 3,9 C 94 % 999,4 hPa 0,0 l/m 16,1 km/h (3 Bft) W 270 0 min 0,000 mm 0,0 UV-I 21 W/m 4,3 C -1,2 C 24,1 km/h (4 Bft) 95,65 %
03.01.2018 13:38 5,3 C 3,9 C 94 % 999,4 hPa 0,0 l/m 11,3 km/h (2 Bft) W 270 0 min 0,000 mm 0,0 UV-I 25 W/m 4,4 C 1,5 C 17,7 km/h (3 Bft) 100,00 %
03.01.2018 13:39 5,3 C 3,9 C 94 % 999,4 hPa 0,0 l/m 9,7 km/h (2 Bft) W 270 0 min 0,000 mm 0,0 UV-I 30 W/m 4,4 C 2,6 C 16,1 km/h (3 Bft) 95,65 %
03.01.2018 13:40 5,3 C 3,9 C 93 % 999,4 hPa 0,0 l/m 12,9 km/h (3 Bft) W 270 0 min 0,000 mm 0,0 UV-I 30 W/m 4,3 C 0,6 C 17,7 km/h (3 Bft) 100,00 %
03.01.2018 13:41 5,3 C 3,9 C 93 % 999,4 hPa 0,2 l/m 11,3 km/h (2 Bft) W 270 0 min 0,000 mm 0,0 UV-I 30 W/m 4,3 C 1,5 C 14,5 km/h (3 Bft) 91,30 %
03.01.2018 13:42 5,3 C 3,9 C 93 % 999,4 hPa 0,0 l/m 11,3 km/h (2 Bft) W-SW 247 0 min 0,000 mm 0,0 UV-I 27 W/m 4,3 C 1,5 C 16,1 km/h (3 Bft) 95,65 %
03.01.2018 13:43 5,3 C 3,9 C 93 % 999,4 hPa 0,0 l/m 12,9 km/h (3 Bft) W-SW 247 0 min 0,000 mm 0,0 UV-I 25 W/m 4,3 C 0,6 C 16,1 km/h (3 Bft) 95,65 %
03.01.2018 13:44 5,3 C 3,9 C 93 % 999,4 hPa 0,0 l/m 8,0 km/h (2 Bft) W-SW 247 0 min 0,000 mm 0,0 UV-I 26 W/m 4,3 C 3,9 C 12,9 km/h (3 Bft) 100,00 %
03.01.2018 13:45 5,3 C 3,9 C 93 % 999,5 hPa 0,0 l/m 8,0 km/h (2 Bft) W-SW 247 0 min 0,000 mm 0,0 UV-I 28 W/m 4,3 C 3,9 C 11,3 km/h (2 Bft) 95,65 %
03.01.2018 13:46 5,3 C 3,9 C 93 % 999,5 hPa 0,2 l/m 8,0 km/h (2 Bft) SW 225 0 min 0,000 mm 0,0 UV-I 28 W/m 4,3 C 3,9 C 11,3 km/h (2 Bft) 100,00 %
03.01.2018 13:47 5,2 C 3,9 C 94 % 999,6 hPa 0,0 l/m 6,4 km/h (2 Bft) SW 225 0 min 0,000 mm 0,0 UV-I 25 W/m 4,3 C 5,2 C 9,7 km/h (2 Bft) 100,00 %
03.01.2018 13:48 5,2 C 3,9 C 94 % 999,7 hPa 0,0 l/m 9,7 km/h (2 Bft) SW 225 0 min 0,000 mm 0,0 UV-I 20 W/m 4,3 C 2,5 C 14,5 km/h (3 Bft) 100,00 %
03.01.2018 13:49 5,2 C 3,9 C 94 % 999,8 hPa 0,0 l/m 8,0 km/h (2 Bft) SW 225 0 min 0,000 mm 0,0 UV-I 14 W/m 4,3 C 3,8 C 11,3 km/h (2 Bft) 95,65 %
03.01.2018 13:50 5,2 C 3,9 C 94 % 999,8 hPa 0,2 l/m 8,0 km/h (2 Bft) SW 225 0 min 0,000 mm 0,0 UV-I 12 W/m 4,3 C 3,8 C 11,3 km/h (2 Bft) 100,00 %
03.01.2018 13:51 5,2 C 3,9 C 94 % 999,9 hPa 0,0 l/m 8,0 km/h (2 Bft) SW 225 0 min 0,000 mm 0,0 UV-I 11 W/m 4,3 C 3,8 C 11,3 km/h (2 Bft) 100,00 %
03.01.2018 13:52 5,2 C 3,9 C 94 % 1000,0 hPa 0,0 l/m 8,0 km/h (2 Bft) W 270 0 min 0,000 mm 0,0 UV-I 11 W/m 4,3 C 3,8 C 11,3 km/h (2 Bft) 100,00 %
03.01.2018 13:53 5,2 C 3,9 C 94 % 1000,0 hPa 0,0 l/m 11,3 km/h (2 Bft) W 270 0 min 0,000 mm 0,0 UV-I 9 W/m 4,3 C 1,4 C 14,5 km/h (3 Bft) 100,00 %
03.01.2018 13:54 5,2 C 3,9 C 94 % 1000,0 hPa 0,2 l/m 11,3 km/h (2 Bft) W-SW 247 0 min 0,000 mm 0,0 UV-I 9 W/m 4,3 C 1,4 C 12,9 km/h (3 Bft) 100,00 %
03.01.2018 13:55 5,1 C 3,9 C 95 % 1000,2 hPa 0,0 l/m 12,9 km/h (3 Bft) W-SW 247 0 min 0,000 mm 0,0 UV-I 11 W/m 4,4 C 0,3 C 16,1 km/h (3 Bft) 100,00 %
03.01.2018 13:56 5,1 C 3,9 C 95 % 1000,2 hPa 0,2 l/m 14,5 km/h (3 Bft) W-SW 247 0 min 0,000 mm 0,0 UV-I 11 W/m 4,4 C -0,5 C 20,9 km/h (4 Bft) 100,00 %
03.01.2018 13:57 5,1 C 3,9 C 95 % 1000,1 hPa 0,2 l/m 14,5 km/h (3 Bft) W-SW 247 0 min 0,000 mm 0,0 UV-I 12 W/m 4,4 C -0,5 C 17,7 km/h (3 Bft) 86,96 %
03.01.2018 13:58 5,1 C 3,9 C 95 % 1000,1 hPa 0,2 l/m 17,7 km/h (3 Bft) W-SW 247 0 min 0,000 mm 0,0 UV-I 12 W/m 4,4 C -2,1 C 22,5 km/h (4 Bft) 100,00 %
03.01.2018 13:59 5,1 C 3,9 C 95 % 1000,3 hPa 0,2 l/m 12,9 km/h (3 Bft) W 270 0 min 0,000 mm 0,0 UV-I 11 W/m 4,4 C 0,3 C 16,1 km/h (3 Bft) 95,65 %
03.01.2018 14:00 5,1 C 3,9 C 95 % 1000,2 hPa 0,0 l/m 16,1 km/h (3 Bft) W-SW 247 0 min 0,025 mm 0,0 UV-I 9 W/m 4,4 C -1,3 C 20,9 km/h (4 Bft) 100,00 %
03.01.2018 14:01 5,1 C 3,9 C 95 % 1000,2 hPa 0,2 l/m 16,1 km/h (3 Bft) W 270 0 min 0,000 mm 0,0 UV-I 11 W/m 4,4 C -1,3 C 19,3 km/h (3 Bft) 100,00 %
03.01.2018 14:02 5,2 C 3,9 C 95 % 1000,4 hPa 0,2 l/m 16,1 km/h (3 Bft) W-SW 247 0 min 0,000 mm 0,0 UV-I 12 W/m 4,5 C -1,2 C 20,9 km/h (4 Bft) 100,00 %
03.01.2018 14:03 5,2 C 3,9 C 95 % 1000,5 hPa 0,0 l/m 16,1 km/h (3 Bft) W 270 0 min 0,000 mm 0,0 UV-I 12 W/m 4,5 C -1,2 C 20,9 km/h (4 Bft) 100,00 %
03.01.2018 14:04 5,2 C 3,9 C 95 % 1000,3 hPa 0,2 l/m 14,5 km/h (3 Bft) W 270 0 min 0,000 mm 0,0 UV-I 12 W/m 4,5 C -0,4 C 22,5 km/h (4 Bft) 95,65 %
03.01.2018 14:05 5,2 C 3,9 C 95 % 1000,2 hPa 0,0 l/m 20,9 km/h (4 Bft) W-SW 247 0 min 0,000 mm 0,0 UV-I 17 W/m 4,5 C -3,3 C 29,0 km/h (5 Bft) 100,00 %
03.01.2018 14:06 5,2 C 3,9 C 95 % 1000,3 hPa 0,2 l/m 20,9 km/h (4 Bft) W-SW 247 0 min 0,000 mm 0,0 UV-I 16 W/m 4,5 C -3,3 C 32,2 km/h (5 Bft) 95,65 %
03.01.2018 14:07 5,2 C 3,9 C 95 % 1000,5 hPa 0,2 l/m 20,9 km/h (4 Bft) W-SW 247 0 min 0,000 mm 0,0 UV-I 18 W/m 4,5 C -3,3 C 27,4 km/h (4 Bft) 100,00 %
03.01.2018 14:08 5,2 C 3,9 C 95 % 1000,5 hPa 0,0 l/m 17,7 km/h (3 Bft) W-SW 247 0 min 0,000 mm 0,0 UV-I 18 W/m 4,5 C -2,0 C 25,7 km/h (4 Bft) 95,65 %
03.01.2018 14:09 5,2 C 3,9 C 95 % 1000,6 hPa 0,2 l/m 19,3 km/h (3 Bft) W-SW 247 0 min 0,000 mm 0,0 UV-I 16 W/m 4,5 C -2,6 C 32,2 km/h (5 Bft) 100,00 %
03.01.2018 14:10 5,3 C 3,9 C 95 % 1000,7 hPa 0,0 l/m 17,7 km/h (3 Bft) SW 225 0 min 0,000 mm 0,0 UV-I 19 W/m 4,6 C -1,8 C 27,4 km/h (4 Bft) 95,65 %
03.01.2018 14:11 5,3 C 3,9 C 95 % 1000,5 hPa 0,2 l/m 19,3 km/h (3 Bft) W-SW 247 0 min 0,000 mm 0,0 UV-I 30 W/m 4,6 C -2,5 C 29,0 km/h (5 Bft) 95,65 %
03.01.2018 14:12 5,2 C 3,9 C 95 % 1000,5 hPa 0,0 l/m 16,1 km/h (3 Bft) SW 225 0 min 0,000 mm 0,0 UV-I 39 W/m 4,5 C -1,2 C 25,7 km/h (4 Bft) 95,65 %
03.01.2018 14:13 5,3 C 3,9 C 94 % 1000,4 hPa 0,2 l/m 17,7 km/h (3 Bft) SW 225 0 min 0,000 mm 0,0 UV-I 37 W/m 4,4 C -1,8 C 30,6 km/h (5 Bft) 95,65 %
03.01.2018 14:14 5,3 C 3,9 C 94 % 1000,3 hPa 0,0 l/m 17,7 km/h (3 Bft) SW 225 0 min 0,000 mm 0,0 UV-I 33 W/m 4,4 C -1,8 C 24,1 km/h (4 Bft) 100,00 %
03.01.2018 14:15 5,3 C 3,9 C 94 % 1000,4 hPa 0,0 l/m 19,3 km/h (3 Bft) S-SW 202 0 min 0,000 mm 0,0 UV-I 30 W/m 4,4 C -2,5 C 37,0 km/h (5 Bft) 95,65 %
03.01.2018 14:16 5,3 C 3,9 C 94 % 1000,3 hPa 0,0 l/m 19,3 km/h (3 Bft) SW 225 0 min 0,000 mm 0,0 UV-I 28 W/m 4,4 C -2,5 C 24,1 km/h (4 Bft) 100,00 %
03.01.2018 14:17 5,3 C 3,9 C 94 % 1000,3 hPa 0,0 l/m 17,7 km/h (3 Bft) SW 225 0 min 0,000 mm 0,0 UV-I 28 W/m 4,4 C -1,8 C 24,1 km/h (4 Bft) 91,30 %
03.01.2018 14:18 5,3 C 3,9 C 94 % 1000,4 hPa 0,0 l/m 17,7 km/h (3 Bft) SW 225 0 min 0,000 mm 0,0 UV-I 30 W/m 4,4 C -1,8 C 20,9 km/h (4 Bft) 95,65 %
03.01.2018 14:19 5,3 C 3,9 C 94 % 1000,4 hPa 0,0 l/m 19,3 km/h (3 Bft) SW 225 0 min 0,000 mm 0,0 UV-I 30 W/m 4,4 C -2,5 C 25,7 km/h (4 Bft) 91,30 %
03.01.2018 14:20 5,4 C 3,9 C 94 % 1000,5 hPa 0,0 l/m 17,7 km/h (3 Bft) SW 225 0 min 0,000 mm 0,0 UV-I 30 W/m 4,5 C -1,7 C 27,4 km/h (4 Bft) 100,00 %
03.01.2018 14:21 5,4 C 3,9 C 94 % 1000,5 hPa 0,0 l/m 16,1 km/h (3 Bft) W-SW 247 0 min 0,000 mm 0,0 UV-I 32 W/m 4,5 C -1,0 C 20,9 km/h (4 Bft) 95,65 %
03.01.2018 14:22 5,4 C 3,9 C 94 % 1000,5 hPa 0,0 l/m 16,1 km/h (3 Bft) SW 225 0 min 0,000 mm 0,0 UV-I 30 W/m 4,5 C -1,0 C 24,1 km/h (4 Bft) 91,30 %
03.01.2018 14:23 5,4 C 3,9 C 94 % 1000,6 hPa 0,0 l/m 17,7 km/h (3 Bft) W-SW 247 0 min 0,000 mm 0,0 UV-I 29 W/m 4,5 C -1,7 C 24,1 km/h (4 Bft) 100,00 %
03.01.2018 14:24 5,4 C 3,9 C 94 % 1000,7 hPa 0,0 l/m 20,9 km/h (4 Bft) W-SW 247 0 min 0,000 mm 0,0 UV-I 25 W/m 4,5 C -3,0 C 29,0 km/h (5 Bft) 95,65 %
03.01.2018 14:25 5,4 C 3,9 C 94 % 1000,8 hPa 0,0 l/m 19,3 km/h (3 Bft) SW 225 0 min 0,000 mm 0,0 UV-I 21 W/m 4,5 C -2,4 C 25,7 km/h (4 Bft) 91,30 %
03.01.2018 14:26 5,4 C 3,9 C 94 % 1000,9 hPa 0,2 l/m 25,7 km/h (4 Bft) SW 225 0 min 0,000 mm 0,0 UV-I 21 W/m 4,5 C -4,6 C 33,8 km/h (5 Bft) 95,65 %
03.01.2018 14:27 5,4 C 3,9 C 93 % 1001,0 hPa 0,0 l/m 27,4 km/h (4 Bft) SW 225 0 min 0,000 mm 0,0 UV-I 21 W/m 4,4 C -5,1 C 33,8 km/h (5 Bft) 100,00 %
03.01.2018 14:28 5,4 C 3,9 C 93 % 1001,2 hPa 0,0 l/m 22,5 km/h (4 Bft) W 270 0 min 0,000 mm 0,0 UV-I 21 W/m 4,4 C -3,6 C 32,2 km/h (5 Bft) 91,30 %
03.01.2018 14:29 5,4 C 3,9 C 93 % 1001,4 hPa 0,0 l/m 24,1 km/h (4 Bft) W-SW 247 0 min 0,000 mm 0,0 UV-I 17 W/m 4,4 C -4,1 C 35,4 km/h (5 Bft) 95,65 %
03.01.2018 14:30 5,3 C 3,9 C 93 % 1001,5 hPa 0,0 l/m 20,9 km/h (4 Bft) SW 225 0 min 0,000 mm 0,0 UV-I 14 W/m 4,3 C -3,1 C 29,0 km/h (5 Bft) 100,00 %
03.01.2018 14:31 5,3 C 3,9 C 93 % 1001,5 hPa 0,0 l/m 20,9 km/h (4 Bft) SW 225 0 min 0,000 mm 0,0 UV-I 12 W/m 4,3 C -3,1 C 29,0 km/h (5 Bft) 95,65 %
03.01.2018 14:32 5,3 C 3,9 C 93 % 1001,5 hPa 0,0 l/m 19,3 km/h (3 Bft) SW 225 0 min 0,000 mm 0,0 UV-I 12 W/m 4,3 C -2,5 C 30,6 km/h (5 Bft) 91,30 %
03.01.2018 14:33 5,3 C 3,9 C 93 % 1001,5 hPa 0,0 l/m 17,7 km/h (3 Bft) W-SW 247 0 min 0,000 mm 0,0 UV-I 12 W/m 4,3 C -1,8 C 20,9 km/h (4 Bft) 17,39 %
03.01.2018 14:34 5,3 C 3,9 C 93 % 1001,6 hPa 0,2 l/m 19,3 km/h (3 Bft) SW 225 0 min 0,000 mm 0,0 UV-I 11 W/m 4,3 C -2,5 C 30,6 km/h (5 Bft) 52,17 %
03.01.2018 14:35 5,2 C 3,9 C 93 % 1001,6 hPa 0,0 l/m 29,0 km/h (5 Bft) SW 225 0 min 0,000 mm 0,0 UV-I 9 W/m 4,2 C -5,8 C 41,8 km/h (6 Bft) 95,65 %
03.01.2018 14:36 5,2 C 3,9 C 93 % 1001,8 hPa 0,0 l/m 25,7 km/h (4 Bft) SW 225 0 min 0,000 mm 0,0 UV-I 9 W/m 4,2 C -4,9 C 33,8 km/h (5 Bft) 100,00 %
03.01.2018 14:37 5,2 C 3,9 C 93 % 1002,1 hPa 0,0 l/m 27,4 km/h (4 Bft) W-SW 247 0 min 0,000 mm 0,0 UV-I 7 W/m 4,2 C -5,4 C 38,6 km/h (5 Bft) 95,65 %
03.01.2018 14:38 5,2 C 3,9 C 92 % 1002,2 hPa 0,0 l/m 27,4 km/h (4 Bft) SW 225 0 min 0,000 mm 0,0 UV-I 7 W/m 4,0 C -5,4 C 35,4 km/h (5 Bft) 95,65 %
03.01.2018 14:39 5,1 C 3,9 C 92 % 1002,4 hPa 0,0 l/m 24,1 km/h (4 Bft) SW 225 0 min 0,000 mm 0,0 UV-I 7 W/m 3,9 C -4,5 C 30,6 km/h (5 Bft) 95,65 %
03.01.2018 14:40 5,1 C 3,9 C 92 % 1002,3 hPa 0,2 l/m 25,7 km/h (4 Bft) SW 225 0 min 0,000 mm 0,0 UV-I 9 W/m 3,9 C -5,0 C 37,0 km/h (5 Bft) 95,65 %
03.01.2018 14:41 5,1 C 3,9 C 92 % 1002,4 hPa 0,0 l/m 27,4 km/h (4 Bft) SW 225 0 min 0,000 mm 0,0 UV-I 9 W/m 3,9 C -5,5 C 40,2 km/h (6 Bft) 100,00 %
03.01.2018 14:42 5,1 C 3,9 C 92 % 1002,3 hPa 0,0 l/m 24,1 km/h (4 Bft) SW 225 0 min 0,000 mm 0,0 UV-I 11 W/m 3,9 C -4,5 C 29,0 km/h (5 Bft) 91,30 %
03.01.2018 14:43 5,0 C 3,9 C 92 % 1002,3 hPa 0,0 l/m 33,8 km/h (5 Bft) SW 225 0 min 0,000 mm 0,0 UV-I 12 W/m 3,8 C -7,3 C 48,3 km/h (6 Bft) 100,00 %
03.01.2018 14:44 4,9 C 3,9 C 92 % 1002,4 hPa 0,2 l/m 30,6 km/h (5 Bft) SW 225 0 min 0,000 mm 0,0 UV-I 12 W/m 3,7 C -6,7 C 51,5 km/h (7 Bft) 95,65 %
03.01.2018 14:45 4,9 C 3,9 C 92 % 1002,4 hPa 0,0 l/m 32,2 km/h (5 Bft) SW 225 0 min 0,000 mm 0,0 UV-I 14 W/m 3,7 C -7,1 C 53,1 km/h (7 Bft) 100,00 %
03.01.2018 14:46 4,9 C 3,9 C 92 % 1002,4 hPa 0,0 l/m 33,8 km/h (5 Bft) SW 225 0 min 0,000 mm 0,0 UV-I 14 W/m 3,7 C -7,4 C 45,1 km/h (6 Bft) 95,65 %
03.01.2018 14:47 4,8 C 3,9 C 92 % 1002,4 hPa 0,0 l/m 29,0 km/h (5 Bft) SW 225 0 min 0,000 mm 0,0 UV-I 14 W/m 3,6 C -6,4 C 53,1 km/h (7 Bft) 95,65 %
03.01.2018 14:48 4,8 C 3,9 C 92 % 1002,3 hPa 0,0 l/m 25,7 km/h (4 Bft) S-SW 202 0 min 0,000 mm 0,0 UV-I 14 W/m 3,6 C -5,4 C 38,6 km/h (5 Bft) 100,00 %
03.01.2018 14:49 4,7 C 3,9 C 92 % 1002,3 hPa 0,0 l/m 24,1 km/h (4 Bft) S-SW 202 0 min 0,000 mm 0,0 UV-I 16 W/m 3,5 C -5,1 C 33,8 km/h (5 Bft) 95,65 %
03.01.2018 14:50 4,7 C 3,9 C 92 % 1002,2 hPa 0,0 l/m 24,1 km/h (4 Bft) SW 225 0 min 0,000 mm 0,0 UV-I 18 W/m 3,5 C -5,1 C 37,0 km/h (5 Bft) 100,00 %
03.01.2018 14:51 4,7 C 3,9 C 92 % 1002,1 hPa 0,0 l/m 24,1 km/h (4 Bft) S-SW 202 0 min 0,000 mm 0,0 UV-I 19 W/m 3,5 C -5,1 C 32,2 km/h (5 Bft) 95,65 %
03.01.2018 14:52 4,6 C 3,9 C 92 % 1002,1 hPa 0,0 l/m 27,4 km/h (4 Bft) S-SW 202 0 min 0,000 mm 0,0 UV-I 22 W/m 3,4 C -6,2 C 37,0 km/h (5 Bft) 100,00 %
03.01.2018 14:53 4,6 C 3,9 C 92 % 1002,0 hPa 0,0 l/m 19,3 km/h (3 Bft) S-SW 202 0 min 0,000 mm 0,0 UV-I 25 W/m 3,4 C -3,4 C 29,0 km/h (5 Bft) 91,30 %
03.01.2018 14:54 4,6 C 3,9 C 92 % 1002,0 hPa 0,0 l/m 20,9 km/h (4 Bft) S-SW 202 0 min 0,000 mm 0,0 UV-I 28 W/m 3,4 C -4,0 C 29,0 km/h (5 Bft) 95,65 %
03.01.2018 14:55 4,6 C 3,9 C 92 % 1001,9 hPa 0,0 l/m 16,1 km/h (3 Bft) SW 225 0 min 0,000 mm 0,0 UV-I 30 W/m 3,4 C -2,0 C 29,0 km/h (5 Bft) 100,00 %
03.01.2018 14:56 4,5 C 3,9 C 92 % 1001,7 hPa 0,0 l/m 25,7 km/h (4 Bft) S-SW 202 0 min 0,000 mm 0,0 UV-I 32 W/m 3,3 C -5,8 C 35,4 km/h (5 Bft) 95,65 %
03.01.2018 14:57 4,5 C 3,9 C 92 % 1001,7 hPa 0,0 l/m 25,7 km/h (4 Bft) S-SW 202 0 min 0,000 mm 0,0 UV-I 33 W/m 3,3 C -5,8 C 40,2 km/h (6 Bft) 95,65 %
03.01.2018 14:58 4,5 C 3,9 C 92 % 1001,7 hPa 0,0 l/m 22,5 km/h (4 Bft) S-SW 202 0 min 0,000 mm 0,0 UV-I 41 W/m 3,3 C -4,8 C 30,6 km/h (5 Bft) 95,65 %
03.01.2018 14:59 4,5 C 3,9 C 93 % 1001,8 hPa 0,0 l/m 27,4 km/h (4 Bft) S-SW 202 0 min 0,000 mm 0,0 UV-I 53 W/m 3,5 C -6,4 C 48,3 km/h (6 Bft) 100,00 %
03.01.2018 15:00 4,5 C 3,9 C 93 % 1001,7 hPa 0,0 l/m 30,6 km/h (5 Bft) S-SW 202 0 min 0,025 mm 0,0 UV-I 60 W/m 3,5 C -7,2 C 41,8 km/h (6 Bft) 91,30 %
03.01.2018 15:01 4,6 C 3,9 C 93 % 1001,9 hPa 0,0 l/m 20,9 km/h (4 Bft) S-SW 202 0 min 0,000 mm 0,0 UV-I 58 W/m 3,6 C -4,0 C 29,0 km/h (5 Bft) 100,00 %
03.01.2018 15:02 4,6 C 3,9 C 92 % 1001,8 hPa 0,0 l/m 30,6 km/h (5 Bft) S-SW 202 0 min 0,000 mm 0,0 UV-I 49 W/m 3,4 C -7,1 C 48,3 km/h (6 Bft) 95,65 %
03.01.2018 15:03 4,6 C 3,9 C 92 % 1001,8 hPa 0,0 l/m 32,2 km/h (5 Bft) S-SW 202 0 min 0,000 mm 0,0 UV-I 39 W/m 3,4 C -7,5 C 41,8 km/h (6 Bft) 95,65 %
03.01.2018 15:04 4,6 C 3,9 C 92 % 1001,9 hPa 0,0 l/m 29,0 km/h (5 Bft) S-SW 202 0 min 0,000 mm 0,0 UV-I 27 W/m 3,4 C -6,7 C 41,8 km/h (6 Bft) 95,65 %
03.01.2018 15:05 4,7 C 3,9 C 91 % 1001,9 hPa 0,0 l/m 29,0 km/h (5 Bft) S-SW 202 0 min 0,000 mm 0,0 UV-I 19 W/m 3,4 C -6,5 C 38,6 km/h (5 Bft) 100,00 %
03.01.2018 15:06 4,7 C 3,9 C 92 % 1001,9 hPa 0,0 l/m 20,9 km/h (4 Bft) SW 225 0 min 0,000 mm 0,0 UV-I 18 W/m 3,5 C -3,9 C 30,6 km/h (5 Bft) 95,65 %
03.01.2018 15:07 4,7 C 3,9 C 91 % 1002,0 hPa 0,0 l/m 25,7 km/h (4 Bft) S-SW 202 0 min 0,000 mm 0,0 UV-I 19 W/m 3,4 C -5,6 C 30,6 km/h (5 Bft) 95,65 %
03.01.2018 15:08 4,7 C 3,9 C 91 % 1001,9 hPa 0,0 l/m 25,7 km/h (4 Bft) SW 225 0 min 0,000 mm 0,0 UV-I 21 W/m 3,4 C -5,6 C 37,0 km/h (5 Bft) 95,65 %
03.01.2018 15:09 4,7 C 3,9 C 91 % 1001,8 hPa 0,0 l/m 24,1 km/h (4 Bft) S-SW 202 0 min 0,000 mm 0,0 UV-I 23 W/m 3,4 C -5,1 C 37,0 km/h (5 Bft) 100,00 %
03.01.2018 15:10 4,7 C 3,9 C 91 % 1001,7 hPa 0,0 l/m 32,2 km/h (5 Bft) S-SW 202 0 min 0,000 mm 0,0 UV-I 26 W/m 3,4 C -7,3 C 41,8 km/h (6 Bft) 95,65 %
03.01.2018 15:11 4,7 C 3,9 C 91 % 1001,6 hPa 0,0 l/m 20,9 km/h (4 Bft) S-SW 202 0 min 0,000 mm 0,0 UV-I 26 W/m 3,4 C -3,9 C 33,8 km/h (5 Bft) 100,00 %
03.01.2018 15:12 4,7 C 3,9 C 91 % 1001,6 hPa 0,0 l/m 27,4 km/h (4 Bft) S-SW 202 0 min 0,000 mm 0,0 UV-I 28 W/m 3,4 C -6,1 C 41,8 km/h (6 Bft) 100,00 %
03.01.2018 15:13 4,8 C 3,9 C 90 % 1001,7 hPa 0,0 l/m 22,5 km/h (4 Bft) SW 225 0 min 0,000 mm 0,0 UV-I 26 W/m 3,3 C -4,4 C 29,0 km/h (5 Bft) 100,00 %
03.01.2018 15:14 4,8 C 3,9 C 90 % 1001,6 hPa 0,0 l/m 38,6 km/h (5 Bft) S-SW 202 0 min 0,000 mm 0,0 UV-I 26 W/m 3,3 C -8,6 C 51,5 km/h (7 Bft) 95,65 %
03.01.2018 15:15 4,8 C 3,9 C 90 % 1001,6 hPa 0,0 l/m 32,2 km/h (5 Bft) SW 225 0 min 0,000 mm 0,0 UV-I 24 W/m 3,3 C -7,2 C 53,1 km/h (7 Bft) 100,00 %
03.01.2018 15:16 4,9 C 3,9 C 89 % 1001,6 hPa 0,0 l/m 35,4 km/h (5 Bft) S-SW 202 0 min 0,000 mm 0,0 UV-I 21 W/m 3,2 C -7,8 C 59,5 km/h (7 Bft) 100,00 %
03.01.2018 15:17 5,0 C 3,9 C 89 % 1001,5 hPa 0,0 l/m 33,8 km/h (5 Bft) S-SW 202 0 min 0,000 mm 0,0 UV-I 21 W/m 3,3 C -7,3 C 59,5 km/h (7 Bft) 95,65 %
03.01.2018 15:18 5,0 C 3,9 C 89 % 1001,6 hPa 0,2 l/m 35,4 km/h (5 Bft) SW 225 0 min 0,000 mm 0,0 UV-I 21 W/m 3,3 C -7,6 C 45,1 km/h (6 Bft) 100,00 %
03.01.2018 15:19 5,1 C 3,9 C 89 % 1001,6 hPa 0,0 l/m 29,0 km/h (5 Bft) SW 225 0 min 0,000 mm 0,0 UV-I 19 W/m 3,4 C -6,0 C 46,7 km/h (6 Bft) 100,00 %
03.01.2018 15:20 5,1 C 3,9 C 89 % 1001,5 hPa 0,0 l/m 24,1 km/h (4 Bft) SW 225 0 min 0,000 mm 0,0 UV-I 19 W/m 3,4 C -4,5 C 40,2 km/h (6 Bft) 100,00 %
03.01.2018 15:21 5,0 C 3,9 C 89 % 1001,4 hPa 0,0 l/m 29,0 km/h (5 Bft) SW 225 0 min 0,000 mm 0,0 UV-I 20 W/m 3,3 C -6,1 C 41,8 km/h (6 Bft) 95,65 %
03.01.2018 15:22 5,0 C 3,9 C 89 % 1001,4 hPa 0,0 l/m 24,1 km/h (4 Bft) SW 225 0 min 0,000 mm 0,0 UV-I 23 W/m 3,3 C -4,7 C 35,4 km/h (5 Bft) 100,00 %
03.01.2018 15:23 4,9 C 3,9 C 89 % 1001,5 hPa 0,0 l/m 32,2 km/h (5 Bft) SW 225 0 min 0,000 mm 0,0 UV-I 25 W/m 3,2 C -7,1 C 53,1 km/h (7 Bft) 95,65 %
03.01.2018 15:24 4,9 C 3,9 C 89 % 1001,5 hPa 0,0 l/m 33,8 km/h (5 Bft) SW 225 0 min 0,000 mm 0,0 UV-I 26 W/m 3,2 C -7,4 C 56,3 km/h (7 Bft) 100,00 %
03.01.2018 15:25 5,0 C 3,9 C 89 % 1001,6 hPa 0,0 l/m 30,6 km/h (5 Bft) S-SW 202 0 min 0,000 mm 0,0 UV-I 26 W/m 3,3 C -6,5 C 41,8 km/h (6 Bft) 95,65 %
03.01.2018 15:26 5,0 C 3,9 C 88 % 1001,6 hPa 0,0 l/m 25,7 km/h (4 Bft) S-SW 202 0 min 0,000 mm 0,0 UV-I 28 W/m 3,2 C -5,2 C 37,0 km/h (5 Bft) 100,00 %
03.01.2018 15:27 5,0 C 3,9 C 88 % 1001,7 hPa 0,0 l/m 32,2 km/h (5 Bft) SW 225 0 min 0,000 mm 0,0 UV-I 28 W/m 3,2 C -6,9 C 46,7 km/h (6 Bft) 100,00 %
03.01.2018 15:28 5,1 C 3,9 C 88 % 1001,7 hPa 0,0 l/m 35,4 km/h (5 Bft) SW 225 0 min 0,000 mm 0,0 UV-I 26 W/m 3,3 C -7,5 C 48,3 km/h (6 Bft) 91,30 %
03.01.2018 15:29 5,1 C 3,9 C 88 % 1001,8 hPa 0,0 l/m 29,0 km/h (5 Bft) S-SW 202 0 min 0,000 mm 0,0 UV-I 26 W/m 3,3 C -6,0 C 38,6 km/h (5 Bft) 100,00 %
03.01.2018 15:30 5,1 C 3,9 C 87 % 1001,8 hPa 0,0 l/m 29,0 km/h (5 Bft) S-SW 202 0 min 0,000 mm 0,0 UV-I 25 W/m 3,1 C -6,0 C 40,2 km/h (6 Bft) 100,00 %
03.01.2018 15:31 5,1 C 3,9 C 87 % 1002,0 hPa 0,0 l/m 30,6 km/h (5 Bft) W-SW 247 0 min 0,000 mm 0,0 UV-I 25 W/m 3,1 C -6,4 C 46,7 km/h (6 Bft) 100,00 %
03.01.2018 15:32 5,1 C 3,9 C 87 % 1002,1 hPa 0,0 l/m 27,4 km/h (4 Bft) SW 225 0 min 0,000 mm 0,0 UV-I 23 W/m 3,1 C -5,5 C 38,6 km/h (5 Bft) 100,00 %
03.01.2018 15:33 5,1 C 3,9 C 87 % 1002,1 hPa 0,0 l/m 29,0 km/h (5 Bft) SW 225 0 min 0,000 mm 0,0 UV-I 23 W/m 3,1 C -6,0 C 43,5 km/h (6 Bft) 100,00 %
03.01.2018 15:34 5,1 C 3,9 C 87 % 1002,2 hPa 0,0 l/m 33,8 km/h (5 Bft) SW 225 0 min 0,000 mm 0,0 UV-I 21 W/m 3,1 C -7,1 C 43,5 km/h (6 Bft) 100,00 %
03.01.2018 15:35 5,1 C 3,9 C 87 % 1002,4 hPa 0,0 l/m 29,0 km/h (5 Bft) SW 225 0 min 0,000 mm 0,0 UV-I 21 W/m 3,1 C -6,0 C 45,1 km/h (6 Bft) 95,65 %
03.01.2018 15:36 5,1 C 3,9 C 87 % 1002,5 hPa 0,0 l/m 29,0 km/h (5 Bft) W-SW 247 0 min 0,000 mm 0,0 UV-I 19 W/m 3,1 C -6,0 C 37,0 km/h (5 Bft) 100,00 %
03.01.2018 15:37 5,2 C 3,9 C 87 % 1002,6 hPa 0,0 l/m 37,0 km/h (5 Bft) SW 225 0 min 0,000 mm 0,0 UV-I 19 W/m 3,2 C -7,7 C 51,5 km/h (7 Bft) 100,00 %
03.01.2018 15:38 5,2 C 3,9 C 86 % 1002,6 hPa 0,0 l/m 35,4 km/h (5 Bft) SW 225 0 min 0,000 mm 0,0 UV-I 23 W/m 3,1 C -7,3 C 51,5 km/h (7 Bft) 100,00 %
03.01.2018 15:39 5,2 C 3,9 C 86 % 1002,7 hPa 0,0 l/m 41,8 km/h (6 Bft) SW 225 0 min 0,000 mm 0,0 UV-I 26 W/m 3,1 C -8,5 C 51,5 km/h (7 Bft) 100,00 %
03.01.2018 15:40 5,2 C 3,9 C 86 % 1002,9 hPa 0,0 l/m 37,0 km/h (5 Bft) W-SW 247 0 min 0,000 mm 0,0 UV-I 28 W/m 3,1 C -7,7 C 51,5 km/h (7 Bft) 100,00 %
03.01.2018 15:41 5,2 C 3,9 C 86 % 1002,9 hPa 0,0 l/m 32,2 km/h (5 Bft) W-SW 247 0 min 0,000 mm 0,0 UV-I 25 W/m 3,1 C -6,6 C 48,3 km/h (6 Bft) 100,00 %
03.01.2018 15:42 5,2 C 3,9 C 86 % 1002,8 hPa 0,0 l/m 30,6 km/h (5 Bft) W-SW 247 0 min 0,000 mm 0,0 UV-I 26 W/m 3,1 C -6,2 C 41,8 km/h (6 Bft) 95,65 %
03.01.2018 15:43 5,2 C 3,9 C 86 % 1002,9 hPa 0,0 l/m 35,4 km/h (5 Bft) SW 225 0 min 0,000 mm 0,0 UV-I 26 W/m 3,1 C -7,3 C 51,5 km/h (7 Bft) 100,00 %
03.01.2018 15:44 5,2 C 3,9 C 86 % 1003,0 hPa 0,0 l/m 27,4 km/h (4 Bft) W-SW 247 0 min 0,000 mm 0,0 UV-I 23 W/m 3,1 C -5,4 C 35,4 km/h (5 Bft) 95,65 %
03.01.2018 15:45 5,2 C 3,9 C 86 % 1002,9 hPa 0,0 l/m 30,6 km/h (5 Bft) SW 225 0 min 0,000 mm 0,0 UV-I 21 W/m 3,1 C -6,2 C 40,2 km/h (6 Bft) 95,65 %
03.01.2018 15:46 5,2 C 3,9 C 86 % 1002,9 hPa 0,0 l/m 33,8 km/h (5 Bft) SW 225 0 min 0,000 mm 0,0 UV-I 18 W/m 3,1 C -7,0 C 46,7 km/h (6 Bft) 100,00 %
03.01.2018 15:47 5,2 C 3,9 C 86 % 1003,0 hPa 0,0 l/m 41,8 km/h (6 Bft) SW 225 0 min 0,000 mm 0,0 UV-I 16 W/m 3,1 C -8,5 C 56,3 km/h (7 Bft) 95,65 %
03.01.2018 15:48 5,2 C 3,9 C 86 % 1002,9 hPa 0,0 l/m 41,8 km/h (6 Bft) SW 225 0 min 0,000 mm 0,0 UV-I 16 W/m 3,1 C -8,5 C 54,7 km/h (7 Bft) 100,00 %
03.01.2018 15:49 5,2 C 3,9 C 86 % 1003,0 hPa 0,0 l/m 35,4 km/h (5 Bft) SW 225 0 min 0,000 mm 0,0 UV-I 14 W/m 3,1 C -7,3 C 48,3 km/h (6 Bft) 91,30 %
03.01.2018 15:50 5,2 C 3,9 C 86 % 1003,1 hPa 0,0 l/m 32,2 km/h (5 Bft) W-SW 247 0 min 0,000 mm 0,0 UV-I 14 W/m 3,1 C -6,6 C 43,5 km/h (6 Bft) 100,00 %
03.01.2018 15:51 5,2 C 3,9 C 86 % 1003,3 hPa 0,0 l/m 25,7 km/h (4 Bft) W-SW 247 0 min 0,000 mm 0,0 UV-I 12 W/m 3,1 C -4,9 C 32,2 km/h (5 Bft) 100,00 %
03.01.2018 15:52 5,2 C 3,9 C 86 % 1003,3 hPa 0,0 l/m 25,7 km/h (4 Bft) W-SW 247 0 min 0,000 mm 0,0 UV-I 11 W/m 3,1 C -4,9 C 32,2 km/h (5 Bft) 100,00 %
03.01.2018 15:53 5,2 C 3,9 C 86 % 1003,2 hPa 0,0 l/m 30,6 km/h (5 Bft) W-SW 247 0 min 0,000 mm 0,0 UV-I 11 W/m 3,1 C -6,2 C 40,2 km/h (6 Bft) 100,00 %
03.01.2018 15:54 5,2 C 3,9 C 86 % 1003,3 hPa 0,0 l/m 29,0 km/h (5 Bft) SW 225 0 min 0,000 mm 0,0 UV-I 12 W/m 3,1 C -5,8 C 43,5 km/h (6 Bft) 100,00 %
03.01.2018 15:55 5,2 C 3,9 C 86 % 1003,4 hPa 0,0 l/m 35,4 km/h (5 Bft) W-SW 247 0 min 0,000 mm 0,0 UV-I 14 W/m 3,1 C -7,3 C 48,3 km/h (6 Bft) 100,00 %
03.01.2018 15:56 5,2 C 3,9 C 86 % 1003,3 hPa 0,0 l/m 37,0 km/h (5 Bft) SW 225 0 min 0,000 mm 0,0 UV-I 17 W/m 3,1 C -7,7 C 49,9 km/h (6 Bft) 95,65 %
03.01.2018 15:57 5,2 C 3,9 C 86 % 1003,3 hPa 0,0 l/m 35,4 km/h (5 Bft) W-SW 247 0 min 0,000 mm 0,0 UV-I 18 W/m 3,1 C -7,3 C 49,9 km/h (6 Bft) 95,65 %
03.01.2018 15:58 5,2 C 3,9 C 86 % 1003,4 hPa 0,0 l/m 32,2 km/h (5 Bft) SW 225 0 min 0,000 mm 0,0 UV-I 19 W/m 3,1 C -6,6 C 41,8 km/h (6 Bft) 100,00 %
03.01.2018 15:59 5,2 C 3,9 C 86 % 1003,3 hPa 0,0 l/m 22,5 km/h (4 Bft) W-SW 247 0 min 0,000 mm 0,0 UV-I 19 W/m 3,1 C -3,8 C 30,6 km/h (5 Bft) 95,65 %
03.01.2018 16:00 5,2 C 3,9 C 86 % 1003,3 hPa 0,0 l/m 24,1 km/h (4 Bft) SW 225 0 min 0,051 mm 0,0 UV-I 16 W/m 3,1 C -4,4 C 37,0 km/h (5 Bft) 100,00 %
03.01.2018 16:01 5,2 C 3,9 C 86 % 1003,2 hPa 0,0 l/m 30,6 km/h (5 Bft) SW 225 0 min 0,000 mm 0,0 UV-I 14 W/m 3,1 C -6,2 C 49,9 km/h (6 Bft) 100,00 %
03.01.2018 16:02 5,2 C 3,9 C 86 % 1003,3 hPa 0,0 l/m 32,2 km/h (5 Bft) S-SW 202 0 min 0,000 mm 0,0 UV-I 10 W/m 3,1 C -6,6 C 43,5 km/h (6 Bft) 100,00 %
03.01.2018 16:03 5,2 C 3,9 C 86 % 1003,5 hPa 0,0 l/m 30,6 km/h (5 Bft) SW 225 0 min 0,000 mm 0,0 UV-I 7 W/m 3,1 C -6,2 C 45,1 km/h (6 Bft) 91,30 %
03.01.2018 16:04 5,2 C 3,9 C 86 % 1003,6 hPa 0,0 l/m 32,2 km/h (5 Bft) W-SW 247 0 min 0,000 mm 0,0 UV-I 9 W/m 3,1 C -6,6 C 43,5 km/h (6 Bft) 100,00 %
03.01.2018 16:05 5,2 C 3,9 C 86 % 1003,6 hPa 0,0 l/m 30,6 km/h (5 Bft) SW 225 0 min 0,000 mm 0,0 UV-I 9 W/m 3,1 C -6,2 C 46,7 km/h (6 Bft) 100,00 %
03.01.2018 16:06 5,2 C 3,9 C 85 % 1003,5 hPa 0,0 l/m 35,4 km/h (5 Bft) SW 225 0 min 0,000 mm 0,0 UV-I 9 W/m 2,9 C -7,3 C 45,1 km/h (6 Bft) 100,00 %
03.01.2018 16:07 5,2 C 3,9 C 85 % 1003,6 hPa 0,0 l/m 29,0 km/h (5 Bft) SW 225 0 min 0,000 mm 0,0 UV-I 11 W/m 2,9 C -5,8 C 38,6 km/h (5 Bft) 100,00 %
03.01.2018 16:08 5,2 C 3,9 C 85 % 1003,5 hPa 0,0 l/m 35,4 km/h (5 Bft) SW 225 0 min 0,000 mm 0,0 UV-I 9 W/m 2,9 C -7,3 C 49,9 km/h (6 Bft) 95,65 %
03.01.2018 16:09 5,2 C 3,9 C 85 % 1003,6 hPa 0,0 l/m 33,8 km/h (5 Bft) SW 225 0 min 0,000 mm 0,0 UV-I 9 W/m 2,9 C -7,0 C 51,5 km/h (7 Bft) 100,00 %
03.01.2018 16:10 5,3 C 3,9 C 85 % 1003,6 hPa 0,0 l/m 30,6 km/h (5 Bft) SW 225 1 min 0,000 mm 0,0 UV-I 9 W/m 3,0 C -6,1 C 45,1 km/h (6 Bft) 95,65 %
03.01.2018 16:11 5,3 C 3,9 C 85 % 1003,5 hPa 0,0 l/m 37,0 km/h (5 Bft) W-SW 247 0 min 0,000 mm 0,0 UV-I 9 W/m 3,0 C -7,5 C 45,1 km/h (6 Bft) 95,65 %
03.01.2018 16:12 5,3 C 3,9 C 85 % 1003,5 hPa 0,0 l/m 27,4 km/h (4 Bft) SW 225 0 min 0,000 mm 0,0 UV-I 9 W/m 3,0 C -5,3 C 40,2 km/h (6 Bft) 91,30 %
03.01.2018 16:13 5,3 C 3,9 C 85 % 1003,6 hPa 0,0 l/m 33,8 km/h (5 Bft) SW 225 0 min 0,000 mm 0,0 UV-I 9 W/m 3,0 C -6,9 C 43,5 km/h (6 Bft) 100,00 %
03.01.2018 16:14 5,3 C 3,9 C 85 % 1003,5 hPa 0,0 l/m 30,6 km/h (5 Bft) W-SW 247 0 min 0,000 mm 0,0 UV-I 9 W/m 3,0 C -6,1 C 46,7 km/h (6 Bft) 100,00 %
03.01.2018 16:15 5,3 C 3,9 C 85 % 1003,5 hPa 0,0 l/m 33,8 km/h (5 Bft) SW 225 0 min 0,000 mm 0,0 UV-I 9 W/m 3,0 C -6,9 C 46,7 km/h (6 Bft) 95,65 %
03.01.2018 16:16 5,3 C 3,9 C 84 % 1003,6 hPa 0,0 l/m 35,4 km/h (5 Bft) SW 225 0 min 0,000 mm 0,0 UV-I 9 W/m 2,8 C -7,2 C 45,1 km/h (6 Bft) 95,65 %
03.01.2018 16:17 5,3 C 3,9 C 84 % 1003,6 hPa 0,0 l/m 33,8 km/h (5 Bft) W-SW 247 0 min 0,000 mm 0,0 UV-I 7 W/m 2,8 C -6,9 C 45,1 km/h (6 Bft) 91,30 %
03.01.2018 16:18 5,3 C 3,9 C 84 % 1003,6 hPa 0,0 l/m 29,0 km/h (5 Bft) SW 225 0 min 0,000 mm 0,0 UV-I 7 W/m 2,8 C -5,7 C 45,1 km/h (6 Bft) 95,65 %
03.01.2018 16:19 5,3 C 3,9 C 84 % 1003,6 hPa 0,0 l/m 25,7 km/h (4 Bft) SW 225 0 min 0,000 mm 0,0 UV-I 7 W/m 2,8 C -4,8 C 38,6 km/h (5 Bft) 91,30 %
03.01.2018 16:20 5,3 C 3,9 C 84 % 1003,6 hPa 0,0 l/m 30,6 km/h (5 Bft) SW 225 0 min 0,000 mm 0,0 UV-I 5 W/m 2,8 C -6,1 C 46,7 km/h (6 Bft) 95,65 %
03.01.2018 16:21 5,3 C 3,9 C 84 % 1003,6 hPa 0,0 l/m 25,7 km/h (4 Bft) W-SW 247 0 min 0,000 mm 0,0 UV-I 5 W/m 2,8 C -4,8 C 30,6 km/h (5 Bft) 86,96 %
03.01.2018 16:22 5,3 C 3,9 C 84 % 1003,7 hPa 0,0 l/m 30,6 km/h (5 Bft) SW 225 0 min 0,000 mm 0,0 UV-I 5 W/m 2,8 C -6,1 C 45,1 km/h (6 Bft) 95,65 %
03.01.2018 16:23 5,3 C 3,9 C 84 % 1003,6 hPa 0,0 l/m 33,8 km/h (5 Bft) SW 225 0 min 0,000 mm 0,0 UV-I 5 W/m 2,8 C -6,9 C 46,7 km/h (6 Bft) 95,65 %
03.01.2018 16:24 5,3 C 3,9 C 84 % 1003,6 hPa 0,0 l/m 37,0 km/h (5 Bft) SW 225 0 min 0,000 mm 0,0 UV-I 5 W/m 2,8 C -7,5 C 49,9 km/h (6 Bft) 86,96 %
03.01.2018 16:25 5,4 C 3,9 C 83 % 1003,7 hPa 0,0 l/m 37,0 km/h (5 Bft) SW 225 0 min 0,000 mm 0,0 UV-I 5 W/m 2,7 C -7,4 C 48,3 km/h (6 Bft) 95,65 %
03.01.2018 16:26 5,4 C 3,9 C 83 % 1003,7 hPa 0,0 l/m 29,0 km/h (5 Bft) W-SW 247 0 min 0,000 mm 0,0 UV-I 5 W/m 2,7 C -5,6 C 37,0 km/h (5 Bft) 95,65 %
03.01.2018 16:27 5,4 C 3,9 C 84 % 1003,7 hPa 0,0 l/m 27,4 km/h (4 Bft) SW 225 0 min 0,000 mm 0,0 UV-I 5 W/m 2,9 C -5,1 C 38,6 km/h (5 Bft) 95,65 %
03.01.2018 16:28 5,4 C 3,9 C 83 % 1003,8 hPa 0,0 l/m 27,4 km/h (4 Bft) SW 225 0 min 0,000 mm 0,0 UV-I 5 W/m 2,7 C -5,1 C 38,6 km/h (5 Bft) 95,65 %
03.01.2018 16:29 5,3 C 3,9 C 83 % 1003,7 hPa 0,0 l/m 24,1 km/h (4 Bft) SW 225 0 min 0,000 mm 0,0 UV-I 5 W/m 2,7 C -4,2 C 32,2 km/h (5 Bft) 95,65 %
03.01.2018 16:30 5,3 C 3,9 C 83 % 1003,8 hPa 0,0 l/m 29,0 km/h (5 Bft) SW 225 0 min 0,000 mm 0,0 UV-I 5 W/m 2,7 C -5,7 C 43,5 km/h (6 Bft) 91,30 %
03.01.2018 16:31 5,3 C 3,9 C 83 % 1003,7 hPa 0,0 l/m 22,5 km/h (4 Bft) SW 225 0 min 0,000 mm 0,0 UV-I 5 W/m 2,7 C -3,7 C 35,4 km/h (5 Bft) 91,30 %
03.01.2018 16:32 5,3 C 3,9 C 83 % 1003,7 hPa 0,0 l/m 33,8 km/h (5 Bft) W-SW 247 0 min 0,000 mm 0,0 UV-I 5 W/m 2,7 C -6,9 C 41,8 km/h (6 Bft) 95,65 %
03.01.2018 16:33 5,3 C 3,9 C 83 % 1003,9 hPa 0,0 l/m 25,7 km/h (4 Bft) SW 225 0 min 0,000 mm 0,0 UV-I 5 W/m 2,7 C -4,8 C 32,2 km/h (5 Bft) 95,65 %
03.01.2018 16:34 5,3 C 3,9 C 83 % 1003,9 hPa 0,0 l/m 29,0 km/h (5 Bft) SW 225 0 min 0,000 mm 0,0 UV-I 5 W/m 2,7 C -5,7 C 37,0 km/h (5 Bft) 95,65 %
03.01.2018 16:35 5,3 C 3,9 C 83 % 1003,9 hPa 0,0 l/m 24,1 km/h (4 Bft) SW 225 0 min 0,000 mm 0,0 UV-I 0 W/m 2,7 C -4,2 C 41,8 km/h (6 Bft) 95,65 %
03.01.2018 16:36 5,3 C 3,9 C 83 % 1003,8 hPa 0,0 l/m 33,8 km/h (5 Bft) W-SW 247 0 min 0,000 mm 0,0 UV-I 0 W/m 2,7 C -6,9 C 41,8 km/h (6 Bft) 95,65 %
03.01.2018 16:37 5,3 C 3,9 C 83 % 1003,9 hPa 0,0 l/m 27,4 km/h (4 Bft) W-SW 247 0 min 0,000 mm 0,0 UV-I 0 W/m 2,7 C -5,3 C 43,5 km/h (6 Bft) 95,65 %
03.01.2018 16:38 5,4 C 3,9 C 83 % 1003,8 hPa 0,0 l/m 32,2 km/h (5 Bft) W-SW 247 0 min 0,000 mm 0,0 UV-I 0 W/m 2,7 C -6,3 C 46,7 km/h (6 Bft) 91,30 %
03.01.2018 16:39 5,4 C 3,9 C 83 % 1003,9 hPa 0,0 l/m 24,1 km/h (4 Bft) W-SW 247 0 min 0,000 mm 0,0 UV-I 0 W/m 2,7 C -4,1 C 37,0 km/h (5 Bft) 95,65 %
03.01.2018 16:40 5,4 C 3,9 C 83 % 1003,9 hPa 0,0 l/m 24,1 km/h (4 Bft) SW 225 0 min 0,000 mm 0,0 UV-I 0 W/m 2,7 C -4,1 C 33,8 km/h (5 Bft) 95,65 %
03.01.2018 16:41 5,4 C 3,9 C 83 % 1003,9 hPa 0,0 l/m 19,3 km/h (3 Bft) SW 225 0 min 0,000 mm 0,0 UV-I 0 W/m 2,7 C -2,4 C 29,0 km/h (5 Bft) 100,00 %
03.01.2018 16:42 5,4 C 3,9 C 83 % 1004,0 hPa 0,0 l/m 20,9 km/h (4 Bft) W-SW 247 0 min 0,000 mm 0,0 UV-I 0 W/m 2,7 C -3,0 C 27,4 km/h (4 Bft) 95,65 %
03.01.2018 16:43 5,3 C 3,9 C 83 % 1004,0 hPa 0,0 l/m 22,5 km/h (4 Bft) SW 225 0 min 0,000 mm 0,0 UV-I 0 W/m 2,7 C -3,7 C 30,6 km/h (5 Bft) 100,00 %
03.01.2018 16:44 5,3 C 3,9 C 83 % 1004,0 hPa 0,0 l/m 25,7 km/h (4 Bft) W-SW 247 0 min 0,000 mm 0,0 UV-I 0 W/m 2,7 C -4,8 C 37,0 km/h (5 Bft) 95,65 %
03.01.2018 16:45 5,3 C 3,9 C 83 % 1004,0 hPa 0,0 l/m 25,7 km/h (4 Bft) W-SW 247 0 min 0,000 mm 0,0 UV-I 0 W/m 2,7 C -4,8 C 30,6 km/h (5 Bft) 95,65 %
03.01.2018 16:46 5,3 C 3,9 C 83 % 1004,1 hPa 0,0 l/m 20,9 km/h (4 Bft) W-SW 247 0 min 0,000 mm 0,0 UV-I 0 W/m 2,7 C -3,1 C 25,7 km/h (4 Bft) 95,65 %
03.01.2018 16:47 5,4 C 3,9 C 83 % 1004,0 hPa 0,0 l/m 20,9 km/h (4 Bft) W-SW 247 0 min 0,000 mm 0,0 UV-I 0 W/m 2,7 C -3,0 C 30,6 km/h (5 Bft) 95,65 %
03.01.2018 16:48 5,4 C 3,9 C 83 % 1004,1 hPa 0,0 l/m 24,1 km/h (4 Bft) W-SW 247 0 min 0,000 mm 0,0 UV-I 0 W/m 2,7 C -4,1 C 32,2 km/h (5 Bft) 91,30 %
03.01.2018 16:49 5,4 C 3,9 C 83 % 1004,1 hPa 0,0 l/m 29,0 km/h (5 Bft) SW 225 0 min 0,000 mm 0,0 UV-I 0 W/m 2,7 C -5,6 C 40,2 km/h (6 Bft) 95,65 %
03.01.2018 16:50 5,4 C 3,9 C 83 % 1004,2 hPa 0,0 l/m 25,7 km/h (4 Bft) SW 225 0 min 0,000 mm 0,0 UV-I 0 W/m 2,7 C -4,6 C 37,0 km/h (5 Bft) 100,00 %
03.01.2018 16:51 5,4 C 3,9 C 83 % 1004,3 hPa 0,0 l/m 32,2 km/h (5 Bft) W-SW 247 0 min 0,000 mm 0,0 UV-I 0 W/m 2,7 C -6,3 C 45,1 km/h (6 Bft) 100,00 %
03.01.2018 16:52 5,4 C 3,9 C 83 % 1004,2 hPa 0,0 l/m 30,6 km/h (5 Bft) W-SW 247 0 min 0,000 mm 0,0 UV-I 0 W/m 2,7 C -6,0 C 46,7 km/h (6 Bft) 95,65 %
03.01.2018 16:53 5,5 C 3,9 C 83 % 1004,3 hPa 0,0 l/m 38,6 km/h (5 Bft) W-SW 247 0 min 0,000 mm 0,0 UV-I 0 W/m 2,8 C -7,5 C 56,3 km/h (7 Bft) 95,65 %
03.01.2018 16:54 5,4 C 3,9 C 83 % 1004,2 hPa 0,0 l/m 32,2 km/h (5 Bft) W-SW 247 0 min 0,000 mm 0,0 UV-I 0 W/m 2,7 C -6,3 C 46,7 km/h (6 Bft) 95,65 %
03.01.2018 16:55 5,5 C 3,9 C 82 % 1004,3 hPa 0,0 l/m 29,0 km/h (5 Bft) W-SW 247 0 min 0,000 mm 0,0 UV-I 0 W/m 2,7 C -5,4 C 37,0 km/h (5 Bft) 95,65 %
03.01.2018 16:56 5,5 C 3,9 C 82 % 1004,3 hPa 0,0 l/m 32,2 km/h (5 Bft) W-SW 247 0 min 0,000 mm 0,0 UV-I 0 W/m 2,7 C -6,2 C 41,8 km/h (6 Bft) 100,00 %
03.01.2018 16:57 5,5 C 3,9 C 82 % 1004,1 hPa 0,0 l/m 30,6 km/h (5 Bft) SW 225 0 min 0,000 mm 0,0 UV-I 0 W/m 2,7 C -5,8 C 37,0 km/h (5 Bft) 95,65 %
03.01.2018 16:58 5,5 C 3,9 C 82 % 1004,0 hPa 0,0 l/m 29,0 km/h (5 Bft) W-SW 247 0 min 0,000 mm 0,0 UV-I 0 W/m 2,7 C -5,4 C 38,6 km/h (5 Bft) 91,30 %
03.01.2018 16:59 5,5 C 3,9 C 82 % 1004,0 hPa 0,0 l/m 25,7 km/h (4 Bft) W-SW 247 0 min 0,000 mm 0,0 UV-I 0 W/m 2,7 C -4,5 C 33,8 km/h (5 Bft) 95,65 %
03.01.2018 17:00 5,4 C 3,9 C 82 % 1004,0 hPa 0,0 l/m 25,7 km/h (4 Bft) W-SW 247 0 min 0,051 mm 0,0 UV-I 0 W/m 2,6 C -4,6 C 38,6 km/h (5 Bft) 91,30 %
03.01.2018 17:01 5,4 C 3,9 C 82 % 1004,0 hPa 0,0 l/m 22,5 km/h (4 Bft) W-SW 247 0 min 0,000 mm 0,0 UV-I 0 W/m 2,6 C -3,6 C 30,6 km/h (5 Bft) 100,00 %
03.01.2018 17:02 5,4 C 3,9 C 82 % 1004,2 hPa 0,0 l/m 29,0 km/h (5 Bft) W-SW 247 0 min 0,000 mm 0,0 UV-I 0 W/m 2,6 C -5,6 C 35,4 km/h (5 Bft) 95,65 %
03.01.2018 17:03 5,4 C 3,9 C 82 % 1004,0 hPa 0,0 l/m 22,5 km/h (4 Bft) SW 225 0 min 0,000 mm 0,0 UV-I 0 W/m 2,6 C -3,6 C 27,4 km/h (4 Bft) 95,65 %
03.01.2018 17:04 5,4 C 3,9 C 82 % 1004,1 hPa 0,0 l/m 17,7 km/h (3 Bft) W-SW 247 0 min 0,000 mm 0,0 UV-I 0 W/m 2,6 C -1,7 C 20,9 km/h (4 Bft) 95,65 %
03.01.2018 17:05 5,4 C 3,9 C 82 % 1004,1 hPa 0,0 l/m 24,1 km/h (4 Bft) W-SW 247 0 min 0,000 mm 0,0 UV-I 0 W/m 2,6 C -4,1 C 49,9 km/h (6 Bft) 100,00 %
03.01.2018 17:06 5,4 C 3,9 C 82 % 1004,0 hPa 0,0 l/m 24,1 km/h (4 Bft) W-SW 247 0 min 0,000 mm 0,0 UV-I 0 W/m 2,6 C -4,1 C 30,6 km/h (5 Bft) 95,65 %
03.01.2018 17:07 5,4 C 3,9 C 82 % 1004,0 hPa 0,0 l/m 20,9 km/h (4 Bft) W-SW 247 0 min 0,000 mm 0,0 UV-I 0 W/m 2,6 C -3,0 C 27,4 km/h (4 Bft) 100,00 %
03.01.2018 17:08 5,4 C 3,9 C 82 % 1004,0 hPa 0,0 l/m 32,2 km/h (5 Bft) SW 225 0 min 0,000 mm 0,0 UV-I 0 W/m 2,6 C -6,3 C 45,1 km/h (6 Bft) 100,00 %
03.01.2018 17:09 5,4 C 3,9 C 81 % 1004,0 hPa 0,0 l/m 25,7 km/h (4 Bft) SW 225 0 min 0,000 mm 0,0 UV-I 0 W/m 2,4 C -4,6 C 37,0 km/h (5 Bft) 95,65 %
03.01.2018 17:10 5,4 C 3,9 C 81 % 1003,9 hPa 0,0 l/m 25,7 km/h (4 Bft) W-SW 247 0 min 0,000 mm 0,0 UV-I 0 W/m 2,4 C -4,6 C 37,0 km/h (5 Bft) 100,00 %
03.01.2018 17:11 5,4 C 3,9 C 81 % 1003,9 hPa 0,0 l/m 22,5 km/h (4 Bft) SW 225 0 min 0,000 mm 0,0 UV-I 0 W/m 2,4 C -3,6 C 46,7 km/h (6 Bft) 100,00 %
03.01.2018 17:12 5,4 C 3,9 C 81 % 1003,9 hPa 0,0 l/m 27,4 km/h (4 Bft) SW 225 0 min 0,000 mm 0,0 UV-I 0 W/m 2,4 C -5,1 C 38,6 km/h (5 Bft) 100,00 %
03.01.2018 17:13 5,4 C 3,9 C 81 % 1004,0 hPa 0,0 l/m 25,7 km/h (4 Bft) SW 225 0 min 0,000 mm 0,0 UV-I 0 W/m 2,4 C -4,6 C 41,8 km/h (6 Bft) 95,65 %
03.01.2018 17:14 5,4 C 3,9 C 81 % 1003,9 hPa 0,0 l/m 20,9 km/h (4 Bft) SW 225 0 min 0,000 mm 0,0 UV-I 0 W/m 2,4 C -3,0 C 32,2 km/h (5 Bft) 100,00 %
03.01.2018 17:15 5,4 C 3,9 C 81 % 1003,9 hPa 0,0 l/m 20,9 km/h (4 Bft) W-SW 247 0 min 0,000 mm 0,0 UV-I 0 W/m 2,4 C -3,0 C 33,8 km/h (5 Bft) 100,00 %
03.01.2018 17:16 5,4 C 3,9 C 81 % 1003,8 hPa 0,0 l/m 24,1 km/h (4 Bft) SW 225 0 min 0,000 mm 0,0 UV-I 0 W/m 2,4 C -4,1 C 29,0 km/h (5 Bft) 100,00 %
03.01.2018 17:17 5,4 C 3,9 C 81 % 1003,8 hPa 0,0 l/m 30,6 km/h (5 Bft) SW 225 0 min 0,000 mm 0,0 UV-I 0 W/m 2,4 C -6,0 C 37,0 km/h (5 Bft) 100,00 %
03.01.2018 17:18 5,4 C 3,9 C 81 % 1003,8 hPa 0,0 l/m 32,2 km/h (5 Bft) W-SW 247 0 min 0,000 mm 0,0 UV-I 0 W/m 2,4 C -6,3 C 49,9 km/h (6 Bft) 100,00 %
03.01.2018 17:19 5,4 C 3,9 C 81 % 1003,8 hPa 0,0 l/m 27,4 km/h (4 Bft) SW 225 0 min 0,000 mm 0,0 UV-I 0 W/m 2,4 C -5,1 C 40,2 km/h (6 Bft) 100,00 %
03.01.2018 17:20 5,4 C 3,9 C 80 % 1003,7 hPa 0,0 l/m 33,8 km/h (5 Bft) W-SW 247 0 min 0,000 mm 0,0 UV-I 0 W/m 2,2 C -6,7 C 54,7 km/h (7 Bft) 95,65 %
03.01.2018 17:21 5,5 C 3,9 C 80 % 1003,8 hPa 0,0 l/m 24,1 km/h (4 Bft) W-SW 247 0 min 0,000 mm 0,0 UV-I 0 W/m 2,3 C -4,0 C 41,8 km/h (6 Bft) 95,65 %
03.01.2018 17:22 5,6 C 3,9 C 80 % 1003,8 hPa 0,0 l/m 25,7 km/h (4 Bft) SW 225 0 min 0,000 mm 0,0 UV-I 0 W/m 2,4 C -4,3 C 35,4 km/h (5 Bft) 100,00 %
03.01.2018 17:23 5,6 C 3,9 C 80 % 1003,8 hPa 0,0 l/m 30,6 km/h (5 Bft) SW 225 0 min 0,000 mm 0,0 UV-I 0 W/m 2,4 C -5,7 C 46,7 km/h (6 Bft) 95,65 %
03.01.2018 17:24 5,6 C 3,9 C 79 % 1003,8 hPa 0,0 l/m 29,0 km/h (5 Bft) W-SW 247 0 min 0,000 mm 0,0 UV-I 0 W/m 2,3 C -5,3 C 45,1 km/h (6 Bft) 95,65 %
03.01.2018 17:25 5,6 C 3,9 C 79 % 1003,7 hPa 0,0 l/m 25,7 km/h (4 Bft) W-SW 247 0 min 0,000 mm 0,0 UV-I 0 W/m 2,3 C -4,3 C 37,0 km/h (5 Bft) 100,00 %
03.01.2018 17:26 5,6 C 3,9 C 79 % 1003,8 hPa 0,0 l/m 27,4 km/h (4 Bft) W-SW 247 0 min 0,000 mm 0,0 UV-I 0 W/m 2,3 C -4,8 C 41,8 km/h (6 Bft) 100,00 %
03.01.2018 17:27 5,6 C 3,9 C 79 % 1003,9 hPa 0,0 l/m 29,0 km/h (5 Bft) SW 225 0 min 0,000 mm 0,0 UV-I 0 W/m 2,3 C -5,3 C 40,2 km/h (6 Bft) 91,30 %
03.01.2018 17:28 5,6 C 3,9 C 79 % 1003,9 hPa 0,0 l/m 29,0 km/h (5 Bft) SW 225 0 min 0,000 mm 0,0 UV-I 0 W/m 2,3 C -5,3 C 54,7 km/h (7 Bft) 100,00 %
03.01.2018 17:29 5,7 C 3,9 C 79 % 1003,8 hPa 0,0 l/m 29,0 km/h (5 Bft) SW 225 0 min 0,000 mm 0,0 UV-I 0 W/m 2,3 C -5,1 C 40,2 km/h (6 Bft) 95,65 %
03.01.2018 17:30 5,7 C 3,9 C 78 % 1003,9 hPa 0,0 l/m 32,2 km/h (5 Bft) W-SW 247 0 min 0,000 mm 0,0 UV-I 0 W/m 2,2 C -5,9 C 54,7 km/h (7 Bft) 100,00 %
03.01.2018 17:31 5,7 C 3,9 C 78 % 1003,8 hPa 0,0 l/m 33,8 km/h (5 Bft) W-SW 247 0 min 0,000 mm 0,0 UV-I 0 W/m 2,2 C -6,3 C 41,8 km/h (6 Bft) 100,00 %
03.01.2018 17:32 5,7 C 3,9 C 78 % 1003,8 hPa 0,0 l/m 30,6 km/h (5 Bft) SW 225 0 min 0,000 mm 0,0 UV-I 0 W/m 2,2 C -5,5 C 48,3 km/h (6 Bft) 95,65 %
03.01.2018 17:33 5,7 C 3,9 C 78 % 1003,8 hPa 0,0 l/m 29,0 km/h (5 Bft) SW 225 0 min 0,000 mm 0,0 UV-I 0 W/m 2,2 C -5,1 C 38,6 km/h (5 Bft) 100,00 %
03.01.2018 17:34 5,7 C 3,9 C 78 % 1003,7 hPa 0,0 l/m 29,0 km/h (5 Bft) W-SW 247 0 min 0,000 mm 0,0 UV-I 0 W/m 2,2 C -5,1 C 43,5 km/h (6 Bft) 95,65 %
03.01.2018 17:35 5,7 C 3,9 C 78 % 1003,8 hPa 0,0 l/m 29,0 km/h (5 Bft) W-SW 247 0 min 0,000 mm 0,0 UV-I 0 W/m 2,2 C -5,1 C 40,2 km/h (6 Bft) 95,65 %
03.01.2018 17:36 5,7 C 3,9 C 78 % 1003,8 hPa 0,0 l/m 30,6 km/h (5 Bft) SW 225 0 min 0,000 mm 0,0 UV-I 0 W/m 2,2 C -5,5 C 46,7 km/h (6 Bft) 100,00 %
03.01.2018 17:37 5,7 C 3,9 C 78 % 1003,8 hPa 0,0 l/m 29,0 km/h (5 Bft) W-SW 247 0 min 0,000 mm 0,0 UV-I 0 W/m 2,2 C -5,1 C 38,6 km/h (5 Bft) 100,00 %
03.01.2018 17:38 5,7 C 3,9 C 78 % 1003,8 hPa 0,0 l/m 33,8 km/h (5 Bft) W-SW 247 0 min 0,000 mm 0,0 UV-I 0 W/m 2,2 C -6,3 C 45,1 km/h (6 Bft) 100,00 %
03.01.2018 17:39 5,7 C 3,9 C 78 % 1003,9 hPa 0,0 l/m 27,4 km/h (4 Bft) SW 225 0 min 0,000 mm 0,0 UV-I 0 W/m 2,2 C -4,7 C 41,8 km/h (6 Bft) 100,00 %
03.01.2018 17:40 5,7 C 3,9 C 78 % 1003,9 hPa 0,0 l/m 25,7 km/h (4 Bft) W-SW 247 0 min 0,000 mm 0,0 UV-I 0 W/m 2,2 C -4,2 C 43,5 km/h (6 Bft) 100,00 %
03.01.2018 17:41 5,7 C 3,9 C 78 % 1003,9 hPa 0,0 l/m 27,4 km/h (4 Bft) W-SW 247 0 min 0,000 mm 0,0 UV-I 0 W/m 2,2 C -4,7 C 38,6 km/h (5 Bft) 95,65 %
03.01.2018 17:42 5,7 C 3,9 C 78 % 1003,9 hPa 0,0 l/m 22,5 km/h (4 Bft) W-SW 247 0 min 0,000 mm 0,0 UV-I 0 W/m 2,2 C -3,2 C 35,4 km/h (5 Bft) 95,65 %
03.01.2018 17:43 5,6 C 3,9 C 79 % 1003,8 hPa 0,0 l/m 24,1 km/h (4 Bft) W-SW 247 0 min 0,000 mm 0,0 UV-I 0 W/m 2,3 C -3,8 C 40,2 km/h (6 Bft) 100,00 %
03.01.2018 17:44 5,6 C 3,9 C 79 % 1003,8 hPa 0,0 l/m 27,4 km/h (4 Bft) W-SW 247 0 min 0,000 mm 0,0 UV-I 0 W/m 2,3 C -4,8 C 35,4 km/h (5 Bft) 95,65 %
03.01.2018 17:45 5,6 C 3,9 C 79 % 1003,9 hPa 0,0 l/m 22,5 km/h (4 Bft) W-SW 247 0 min 0,000 mm 0,0 UV-I 0 W/m 2,3 C -3,3 C 29,0 km/h (5 Bft) 100,00 %
03.01.2018 17:46 5,6 C 3,9 C 79 % 1003,9 hPa 0,0 l/m 24,1 km/h (4 Bft) W-SW 247 0 min 0,000 mm 0,0 UV-I 0 W/m 2,3 C -3,8 C 35,4 km/h (5 Bft) 95,65 %
03.01.2018 17:47 5,6 C 3,9 C 79 % 1003,9 hPa 0,0 l/m 24,1 km/h (4 Bft) W-SW 247 0 min 0,000 mm 0,0 UV-I 0 W/m 2,3 C -3,8 C 35,4 km/h (5 Bft) 100,00 %
03.01.2018 17:48 5,6 C 3,9 C 79 % 1004,0 hPa 0,0 l/m 25,7 km/h (4 Bft) W 270 0 min 0,000 mm 0,0 UV-I 0 W/m 2,3 C -4,3 C 33,8 km/h (5 Bft) 91,30 %
03.01.2018 17:49 5,6 C 3,9 C 79 % 1003,9 hPa 0,0 l/m 24,1 km/h (4 Bft) W-SW 247 0 min 0,000 mm 0,0 UV-I 0 W/m 2,3 C -3,8 C 32,2 km/h (5 Bft) 100,00 %
03.01.2018 17:50 5,6 C 3,9 C 79 % 1004,0 hPa 0,0 l/m 25,7 km/h (4 Bft) W-SW 247 0 min 0,000 mm 0,0 UV-I 0 W/m 2,3 C -4,3 C 33,8 km/h (5 Bft) 95,65 %
03.01.2018 17:51 5,6 C 3,9 C 79 % 1004,1 hPa 0,0 l/m 24,1 km/h (4 Bft) W-SW 247 0 min 0,000 mm 0,0 UV-I 0 W/m 2,3 C -3,8 C 35,4 km/h (5 Bft) 95,65 %
03.01.2018 17:52 5,6 C 3,9 C 79 % 1003,9 hPa 0,0 l/m 22,5 km/h (4 Bft) SW 225 0 min 0,000 mm 0,0 UV-I 0 W/m 2,3 C -3,3 C 35,4 km/h (5 Bft) 100,00 %
03.01.2018 17:53 5,6 C 3,9 C 79 % 1004,0 hPa 0,0 l/m 24,1 km/h (4 Bft) W-SW 247 0 min 0,000 mm 0,0 UV-I 0 W/m 2,3 C -3,8 C 32,2 km/h (5 Bft) 95,65 %
03.01.2018 17:54 5,6 C 3,9 C 79 % 1003,9 hPa 0,0 l/m 24,1 km/h (4 Bft) W-SW 247 0 min 0,000 mm 0,0 UV-I 0 W/m 2,3 C -3,8 C 45,1 km/h (6 Bft) 100,00 %
03.01.2018 17:55 5,6 C 3,9 C 79 % 1003,9 hPa 0,0 l/m 33,8 km/h (5 Bft) SW 225 0 min 0,000 mm 0,0 UV-I 0 W/m 2,3 C -6,4 C 41,8 km/h (6 Bft) 91,30 %
03.01.2018 17:56 5,7 C 3,9 C 79 % 1003,9 hPa 0,0 l/m 22,5 km/h (4 Bft) W-SW 247 0 min 0,000 mm 0,0 UV-I 0 W/m 2,3 C -3,2 C 29,0 km/h (5 Bft) 100,00 %
03.01.2018 17:57 5,7 C 3,9 C 79 % 1003,9 hPa 0,0 l/m 27,4 km/h (4 Bft) W-SW 247 0 min 0,000 mm 0,0 UV-I 0 W/m 2,3 C -4,7 C 43,5 km/h (6 Bft) 95,65 %
03.01.2018 17:58 5,7 C 3,9 C 78 % 1003,8 hPa 0,0 l/m 27,4 km/h (4 Bft) W 270 0 min 0,000 mm 0,0 UV-I 0 W/m 2,2 C -4,7 C 40,2 km/h (6 Bft) 100,00 %
03.01.2018 17:59 5,7 C 3,9 C 78 % 1003,7 hPa 0,0 l/m 30,6 km/h (5 Bft) W-SW 247 0 min 0,000 mm 0,0 UV-I 0 W/m 2,2 C -5,5 C 43,5 km/h (6 Bft) 95,65 %
03.01.2018 18:00 5,7 C 3,9 C 78 % 1003,7 hPa 0,0 l/m 20,9 km/h (4 Bft) W-SW 247 0 min 0,051 mm 0,0 UV-I 0 W/m 2,2 C -2,6 C 32,2 km/h (5 Bft) 100,00 %
03.01.2018 18:01 5,7 C 3,9 C 78 % 1003,7 hPa 0,0 l/m 24,1 km/h (4 Bft) W-SW 247 0 min 0,000 mm 0,0 UV-I 0 W/m 2,2 C -3,7 C 35,4 km/h (5 Bft) 95,65 %
03.01.2018 18:02 5,7 C 3,9 C 78 % 1003,7 hPa 0,0 l/m 20,9 km/h (4 Bft) SW 225 0 min 0,000 mm 0,0 UV-I 0 W/m 2,2 C -2,6 C 30,6 km/h (5 Bft) 95,65 %
03.01.2018 18:03 5,7 C 3,9 C 78 % 1003,7 hPa 0,0 l/m 25,7 km/h (4 Bft) SW 225 0 min 0,000 mm 0,0 UV-I 0 W/m 2,2 C -4,2 C 33,8 km/h (5 Bft) 95,65 %
03.01.2018 18:04 5,7 C 3,9 C 78 % 1003,6 hPa 0,0 l/m 30,6 km/h (5 Bft) SW 225 0 min 0,000 mm 0,0 UV-I 0 W/m 2,2 C -5,5 C 41,8 km/h (6 Bft) 100,00 %
03.01.2018 18:05 5,7 C 3,9 C 78 % 1003,5 hPa 0,0 l/m 27,4 km/h (4 Bft) W-SW 247 0 min 0,000 mm 0,0 UV-I 0 W/m 2,2 C -4,7 C 37,0 km/h (5 Bft) 95,65 %
03.01.2018 18:06 5,6 C 3,9 C 78 % 1003,5 hPa 0,0 l/m 24,1 km/h (4 Bft) SW 225 0 min 0,000 mm 0,0 UV-I 0 W/m 2,1 C -3,8 C 32,2 km/h (5 Bft) 100,00 %
03.01.2018 18:07 5,7 C 3,9 C 78 % 1003,5 hPa 0,0 l/m 30,6 km/h (5 Bft) SW 225 0 min 0,000 mm 0,0 UV-I 0 W/m 2,2 C -5,5 C 38,6 km/h (5 Bft) 100,00 %
03.01.2018 18:08 5,6 C 3,9 C 78 % 1003,6 hPa 0,0 l/m 27,4 km/h (4 Bft) W-SW 247 0 min 0,000 mm 0,0 UV-I 0 W/m 2,1 C -4,8 C 37,0 km/h (5 Bft) 100,00 %
03.01.2018 18:09 5,7 C 3,9 C 78 % 1003,6 hPa 0,0 l/m 25,7 km/h (4 Bft) SW 225 0 min 0,000 mm 0,0 UV-I 0 W/m 2,2 C -4,2 C 45,1 km/h (6 Bft) 95,65 %
03.01.2018 18:10 5,7 C 3,9 C 78 % 1003,6 hPa 0,0 l/m 37,0 km/h (5 Bft) SW 225 0 min 0,000 mm 0,0 UV-I 0 W/m 2,2 C -6,9 C 51,5 km/h (7 Bft) 100,00 %
03.01.2018 18:11 5,7 C 3,9 C 78 % 1003,8 hPa 0,0 l/m 37,0 km/h (5 Bft) W-SW 247 0 min 0,000 mm 0,0 UV-I 0 W/m 2,2 C -6,9 C 49,9 km/h (6 Bft) 100,00 %
03.01.2018 18:12 5,7 C 3,9 C 77 % 1003,7 hPa 0,0 l/m 24,1 km/h (4 Bft) W-SW 247 0 min 0,000 mm 0,0 UV-I 0 W/m 2,0 C -3,7 C 37,0 km/h (5 Bft) 100,00 %
03.01.2018 18:13 5,8 C 3,9 C 77 % 1003,8 hPa 0,0 l/m 20,9 km/h (4 Bft) SW 225 0 min 0,000 mm 0,0 UV-I 0 W/m 2,1 C -2,5 C 37,0 km/h (5 Bft) 100,00 %
03.01.2018 18:14 5,8 C 3,9 C 77 % 1003,8 hPa 0,0 l/m 33,8 km/h (5 Bft) W-SW 247 0 min 0,000 mm 0,0 UV-I 0 W/m 2,1 C -6,1 C 41,8 km/h (6 Bft) 100,00 %
03.01.2018 18:15 5,8 C 3,9 C 77 % 1003,8 hPa 0,0 l/m 29,0 km/h (5 Bft) SW 225 0 min 0,000 mm 0,0 UV-I 0 W/m 2,1 C -5,0 C 43,5 km/h (6 Bft) 95,65 %
03.01.2018 18:16 5,8 C 3,9 C 77 % 1003,8 hPa 0,0 l/m 35,4 km/h (5 Bft) SW 225 0 min 0,000 mm 0,0 UV-I 0 W/m 2,1 C -6,5 C 48,3 km/h (6 Bft) 95,65 %
03.01.2018 18:17 5,9 C 3,9 C 77 % 1003,7 hPa 0,0 l/m 25,7 km/h (4 Bft) W-SW 247 0 min 0,000 mm 0,0 UV-I 0 W/m 2,2 C -3,9 C 33,8 km/h (5 Bft) 100,00 %
03.01.2018 18:18 5,9 C 3,9 C 77 % 1003,8 hPa 0,0 l/m 30,6 km/h (5 Bft) W-SW 247 0 min 0,000 mm 0,0 UV-I 0 W/m 2,2 C -5,3 C 37,0 km/h (5 Bft) 100,00 %
03.01.2018 18:19 5,9 C 3,9 C 77 % 1003,8 hPa 0,0 l/m 27,4 km/h (4 Bft) SW 225 0 min 0,000 mm 0,0 UV-I 0 W/m 2,2 C -4,4 C 37,0 km/h (5 Bft) 100,00 %
03.01.2018 18:20 5,9 C 3,9 C 77 % 1003,8 hPa 0,0 l/m 29,0 km/h (5 Bft) W-SW 247 0 min 0,000 mm 0,0 UV-I 0 W/m 2,2 C -4,9 C 37,0 km/h (5 Bft) 100,00 %
03.01.2018 18:21 5,9 C 3,9 C 76 % 1003,8 hPa 0,0 l/m 22,5 km/h (4 Bft) W-SW 247 0 min 0,000 mm 0,0 UV-I 0 W/m 2,0 C -2,9 C 41,8 km/h (6 Bft) 100,00 %
03.01.2018 18:22 5,9 C 3,9 C 76 % 1003,8 hPa 0,0 l/m 29,0 km/h (5 Bft) W-SW 247 0 min 0,000 mm 0,0 UV-I 0 W/m 2,0 C -4,9 C 40,2 km/h (6 Bft) 100,00 %
03.01.2018 18:23 5,9 C 3,9 C 76 % 1003,7 hPa 0,0 l/m 22,5 km/h (4 Bft) W-SW 247 0 min 0,000 mm 0,0 UV-I 0 W/m 2,0 C -2,9 C 33,8 km/h (5 Bft) 95,65 %
03.01.2018 18:24 5,9 C 3,9 C 76 % 1003,8 hPa 0,0 l/m 33,8 km/h (5 Bft) W-SW 247 0 min 0,000 mm 0,0 UV-I 0 W/m 2,0 C -6,0 C 48,3 km/h (6 Bft) 100,00 %
03.01.2018 18:25 5,9 C 3,9 C 76 % 1003,7 hPa 0,0 l/m 22,5 km/h (4 Bft) SW 225 0 min 0,000 mm 0,0 UV-I 0 W/m 2,0 C -2,9 C 37,0 km/h (5 Bft) 100,00 %
03.01.2018 18:26 6,0 C 3,9 C 76 % 1003,7 hPa 0,0 l/m 27,4 km/h (4 Bft) SW 225 0 min 0,000 mm 0,0 UV-I 0 W/m 2,1 C -4,3 C 35,4 km/h (5 Bft) 95,65 %
03.01.2018 18:27 6,0 C 3,9 C 76 % 1003,6 hPa 0,0 l/m 25,7 km/h (4 Bft) W 270 0 min 0,000 mm 0,0 UV-I 0 W/m 2,1 C -3,8 C 45,1 km/h (6 Bft) 100,00 %
03.01.2018 18:28 6,0 C 3,9 C 76 % 1003,7 hPa 0,0 l/m 24,1 km/h (4 Bft) SW 225 0 min 0,000 mm 0,0 UV-I 0 W/m 2,1 C -3,3 C 33,8 km/h (5 Bft) 100,00 %
03.01.2018 18:29 5,9 C 3,9 C 76 % 1003,7 hPa 0,0 l/m 20,9 km/h (4 Bft) SW 225 0 min 0,000 mm 0,0 UV-I 0 W/m 2,0 C -2,3 C 30,6 km/h (5 Bft) 100,00 %
03.01.2018 18:30 5,9 C 3,9 C 76 % 1003,6 hPa 0,0 l/m 24,1 km/h (4 Bft) W-SW 247 0 min 0,000 mm 0,0 UV-I 0 W/m 2,0 C -3,4 C 38,6 km/h (5 Bft) 95,65 %
03.01.2018 18:31 5,9 C 3,9 C 76 % 1003,6 hPa 0,0 l/m 30,6 km/h (5 Bft) W-SW 247 0 min 0,000 mm 0,0 UV-I 0 W/m 2,0 C -5,3 C 38,6 km/h (5 Bft) 100,00 %
03.01.2018 18:32 5,9 C 3,9 C 76 % 1003,6 hPa 0,0 l/m 27,4 km/h (4 Bft) SW 225 0 min 0,000 mm 0,0 UV-I 0 W/m 2,0 C -4,4 C 43,5 km/h (6 Bft) 100,00 %
03.01.2018 18:33 5,9 C 3,9 C 76 % 1003,5 hPa 0,0 l/m 29,0 km/h (5 Bft) W-SW 247 0 min 0,000 mm 0,0 UV-I 0 W/m 2,0 C -4,9 C 46,7 km/h (6 Bft) 95,65 %
03.01.2018 18:34 5,9 C 3,9 C 76 % 1003,6 hPa 0,0 l/m 24,1 km/h (4 Bft) SW 225 0 min 0,000 mm 0,0 UV-I 0 W/m 2,0 C -3,4 C 32,2 km/h (5 Bft) 100,00 %
03.01.2018 18:35 5,9 C 3,9 C 76 % 1003,6 hPa 0,0 l/m 25,7 km/h (4 Bft) SW 225 0 min 0,000 mm 0,0 UV-I 0 W/m 2,0 C -3,9 C 40,2 km/h (6 Bft) 95,65 %
03.01.2018 18:36 5,9 C 3,9 C 76 % 1003,4 hPa 0,0 l/m 29,0 km/h (5 Bft) SW 225 0 min 0,000 mm 0,0 UV-I 0 W/m 2,0 C -4,9 C 40,2 km/h (6 Bft) 100,00 %
03.01.2018 18:37 5,9 C 3,9 C 76 % 1003,5 hPa 0,0 l/m 22,5 km/h (4 Bft) SW 225 0 min 0,000 mm 0,0 UV-I 0 W/m 2,0 C -2,9 C 33,8 km/h (5 Bft) 91,30 %
03.01.2018 18:38 5,9 C 3,9 C 76 % 1003,6 hPa 0,0 l/m 30,6 km/h (5 Bft) W-SW 247 0 min 0,000 mm 0,0 UV-I 0 W/m 2,0 C -5,3 C 45,1 km/h (6 Bft) 100,00 %
03.01.2018 18:39 5,9 C 3,9 C 75 % 1003,4 hPa 0,0 l/m 32,2 km/h (5 Bft) SW 225 0 min 0,000 mm 0,0 UV-I 0 W/m 1,8 C -5,6 C 40,2 km/h (6 Bft) 95,65 %
03.01.2018 18:40 5,9 C 3,9 C 75 % 1003,5 hPa 0,0 l/m 29,0 km/h (5 Bft) W-SW 247 0 min 0,000 mm 0,0 UV-I 0 W/m 1,8 C -4,9 C 38,6 km/h (5 Bft) 100,00 %
03.01.2018 18:41 6,0 C 3,9 C 75 % 1003,5 hPa 0,0 l/m 25,7 km/h (4 Bft) W-SW 247 0 min 0,000 mm 0,0 UV-I 0 W/m 1,9 C -3,8 C 38,6 km/h (5 Bft) 95,65 %
03.01.2018 18:42 6,0 C 3,9 C 75 % 1003,5 hPa 0,0 l/m 27,4 km/h (4 Bft) SW 225 0 min 0,000 mm 0,0 UV-I 0 W/m 1,9 C -4,3 C 40,2 km/h (6 Bft) 95,65 %
03.01.2018 18:43 5,9 C 3,9 C 75 % 1003,5 hPa 0,0 l/m 24,1 km/h (4 Bft) W-SW 247 0 min 0,000 mm 0,0 UV-I 0 W/m 1,8 C -3,4 C 32,2 km/h (5 Bft) 100,00 %
03.01.2018 18:44 5,9 C 3,9 C 75 % 1003,5 hPa 0,0 l/m 30,6 km/h (5 Bft) SW 225 0 min 0,000 mm 0,0 UV-I 0 W/m 1,8 C -5,3 C 43,5 km/h (6 Bft) 91,30 %
03.01.2018 18:45 5,9 C 3,9 C 75 % 1003,5 hPa 0,0 l/m 27,4 km/h (4 Bft) SW 225 0 min 0,000 mm 0,0 UV-I 0 W/m 1,8 C -4,4 C 33,8 km/h (5 Bft) 100,00 %
03.01.2018 18:46 5,9 C 3,9 C 75 % 1003,4 hPa 0,0 l/m 25,7 km/h (4 Bft) SW 225 0 min 0,000 mm 0,0 UV-I 0 W/m 1,8 C -3,9 C 40,2 km/h (6 Bft) 86,96 %
03.01.2018 18:47 5,9 C 3,9 C 75 % 1003,5 hPa 0,0 l/m 30,6 km/h (5 Bft) W-SW 247 0 min 0,000 mm 0,0 UV-I 0 W/m 1,8 C -5,3 C 41,8 km/h (6 Bft) 100,00 %
03.01.2018 18:48 5,9 C 3,9 C 75 % 1003,6 hPa 0,0 l/m 27,4 km/h (4 Bft) W-SW 247 0 min 0,000 mm 0,0 UV-I 0 W/m 1,8 C -4,4 C 40,2 km/h (6 Bft) 91,30 %
03.01.2018 18:49 5,9 C 3,9 C 75 % 1003,5 hPa 0,0 l/m 27,4 km/h (4 Bft) SW 225 0 min 0,000 mm 0,0 UV-I 0 W/m 1,8 C -4,4 C 35,4 km/h (5 Bft) 95,65 %
03.01.2018 18:50 5,9 C 3,9 C 75 % 1003,5 hPa 0,0 l/m 29,0 km/h (5 Bft) SW 225 0 min 0,000 mm 0,0 UV-I 0 W/m 1,8 C -4,9 C 43,5 km/h (6 Bft) 100,00 %
03.01.2018 18:51 5,9 C 3,9 C 75 % 1003,6 hPa 0,0 l/m 24,1 km/h (4 Bft) W-SW 247 0 min 0,000 mm 0,0 UV-I 0 W/m 1,8 C -3,4 C 33,8 km/h (5 Bft) 91,30 %
03.01.2018 18:52 5,9 C 3,9 C 75 % 1003,6 hPa 0,0 l/m 27,4 km/h (4 Bft) W-SW 247 0 min 0,000 mm 0,0 UV-I 0 W/m 1,8 C -4,4 C 40,2 km/h (6 Bft) 100,00 %
03.01.2018 18:53 5,9 C 3,9 C 76 % 1003,5 hPa 0,0 l/m 27,4 km/h (4 Bft) SW 225 0 min 0,000 mm 0,0 UV-I 0 W/m 2,0 C -4,4 C 38,6 km/h (5 Bft) 95,65 %
03.01.2018 18:54 5,9 C 3,9 C 75 % 1003,7 hPa 0,0 l/m 22,5 km/h (4 Bft) W-SW 247 0 min 0,000 mm 0,0 UV-I 0 W/m 1,8 C -2,9 C 37,0 km/h (5 Bft) 95,65 %
03.01.2018 18:55 5,9 C 3,9 C 76 % 1003,6 hPa 0,0 l/m 17,7 km/h (3 Bft) W-SW 247 0 min 0,000 mm 0,0 UV-I 0 W/m 2,0 C -1,1 C 24,1 km/h (4 Bft) 95,65 %
03.01.2018 18:56 5,9 C 3,9 C 76 % 1003,6 hPa 0,0 l/m 27,4 km/h (4 Bft) W-SW 247 0 min 0,000 mm 0,0 UV-I 0 W/m 2,0 C -4,4 C 37,0 km/h (5 Bft) 100,00 %
03.01.2018 18:57 5,9 C 3,9 C 75 % 1003,6 hPa 0,0 l/m 25,7 km/h (4 Bft) W-SW 247 0 min 0,000 mm 0,0 UV-I 0 W/m 1,8 C -3,9 C 37,0 km/h (5 Bft) 91,30 %
03.01.2018 18:58 5,9 C 3,9 C 75 % 1003,6 hPa 0,0 l/m 24,1 km/h (4 Bft) SW 225 0 min 0,000 mm 0,0 UV-I 0 W/m 1,8 C -3,4 C 40,2 km/h (6 Bft) 91,30 %
03.01.2018 18:59 5,9 C 3,9 C 75 % 1003,6 hPa 0,0 l/m 32,2 km/h (5 Bft) SW 225 0 min 0,000 mm 0,0 UV-I 0 W/m 1,8 C -5,6 C 49,9 km/h (6 Bft) 100,00 %
03.01.2018 19:00 6,0 C 3,9 C 75 % 1003,5 hPa 0,0 l/m 22,5 km/h (4 Bft) SW 225 0 min 0,051 mm 0,0 UV-I 0 W/m 1,9 C -2,8 C 35,4 km/h (5 Bft) 95,65 %
03.01.2018 19:01 6,0 C 3,9 C 75 % 1003,6 hPa 0,0 l/m 27,4 km/h (4 Bft) W-SW 247 0 min 0,000 mm 0,0 UV-I 0 W/m 1,9 C -4,3 C 46,7 km/h (6 Bft) 100,00 %
03.01.2018 19:02 6,0 C 3,9 C 75 % 1003,5 hPa 0,0 l/m 35,4 km/h (5 Bft) W-SW 247 0 min 0,000 mm 0,0 UV-I 0 W/m 1,9 C -6,2 C 43,5 km/h (6 Bft) 95,65 %
03.01.2018 19:03 6,1 C 3,9 C 74 % 1003,5 hPa 0,0 l/m 30,6 km/h (5 Bft) SW 225 0 min 0,000 mm 0,0 UV-I 0 W/m 1,8 C -5,0 C 43,5 km/h (6 Bft) 100,00 %
03.01.2018 19:04 6,1 C 3,9 C 74 % 1003,6 hPa 0,0 l/m 20,9 km/h (4 Bft) SW 225 0 min 0,000 mm 0,0 UV-I 0 W/m 1,8 C -2,1 C 27,4 km/h (4 Bft) 95,65 %
03.01.2018 19:05 6,1 C 3,9 C 75 % 1003,6 hPa 0,0 l/m 24,1 km/h (4 Bft) W-SW 247 0 min 0,000 mm 0,0 UV-I 0 W/m 2,0 C -3,2 C 43,5 km/h (6 Bft) 95,65 %
03.01.2018 19:06 6,1 C 3,9 C 75 % 1003,4 hPa 0,0 l/m 27,4 km/h (4 Bft) SW 225 0 min 0,000 mm 0,0 UV-I 0 W/m 2,0 C -4,1 C 46,7 km/h (6 Bft) 95,65 %
03.01.2018 19:07 6,1 C 3,9 C 75 % 1003,3 hPa 0,0 l/m 20,9 km/h (4 Bft) W-SW 247 0 min 0,000 mm 0,0 UV-I 0 W/m 2,0 C -2,1 C 30,6 km/h (5 Bft) 95,65 %
03.01.2018 19:08 6,1 C 3,9 C 75 % 1003,4 hPa 0,0 l/m 29,0 km/h (5 Bft) SW 225 0 min 0,000 mm 0,0 UV-I 0 W/m 2,0 C -4,6 C 43,5 km/h (6 Bft) 95,65 %
03.01.2018 19:09 6,1 C 3,9 C 74 % 1003,5 hPa 0,0 l/m 37,0 km/h (5 Bft) W-SW 247 0 min 0,000 mm 0,0 UV-I 0 W/m 1,8 C -6,4 C 49,9 km/h (6 Bft) 95,65 %
03.01.2018 19:10 6,1 C 3,9 C 74 % 1003,4 hPa 0,0 l/m 24,1 km/h (4 Bft) W-SW 247 0 min 0,000 mm 0,0 UV-I 0 W/m 1,8 C -3,2 C 32,2 km/h (5 Bft) 91,30 %
03.01.2018 19:11 6,1 C 3,9 C 74 % 1003,4 hPa 0,0 l/m 22,5 km/h (4 Bft) W-SW 247 0 min 0,000 mm 0,0 UV-I 0 W/m 1,8 C -2,6 C 29,0 km/h (5 Bft) 95,65 %
03.01.2018 19:12 6,0 C 3,9 C 74 % 1003,4 hPa 0,0 l/m 22,5 km/h (4 Bft) SW 225 0 min 0,000 mm 0,0 UV-I 0 W/m 1,7 C -2,8 C 33,8 km/h (5 Bft) 91,30 %
03.01.2018 19:13 6,0 C 3,9 C 74 % 1003,4 hPa 0,0 l/m 22,5 km/h (4 Bft) SW 225 0 min 0,000 mm 0,0 UV-I 0 W/m 1,7 C -2,8 C 29,0 km/h (5 Bft) 100,00 %
03.01.2018 19:14 6,0 C 3,9 C 74 % 1003,4 hPa 0,0 l/m 25,7 km/h (4 Bft) SW 225 0 min 0,000 mm 0,0 UV-I 0 W/m 1,7 C -3,8 C 33,8 km/h (5 Bft) 95,65 %
03.01.2018 19:15 6,0 C 3,9 C 74 % 1003,5 hPa 0,0 l/m 30,6 km/h (5 Bft) SW 225 0 min 0,000 mm 0,0 UV-I 0 W/m 1,7 C -5,1 C 41,8 km/h (6 Bft) 100,00 %
03.01.2018 19:16 6,0 C 3,9 C 74 % 1003,4 hPa 0,0 l/m 22,5 km/h (4 Bft) W-SW 247 0 min 0,000 mm 0,0 UV-I 0 W/m 1,7 C -2,8 C 29,0 km/h (5 Bft) 95,65 %
03.01.2018 19:17 6,0 C 3,9 C 74 % 1003,3 hPa 0,0 l/m 25,7 km/h (4 Bft) SW 225 0 min 0,000 mm 0,0 UV-I 0 W/m 1,7 C -3,8 C 37,0 km/h (5 Bft) 100,00 %
03.01.2018 19:18 6,0 C 3,9 C 74 % 1003,3 hPa 0,0 l/m 29,0 km/h (5 Bft) SW 225 0 min 0,000 mm 0,0 UV-I 0 W/m 1,7 C -4,7 C 40,2 km/h (6 Bft) 95,65 %
03.01.2018 19:19 6,0 C 3,9 C 74 % 1003,3 hPa 0,0 l/m 22,5 km/h (4 Bft) SW 225 0 min 0,000 mm 0,0 UV-I 0 W/m 1,7 C -2,8 C 30,6 km/h (5 Bft) 95,65 %
03.01.2018 19:20 6,0 C 3,9 C 74 % 1003,3 hPa 0,0 l/m 33,8 km/h (5 Bft) W-SW 247 0 min 0,000 mm 0,0 UV-I 0 W/m 1,7 C -5,8 C 45,1 km/h (6 Bft) 95,65 %
03.01.2018 19:21 6,1 C 3,9 C 74 % 1003,3 hPa 0,0 l/m 22,5 km/h (4 Bft) W-SW 247 0 min 0,000 mm 0,0 UV-I 0 W/m 1,8 C -2,6 C 30,6 km/h (5 Bft) 100,00 %
03.01.2018 19:22 6,1 C 3,9 C 74 % 1003,3 hPa 0,0 l/m 27,4 km/h (4 Bft) W-SW 247 0 min 0,000 mm 0,0 UV-I 0 W/m 1,8 C -4,1 C 40,2 km/h (6 Bft) 95,65 %
03.01.2018 19:23 6,1 C 3,9 C 74 % 1003,4 hPa 0,0 l/m 25,7 km/h (4 Bft) SW 225 0 min 0,000 mm 0,0 UV-I 0 W/m 1,8 C -3,7 C 35,4 km/h (5 Bft) 100,00 %
03.01.2018 19:24 6,1 C 3,9 C 74 % 1003,4 hPa 0,0 l/m 29,0 km/h (5 Bft) SW 225 0 min 0,000 mm 0,0 UV-I 0 W/m 1,8 C -4,6 C 41,8 km/h (6 Bft) 95,65 %
03.01.2018 19:25 6,1 C 3,9 C 73 % 1003,4 hPa 0,0 l/m 35,4 km/h (5 Bft) SW 225 0 min 0,000 mm 0,0 UV-I 0 W/m 1,6 C -6,0 C 48,3 km/h (6 Bft) 95,65 %
03.01.2018 19:26 6,1 C 3,9 C 74 % 1003,4 hPa 0,0 l/m 25,7 km/h (4 Bft) W-SW 247 0 min 0,000 mm 0,0 UV-I 0 W/m 1,8 C -3,7 C 35,4 km/h (5 Bft) 95,65 %
03.01.2018 19:27 6,1 C 3,9 C 73 % 1003,4 hPa 0,0 l/m 30,6 km/h (5 Bft) W-SW 247 0 min 0,000 mm 0,0 UV-I 0 W/m 1,6 C -5,0 C 45,1 km/h (6 Bft) 95,65 %
03.01.2018 19:28 6,1 C 3,9 C 73 % 1003,4 hPa 0,0 l/m 22,5 km/h (4 Bft) W-SW 247 0 min 0,000 mm 0,0 UV-I 0 W/m 1,6 C -2,6 C 40,2 km/h (6 Bft) 100,00 %
03.01.2018 19:29 6,1 C 3,9 C 73 % 1003,5 hPa 0,0 l/m 30,6 km/h (5 Bft) W-SW 247 0 min 0,000 mm 0,0 UV-I 0 W/m 1,6 C -5,0 C 40,2 km/h (6 Bft) 95,65 %
03.01.2018 19:30 6,1 C 3,9 C 73 % 1003,5 hPa 0,0 l/m 20,9 km/h (4 Bft) SW 225 0 min 0,000 mm 0,0 UV-I 0 W/m 1,6 C -2,1 C 27,4 km/h (4 Bft) 100,00 %
03.01.2018 19:31 6,1 C 3,9 C 74 % 1003,4 hPa 0,0 l/m 22,5 km/h (4 Bft) SW 225 0 min 0,000 mm 0,0 UV-I 0 W/m 1,8 C -2,6 C 27,4 km/h (4 Bft) 95,65 %
03.01.2018 19:32 6,1 C 3,9 C 74 % 1003,4 hPa 0,0 l/m 22,5 km/h (4 Bft) SW 225 0 min 0,000 mm 0,0 UV-I 0 W/m 1,8 C -2,6 C 32,2 km/h (5 Bft) 95,65 %
03.01.2018 19:33 6,1 C 3,9 C 73 % 1003,4 hPa 0,0 l/m 24,1 km/h (4 Bft) SW 225 0 min 0,000 mm 0,0 UV-I 0 W/m 1,6 C -3,2 C 40,2 km/h (6 Bft) 95,65 %
03.01.2018 19:34 6,1 C 3,9 C 73 % 1003,4 hPa 0,0 l/m 24,1 km/h (4 Bft) SW 225 0 min 0,000 mm 0,0 UV-I 0 W/m 1,6 C -3,2 C 41,8 km/h (6 Bft) 100,00 %
03.01.2018 19:35 6,1 C 3,9 C 73 % 1003,3 hPa 0,0 l/m 22,5 km/h (4 Bft) W-SW 247 0 min 0,000 mm 0,0 UV-I 0 W/m 1,6 C -2,6 C 30,6 km/h (5 Bft) 100,00 %
03.01.2018 19:36 6,1 C 3,9 C 73 % 1003,2 hPa 0,0 l/m 20,9 km/h (4 Bft) W-SW 247 0 min 0,000 mm 0,0 UV-I 0 W/m 1,6 C -2,1 C 25,7 km/h (4 Bft) 100,00 %
03.01.2018 19:37 6,1 C 3,9 C 73 % 1003,3 hPa 0,0 l/m 27,4 km/h (4 Bft) SW 225 0 min 0,000 mm 0,0 UV-I 0 W/m 1,6 C -4,1 C 37,0 km/h (5 Bft) 100,00 %
03.01.2018 19:38 6,2 C 3,9 C 73 % 1003,3 hPa 0,0 l/m 27,4 km/h (4 Bft) SW 225 0 min 0,000 mm 0,0 UV-I 0 W/m 1,7 C -4,0 C 37,0 km/h (5 Bft) 100,00 %
03.01.2018 19:39 6,2 C 3,9 C 73 % 1003,5 hPa 0,0 l/m 22,5 km/h (4 Bft) W-SW 247 0 min 0,000 mm 0,0 UV-I 0 W/m 1,7 C -2,5 C 29,0 km/h (5 Bft) 100,00 %
03.01.2018 19:40 6,2 C 3,9 C 73 % 1003,4 hPa 0,0 l/m 25,7 km/h (4 Bft) W-SW 247 0 min 0,000 mm 0,0 UV-I 0 W/m 1,7 C -3,5 C 37,0 km/h (5 Bft) 95,65 %
03.01.2018 19:41 6,2 C 3,9 C 73 % 1003,4 hPa 0,0 l/m 27,4 km/h (4 Bft) SW 225 0 min 0,000 mm 0,0 UV-I 0 W/m 1,7 C -4,0 C 33,8 km/h (5 Bft) 95,65 %
03.01.2018 19:42 6,2 C 3,9 C 73 % 1003,3 hPa 0,0 l/m 22,5 km/h (4 Bft) SW 225 0 min 0,000 mm 0,0 UV-I 0 W/m 1,7 C -2,5 C 46,7 km/h (6 Bft) 95,65 %
03.01.2018 19:43 6,2 C 3,9 C 72 % 1003,3 hPa 0,0 l/m 32,2 km/h (5 Bft) SW 225 0 min 0,000 mm 0,0 UV-I 0 W/m 1,5 C -5,2 C 46,7 km/h (6 Bft) 100,00 %
03.01.2018 19:44 6,2 C 3,9 C 72 % 1003,2 hPa 0,0 l/m 30,6 km/h (5 Bft) SW 225 0 min 0,000 mm 0,0 UV-I 0 W/m 1,5 C -4,8 C 41,8 km/h (6 Bft) 100,00 %
03.01.2018 19:45 6,2 C 3,9 C 72 % 1003,2 hPa 0,0 l/m 25,7 km/h (4 Bft) SW 225 0 min 0,000 mm 0,0 UV-I 0 W/m 1,5 C -3,5 C 35,4 km/h (5 Bft) 100,00 %
03.01.2018 19:46 6,2 C 3,9 C 72 % 1003,3 hPa 0,0 l/m 25,7 km/h (4 Bft) SW 225 0 min 0,000 mm 0,0 UV-I 0 W/m 1,5 C -3,5 C 33,8 km/h (5 Bft) 100,00 %
03.01.2018 19:47 6,2 C 3,9 C 73 % 1003,3 hPa 0,0 l/m 22,5 km/h (4 Bft) SW 225 0 min 0,000 mm 0,0 UV-I 0 W/m 1,7 C -2,5 C 33,8 km/h (5 Bft) 100,00 %
03.01.2018 19:48 6,2 C 3,9 C 73 % 1003,3 hPa 0,0 l/m 29,0 km/h (5 Bft) SW 225 0 min 0,000 mm 0,0 UV-I 0 W/m 1,7 C -4,4 C 48,3 km/h (6 Bft) 95,65 %
03.01.2018 19:49 6,2 C 3,9 C 72 % 1003,2 hPa 0,0 l/m 37,0 km/h (5 Bft) SW 225 0 min 0,000 mm 0,0 UV-I 0 W/m 1,5 C -6,2 C 48,3 km/h (6 Bft) 100,00 %
03.01.2018 19:50 6,2 C 3,9 C 72 % 1003,1 hPa 0,0 l/m 25,7 km/h (4 Bft) SW 225 0 min 0,000 mm 0,0 UV-I 0 W/m 1,5 C -3,5 C 33,8 km/h (5 Bft) 100,00 %
03.01.2018 19:51 6,2 C 3,9 C 72 % 1003,3 hPa 0,0 l/m 27,4 km/h (4 Bft) SW 225 0 min 0,000 mm 0,0 UV-I 0 W/m 1,5 C -4,0 C 40,2 km/h (6 Bft) 100,00 %
03.01.2018 19:52 6,2 C 3,9 C 72 % 1003,2 hPa 0,0 l/m 29,0 km/h (5 Bft) SW 225 0 min 0,000 mm 0,0 UV-I 0 W/m 1,5 C -4,4 C 43,5 km/h (6 Bft) 100,00 %
03.01.2018 19:53 6,2 C 3,9 C 72 % 1003,2 hPa 0,0 l/m 25,7 km/h (4 Bft) SW 225 0 min 0,000 mm 0,0 UV-I 0 W/m 1,5 C -3,5 C 32,2 km/h (5 Bft) 95,65 %
03.01.2018 19:54 6,1 C 3,9 C 73 % 1003,4 hPa 0,0 l/m 19,3 km/h (3 Bft) W-SW 247 0 min 0,000 mm 0,0 UV-I 0 W/m 1,6 C -1,5 C 27,4 km/h (4 Bft) 100,00 %
03.01.2018 19:55 6,1 C 3,9 C 73 % 1003,3 hPa 0,0 l/m 24,1 km/h (4 Bft) SW 225 0 min 0,000 mm 0,0 UV-I 0 W/m 1,6 C -3,2 C 35,4 km/h (5 Bft) 95,65 %
03.01.2018 19:56 6,1 C 3,9 C 72 % 1003,4 hPa 0,0 l/m 30,6 km/h (5 Bft) S-SW 202 0 min 0,000 mm 0,0 UV-I 0 W/m 1,4 C -5,0 C 49,9 km/h (6 Bft) 100,00 %
03.01.2018 19:57 6,2 C 3,9 C 72 % 1003,3 hPa 0,0 l/m 25,7 km/h (4 Bft) W-SW 247 0 min 0,000 mm 0,0 UV-I 0 W/m 1,5 C -3,5 C 40,2 km/h (6 Bft) 100,00 %
03.01.2018 19:58 6,2 C 3,9 C 72 % 1003,2 hPa 0,0 l/m 29,0 km/h (5 Bft) W-SW 247 0 min 0,000 mm 0,0 UV-I 0 W/m 1,5 C -4,4 C 41,8 km/h (6 Bft) 95,65 %
03.01.2018 19:59 6,2 C 3,9 C 72 % 1003,2 hPa 0,0 l/m 25,7 km/h (4 Bft) SW 225 0 min 0,000 mm 0,0 UV-I 0 W/m 1,5 C -3,5 C 40,2 km/h (6 Bft) 100,00 %
03.01.2018 20:00 6,2 C 3,9 C 72 % 1003,4 hPa 0,0 l/m 22,5 km/h (4 Bft) SW 225 0 min 0,076 mm 0,0 UV-I 0 W/m 1,5 C -2,5 C 32,2 km/h (5 Bft) 100,00 %
03.01.2018 20:01 6,2 C 3,9 C 72 % 1003,4 hPa 0,0 l/m 33,8 km/h (5 Bft) SW 225 0 min 0,000 mm 0,0 UV-I 0 W/m 1,5 C -5,6 C 46,7 km/h (6 Bft) 100,00 %
03.01.2018 20:02 6,2 C 3,9 C 72 % 1003,4 hPa 0,0 l/m 27,4 km/h (4 Bft) SW 225 0 min 0,000 mm 0,0 UV-I 0 W/m 1,5 C -4,0 C 37,0 km/h (5 Bft) 95,65 %
03.01.2018 20:03 6,2 C 3,9 C 72 % 1003,4 hPa 0,0 l/m 27,4 km/h (4 Bft) SW 225 0 min 0,000 mm 0,0 UV-I 0 W/m 1,5 C -4,0 C 46,7 km/h (6 Bft) 100,00 %
03.01.2018 20:04 6,2 C 3,9 C 71 % 1003,4 hPa 0,0 l/m 40,2 km/h (6 Bft) SW 225 0 min 0,000 mm 0,0 UV-I 0 W/m 1,3 C -6,8 C 49,9 km/h (6 Bft) 95,65 %
03.01.2018 20:05 6,2 C 3,9 C 71 % 1003,5 hPa 0,0 l/m 32,2 km/h (5 Bft) SW 225 0 min 0,000 mm 0,0 UV-I 0 W/m 1,3 C -5,2 C 40,2 km/h (6 Bft) 100,00 %
03.01.2018 20:06 6,2 C 3,9 C 71 % 1003,3 hPa 0,0 l/m 32,2 km/h (5 Bft) SW 225 0 min 0,000 mm 0,0 UV-I 0 W/m 1,3 C -5,2 C 48,3 km/h (6 Bft) 100,00 %
03.01.2018 20:07 6,2 C 3,9 C 71 % 1003,5 hPa 0,0 l/m 32,2 km/h (5 Bft) SW 225 0 min 0,000 mm 0,0 UV-I 0 W/m 1,3 C -5,2 C 41,8 km/h (6 Bft) 100,00 %
03.01.2018 20:08 6,3 C 3,9 C 71 % 1003,5 hPa 0,0 l/m 27,4 km/h (4 Bft) SW 225 0 min 0,000 mm 0,0 UV-I 0 W/m 1,4 C -3,9 C 40,2 km/h (6 Bft) 100,00 %
03.01.2018 20:09 6,2 C 3,9 C 71 % 1003,4 hPa 0,0 l/m 22,5 km/h (4 Bft) W-SW 247 0 min 0,000 mm 0,0 UV-I 0 W/m 1,3 C -2,5 C 35,4 km/h (5 Bft) 95,65 %
03.01.2018 20:10 6,2 C 3,9 C 71 % 1003,6 hPa 0,0 l/m 24,1 km/h (4 Bft) SW 225 0 min 0,000 mm 0,0 UV-I 0 W/m 1,3 C -3,0 C 35,4 km/h (5 Bft) 95,65 %
03.01.2018 20:11 6,2 C 3,9 C 71 % 1003,4 hPa 0,0 l/m 24,1 km/h (4 Bft) W-SW 247 0 min 0,000 mm 0,0 UV-I 0 W/m 1,3 C -3,0 C 33,8 km/h (5 Bft) 100,00 %
03.01.2018 20:12 6,2 C 3,9 C 71 % 1003,6 hPa 0,0 l/m 29,0 km/h (5 Bft) SW 225 0 min 0,000 mm 0,0 UV-I 0 W/m 1,3 C -4,4 C 43,5 km/h (6 Bft) 100,00 %
03.01.2018 20:13 6,2 C 3,9 C 71 % 1003,5 hPa 0,0 l/m 32,2 km/h (5 Bft) SW 225 0 min 0,000 mm 0,0 UV-I 0 W/m 1,3 C -5,2 C 46,7 km/h (6 Bft) 95,65 %
03.01.2018 20:14 6,3 C 3,9 C 71 % 1003,6 hPa 0,0 l/m 20,9 km/h (4 Bft) SW 225 0 min 0,000 mm 0,0 UV-I 0 W/m 1,4 C -1,8 C 33,8 km/h (5 Bft) 100,00 %
03.01.2018 20:15 6,3 C 3,9 C 71 % 1003,7 hPa 0,0 l/m 24,1 km/h (4 Bft) W-SW 247 0 min 0,000 mm 0,0 UV-I 0 W/m 1,4 C -2,9 C 37,0 km/h (5 Bft) 100,00 %
03.01.2018 20:16 6,3 C 3,9 C 71 % 1003,7 hPa 0,0 l/m 24,1 km/h (4 Bft) SW 225 0 min 0,000 mm 0,0 UV-I 0 W/m 1,4 C -2,9 C 35,4 km/h (5 Bft) 91,30 %
03.01.2018 20:17 6,3 C 3,9 C 71 % 1003,6 hPa 0,0 l/m 24,1 km/h (4 Bft) W-SW 247 0 min 0,000 mm 0,0 UV-I 0 W/m 1,4 C -2,9 C 37,0 km/h (5 Bft) 100,00 %
03.01.2018 20:18 6,3 C 3,9 C 70 % 1003,7 hPa 0,0 l/m 29,0 km/h (5 Bft) W-SW 247 0 min 0,000 mm 0,0 UV-I 0 W/m 1,2 C -4,3 C 41,8 km/h (6 Bft) 100,00 %
03.01.2018 20:19 6,3 C 3,9 C 70 % 1003,7 hPa 0,0 l/m 27,4 km/h (4 Bft) SW 225 0 min 0,000 mm 0,0 UV-I 0 W/m 1,2 C -3,9 C 43,5 km/h (6 Bft) 95,65 %
03.01.2018 20:20 6,3 C 3,9 C 70 % 1003,7 hPa 0,0 l/m 22,5 km/h (4 Bft) SW 225 0 min 0,000 mm 0,0 UV-I 0 W/m 1,2 C -2,4 C 33,8 km/h (5 Bft) 100,00 %
03.01.2018 20:21 6,3 C 3,9 C 71 % 1003,7 hPa 0,0 l/m 24,1 km/h (4 Bft) SW 225 0 min 0,000 mm 0,0 UV-I 0 W/m 1,4 C -2,9 C 33,8 km/h (5 Bft) 100,00 %
03.01.2018 20:22 6,3 C 3,9 C 71 % 1003,8 hPa 0,0 l/m 20,9 km/h (4 Bft) W-SW 247 0 min 0,000 mm 0,0 UV-I 0 W/m 1,4 C -1,8 C 32,2 km/h (5 Bft) 100,00 %
03.01.2018 20:23 6,3 C 3,9 C 71 % 1003,8 hPa 0,0 l/m 22,5 km/h (4 Bft) SW 225 0 min 0,000 mm 0,0 UV-I 0 W/m 1,4 C -2,4 C 32,2 km/h (5 Bft) 95,65 %
03.01.2018 20:24 6,2 C 3,9 C 71 % 1003,7 hPa 0,0 l/m 20,9 km/h (4 Bft) S-SW 202 0 min 0,000 mm 0,0 UV-I 0 W/m 1,3 C -2,0 C 30,6 km/h (5 Bft) 100,00 %
03.01.2018 20:25 6,2 C 3,9 C 71 % 1003,8 hPa 0,0 l/m 22,5 km/h (4 Bft) SW 225 0 min 0,000 mm 0,0 UV-I 0 W/m 1,3 C -2,5 C 32,2 km/h (5 Bft) 100,00 %
03.01.2018 20:26 6,2 C 3,9 C 71 % 1003,8 hPa 0,0 l/m 25,7 km/h (4 Bft) W-SW 247 0 min 0,000 mm 0,0 UV-I 0 W/m 1,3 C -3,5 C 37,0 km/h (5 Bft) 100,00 %
03.01.2018 20:27 6,2 C 3,9 C 71 % 1003,8 hPa 0,0 l/m 19,3 km/h (3 Bft) SW 225 0 min 0,000 mm 0,0 UV-I 0 W/m 1,3 C -1,4 C 30,6 km/h (5 Bft) 95,65 %
03.01.2018 20:28 6,2 C 3,9 C 72 % 1003,8 hPa 0,0 l/m 27,4 km/h (4 Bft) SW 225 0 min 0,000 mm 0,0 UV-I 0 W/m 1,5 C -4,0 C 38,6 km/h (5 Bft) 100,00 %
03.01.2018 20:29 6,2 C 3,9 C 71 % 1003,8 hPa 0,0 l/m 27,4 km/h (4 Bft) W-SW 247 0 min 0,000 mm 0,0 UV-I 0 W/m 1,3 C -4,0 C 43,5 km/h (6 Bft) 100,00 %
03.01.2018 20:30 6,3 C 3,9 C 71 % 1003,8 hPa 0,0 l/m 22,5 km/h (4 Bft) SW 225 0 min 0,000 mm 0,0 UV-I 0 W/m 1,4 C -2,4 C 33,8 km/h (5 Bft) 86,96 %
03.01.2018 20:31 6,3 C 3,9 C 71 % 1003,8 hPa 0,0 l/m 22,5 km/h (4 Bft) SW 225 0 min 0,000 mm 0,0 UV-I 0 W/m 1,4 C -2,4 C 35,4 km/h (5 Bft) 100,00 %
03.01.2018 20:32 6,3 C 3,9 C 71 % 1003,8 hPa 0,0 l/m 30,6 km/h (5 Bft) SW 225 0 min 0,000 mm 0,0 UV-I 0 W/m 1,4 C -4,7 C 43,5 km/h (6 Bft) 95,65 %
03.01.2018 20:33 6,3 C 3,9 C 71 % 1003,8 hPa 0,0 l/m 29,0 km/h (5 Bft) SW 225 0 min 0,000 mm 0,0 UV-I 0 W/m 1,4 C -4,3 C 38,6 km/h (5 Bft) 100,00 %
03.01.2018 20:34 6,3 C 3,9 C 71 % 1003,8 hPa 0,0 l/m 20,9 km/h (4 Bft) SW 225 0 min 0,000 mm 0,0 UV-I 0 W/m 1,4 C -1,8 C 32,2 km/h (5 Bft) 95,65 %
03.01.2018 20:35 6,3 C 3,9 C 71 % 1003,8 hPa 0,0 l/m 19,3 km/h (3 Bft) W-SW 247 0 min 0,000 mm 0,0 UV-I 0 W/m 1,4 C -1,2 C 30,6 km/h (5 Bft) 95,65 %
03.01.2018 20:36 6,3 C 3,9 C 71 % 1003,8 hPa 0,0 l/m 24,1 km/h (4 Bft) SW 225 0 min 0,000 mm 0,0 UV-I 0 W/m 1,4 C -2,9 C 33,8 km/h (5 Bft) 100,00 %
03.01.2018 20:37 6,3 C 3,9 C 71 % 1003,9 hPa 0,0 l/m 30,6 km/h (5 Bft) SW 225 0 min 0,000 mm 0,0 UV-I 0 W/m 1,4 C -4,7 C 46,7 km/h (6 Bft) 91,30 %
03.01.2018 20:38 6,3 C 3,9 C 71 % 1003,8 hPa 0,0 l/m 17,7 km/h (3 Bft) SW 225 0 min 0,000 mm 0,0 UV-I 0 W/m 1,4 C -0,6 C 24,1 km/h (4 Bft) 100,00 %
03.01.2018 20:39 6,3 C 3,9 C 71 % 1003,8 hPa 0,0 l/m 17,7 km/h (3 Bft) W-SW 247 0 min 0,000 mm 0,0 UV-I 0 W/m 1,4 C -0,6 C 22,5 km/h (4 Bft) 91,30 %
03.01.2018 20:40 6,3 C 3,9 C 71 % 1003,8 hPa 0,0 l/m 22,5 km/h (4 Bft) SW 225 0 min 0,000 mm 0,0 UV-I 0 W/m 1,4 C -2,4 C 30,6 km/h (5 Bft) 100,00 %
03.01.2018 20:41 6,3 C 3,9 C 71 % 1003,7 hPa 0,0 l/m 25,7 km/h (4 Bft) SW 225 0 min 0,000 mm 0,0 UV-I 0 W/m 1,4 C -3,4 C 41,8 km/h (6 Bft) 91,30 %
03.01.2018 20:42 6,3 C 3,9 C 71 % 1003,8 hPa 0,0 l/m 25,7 km/h (4 Bft) SW 225 0 min 0,000 mm 0,0 UV-I 0 W/m 1,4 C -3,4 C 32,2 km/h (5 Bft) 95,65 %
03.01.2018 20:43 6,3 C 3,9 C 70 % 1003,8 hPa 0,0 l/m 25,7 km/h (4 Bft) SW 225 0 min 0,000 mm 0,0 UV-I 0 W/m 1,2 C -3,4 C 37,0 km/h (5 Bft) 95,65 %
03.01.2018 20:44 6,3 C 3,9 C 71 % 1003,8 hPa 0,0 l/m 27,4 km/h (4 Bft) SW 225 0 min 0,000 mm 0,0 UV-I 0 W/m 1,4 C -3,9 C 38,6 km/h (5 Bft) 91,30 %
03.01.2018 20:45 6,4 C 3,9 C 71 % 1004,0 hPa 0,0 l/m 30,6 km/h (5 Bft) SW 225 0 min 0,000 mm 0,0 UV-I 0 W/m 1,5 C -4,6 C 40,2 km/h (6 Bft) 95,65 %
03.01.2018 20:46 6,4 C 3,9 C 71 % 1003,8 hPa 0,0 l/m 27,4 km/h (4 Bft) SW 225 0 min 0,000 mm 0,0 UV-I 0 W/m 1,5 C -3,7 C 40,2 km/h (6 Bft) 91,30 %
03.01.2018 20:47 6,4 C 3,9 C 71 % 1003,8 hPa 0,0 l/m 20,9 km/h (4 Bft) SW 225 0 min 0,000 mm 0,0 UV-I 0 W/m 1,5 C -1,7 C 30,6 km/h (5 Bft) 100,00 %
03.01.2018 20:48 6,3 C 3,9 C 71 % 1003,8 hPa 0,0 l/m 22,5 km/h (4 Bft) SW 225 0 min 0,000 mm 0,0 UV-I 0 W/m 1,4 C -2,4 C 33,8 km/h (5 Bft) 91,30 %
03.01.2018 20:49 6,3 C 3,9 C 71 % 1003,8 hPa 0,0 l/m 19,3 km/h (3 Bft) S-SW 202 0 min 0,000 mm 0,0 UV-I 0 W/m 1,4 C -1,2 C 30,6 km/h (5 Bft) 100,00 %
03.01.2018 20:50 6,3 C 3,9 C 71 % 1003,9 hPa 0,0 l/m 24,1 km/h (4 Bft) W-SW 247 0 min 0,000 mm 0,0 UV-I 0 W/m 1,4 C -2,9 C 32,2 km/h (5 Bft) 91,30 %
03.01.2018 20:51 6,4 C 3,9 C 71 % 1003,8 hPa 0,0 l/m 20,9 km/h (4 Bft) W-SW 247 0 min 0,000 mm 0,0 UV-I 0 W/m 1,5 C -1,7 C 35,4 km/h (5 Bft) 91,30 %
03.01.2018 20:52 6,4 C 3,9 C 71 % 1003,8 hPa 0,0 l/m 19,3 km/h (3 Bft) SW 225 0 min 0,000 mm 0,0 UV-I 0 W/m 1,5 C -1,1 C 29,0 km/h (5 Bft) 95,65 %
03.01.2018 20:53 6,4 C 3,9 C 71 % 1003,9 hPa 0,0 l/m 24,1 km/h (4 Bft) W-SW 247 0 min 0,000 mm 0,0 UV-I 0 W/m 1,5 C -2,8 C 33,8 km/h (5 Bft) 95,65 %
03.01.2018 20:54 6,4 C 3,9 C 70 % 1003,8 hPa 0,0 l/m 33,8 km/h (5 Bft) SW 225 0 min 0,000 mm 0,0 UV-I 0 W/m 1,3 C -5,3 C 48,3 km/h (6 Bft) 95,65 %
03.01.2018 20:55 6,4 C 3,9 C 70 % 1003,8 hPa 0,0 l/m 35,4 km/h (5 Bft) W-SW 247 0 min 0,000 mm 0,0 UV-I 0 W/m 1,3 C -5,6 C 56,3 km/h (7 Bft) 91,30 %
03.01.2018 20:56 6,6 C 3,9 C 69 % 1003,9 hPa 0,0 l/m 29,0 km/h (5 Bft) W-SW 247 0 min 0,000 mm 0,0 UV-I 0 W/m 1,3 C -3,9 C 48,3 km/h (6 Bft) 95,65 %
03.01.2018 20:57 6,6 C 3,9 C 69 % 1003,8 hPa 0,0 l/m 25,7 km/h (4 Bft) SW 225 0 min 0,000 mm 0,0 UV-I 0 W/m 1,3 C -3,0 C 38,6 km/h (5 Bft) 95,65 %
03.01.2018 20:58 6,6 C 3,9 C 69 % 1003,8 hPa 0,0 l/m 24,1 km/h (4 Bft) W-SW 247 0 min 0,000 mm 0,0 UV-I 0 W/m 1,3 C -2,5 C 32,2 km/h (5 Bft) 91,30 %
03.01.2018 20:59 6,6 C 3,9 C 69 % 1003,8 hPa 0,0 l/m 25,7 km/h (4 Bft) SW 225 0 min 0,000 mm 0,0 UV-I 0 W/m 1,3 C -3,0 C 41,8 km/h (6 Bft) 91,30 %
03.01.2018 21:00 6,6 C 3,9 C 69 % 1003,8 hPa 0,0 l/m 29,0 km/h (5 Bft) SW 225 0 min 0,076 mm 0,0 UV-I 0 W/m 1,3 C -3,9 C 41,8 km/h (6 Bft) 91,30 %
03.01.2018 21:01 6,6 C 3,9 C 69 % 1003,8 hPa 0,0 l/m 37,0 km/h (5 Bft) SW 225 0 min 0,000 mm 0,0 UV-I 0 W/m 1,3 C -5,6 C 49,9 km/h (6 Bft) 95,65 %
03.01.2018 21:02 6,7 C 3,9 C 68 % 1003,8 hPa 0,0 l/m 25,7 km/h (4 Bft) SW 225 0 min 0,000 mm 0,0 UV-I 0 W/m 1,2 C -2,8 C 35,4 km/h (5 Bft) 95,65 %
03.01.2018 21:03 6,7 C 3,9 C 68 % 1003,8 hPa 0,0 l/m 25,7 km/h (4 Bft) SW 225 0 min 0,000 mm 0,0 UV-I 0 W/m 1,2 C -2,8 C 33,8 km/h (5 Bft) 100,00 %
03.01.2018 21:04 6,7 C 3,9 C 69 % 1003,9 hPa 0,0 l/m 25,7 km/h (4 Bft) W-SW 247 0 min 0,000 mm 0,0 UV-I 0 W/m 1,4 C -2,8 C 32,2 km/h (5 Bft) 95,65 %
03.01.2018 21:05 6,7 C 3,9 C 69 % 1003,9 hPa 0,0 l/m 29,0 km/h (5 Bft) W-SW 247 0 min 0,000 mm 0,0 UV-I 0 W/m 1,4 C -3,7 C 35,4 km/h (5 Bft) 95,65 %
03.01.2018 21:06 6,6 C 3,9 C 69 % 1004,0 hPa 0,0 l/m 32,2 km/h (5 Bft) SW 225 0 min 0,000 mm 0,0 UV-I 0 W/m 1,3 C -4,6 C 53,1 km/h (7 Bft) 95,65 %
03.01.2018 21:07 6,6 C 3,9 C 68 % 1003,8 hPa 0,0 l/m 29,0 km/h (5 Bft) SW 225 0 min 0,000 mm 0,0 UV-I 0 W/m 1,1 C -3,9 C 49,9 km/h (6 Bft) 100,00 %
03.01.2018 21:08 6,7 C 3,9 C 69 % 1003,9 hPa 0,0 l/m 22,5 km/h (4 Bft) W-SW 247 0 min 0,000 mm 0,0 UV-I 0 W/m 1,4 C -1,9 C 32,2 km/h (5 Bft) 95,65 %
03.01.2018 21:09 6,7 C 3,9 C 69 % 1003,9 hPa 0,0 l/m 30,6 km/h (5 Bft) W-SW 247 0 min 0,000 mm 0,0 UV-I 0 W/m 1,4 C -4,1 C 46,7 km/h (6 Bft) 95,65 %
03.01.2018 21:10 6,7 C 3,9 C 69 % 1003,9 hPa 0,0 l/m 25,7 km/h (4 Bft) SW 225 0 min 0,000 mm 0,0 UV-I 0 W/m 1,4 C -2,8 C 29,0 km/h (5 Bft) 100,00 %
03.01.2018 21:11 6,7 C 3,9 C 69 % 1003,9 hPa 0,0 l/m 30,6 km/h (5 Bft) W-SW 247 0 min 0,000 mm 0,0 UV-I 0 W/m 1,4 C -4,1 C 45,1 km/h (6 Bft) 95,65 %
03.01.2018 21:12 6,7 C 3,9 C 69 % 1003,8 hPa 0,0 l/m 24,1 km/h (4 Bft) SW 225 0 min 0,000 mm 0,0 UV-I 0 W/m 1,4 C -2,4 C 35,4 km/h (5 Bft) 95,65 %
03.01.2018 21:13 6,6 C 3,9 C 69 % 1003,9 hPa 0,0 l/m 22,5 km/h (4 Bft) W-SW 247 0 min 0,000 mm 0,0 UV-I 0 W/m 1,3 C -2,0 C 27,4 km/h (4 Bft) 95,65 %
03.01.2018 21:14 6,6 C 3,9 C 69 % 1003,8 hPa 0,0 l/m 24,1 km/h (4 Bft) W-SW 247 0 min 0,000 mm 0,0 UV-I 0 W/m 1,3 C -2,5 C 33,8 km/h (5 Bft) 100,00 %
03.01.2018 21:15 6,6 C 3,9 C 69 % 1003,9 hPa 0,0 l/m 25,7 km/h (4 Bft) SW 225 0 min 0,000 mm 0,0 UV-I 0 W/m 1,3 C -3,0 C 46,7 km/h (6 Bft) 95,65 %
03.01.2018 21:16 6,6 C 3,9 C 69 % 1003,8 hPa 0,0 l/m 25,7 km/h (4 Bft) W-SW 247 0 min 0,000 mm 0,0 UV-I 0 W/m 1,3 C -3,0 C 40,2 km/h (6 Bft) 100,00 %
03.01.2018 21:17 6,6 C 3,9 C 69 % 1003,8 hPa 0,0 l/m 25,7 km/h (4 Bft) SW 225 0 min 0,000 mm 0,0 UV-I 0 W/m 1,3 C -3,0 C 43,5 km/h (6 Bft) 100,00 %
03.01.2018 21:18 6,6 C 3,9 C 69 % 1003,8 hPa 0,0 l/m 20,9 km/h (4 Bft) SW 225 0 min 0,000 mm 0,0 UV-I 0 W/m 1,3 C -1,4 C 27,4 km/h (4 Bft) 95,65 %
03.01.2018 21:19 6,6 C 3,9 C 69 % 1003,9 hPa 0,0 l/m 24,1 km/h (4 Bft) SW 225 0 min 0,000 mm 0,0 UV-I 0 W/m 1,3 C -2,5 C 33,8 km/h (5 Bft) 95,65 %
03.01.2018 21:20 6,6 C 3,9 C 69 % 1003,9 hPa 0,0 l/m 30,6 km/h (5 Bft) SW 225 0 min 0,000 mm 0,0 UV-I 0 W/m 1,3 C -4,3 C 40,2 km/h (6 Bft) 100,00 %
03.01.2018 21:21 6,6 C 3,9 C 69 % 1003,8 hPa 0,0 l/m 20,9 km/h (4 Bft) W-SW 247 0 min 0,000 mm 0,0 UV-I 0 W/m 1,3 C -1,4 C 37,0 km/h (5 Bft) 100,00 %
03.01.2018 21:22 6,6 C 3,9 C 69 % 1003,8 hPa 0,0 l/m 24,1 km/h (4 Bft) SW 225 0 min 0,000 mm 0,0 UV-I 0 W/m 1,3 C -2,5 C 38,6 km/h (5 Bft) 100,00 %
03.01.2018 21:23 6,6 C 3,9 C 69 % 1003,8 hPa 0,0 l/m 27,4 km/h (4 Bft) SW 225 0 min 0,000 mm 0,0 UV-I 0 W/m 1,3 C -3,5 C 38,6 km/h (5 Bft) 95,65 %
03.01.2018 21:24 6,7 C 3,9 C 69 % 1003,9 hPa 0,0 l/m 24,1 km/h (4 Bft) W-SW 247 0 min 0,000 mm 0,0 UV-I 0 W/m 1,4 C -2,4 C 32,2 km/h (5 Bft) 100,00 %
03.01.2018 21:25 6,7 C 3,9 C 68 % 1003,9 hPa 0,0 l/m 19,3 km/h (3 Bft) SW 225 0 min 0,000 mm 0,0 UV-I 0 W/m 1,2 C -0,7 C 27,4 km/h (4 Bft) 100,00 %
03.01.2018 21:26 6,6 C 3,9 C 69 % 1003,8 hPa 0,0 l/m 17,7 km/h (3 Bft) SW 225 0 min 0,000 mm 0,0 UV-I 0 W/m 1,3 C -0,2 C 25,7 km/h (4 Bft) 95,65 %
03.01.2018 21:27 6,6 C 3,9 C 69 % 1003,8 hPa 0,0 l/m 33,8 km/h (5 Bft) SW 225 0 min 0,000 mm 0,0 UV-I 0 W/m 1,3 C -5,0 C 51,5 km/h (7 Bft) 100,00 %
03.01.2018 21:28 6,6 C 3,9 C 68 % 1003,6 hPa 0,0 l/m 29,0 km/h (5 Bft) SW 225 0 min 0,000 mm 0,0 UV-I 0 W/m 1,1 C -3,9 C 38,6 km/h (5 Bft) 100,00 %
03.01.2018 21:29 6,7 C 3,9 C 68 % 1003,5 hPa 0,0 l/m 25,7 km/h (4 Bft) SW 225 0 min 0,000 mm 0,0 UV-I 0 W/m 1,2 C -2,8 C 38,6 km/h (5 Bft) 100,00 %
03.01.2018 21:30 6,7 C 3,9 C 68 % 1003,6 hPa 0,0 l/m 29,0 km/h (5 Bft) W-SW 247 0 min 0,000 mm 0,0 UV-I 0 W/m 1,2 C -3,7 C 48,3 km/h (6 Bft) 100,00 %
03.01.2018 21:31 6,7 C 3,9 C 68 % 1003,6 hPa 0,0 l/m 27,4 km/h (4 Bft) SW 225 0 min 0,000 mm 0,0 UV-I 0 W/m 1,2 C -3,3 C 43,5 km/h (6 Bft) 100,00 %
03.01.2018 21:32 6,7 C 3,9 C 68 % 1003,6 hPa 0,0 l/m 20,9 km/h (4 Bft) SW 225 0 min 0,000 mm 0,0 UV-I 0 W/m 1,2 C -1,3 C 32,2 km/h (5 Bft) 100,00 %
03.01.2018 21:33 6,7 C 3,9 C 68 % 1003,6 hPa 0,0 l/m 19,3 km/h (3 Bft) W-SW 247 0 min 0,000 mm 0,0 UV-I 0 W/m 1,2 C -0,7 C 24,1 km/h (4 Bft) 95,65 %
03.01.2018 21:34 6,7 C 3,9 C 69 % 1003,6 hPa 0,0 l/m 22,5 km/h (4 Bft) SW 225 0 min 0,000 mm 0,0 UV-I 0 W/m 1,4 C -1,9 C 32,2 km/h (5 Bft) 100,00 %
03.01.2018 21:35 6,6 C 3,9 C 69 % 1003,5 hPa 0,0 l/m 20,9 km/h (4 Bft) SW 225 0 min 0,000 mm 0,0 UV-I 0 W/m 1,3 C -1,4 C 32,2 km/h (5 Bft) 100,00 %
03.01.2018 21:36 6,6 C 3,9 C 69 % 1003,4 hPa 0,0 l/m 20,9 km/h (4 Bft) W-SW 247 0 min 0,000 mm 0,0 UV-I 0 W/m 1,3 C -1,4 C 32,2 km/h (5 Bft) 100,00 %
03.01.2018 21:37 6,6 C 3,9 C 69 % 1003,5 hPa 0,0 l/m 22,5 km/h (4 Bft) W-SW 247 0 min 0,000 mm 0,0 UV-I 0 W/m 1,3 C -2,0 C 27,4 km/h (4 Bft) 100,00 %
03.01.2018 21:38 6,6 C 3,9 C 70 % 1003,5 hPa 0,0 l/m 17,7 km/h (3 Bft) SW 225 0 min 0,000 mm 0,0 UV-I 0 W/m 1,5 C -0,2 C 33,8 km/h (5 Bft) 95,65 %
03.01.2018 21:39 6,5 C 3,9 C 70 % 1003,4 hPa 0,0 l/m 27,4 km/h (4 Bft) W-SW 247 0 min 0,000 mm 0,0 UV-I 0 W/m 1,4 C -3,6 C 41,8 km/h (6 Bft) 91,30 %
03.01.2018 21:40 6,5 C 3,9 C 69 % 1003,4 hPa 0,0 l/m 20,9 km/h (4 Bft) SW 225 0 min 0,000 mm 0,0 UV-I 0 W/m 1,2 C -1,6 C 30,6 km/h (5 Bft) 91,30 %
03.01.2018 21:41 6,6 C 3,9 C 69 % 1003,3 hPa 0,0 l/m 20,9 km/h (4 Bft) W-SW 247 0 min 0,000 mm 0,0 UV-I 0 W/m 1,3 C -1,4 C 30,6 km/h (5 Bft) 100,00 %
03.01.2018 21:42 6,5 C 3,9 C 70 % 1003,5 hPa 0,0 l/m 20,9 km/h (4 Bft) SW 225 0 min 0,000 mm 0,0 UV-I 0 W/m 1,4 C -1,6 C 27,4 km/h (4 Bft) 91,30 %
03.01.2018 21:43 6,5 C 3,9 C 70 % 1003,3 hPa 0,0 l/m 22,5 km/h (4 Bft) W-SW 247 0 min 0,000 mm 0,0 UV-I 0 W/m 1,4 C -2,1 C 30,6 km/h (5 Bft) 100,00 %
03.01.2018 21:44 6,5 C 3,9 C 70 % 1003,3 hPa 0,0 l/m 27,4 km/h (4 Bft) SW 225 0 min 0,000 mm 0,0 UV-I 0 W/m 1,4 C -3,6 C 40,2 km/h (6 Bft) 100,00 %
03.01.2018 21:45 6,5 C 3,9 C 69 % 1003,3 hPa 0,0 l/m 25,7 km/h (4 Bft) W-SW 247 0 min 0,000 mm 0,0 UV-I 0 W/m 1,2 C -3,1 C 37,0 km/h (5 Bft) 100,00 %
03.01.2018 21:46 6,6 C 3,9 C 69 % 1003,3 hPa 0,0 l/m 25,7 km/h (4 Bft) W-SW 247 0 min 0,000 mm 0,0 UV-I 0 W/m 1,3 C -3,0 C 35,4 km/h (5 Bft) 100,00 %
03.01.2018 21:47 6,6 C 3,9 C 69 % 1003,3 hPa 0,0 l/m 27,4 km/h (4 Bft) W-SW 247 0 min 0,000 mm 0,0 UV-I 0 W/m 1,3 C -3,5 C 38,6 km/h (5 Bft) 95,65 %
03.01.2018 21:48 6,6 C 3,9 C 69 % 1003,3 hPa 0,0 l/m 29,0 km/h (5 Bft) W-SW 247 0 min 0,000 mm 0,0 UV-I 0 W/m 1,3 C -3,9 C 43,5 km/h (6 Bft) 100,00 %
03.01.2018 21:49 6,6 C 3,9 C 69 % 1003,2 hPa 0,0 l/m 22,5 km/h (4 Bft) S-SW 202 0 min 0,000 mm 0,0 UV-I 0 W/m 1,3 C -2,0 C 32,2 km/h (5 Bft) 100,00 %
03.01.2018 21:50 6,6 C 3,9 C 69 % 1003,4 hPa 0,0 l/m 27,4 km/h (4 Bft) W-SW 247 0 min 0,000 mm 0,0 UV-I 0 W/m 1,3 C -3,5 C 41,8 km/h (6 Bft) 100,00 %
03.01.2018 21:51 6,6 C 3,9 C 68 % 1003,3 hPa 0,0 l/m 27,4 km/h (4 Bft) SW 225 0 min 0,000 mm 0,0 UV-I 0 W/m 1,1 C -3,5 C 40,2 km/h (6 Bft) 100,00 %
03.01.2018 21:52 6,7 C 3,9 C 68 % 1003,4 hPa 0,0 l/m 27,4 km/h (4 Bft) SW 225 0 min 0,000 mm 0,0 UV-I 0 W/m 1,2 C -3,3 C 46,7 km/h (6 Bft) 100,00 %
03.01.2018 21:53 6,7 C 3,9 C 69 % 1003,4 hPa 0,0 l/m 27,4 km/h (4 Bft) SW 225 0 min 0,000 mm 0,0 UV-I 0 W/m 1,4 C -3,3 C 41,8 km/h (6 Bft) 100,00 %
03.01.2018 21:54 6,7 C 3,9 C 68 % 1003,4 hPa 0,0 l/m 29,0 km/h (5 Bft) W-SW 247 0 min 0,000 mm 0,0 UV-I 0 W/m 1,2 C -3,7 C 35,4 km/h (5 Bft) 95,65 %
03.01.2018 21:55 6,7 C 3,9 C 69 % 1003,4 hPa 0,0 l/m 29,0 km/h (5 Bft) W-SW 247 0 min 0,000 mm 0,0 UV-I 0 W/m 1,4 C -3,7 C 48,3 km/h (6 Bft) 100,00 %
03.01.2018 21:56 6,7 C 3,9 C 68 % 1003,4 hPa 0,0 l/m 24,1 km/h (4 Bft) W-SW 247 0 min 0,000 mm 0,0 UV-I 0 W/m 1,2 C -2,4 C 30,6 km/h (5 Bft) 95,65 %
03.01.2018 21:57 6,7 C 3,9 C 68 % 1003,4 hPa 0,0 l/m 25,7 km/h (4 Bft) W-SW 247 0 min 0,000 mm 0,0 UV-I 0 W/m 1,2 C -2,8 C 45,1 km/h (6 Bft) 100,00 %
03.01.2018 21:58 6,7 C 3,9 C 68 % 1003,3 hPa 0,0 l/m 35,4 km/h (5 Bft) SW 225 0 min 0,000 mm 0,0 UV-I 0 W/m 1,2 C -5,2 C 49,9 km/h (6 Bft) 95,65 %
03.01.2018 21:59 6,8 C 3,9 C 68 % 1003,1 hPa 0,0 l/m 33,8 km/h (5 Bft) W-SW 247 0 min 0,000 mm 0,0 UV-I 0 W/m 1,3 C -4,7 C 49,9 km/h (6 Bft) 100,00 %
03.01.2018 22:00 6,8 C 3,9 C 68 % 1003,2 hPa 0,0 l/m 27,4 km/h (4 Bft) SW 225 0 min 0,076 mm 0,0 UV-I 0 W/m 1,3 C -3,2 C 43,5 km/h (6 Bft) 95,65 %
03.01.2018 22:01 6,8 C 3,9 C 68 % 1003,3 hPa 0,0 l/m 30,6 km/h (5 Bft) W-SW 247 0 min 0,000 mm 0,0 UV-I 0 W/m 1,3 C -4,0 C 40,2 km/h (6 Bft) 95,65 %
03.01.2018 22:02 6,8 C 3,9 C 67 % 1003,3 hPa 0,0 l/m 27,4 km/h (4 Bft) SW 225 0 min 0,000 mm 0,0 UV-I 0 W/m 1,1 C -3,2 C 37,0 km/h (5 Bft) 100,00 %
03.01.2018 22:03 6,8 C 3,9 C 67 % 1003,4 hPa 0,0 l/m 27,4 km/h (4 Bft) W-SW 247 0 min 0,000 mm 0,0 UV-I 0 W/m 1,1 C -3,2 C 46,7 km/h (6 Bft) 100,00 %
03.01.2018 22:04 6,8 C 3,9 C 68 % 1003,4 hPa 0,0 l/m 29,0 km/h (5 Bft) W-SW 247 0 min 0,000 mm 0,0 UV-I 0 W/m 1,3 C -3,6 C 45,1 km/h (6 Bft) 91,30 %
03.01.2018 22:05 6,8 C 3,9 C 67 % 1003,4 hPa 0,0 l/m 29,0 km/h (5 Bft) W-SW 247 0 min 0,000 mm 0,0 UV-I 0 W/m 1,1 C -3,6 C 40,2 km/h (6 Bft) 95,65 %
03.01.2018 22:06 6,8 C 3,9 C 67 % 1003,4 hPa 0,0 l/m 32,2 km/h (5 Bft) W-SW 247 0 min 0,000 mm 0,0 UV-I 0 W/m 1,1 C -4,4 C 45,1 km/h (6 Bft) 100,00 %
03.01.2018 22:07 6,8 C 3,9 C 67 % 1003,6 hPa 0,0 l/m 32,2 km/h (5 Bft) W-SW 247 0 min 0,000 mm 0,0 UV-I 0 W/m 1,1 C -4,4 C 56,3 km/h (7 Bft) 95,65 %
03.01.2018 22:08 6,9 C 3,9 C 67 % 1003,5 hPa 0,0 l/m 35,4 km/h (5 Bft) W-SW 247 0 min 0,000 mm 0,0 UV-I 0 W/m 1,2 C -4,9 C 54,7 km/h (7 Bft) 91,30 %
03.01.2018 22:09 6,9 C 3,9 C 67 % 1003,5 hPa 0,0 l/m 29,0 km/h (5 Bft) SW 225 0 min 0,000 mm 0,0 UV-I 0 W/m 1,2 C -3,5 C 45,1 km/h (6 Bft) 95,65 %
03.01.2018 22:10 6,9 C 3,9 C 67 % 1003,5 hPa 0,0 l/m 30,6 km/h (5 Bft) SW 225 0 min 0,000 mm 0,0 UV-I 0 W/m 1,2 C -3,8 C 41,8 km/h (6 Bft) 100,00 %
03.01.2018 22:11 6,9 C 3,9 C 67 % 1003,4 hPa 0,0 l/m 27,4 km/h (4 Bft) W-SW 247 0 min 0,000 mm 0,0 UV-I 0 W/m 1,2 C -3,0 C 38,6 km/h (5 Bft) 95,65 %
03.01.2018 22:12 6,8 C 3,9 C 67 % 1003,6 hPa 0,0 l/m 29,0 km/h (5 Bft) W-SW 247 0 min 0,000 mm 0,0 UV-I 0 W/m 1,1 C -3,6 C 40,2 km/h (6 Bft) 95,65 %
03.01.2018 22:13 6,8 C 3,9 C 67 % 1003,5 hPa 0,0 l/m 20,9 km/h (4 Bft) W-SW 247 0 min 0,000 mm 0,0 UV-I 0 W/m 1,1 C -1,2 C 43,5 km/h (6 Bft) 95,65 %
03.01.2018 22:14 6,8 C 3,9 C 67 % 1003,5 hPa 0,0 l/m 33,8 km/h (5 Bft) W-SW 247 0 min 0,000 mm 0,0 UV-I 0 W/m 1,1 C -4,7 C 49,9 km/h (6 Bft) 100,00 %
03.01.2018 22:15 6,8 C 3,9 C 67 % 1003,5 hPa 0,0 l/m 27,4 km/h (4 Bft) W-SW 247 0 min 0,000 mm 0,0 UV-I 0 W/m 1,1 C -3,2 C 38,6 km/h (5 Bft) 91,30 %
03.01.2018 22:16 6,8 C 3,9 C 67 % 1003,5 hPa 0,0 l/m 33,8 km/h (5 Bft) SW 225 0 min 0,000 mm 0,0 UV-I 0 W/m 1,1 C -4,7 C 46,7 km/h (6 Bft) 100,00 %
03.01.2018 22:17 6,9 C 3,9 C 67 % 1003,5 hPa 0,0 l/m 37,0 km/h (5 Bft) W-SW 247 0 min 0,000 mm 0,0 UV-I 0 W/m 1,2 C -5,2 C 54,7 km/h (7 Bft) 95,65 %
03.01.2018 22:18 6,9 C 3,9 C 66 % 1003,5 hPa 0,0 l/m 32,2 km/h (5 Bft) SW 225 0 min 0,000 mm 0,0 UV-I 0 W/m 1,0 C -4,2 C 46,7 km/h (6 Bft) 100,00 %
03.01.2018 22:19 6,9 C 3,9 C 66 % 1003,4 hPa 0,0 l/m 30,6 km/h (5 Bft) W-SW 247 0 min 0,000 mm 0,0 UV-I 0 W/m 1,0 C -3,8 C 43,5 km/h (6 Bft) 95,65 %
03.01.2018 22:20 6,8 C 3,9 C 67 % 1003,4 hPa 0,0 l/m 29,0 km/h (5 Bft) W-SW 247 0 min 0,000 mm 0,0 UV-I 0 W/m 1,1 C -3,6 C 45,1 km/h (6 Bft) 95,65 %
03.01.2018 22:21 6,9 C 3,9 C 66 % 1003,6 hPa 0,0 l/m 38,6 km/h (5 Bft) W-SW 247 0 min 0,000 mm 0,0 UV-I 0 W/m 1,0 C -5,5 C 56,3 km/h (7 Bft) 95,65 %
03.01.2018 22:22 6,9 C 3,9 C 66 % 1003,4 hPa 0,0 l/m 35,4 km/h (5 Bft) SW 225 0 min 0,000 mm 0,0 UV-I 0 W/m 1,0 C -4,9 C 53,1 km/h (7 Bft) 91,30 %
03.01.2018 22:23 6,9 C 3,9 C 66 % 1003,5 hPa 0,0 l/m 30,6 km/h (5 Bft) W-SW 247 0 min 0,000 mm 0,0 UV-I 0 W/m 1,0 C -3,8 C 41,8 km/h (6 Bft) 100,00 %
03.01.2018 22:24 6,9 C 3,9 C 67 % 1003,6 hPa 0,0 l/m 27,4 km/h (4 Bft) W-SW 247 0 min 0,000 mm 0,0 UV-I 0 W/m 1,2 C -3,0 C 40,2 km/h (6 Bft) 91,30 %
03.01.2018 22:25 6,9 C 3,9 C 67 % 1003,4 hPa 0,0 l/m 37,0 km/h (5 Bft) W-SW 247 0 min 0,000 mm 0,0 UV-I 0 W/m 1,2 C -5,2 C 53,1 km/h (7 Bft) 100,00 %
03.01.2018 22:26 6,9 C 3,9 C 67 % 1003,4 hPa 0,0 l/m 33,8 km/h (5 Bft) SW 225 0 min 0,000 mm 0,0 UV-I 0 W/m 1,2 C -4,6 C 49,9 km/h (6 Bft) 95,65 %
03.01.2018 22:27 6,9 C 3,9 C 67 % 1003,4 hPa 0,0 l/m 25,7 km/h (4 Bft) SW 225 0 min 0,000 mm 0,0 UV-I 0 W/m 1,2 C -2,6 C 37,0 km/h (5 Bft) 100,00 %
03.01.2018 22:28 6,8 C 3,9 C 67 % 1003,3 hPa 0,0 l/m 30,6 km/h (5 Bft) W-SW 247 0 min 0,000 mm 0,0 UV-I 0 W/m 1,1 C -4,0 C 45,1 km/h (6 Bft) 100,00 %
03.01.2018 22:29 6,8 C 3,9 C 67 % 1003,3 hPa 0,0 l/m 37,0 km/h (5 Bft) W-SW 247 0 min 0,000 mm 0,0 UV-I 0 W/m 1,1 C -5,3 C 48,3 km/h (6 Bft) 91,30 %
03.01.2018 22:30 6,8 C 3,9 C 67 % 1003,4 hPa 0,0 l/m 35,4 km/h (5 Bft) W-SW 247 0 min 0,000 mm 0,0 UV-I 0 W/m 1,1 C -5,0 C 49,9 km/h (6 Bft) 100,00 %
03.01.2018 22:31 6,8 C 3,9 C 67 % 1003,3 hPa 0,0 l/m 29,0 km/h (5 Bft) W-SW 247 0 min 0,000 mm 0,0 UV-I 0 W/m 1,1 C -3,6 C 38,6 km/h (5 Bft) 100,00 %
03.01.2018 22:32 6,8 C 3,9 C 67 % 1003,4 hPa 0,0 l/m 35,4 km/h (5 Bft) SW 225 0 min 0,000 mm 0,0 UV-I 0 W/m 1,1 C -5,0 C 62,8 km/h (8 Bft) 100,00 %
03.01.2018 22:33 6,8 C 3,9 C 67 % 1003,3 hPa 0,0 l/m 37,0 km/h (5 Bft) W-SW 247 0 min 0,000 mm 0,0 UV-I 0 W/m 1,1 C -5,3 C 62,8 km/h (8 Bft) 100,00 %
03.01.2018 22:34 6,8 C 3,9 C 67 % 1003,3 hPa 0,0 l/m 25,7 km/h (4 Bft) SW 225 0 min 0,000 mm 0,0 UV-I 0 W/m 1,1 C -2,7 C 35,4 km/h (5 Bft) 100,00 %
03.01.2018 22:35 6,8 C 3,9 C 67 % 1003,4 hPa 0,0 l/m 29,0 km/h (5 Bft) W-SW 247 0 min 0,000 mm 0,0 UV-I 0 W/m 1,1 C -3,6 C 43,5 km/h (6 Bft) 100,00 %
03.01.2018 22:36 6,8 C 3,9 C 67 % 1003,3 hPa 0,0 l/m 32,2 km/h (5 Bft) SW 225 0 min 0,000 mm 0,0 UV-I 0 W/m 1,1 C -4,4 C 49,9 km/h (6 Bft) 95,65 %
03.01.2018 22:37 6,8 C 3,9 C 67 % 1003,4 hPa 0,0 l/m 35,4 km/h (5 Bft) SW 225 0 min 0,000 mm 0,0 UV-I 0 W/m 1,1 C -5,0 C 49,9 km/h (6 Bft) 95,65 %
03.01.2018 22:38 6,8 C 3,9 C 67 % 1003,5 hPa 0,0 l/m 35,4 km/h (5 Bft) W-SW 247 0 min 0,000 mm 0,0 UV-I 0 W/m 1,1 C -5,0 C 49,9 km/h (6 Bft) 100,00 %
03.01.2018 22:39 6,8 C 3,9 C 68 % 1003,4 hPa 0,0 l/m 32,2 km/h (5 Bft) W-SW 247 0 min 0,000 mm 0,0 UV-I 0 W/m 1,3 C -4,4 C 51,5 km/h (7 Bft) 100,00 %
03.01.2018 22:40 6,8 C 3,9 C 68 % 1003,4 hPa 0,0 l/m 32,2 km/h (5 Bft) W-SW 247 0 min 0,000 mm 0,0 UV-I 0 W/m 1,3 C -4,4 C 45,1 km/h (6 Bft) 100,00 %
03.01.2018 22:41 6,7 C 3,9 C 68 % 1003,5 hPa 0,0 l/m 22,5 km/h (4 Bft) SW 225 0 min 0,000 mm 0,0 UV-I 0 W/m 1,2 C -1,9 C 35,4 km/h (5 Bft) 100,00 %
03.01.2018 22:42 6,7 C 3,9 C 68 % 1003,5 hPa 0,0 l/m 38,6 km/h (5 Bft) W-SW 247 0 min 0,000 mm 0,0 UV-I 0 W/m 1,2 C -5,8 C 57,9 km/h (7 Bft) 100,00 %
03.01.2018 22:43 6,7 C 3,9 C 68 % 1003,5 hPa 0,0 l/m 37,0 km/h (5 Bft) W-SW 247 0 min 0,000 mm 0,0 UV-I 0 W/m 1,2 C -5,5 C 48,3 km/h (6 Bft) 91,30 %
03.01.2018 22:44 6,8 C 3,9 C 68 % 1003,5 hPa 0,0 l/m 37,0 km/h (5 Bft) W 270 0 min 0,000 mm 0,0 UV-I 0 W/m 1,3 C -5,3 C 46,7 km/h (6 Bft) 95,65 %
03.01.2018 22:45 6,8 C 3,9 C 68 % 1003,5 hPa 0,0 l/m 41,8 km/h (6 Bft) W-SW 247 0 min 0,000 mm 0,0 UV-I 0 W/m 1,3 C -6,1 C 61,2 km/h (7 Bft) 100,00 %
03.01.2018 22:46 6,8 C 3,9 C 67 % 1003,5 hPa 0,0 l/m 37,0 km/h (5 Bft) W-SW 247 0 min 0,000 mm 0,0 UV-I 0 W/m 1,1 C -5,3 C 48,3 km/h (6 Bft) 95,65 %
03.01.2018 22:47 6,8 C 3,9 C 67 % 1003,5 hPa 0,0 l/m 32,2 km/h (5 Bft) SW 225 0 min 0,000 mm 0,0 UV-I 0 W/m 1,1 C -4,4 C 40,2 km/h (6 Bft) 100,00 %
03.01.2018 22:48 6,8 C 3,9 C 67 % 1003,5 hPa 0,0 l/m 37,0 km/h (5 Bft) W-SW 247 0 min 0,000 mm 0,0 UV-I 0 W/m 1,1 C -5,3 C 53,1 km/h (7 Bft) 100,00 %
03.01.2018 22:49 6,8 C 3,9 C 67 % 1003,5 hPa 0,0 l/m 27,4 km/h (4 Bft) SW 225 0 min 0,000 mm 0,0 UV-I 0 W/m 1,1 C -3,2 C 49,9 km/h (6 Bft) 100,00 %
03.01.2018 22:50 6,8 C 3,9 C 68 % 1003,6 hPa 0,0 l/m 32,2 km/h (5 Bft) SW 225 0 min 0,000 mm 0,0 UV-I 0 W/m 1,3 C -4,4 C 57,9 km/h (7 Bft) 91,30 %
03.01.2018 22:51 6,8 C 3,9 C 67 % 1003,5 hPa 0,0 l/m 37,0 km/h (5 Bft) W-SW 247 0 min 0,000 mm 0,0 UV-I 0 W/m 1,1 C -5,3 C 59,5 km/h (7 Bft) 100,00 %
03.01.2018 22:52 6,8 C 3,9 C 67 % 1003,6 hPa 0,0 l/m 37,0 km/h (5 Bft) W-SW 247 0 min 0,000 mm 0,0 UV-I 0 W/m 1,1 C -5,3 C 59,5 km/h (7 Bft) 95,65 %
03.01.2018 22:53 6,8 C 3,9 C 67 % 1003,6 hPa 0,0 l/m 30,6 km/h (5 Bft) W 270 0 min 0,000 mm 0,0 UV-I 0 W/m 1,1 C -4,0 C 40,2 km/h (6 Bft) 95,65 %
03.01.2018 22:54 6,8 C 3,9 C 67 % 1003,7 hPa 0,0 l/m 24,1 km/h (4 Bft) SW 225 0 min 0,000 mm 0,0 UV-I 0 W/m 1,1 C -2,2 C 32,2 km/h (5 Bft) 100,00 %
03.01.2018 22:55 6,8 C 3,9 C 67 % 1003,7 hPa 0,0 l/m 30,6 km/h (5 Bft) SW 225 0 min 0,000 mm 0,0 UV-I 0 W/m 1,1 C -4,0 C 48,3 km/h (6 Bft) 95,65 %
03.01.2018 22:56 6,8 C 3,9 C 67 % 1003,7 hPa 0,0 l/m 32,2 km/h (5 Bft) W-SW 247 0 min 0,000 mm 0,0 UV-I 0 W/m 1,1 C -4,4 C 41,8 km/h (6 Bft) 100,00 %
03.01.2018 22:57 6,8 C 3,9 C 68 % 1003,8 hPa 0,0 l/m 29,0 km/h (5 Bft) W-SW 247 0 min 0,000 mm 0,0 UV-I 0 W/m 1,3 C -3,6 C 40,2 km/h (6 Bft) 95,65 %
03.01.2018 22:58 6,8 C 3,9 C 67 % 1003,8 hPa 0,0 l/m 40,2 km/h (6 Bft) SW 225 0 min 0,000 mm 0,0 UV-I 0 W/m 1,1 C -5,9 C 51,5 km/h (7 Bft) 100,00 %
03.01.2018 22:59 6,8 C 3,9 C 67 % 1003,7 hPa 0,0 l/m 37,0 km/h (5 Bft) W 270 0 min 0,000 mm 0,0 UV-I 0 W/m 1,1 C -5,3 C 53,1 km/h (7 Bft) 95,65 %
03.01.2018 23:00 6,8 C 3,9 C 67 % 1003,8 hPa 0,0 l/m 38,6 km/h (5 Bft) W-SW 247 0 min 0,102 mm 0,0 UV-I 0 W/m 1,1 C -5,6 C 51,5 km/h (7 Bft) 100,00 %
03.01.2018 23:01 6,9 C 3,9 C 67 % 1003,7 hPa 0,0 l/m 35,4 km/h (5 Bft) W-SW 247 0 min 0,000 mm 0,0 UV-I 0 W/m 1,2 C -4,9 C 43,5 km/h (6 Bft) 91,30 %
03.01.2018 23:02 6,9 C 3,9 C 67 % 1003,8 hPa 0,0 l/m 33,8 km/h (5 Bft) W-SW 247 0 min 0,000 mm 0,0 UV-I 0 W/m 1,2 C -4,6 C 46,7 km/h (6 Bft) 95,65 %
03.01.2018 23:03 6,8 C 3,9 C 68 % 1003,8 hPa 0,0 l/m 33,8 km/h (5 Bft) W-SW 247 0 min 0,000 mm 0,0 UV-I 0 W/m 1,3 C -4,7 C 51,5 km/h (7 Bft) 100,00 %
03.01.2018 23:04 6,8 C 3,9 C 67 % 1003,9 hPa 0,0 l/m 38,6 km/h (5 Bft) W-SW 247 0 min 0,000 mm 0,0 UV-I 0 W/m 1,1 C -5,6 C 69,2 km/h (8 Bft) 91,30 %
03.01.2018 23:05 6,9 C 3,9 C 67 % 1003,9 hPa 0,0 l/m 29,0 km/h (5 Bft) W-SW 247 0 min 0,000 mm 0,0 UV-I 0 W/m 1,2 C -3,5 C 69,2 km/h (8 Bft) 100,00 %
03.01.2018 23:06 6,9 C 3,9 C 67 % 1004,0 hPa 0,0 l/m 30,6 km/h (5 Bft) W 270 0 min 0,000 mm 0,0 UV-I 0 W/m 1,2 C -3,8 C 45,1 km/h (6 Bft) 95,65 %
03.01.2018 23:07 6,9 C 3,9 C 67 % 1003,9 hPa 0,0 l/m 35,4 km/h (5 Bft) W-SW 247 0 min 0,000 mm 0,0 UV-I 0 W/m 1,2 C -4,9 C 48,3 km/h (6 Bft) 95,65 %
03.01.2018 23:08 6,9 C 3,9 C 67 % 1004,1 hPa 0,0 l/m 29,0 km/h (5 Bft) W-SW 247 0 min 0,000 mm 0,0 UV-I 0 W/m 1,2 C -3,5 C 35,4 km/h (5 Bft) 95,65 %
03.01.2018 23:09 6,9 C 3,9 C 67 % 1004,1 hPa 0,0 l/m 30,6 km/h (5 Bft) SW 225 0 min 0,000 mm 0,0 UV-I 0 W/m 1,2 C -3,8 C 45,1 km/h (6 Bft) 91,30 %
03.01.2018 23:10 6,8 C 3,9 C 67 % 1004,0 hPa 0,0 l/m 32,2 km/h (5 Bft) W-SW 247 0 min 0,000 mm 0,0 UV-I 0 W/m 1,1 C -4,4 C 46,7 km/h (6 Bft) 95,65 %
03.01.2018 23:11 6,8 C 3,9 C 67 % 1004,1 hPa 0,0 l/m 33,8 km/h (5 Bft) W-SW 247 0 min 0,000 mm 0,0 UV-I 0 W/m 1,1 C -4,7 C 48,3 km/h (6 Bft) 91,30 %
03.01.2018 23:12 6,8 C 3,9 C 67 % 1004,1 hPa 0,0 l/m 33,8 km/h (5 Bft) W-SW 247 0 min 0,000 mm 0,0 UV-I 0 W/m 1,1 C -4,7 C 51,5 km/h (7 Bft) 100,00 %
03.01.2018 23:13 6,9 C 3,9 C 67 % 1004,1 hPa 0,0 l/m 35,4 km/h (5 Bft) W-SW 247 0 min 0,000 mm 0,0 UV-I 0 W/m 1,2 C -4,9 C 57,9 km/h (7 Bft) 95,65 %
03.01.2018 23:14 6,9 C 3,9 C 67 % 1004,3 hPa 0,0 l/m 33,8 km/h (5 Bft) W-SW 247 0 min 0,000 mm 0,0 UV-I 0 W/m 1,2 C -4,6 C 46,7 km/h (6 Bft) 100,00 %
03.01.2018 23:15 6,9 C 3,9 C 67 % 1004,2 hPa 0,0 l/m 33,8 km/h (5 Bft) W-SW 247 0 min 0,000 mm 0,0 UV-I 0 W/m 1,2 C -4,6 C 45,1 km/h (6 Bft) 95,65 %
03.01.2018 23:16 6,9 C 3,9 C 67 % 1004,2 hPa 0,0 l/m 35,4 km/h (5 Bft) W-SW 247 0 min 0,000 mm 0,0 UV-I 0 W/m 1,2 C -4,9 C 48,3 km/h (6 Bft) 100,00 %
03.01.2018 23:17 6,9 C 3,9 C 67 % 1004,3 hPa 0,0 l/m 38,6 km/h (5 Bft) W-SW 247 0 min 0,000 mm 0,0 UV-I 0 W/m 1,2 C -5,5 C 54,7 km/h (7 Bft) 91,30 %
03.01.2018 23:18 6,9 C 3,9 C 67 % 1004,2 hPa 0,0 l/m 25,7 km/h (4 Bft) W-SW 247 0 min 0,000 mm 0,0 UV-I 0 W/m 1,2 C -2,6 C 46,7 km/h (6 Bft) 91,30 %
03.01.2018 23:19 6,9 C 3,9 C 67 % 1004,3 hPa 0,0 l/m 41,8 km/h (6 Bft) SW 225 0 min 0,000 mm 0,0 UV-I 0 W/m 1,2 C -6,0 C 54,7 km/h (7 Bft) 95,65 %
03.01.2018 23:20 6,9 C 3,9 C 67 % 1004,3 hPa 0,0 l/m 33,8 km/h (5 Bft) W-SW 247 0 min 0,000 mm 0,0 UV-I 0 W/m 1,2 C -4,6 C 48,3 km/h (6 Bft) 95,65 %
03.01.2018 23:21 6,9 C 3,9 C 67 % 1004,4 hPa 0,0 l/m 30,6 km/h (5 Bft) W-SW 247 0 min 0,000 mm 0,0 UV-I 0 W/m 1,2 C -3,8 C 43,5 km/h (6 Bft) 100,00 %
03.01.2018 23:22 6,9 C 3,9 C 67 % 1004,3 hPa 0,0 l/m 30,6 km/h (5 Bft) W-SW 247 0 min 0,000 mm 0,0 UV-I 0 W/m 1,2 C -3,8 C 40,2 km/h (6 Bft) 95,65 %
03.01.2018 23:23 6,9 C 3,9 C 67 % 1004,4 hPa 0,0 l/m 30,6 km/h (5 Bft) W-SW 247 0 min 0,000 mm 0,0 UV-I 0 W/m 1,2 C -3,8 C 46,7 km/h (6 Bft) 100,00 %
03.01.2018 23:24 6,9 C 3,9 C 67 % 1004,5 hPa 0,0 l/m 24,1 km/h (4 Bft) W-SW 247 0 min 0,000 mm 0,0 UV-I 0 W/m 1,2 C -2,1 C 33,8 km/h (5 Bft) 91,30 %
03.01.2018 23:25 6,9 C 3,9 C 67 % 1004,4 hPa 0,0 l/m 30,6 km/h (5 Bft) W-SW 247 0 min 0,000 mm 0,0 UV-I 0 W/m 1,2 C -3,8 C 49,9 km/h (6 Bft) 95,65 %
03.01.2018 23:26 6,9 C 3,9 C 67 % 1004,4 hPa 0,0 l/m 30,6 km/h (5 Bft) SW 225 0 min 0,000 mm 0,0 UV-I 0 W/m 1,2 C -3,8 C 37,0 km/h (5 Bft) 95,65 %
03.01.2018 23:27 6,9 C 3,9 C 67 % 1004,4 hPa 0,0 l/m 29,0 km/h (5 Bft) SW 225 0 min 0,000 mm 0,0 UV-I 0 W/m 1,2 C -3,5 C 35,4 km/h (5 Bft) 95,65 %
03.01.2018 23:28 6,9 C 3,9 C 67 % 1004,4 hPa 0,0 l/m 29,0 km/h (5 Bft) W-SW 247 0 min 0,000 mm 0,0 UV-I 0 W/m 1,2 C -3,5 C 40,2 km/h (6 Bft) 95,65 %
03.01.2018 23:29 6,9 C 3,9 C 67 % 1004,4 hPa 0,0 l/m 35,4 km/h (5 Bft) SW 225 0 min 0,000 mm 0,0 UV-I 0 W/m 1,2 C -4,9 C 46,7 km/h (6 Bft) 95,65 %
03.01.2018 23:30 6,9 C 3,9 C 67 % 1004,3 hPa 0,0 l/m 37,0 km/h (5 Bft) SW 225 0 min 0,000 mm 0,0 UV-I 0 W/m 1,2 C -5,2 C 46,7 km/h (6 Bft) 95,65 %
03.01.2018 23:31 6,9 C 3,9 C 67 % 1004,3 hPa 0,0 l/m 30,6 km/h (5 Bft) W-SW 247 0 min 0,000 mm 0,0 UV-I 0 W/m 1,2 C -3,8 C 46,7 km/h (6 Bft) 100,00 %
03.01.2018 23:32 6,9 C 3,9 C 67 % 1004,4 hPa 0,0 l/m 30,6 km/h (5 Bft) SW 225 0 min 0,000 mm 0,0 UV-I 0 W/m 1,2 C -3,8 C 40,2 km/h (6 Bft) 91,30 %
03.01.2018 23:33 6,9 C 3,9 C 67 % 1004,3 hPa 0,0 l/m 25,7 km/h (4 Bft) W-SW 247 0 min 0,000 mm 0,0 UV-I 0 W/m 1,2 C -2,6 C 35,4 km/h (5 Bft) 100,00 %
03.01.2018 23:34 6,8 C 3,9 C 68 % 1004,2 hPa 0,0 l/m 35,4 km/h (5 Bft) W-SW 247 0 min 0,000 mm 0,0 UV-I 0 W/m 1,3 C -5,0 C 49,9 km/h (6 Bft) 91,30 %
03.01.2018 23:35 6,8 C 3,9 C 67 % 1004,3 hPa 0,0 l/m 32,2 km/h (5 Bft) W-SW 247 0 min 0,000 mm 0,0 UV-I 0 W/m 1,1 C -4,4 C 53,1 km/h (7 Bft) 100,00 %
03.01.2018 23:36 6,8 C 3,9 C 67 % 1004,2 hPa 0,0 l/m 27,4 km/h (4 Bft) W-SW 247 0 min 0,000 mm 0,0 UV-I 0 W/m 1,1 C -3,2 C 41,8 km/h (6 Bft) 95,65 %
03.01.2018 23:37 6,8 C 3,9 C 68 % 1004,2 hPa 0,0 l/m 33,8 km/h (5 Bft) W-SW 247 0 min 0,000 mm 0,0 UV-I 0 W/m 1,3 C -4,7 C 51,5 km/h (7 Bft) 100,00 %
03.01.2018 23:38 6,8 C 3,9 C 68 % 1004,3 hPa 0,0 l/m 32,2 km/h (5 Bft) W-SW 247 0 min 0,000 mm 0,0 UV-I 0 W/m 1,3 C -4,4 C 45,1 km/h (6 Bft) 91,30 %
03.01.2018 23:39 6,7 C 3,9 C 68 % 1004,2 hPa 0,0 l/m 33,8 km/h (5 Bft) W-SW 247 0 min 0,000 mm 0,0 UV-I 0 W/m 1,2 C -4,8 C 43,5 km/h (6 Bft) 95,65 %
03.01.2018 23:40 6,7 C 3,9 C 68 % 1004,2 hPa 0,0 l/m 33,8 km/h (5 Bft) W-SW 247 0 min 0,000 mm 0,0 UV-I 0 W/m 1,2 C -4,8 C 48,3 km/h (6 Bft) 95,65 %
03.01.2018 23:41 6,8 C 3,9 C 67 % 1004,2 hPa 0,0 l/m 37,0 km/h (5 Bft) W-SW 247 0 min 0,000 mm 0,0 UV-I 0 W/m 1,1 C -5,3 C 49,9 km/h (6 Bft) 95,65 %
03.01.2018 23:42 6,8 C 3,9 C 67 % 1004,3 hPa 0,0 l/m 27,4 km/h (4 Bft) W-SW 247 0 min 0,000 mm 0,0 UV-I 0 W/m 1,1 C -3,2 C 43,5 km/h (6 Bft) 100,00 %
03.01.2018 23:43 6,8 C 3,9 C 67 % 1004,1 hPa 0,0 l/m 33,8 km/h (5 Bft) W-SW 247 0 min 0,000 mm 0,0 UV-I 0 W/m 1,1 C -4,7 C 46,7 km/h (6 Bft) 95,65 %
03.01.2018 23:44 6,8 C 3,9 C 67 % 1004,2 hPa 0,0 l/m 27,4 km/h (4 Bft) W-SW 247 0 min 0,000 mm 0,0 UV-I 0 W/m 1,1 C -3,2 C 37,0 km/h (5 Bft) 95,65 %
03.01.2018 23:45 6,8 C 3,9 C 67 % 1004,3 hPa 0,0 l/m 22,5 km/h (4 Bft) SW 225 0 min 0,000 mm 0,0 UV-I 0 W/m 1,1 C -1,7 C 33,8 km/h (5 Bft) 95,65 %
03.01.2018 23:46 6,8 C 3,9 C 67 % 1004,4 hPa 0,0 l/m 33,8 km/h (5 Bft) W-SW 247 0 min 0,000 mm 0,0 UV-I 0 W/m 1,1 C -4,7 C 51,5 km/h (7 Bft) 95,65 %
03.01.2018 23:47 6,7 C 3,9 C 67 % 1004,2 hPa 0,0 l/m 25,7 km/h (4 Bft) SW 225 0 min 0,000 mm 0,0 UV-I 0 W/m 1,0 C -2,8 C 35,4 km/h (5 Bft) 95,65 %
03.01.2018 23:48 6,8 C 3,9 C 67 % 1004,1 hPa 0,0 l/m 37,0 km/h (5 Bft) W-SW 247 0 min 0,000 mm 0,0 UV-I 0 W/m 1,1 C -5,3 C 51,5 km/h (7 Bft) 100,00 %
03.01.2018 23:49 6,8 C 3,9 C 67 % 1004,2 hPa 0,0 l/m 35,4 km/h (5 Bft) W-SW 247 0 min 0,000 mm 0,0 UV-I 0 W/m 1,1 C -5,0 C 48,3 km/h (6 Bft) 95,65 %
03.01.2018 23:50 6,8 C 3,9 C 67 % 1004,2 hPa 0,0 l/m 33,8 km/h (5 Bft) W-SW 247 0 min 0,000 mm 0,0 UV-I 0 W/m 1,1 C -4,7 C 46,7 km/h (6 Bft) 100,00 %
03.01.2018 23:51 6,8 C 3,9 C 67 % 1004,1 hPa 0,0 l/m 32,2 km/h (5 Bft) SW 225 0 min 0,000 mm 0,0 UV-I 0 W/m 1,1 C -4,4 C 40,2 km/h (6 Bft) 100,00 %
03.01.2018 23:52 6,8 C 3,9 C 67 % 1004,1 hPa 0,0 l/m 30,6 km/h (5 Bft) SW 225 0 min 0,000 mm 0,0 UV-I 0 W/m 1,1 C -4,0 C 43,5 km/h (6 Bft) 100,00 %
03.01.2018 23:53 6,8 C 3,9 C 67 % 1004,1 hPa 0,0 l/m 30,6 km/h (5 Bft) SW 225 0 min 0,000 mm 0,0 UV-I 0 W/m 1,1 C -4,0 C 41,8 km/h (6 Bft) 91,30 %
03.01.2018 23:54 6,8 C 3,9 C 67 % 1004,1 hPa 0,0 l/m 37,0 km/h (5 Bft) SW 225 0 min 0,000 mm 0,0 UV-I 0 W/m 1,1 C -5,3 C 54,7 km/h (7 Bft) 100,00 %
03.01.2018 23:55 6,8 C 3,9 C 66 % 1004,1 hPa 0,0 l/m 30,6 km/h (5 Bft) W-SW 247 0 min 0,000 mm 0,0 UV-I 0 W/m 0,9 C -4,0 C 41,8 km/h (6 Bft) 100,00 %
03.01.2018 23:56 6,8 C 3,9 C 67 % 1004,2 hPa 0,0 l/m 30,6 km/h (5 Bft) SW 225 0 min 0,000 mm 0,0 UV-I 0 W/m 1,1 C -4,0 C 46,7 km/h (6 Bft) 100,00 %
03.01.2018 23:57 6,8 C 3,9 C 67 % 1004,1 hPa 0,0 l/m 37,0 km/h (5 Bft) SW 225 0 min 0,000 mm 0,0 UV-I 0 W/m 1,1 C -5,3 C 51,5 km/h (7 Bft) 100,00 %
03.01.2018 23:58 6,8 C 3,9 C 67 % 1004,2 hPa 0,0 l/m 33,8 km/h (5 Bft) W-SW 247 0 min 0,000 mm 0,0 UV-I 0 W/m 1,1 C -4,7 C 48,3 km/h (6 Bft) 100,00 %
03.01.2018 23:59 6,8 C 3,9 C 67 % 1004,1 hPa 0,0 l/m 37,0 km/h (5 Bft) W-SW 247 0 min 0,000 mm 0,0 UV-I 0 W/m 1,1 C -5,3 C 51,5 km/h (7 Bft) 100,00 %
_ Min-Zeit 03:24 00:00 22:18 11:18 - 00:41 - - - - - - 03:14 15:14 00:55 14:33
Minimum _ -0,5 C 3,9 C 66 % 993,3 hPa - 0,0 km/h (0 Bft) - - - - - - -1,2 C -8,6 C 0,0 km/h (0 Bft) 17,39 %
_ Max-Zeit 22:07 00:00 12:11 00:00 09:46 15:39 - - 10:36 23:00 00:00 10:39 12:48 13:23 23:04 00:00
Maximum _ 6,9 C 3,9 C 97 % 1014,7 hPa 1,0 l/m 41,8 km/h
SW (6 Bft)
- - 1 min 0,102 mm 0,0 UV-I 220 W/m 5,7 C 5,5 C 69,2 km/h
W-SW (8 Bft)
100,00 %
Durchschnitt _ 3,2 C 3,9 C 87 % 1003,8 hPa #13,6 l/m 15,4 km/h (3 Bft) SW - #6 min. #0,684 mm 0,0 UV-I 29 W/m 1,2 C -2,0 C 22,2 km/h (4 Bft) 97,08 %